Wetterdaten: Montag, 15.05.2017
Datum Zeit Temp. A. Temp. A. max Feuchte A. Luftdruck Regen Wind Richtung Richtung Sonnenschein ET UV Solar Taupunkt Windchill Windböen
15.05.2017 00:00 9,7 °C 9,7 °C 95 % 1025,3 hPa 0,0 mm 4,1 km/h (1 Bft) S 189 ° 0 min 0,000 mm 0,0 UV-I 0 W/m² 8,9 °C 9,7 °C 6,4 km/h (2 Bft)
15.05.2017 00:01 9,7 °C 9,7 °C 95 % 1025,2 hPa 0,0 mm 1,0 km/h (0 Bft) S 189 ° 0 min 0,000 mm 0,0 UV-I 0 W/m² 8,9 °C 9,7 °C 1,6 km/h (1 Bft)
15.05.2017 00:03 9,7 °C 9,7 °C 94 % 1025,3 hPa 0,0 mm 2,4 km/h (1 Bft) S 189 ° 0 min 0,000 mm 0,0 UV-I 0 W/m² 8,8 °C 9,7 °C 6,4 km/h (2 Bft)
15.05.2017 00:04 9,7 °C 9,7 °C 94 % 1025,3 hPa 0,0 mm 1,2 km/h (1 Bft) S 189 ° 0 min 0,000 mm 0,0 UV-I 0 W/m² 8,8 °C 9,7 °C 3,2 km/h (1 Bft)
15.05.2017 00:05 9,7 °C 9,7 °C 94 % 1025,3 hPa 0,0 mm 0,0 km/h (0 Bft) S 189 ° 0 min 0,000 mm 0,0 UV-I 0 W/m² 8,8 °C 9,7 °C 0,0 km/h (0 Bft)
15.05.2017 00:06 9,7 °C 9,7 °C 94 % 1025,3 hPa 0,0 mm 0,0 km/h (0 Bft) S 189 ° 0 min 0,000 mm 0,0 UV-I 0 W/m² 8,8 °C 9,7 °C 0,0 km/h (0 Bft)
15.05.2017 00:07 9,7 °C 9,7 °C 94 % 1025,3 hPa 0,0 mm 0,0 km/h (0 Bft) S 189 ° 0 min 0,000 mm 0,0 UV-I 0 W/m² 8,8 °C 9,7 °C 0,0 km/h (0 Bft)
15.05.2017 00:08 9,7 °C 9,7 °C 94 % 1025,3 hPa 0,0 mm 0,0 km/h (0 Bft) S 189 ° 0 min 0,000 mm 0,0 UV-I 0 W/m² 8,8 °C 9,7 °C 0,0 km/h (0 Bft)
15.05.2017 00:09 9,7 °C 9,7 °C 94 % 1025,3 hPa 0,0 mm 0,1 km/h (0 Bft) S 189 ° 0 min 0,000 mm 0,0 UV-I 0 W/m² 8,8 °C 9,7 °C 1,6 km/h (1 Bft)
15.05.2017 00:10 9,7 °C 9,7 °C 95 % 1025,3 hPa 0,0 mm 0,1 km/h (0 Bft) S 189 ° 0 min 0,000 mm 0,0 UV-I 0 W/m² 8,9 °C 9,7 °C 1,6 km/h (1 Bft)
15.05.2017 00:11 9,7 °C 9,7 °C 95 % 1025,3 hPa 0,0 mm 0,8 km/h (0 Bft) S 189 ° 0 min 0,000 mm 0,0 UV-I 0 W/m² 8,9 °C 9,7 °C 3,2 km/h (1 Bft)
15.05.2017 00:12 9,7 °C 9,7 °C 95 % 1025,3 hPa 0,0 mm 0,5 km/h (0 Bft) S 189 ° 0 min 0,000 mm 0,0 UV-I 0 W/m² 8,9 °C 9,7 °C 1,6 km/h (1 Bft)
15.05.2017 00:13 9,7 °C 9,7 °C 95 % 1025,3 hPa 0,0 mm 2,5 km/h (1 Bft) S 189 ° 0 min 0,000 mm 0,0 UV-I 0 W/m² 8,9 °C 9,7 °C 3,2 km/h (1 Bft)
15.05.2017 00:14 9,7 °C 9,7 °C 95 % 1025,3 hPa 0,0 mm 0,3 km/h (0 Bft) S 189 ° 0 min 0,000 mm 0,0 UV-I 0 W/m² 8,9 °C 9,7 °C 1,6 km/h (1 Bft)
15.05.2017 00:15 9,6 °C 9,7 °C 95 % 1025,4 hPa 0,0 mm 0,5 km/h (0 Bft) S 189 ° 0 min 0,000 mm 0,0 UV-I 0 W/m² 8,8 °C 9,6 °C 1,6 km/h (1 Bft)
15.05.2017 00:16 9,6 °C 9,7 °C 95 % 1025,3 hPa 0,0 mm 0,0 km/h (0 Bft) S 189 ° 0 min 0,000 mm 0,0 UV-I 0 W/m² 8,8 °C 9,6 °C 0,0 km/h (0 Bft)
15.05.2017 00:17 9,6 °C 9,7 °C 95 % 1025,3 hPa 0,0 mm 0,0 km/h (0 Bft) S 189 ° 0 min 0,000 mm 0,0 UV-I 0 W/m² 8,8 °C 9,6 °C 0,0 km/h (0 Bft)
15.05.2017 00:18 9,7 °C 9,7 °C 95 % 1025,3 hPa 0,0 mm 0,0 km/h (0 Bft) S 189 ° 0 min 0,000 mm 0,0 UV-I 0 W/m² 8,9 °C 9,7 °C 0,0 km/h (0 Bft)
15.05.2017 00:19 9,6 °C 9,7 °C 94 % 1025,4 hPa 0,0 mm 0,0 km/h (0 Bft) S 189 ° 0 min 0,000 mm 0,0 UV-I 0 W/m² 8,7 °C 9,6 °C 0,0 km/h (0 Bft)
15.05.2017 00:20 9,6 °C 9,6 °C 94 % 1025,4 hPa 0,0 mm 0,0 km/h (0 Bft) S 189 ° 0 min 0,000 mm 0,0 UV-I 0 W/m² 8,7 °C 9,6 °C 0,0 km/h (0 Bft)
15.05.2017 00:21 9,6 °C 9,6 °C 94 % 1025,4 hPa 0,0 mm 0,0 km/h (0 Bft) S 189 ° 0 min 0,000 mm 0,0 UV-I 0 W/m² 8,7 °C 9,6 °C 0,0 km/h (0 Bft)
15.05.2017 00:22 9,6 °C 9,6 °C 94 % 1025,5 hPa 0,0 mm 0,0 km/h (0 Bft) S 189 ° 0 min 0,000 mm 0,0 UV-I 0 W/m² 8,7 °C 9,6 °C 0,0 km/h (0 Bft)
15.05.2017 00:23 9,5 °C 9,6 °C 94 % 1025,5 hPa 0,0 mm 0,0 km/h (0 Bft) S 189 ° 0 min 0,000 mm 0,0 UV-I 0 W/m² 8,6 °C 9,5 °C 0,0 km/h (0 Bft)
15.05.2017 00:24 9,5 °C 9,5 °C 94 % 1025,5 hPa 0,0 mm 0,0 km/h (0 Bft) S 189 ° 0 min 0,000 mm 0,0 UV-I 0 W/m² 8,6 °C 9,5 °C 0,0 km/h (0 Bft)
15.05.2017 00:25 9,5 °C 9,5 °C 94 % 1025,5 hPa 0,0 mm 0,0 km/h (0 Bft) S 189 ° 0 min 0,000 mm 0,0 UV-I 0 W/m² 8,6 °C 9,5 °C 0,0 km/h (0 Bft)
15.05.2017 00:26 9,5 °C 9,5 °C 94 % 1025,5 hPa 0,0 mm 0,0 km/h (0 Bft) S 189 ° 0 min 0,000 mm 0,0 UV-I 0 W/m² 8,6 °C 9,5 °C 0,0 km/h (0 Bft)
15.05.2017 00:27 9,4 °C 9,5 °C 94 % 1025,5 hPa 0,0 mm 0,6 km/h (0 Bft) S 189 ° 0 min 0,000 mm 0,0 UV-I 0 W/m² 8,5 °C 9,4 °C 1,6 km/h (1 Bft)
15.05.2017 00:28 9,5 °C 9,5 °C 94 % 1025,5 hPa 0,0 mm 3,4 km/h (1 Bft) S 189 ° 0 min 0,000 mm 0,0 UV-I 0 W/m² 8,6 °C 9,5 °C 4,8 km/h (1 Bft)
15.05.2017 00:29 9,5 °C 9,5 °C 94 % 1025,5 hPa 0,0 mm 2,9 km/h (1 Bft) S 189 ° 0 min 0,000 mm 0,0 UV-I 0 W/m² 8,6 °C 9,5 °C 4,8 km/h (1 Bft)
15.05.2017 00:30 9,5 °C 9,5 °C 94 % 1025,5 hPa 0,0 mm 2,6 km/h (1 Bft) S 189 ° 0 min 0,000 mm 0,0 UV-I 0 W/m² 8,6 °C 9,5 °C 4,8 km/h (1 Bft)
15.05.2017 00:31 9,5 °C 9,5 °C 94 % 1025,5 hPa 0,0 mm 2,1 km/h (1 Bft) S 189 ° 0 min 0,000 mm 0,0 UV-I 0 W/m² 8,6 °C 9,5 °C 4,8 km/h (1 Bft)
15.05.2017 00:32 9,5 °C 9,5 °C 94 % 1025,5 hPa 0,0 mm 0,0 km/h (0 Bft) S 189 ° 0 min 0,000 mm 0,0 UV-I 0 W/m² 8,6 °C 9,5 °C 0,0 km/h (0 Bft)
15.05.2017 00:33 9,4 °C 9,5 °C 94 % 1025,5 hPa 0,0 mm 0,0 km/h (0 Bft) S 189 ° 0 min 0,000 mm 0,0 UV-I 0 W/m² 8,5 °C 9,4 °C 0,0 km/h (0 Bft)
15.05.2017 00:34 9,4 °C 9,4 °C 94 % 1025,5 hPa 0,0 mm 0,3 km/h (0 Bft) S 189 ° 0 min 0,000 mm 0,0 UV-I 0 W/m² 8,5 °C 9,4 °C 3,2 km/h (1 Bft)
15.05.2017 00:35 9,4 °C 9,4 °C 94 % 1025,5 hPa 0,0 mm 0,5 km/h (0 Bft) S 189 ° 0 min 0,000 mm 0,0 UV-I 0 W/m² 8,5 °C 9,4 °C 3,2 km/h (1 Bft)
15.05.2017 00:36 9,4 °C 9,4 °C 94 % 1025,5 hPa 0,0 mm 0,0 km/h (0 Bft) S 189 ° 0 min 0,000 mm 0,0 UV-I 0 W/m² 8,5 °C 9,4 °C 0,0 km/h (0 Bft)
15.05.2017 00:37 9,4 °C 9,4 °C 94 % 1025,5 hPa 0,0 mm 0,0 km/h (0 Bft) S 189 ° 0 min 0,000 mm 0,0 UV-I 0 W/m² 8,5 °C 9,4 °C 0,0 km/h (0 Bft)
15.05.2017 00:38 9,4 °C 9,4 °C 94 % 1025,5 hPa 0,0 mm 0,0 km/h (0 Bft) S 189 ° 0 min 0,000 mm 0,0 UV-I 0 W/m² 8,5 °C 9,4 °C 0,0 km/h (0 Bft)
15.05.2017 00:39 9,4 °C 9,4 °C 94 % 1025,5 hPa 0,0 mm 0,0 km/h (0 Bft) S 189 ° 0 min 0,000 mm 0,0 UV-I 0 W/m² 8,5 °C 9,4 °C 0,0 km/h (0 Bft)
15.05.2017 00:40 9,4 °C 9,4 °C 94 % 1025,5 hPa 0,0 mm 2,0 km/h (1 Bft) S 189 ° 0 min 0,000 mm 0,0 UV-I 0 W/m² 8,5 °C 9,4 °C 3,2 km/h (1 Bft)
15.05.2017 00:41 9,4 °C 9,4 °C 94 % 1025,5 hPa 0,0 mm 3,4 km/h (1 Bft) S 189 ° 0 min 0,000 mm 0,0 UV-I 0 W/m² 8,5 °C 9,4 °C 4,8 km/h (1 Bft)
15.05.2017 00:42 9,4 °C 9,4 °C 94 % 1025,5 hPa 0,0 mm 4,3 km/h (1 Bft) S-SW 199 ° 0 min 0,000 mm 0,0 UV-I 0 W/m² 8,5 °C 9,4 °C 6,4 km/h (2 Bft)
15.05.2017 00:43 9,4 °C 9,4 °C 94 % 1025,5 hPa 0,0 mm 2,6 km/h (1 Bft) S-SW 199 ° 0 min 0,000 mm 0,0 UV-I 0 W/m² 8,5 °C 9,4 °C 4,8 km/h (1 Bft)
15.05.2017 00:44 9,4 °C 9,4 °C 94 % 1025,5 hPa 0,0 mm 1,3 km/h (1 Bft) S-SW 199 ° 0 min 0,000 mm 0,0 UV-I 0 W/m² 8,5 °C 9,4 °C 3,2 km/h (1 Bft)
15.05.2017 00:45 9,4 °C 9,4 °C 94 % 1025,5 hPa 0,0 mm 0,5 km/h (0 Bft) S-SW 199 ° 0 min 0,000 mm 0,0 UV-I 0 W/m² 8,5 °C 9,4 °C 1,6 km/h (1 Bft)
15.05.2017 00:46 9,4 °C 9,4 °C 94 % 1025,5 hPa 0,0 mm 0,0 km/h (0 Bft) S-SW 199 ° 0 min 0,000 mm 0,0 UV-I 0 W/m² 8,5 °C 9,4 °C 0,0 km/h (0 Bft)
15.05.2017 00:47 9,4 °C 9,4 °C 94 % 1025,5 hPa 0,0 mm 0,0 km/h (0 Bft) S-SW 199 ° 0 min 0,000 mm 0,0 UV-I 0 W/m² 8,5 °C 9,4 °C 0,0 km/h (0 Bft)
15.05.2017 00:48 9,4 °C 9,4 °C 94 % 1025,5 hPa 0,0 mm 0,0 km/h (0 Bft) S-SW 199 ° 0 min 0,000 mm 0,0 UV-I 0 W/m² 8,5 °C 9,4 °C 0,0 km/h (0 Bft)
15.05.2017 00:49 9,4 °C 9,4 °C 94 % 1025,5 hPa 0,0 mm 0,0 km/h (0 Bft) S-SW 199 ° 0 min 0,000 mm 0,0 UV-I 0 W/m² 8,5 °C 9,4 °C 0,0 km/h (0 Bft)
15.05.2017 00:50 9,4 °C 9,4 °C 94 % 1025,5 hPa 0,0 mm 0,0 km/h (0 Bft) S-SW 199 ° 0 min 0,000 mm 0,0 UV-I 0 W/m² 8,5 °C 9,4 °C 0,0 km/h (0 Bft)
15.05.2017 00:51 9,4 °C 9,5 °C 95 % 1025,6 hPa 0,0 mm 0,6 km/h (0 Bft) S-SW 199 ° 0 min 0,000 mm 0,0 UV-I 0 W/m² 8,6 °C 9,4 °C 1,6 km/h (1 Bft)
15.05.2017 00:52 9,5 °C 9,5 °C 95 % 1025,6 hPa 0,0 mm 1,3 km/h (1 Bft) S-SW 199 ° 0 min 0,000 mm 0,0 UV-I 0 W/m² 8,7 °C 9,5 °C 3,2 km/h (1 Bft)
15.05.2017 00:53 9,6 °C 9,6 °C 95 % 1025,6 hPa 0,0 mm 1,0 km/h (0 Bft) S-SW 199 ° 0 min 0,000 mm 0,0 UV-I 0 W/m² 8,8 °C 9,6 °C 1,6 km/h (1 Bft)
15.05.2017 00:54 9,6 °C 9,6 °C 94 % 1025,6 hPa 0,0 mm 0,1 km/h (0 Bft) S-SW 199 ° 0 min 0,000 mm 0,0 UV-I 0 W/m² 8,7 °C 9,6 °C 1,6 km/h (1 Bft)
15.05.2017 00:55 9,6 °C 9,6 °C 94 % 1025,6 hPa 0,0 mm 0,9 km/h (0 Bft) S-SW 199 ° 0 min 0,000 mm 0,0 UV-I 0 W/m² 8,7 °C 9,6 °C 3,2 km/h (1 Bft)
15.05.2017 00:56 9,6 °C 9,6 °C 95 % 1025,5 hPa 0,0 mm 1,2 km/h (1 Bft) S-SW 199 ° 0 min 0,000 mm 0,0 UV-I 0 W/m² 8,8 °C 9,6 °C 3,2 km/h (1 Bft)
15.05.2017 00:57 9,6 °C 9,6 °C 94 % 1025,5 hPa 0,0 mm 0,0 km/h (0 Bft) S-SW 199 ° 0 min 0,000 mm 0,0 UV-I 0 W/m² 8,7 °C 9,6 °C 0,0 km/h (0 Bft)
15.05.2017 00:58 9,6 °C 9,6 °C 94 % 1025,6 hPa 0,0 mm 0,0 km/h (0 Bft) S-SW 199 ° 0 min 0,000 mm 0,0 UV-I 0 W/m² 8,7 °C 9,6 °C 0,0 km/h (0 Bft)
15.05.2017 00:59 9,6 °C 9,6 °C 94 % 1025,6 hPa 0,0 mm 0,0 km/h (0 Bft) S-SW 199 ° 0 min 0,000 mm 0,0 UV-I 0 W/m² 8,7 °C 9,6 °C 0,0 km/h (0 Bft)
15.05.2017 01:00 9,6 °C 9,6 °C 94 % 1025,5 hPa 0,0 mm 0,0 km/h (0 Bft) S-SW 199 ° 0 min 0,000 mm 0,0 UV-I 0 W/m² 8,7 °C 9,6 °C 0,0 km/h (0 Bft)
15.05.2017 01:01 9,6 °C 9,6 °C 95 % 1025,5 hPa 0,0 mm 0,0 km/h (0 Bft) S-SW 199 ° 0 min 0,000 mm 0,0 UV-I 0 W/m² 8,8 °C 9,6 °C 0,0 km/h (0 Bft)
15.05.2017 01:02 9,6 °C 9,6 °C 94 % 1025,5 hPa 0,0 mm 0,0 km/h (0 Bft) S-SW 199 ° 0 min 0,000 mm 0,0 UV-I 0 W/m² 8,7 °C 9,6 °C 0,0 km/h (0 Bft)
15.05.2017 01:03 9,5 °C 9,6 °C 95 % 1025,5 hPa 0,0 mm 0,0 km/h (0 Bft) S-SW 199 ° 0 min 0,000 mm 0,0 UV-I 0 W/m² 8,7 °C 9,5 °C 0,0 km/h (0 Bft)
15.05.2017 01:04 9,5 °C 9,6 °C 94 % 1025,5 hPa 0,0 mm 0,0 km/h (0 Bft) S-SW 199 ° 0 min 0,000 mm 0,0 UV-I 0 W/m² 8,6 °C 9,5 °C 0,0 km/h (0 Bft)
15.05.2017 01:05 9,4 °C 9,5 °C 94 % 1025,5 hPa 0,0 mm 0,0 km/h (0 Bft) S-SW 199 ° 0 min 0,000 mm 0,0 UV-I 0 W/m² 8,5 °C 9,4 °C 0,0 km/h (0 Bft)
15.05.2017 01:06 9,4 °C 9,5 °C 94 % 1025,5 hPa 0,0 mm 0,0 km/h (0 Bft) S-SW 199 ° 0 min 0,000 mm 0,0 UV-I 0 W/m² 8,5 °C 9,4 °C 0,0 km/h (0 Bft)
15.05.2017 01:07 9,5 °C 9,5 °C 94 % 1025,6 hPa 0,0 mm 0,0 km/h (0 Bft) S-SW 199 ° 0 min 0,000 mm 0,0 UV-I 0 W/m² 8,6 °C 9,5 °C 0,0 km/h (0 Bft)
15.05.2017 01:08 9,5 °C 9,5 °C 95 % 1025,6 hPa 0,0 mm 0,0 km/h (0 Bft) S-SW 199 ° 0 min 0,000 mm 0,0 UV-I 0 W/m² 8,7 °C 9,5 °C 0,0 km/h (0 Bft)
15.05.2017 01:09 9,4 °C 9,5 °C 95 % 1025,6 hPa 0,0 mm 0,0 km/h (0 Bft) S-SW 199 ° 0 min 0,000 mm 0,0 UV-I 0 W/m² 8,6 °C 9,4 °C 0,0 km/h (0 Bft)
15.05.2017 01:10 9,4 °C 9,4 °C 95 % 1025,5 hPa 0,0 mm 0,0 km/h (0 Bft) S-SW 199 ° 0 min 0,000 mm 0,0 UV-I 0 W/m² 8,6 °C 9,4 °C 0,0 km/h (0 Bft)
15.05.2017 01:11 9,4 °C 9,4 °C 95 % 1025,6 hPa 0,0 mm 0,0 km/h (0 Bft) S-SW 199 ° 0 min 0,000 mm 0,0 UV-I 0 W/m² 8,6 °C 9,4 °C 0,0 km/h (0 Bft)
15.05.2017 01:12 9,4 °C 9,4 °C 95 % 1025,6 hPa 0,0 mm 0,0 km/h (0 Bft) S-SW 199 ° 0 min 0,000 mm 0,0 UV-I 0 W/m² 8,6 °C 9,4 °C 0,0 km/h (0 Bft)
15.05.2017 01:13 9,4 °C 9,4 °C 95 % 1025,5 hPa 0,0 mm 0,0 km/h (0 Bft) S-SW 199 ° 0 min 0,000 mm 0,0 UV-I 0 W/m² 8,6 °C 9,4 °C 0,0 km/h (0 Bft)
15.05.2017 01:14 9,4 °C 9,4 °C 95 % 1025,6 hPa 0,0 mm 0,0 km/h (0 Bft) S-SW 199 ° 0 min 0,000 mm 0,0 UV-I 0 W/m² 8,6 °C 9,4 °C 0,0 km/h (0 Bft)
15.05.2017 01:15 9,4 °C 9,4 °C 95 % 1025,6 hPa 0,0 mm 0,0 km/h (0 Bft) S-SW 199 ° 0 min 0,000 mm 0,0 UV-I 0 W/m² 8,6 °C 9,4 °C 0,0 km/h (0 Bft)
15.05.2017 01:16 9,4 °C 9,4 °C 95 % 1025,6 hPa 0,0 mm 0,0 km/h (0 Bft) S-SW 199 ° 0 min 0,000 mm 0,0 UV-I 0 W/m² 8,6 °C 9,4 °C 0,0 km/h (0 Bft)
15.05.2017 01:17 9,4 °C 9,4 °C 95 % 1025,6 hPa 0,0 mm 0,0 km/h (0 Bft) S-SW 199 ° 0 min 0,000 mm 0,0 UV-I 0 W/m² 8,6 °C 9,4 °C 0,0 km/h (0 Bft)
15.05.2017 01:18 9,4 °C 9,4 °C 95 % 1025,6 hPa 0,0 mm 0,0 km/h (0 Bft) S-SW 199 ° 0 min 0,000 mm 0,0 UV-I 0 W/m² 8,6 °C 9,4 °C 0,0 km/h (0 Bft)
15.05.2017 01:19 9,4 °C 9,4 °C 95 % 1025,7 hPa 0,0 mm 0,0 km/h (0 Bft) S-SW 199 ° 0 min 0,000 mm 0,0 UV-I 0 W/m² 8,6 °C 9,4 °C 0,0 km/h (0 Bft)
15.05.2017 01:20 9,4 °C 9,4 °C 95 % 1025,7 hPa 0,0 mm 0,0 km/h (0 Bft) S-SW 199 ° 0 min 0,000 mm 0,0 UV-I 0 W/m² 8,6 °C 9,4 °C 0,0 km/h (0 Bft)
15.05.2017 01:21 9,4 °C 9,4 °C 95 % 1025,7 hPa 0,0 mm 0,0 km/h (0 Bft) S-SW 199 ° 0 min 0,000 mm 0,0 UV-I 0 W/m² 8,6 °C 9,4 °C 0,0 km/h (0 Bft)
15.05.2017 01:22 9,4 °C 9,4 °C 95 % 1025,6 hPa 0,0 mm 0,0 km/h (0 Bft) S-SW 199 ° 0 min 0,000 mm 0,0 UV-I 0 W/m² 8,6 °C 9,4 °C 0,0 km/h (0 Bft)
15.05.2017 01:23 9,4 °C 9,4 °C 95 % 1025,6 hPa 0,0 mm 0,0 km/h (0 Bft) S-SW 199 ° 0 min 0,000 mm 0,0 UV-I 0 W/m² 8,6 °C 9,4 °C 0,0 km/h (0 Bft)
15.05.2017 01:24 9,4 °C 9,4 °C 95 % 1025,7 hPa 0,0 mm 0,0 km/h (0 Bft) S-SW 199 ° 0 min 0,000 mm 0,0 UV-I 0 W/m² 8,6 °C 9,4 °C 0,0 km/h (0 Bft)
15.05.2017 01:25 9,4 °C 9,4 °C 95 % 1025,7 hPa 0,0 mm 0,0 km/h (0 Bft) S-SW 199 ° 0 min 0,000 mm 0,0 UV-I 0 W/m² 8,6 °C 9,4 °C 0,0 km/h (0 Bft)
15.05.2017 01:26 9,4 °C 9,4 °C 95 % 1025,7 hPa 0,0 mm 0,0 km/h (0 Bft) S-SW 199 ° 0 min 0,000 mm 0,0 UV-I 0 W/m² 8,6 °C 9,4 °C 0,0 km/h (0 Bft)
15.05.2017 01:27 9,4 °C 9,4 °C 95 % 1025,7 hPa 0,0 mm 0,0 km/h (0 Bft) S-SW 199 ° 0 min 0,000 mm 0,0 UV-I 0 W/m² 8,6 °C 9,4 °C 0,0 km/h (0 Bft)
15.05.2017 01:28 9,4 °C 9,4 °C 95 % 1025,7 hPa 0,0 mm 1,7 km/h (1 Bft) S-SW 199 ° 0 min 0,000 mm 0,0 UV-I 0 W/m² 8,6 °C 9,4 °C 3,2 km/h (1 Bft)
15.05.2017 01:29 9,4 °C 9,4 °C 95 % 1025,7 hPa 0,0 mm 1,0 km/h (0 Bft) S-SW 199 ° 0 min 0,000 mm 0,0 UV-I 0 W/m² 8,6 °C 9,4 °C 1,6 km/h (1 Bft)
15.05.2017 01:30 9,5 °C 9,5 °C 95 % 1025,7 hPa 0,0 mm 1,0 km/h (0 Bft) S-SW 199 ° 0 min 0,000 mm 0,0 UV-I 0 W/m² 8,7 °C 9,5 °C 4,8 km/h (1 Bft)
15.05.2017 01:31 9,5 °C 9,5 °C 95 % 1025,6 hPa 0,0 mm 1,6 km/h (1 Bft) S-SW 199 ° 0 min 0,000 mm 0,0 UV-I 0 W/m² 8,7 °C 9,5 °C 3,2 km/h (1 Bft)
15.05.2017 01:32 9,6 °C 9,6 °C 95 % 1025,6 hPa 0,0 mm 2,7 km/h (1 Bft) S-SW 200 ° 0 min 0,000 mm 0,0 UV-I 0 W/m² 8,8 °C 9,6 °C 6,4 km/h (2 Bft)
15.05.2017 01:33 9,6 °C 9,6 °C 95 % 1025,7 hPa 0,0 mm 0,1 km/h (0 Bft) S-SW 200 ° 0 min 0,000 mm 0,0 UV-I 0 W/m² 8,8 °C 9,6 °C 1,6 km/h (1 Bft)
15.05.2017 01:34 9,6 °C 9,6 °C 95 % 1025,6 hPa 0,0 mm 0,0 km/h (0 Bft) S-SW 200 ° 0 min 0,000 mm 0,0 UV-I 0 W/m² 8,8 °C 9,6 °C 0,0 km/h (0 Bft)
15.05.2017 01:35 9,5 °C 9,6 °C 95 % 1025,6 hPa 0,0 mm 0,0 km/h (0 Bft) S-SW 200 ° 0 min 0,000 mm 0,0 UV-I 0 W/m² 8,7 °C 9,5 °C 0,0 km/h (0 Bft)
15.05.2017 01:36 9,5 °C 9,6 °C 95 % 1025,6 hPa 0,0 mm 0,0 km/h (0 Bft) S-SW 200 ° 0 min 0,000 mm 0,0 UV-I 0 W/m² 8,7 °C 9,5 °C 0,0 km/h (0 Bft)
15.05.2017 01:37 9,6 °C 9,6 °C 95 % 1025,6 hPa 0,0 mm 0,0 km/h (0 Bft) S-SW 200 ° 0 min 0,000 mm 0,0 UV-I 0 W/m² 8,8 °C 9,6 °C 0,0 km/h (0 Bft)
15.05.2017 01:38 9,5 °C 9,6 °C 95 % 1025,6 hPa 0,0 mm 0,0 km/h (0 Bft) S-SW 200 ° 0 min 0,000 mm 0,0 UV-I 0 W/m² 8,7 °C 9,5 °C 0,0 km/h (0 Bft)
15.05.2017 01:39 9,5 °C 9,5 °C 95 % 1025,6 hPa 0,0 mm 0,0 km/h (0 Bft) S-SW 200 ° 0 min 0,000 mm 0,0 UV-I 0 W/m² 8,7 °C 9,5 °C 0,0 km/h (0 Bft)
15.05.2017 01:40 9,5 °C 9,5 °C 95 % 1025,6 hPa 0,0 mm 0,0 km/h (0 Bft) S-SW 200 ° 0 min 0,000 mm 0,0 UV-I 0 W/m² 8,7 °C 9,5 °C 0,0 km/h (0 Bft)
15.05.2017 01:41 9,5 °C 9,5 °C 95 % 1025,6 hPa 0,0 mm 0,0 km/h (0 Bft) S-SW 200 ° 0 min 0,000 mm 0,0 UV-I 0 W/m² 8,7 °C 9,5 °C 0,0 km/h (0 Bft)
15.05.2017 01:42 9,5 °C 9,5 °C 95 % 1025,6 hPa 0,0 mm 0,0 km/h (0 Bft) S-SW 200 ° 0 min 0,000 mm 0,0 UV-I 0 W/m² 8,7 °C 9,5 °C 0,0 km/h (0 Bft)
15.05.2017 01:43 9,5 °C 9,6 °C 95 % 1025,7 hPa 0,0 mm 0,0 km/h (0 Bft) S-SW 200 ° 0 min 0,000 mm 0,0 UV-I 0 W/m² 8,7 °C 9,5 °C 0,0 km/h (0 Bft)
15.05.2017 01:44 9,5 °C 9,6 °C 95 % 1025,6 hPa 0,0 mm 0,7 km/h (0 Bft) S-SW 200 ° 0 min 0,000 mm 0,0 UV-I 0 W/m² 8,7 °C 9,5 °C 1,6 km/h (1 Bft)
15.05.2017 01:45 9,5 °C 9,6 °C 95 % 1025,6 hPa 0,0 mm 1,8 km/h (1 Bft) S-SW 200 ° 0 min 0,000 mm 0,0 UV-I 0 W/m² 8,7 °C 9,5 °C 3,2 km/h (1 Bft)
15.05.2017 01:46 9,6 °C 9,6 °C 95 % 1025,7 hPa 0,0 mm 0,1 km/h (0 Bft) S-SW 200 ° 0 min 0,000 mm 0,0 UV-I 0 W/m² 8,8 °C 9,6 °C 1,6 km/h (1 Bft)
15.05.2017 01:47 9,6 °C 9,6 °C 95 % 1025,6 hPa 0,0 mm 0,4 km/h (0 Bft) S-SW 200 ° 0 min 0,000 mm 0,0 UV-I 0 W/m² 8,8 °C 9,6 °C 1,6 km/h (1 Bft)
15.05.2017 01:48 9,6 °C 9,6 °C 95 % 1025,6 hPa 0,0 mm 0,3 km/h (0 Bft) S-SW 200 ° 0 min 0,000 mm 0,0 UV-I 0 W/m² 8,8 °C 9,6 °C 1,6 km/h (1 Bft)
15.05.2017 01:49 9,6 °C 9,6 °C 95 % 1025,6 hPa 0,0 mm 0,0 km/h (0 Bft) S-SW 200 ° 0 min 0,000 mm 0,0 UV-I 0 W/m² 8,8 °C 9,6 °C 0,0 km/h (0 Bft)
15.05.2017 01:50 9,5 °C 9,6 °C 95 % 1025,6 hPa 0,0 mm 0,0 km/h (0 Bft) S-SW 200 ° 0 min 0,000 mm 0,0 UV-I 0 W/m² 8,7 °C 9,5 °C 0,0 km/h (0 Bft)
15.05.2017 01:51 9,6 °C 9,6 °C 95 % 1025,6 hPa 0,0 mm 0,0 km/h (0 Bft) S-SW 200 ° 0 min 0,000 mm 0,0 UV-I 0 W/m² 8,8 °C 9,6 °C 0,0 km/h (0 Bft)
15.05.2017 01:52 9,5 °C 9,6 °C 95 % 1025,7 hPa 0,0 mm 0,0 km/h (0 Bft) S-SW 200 ° 0 min 0,000 mm 0,0 UV-I 0 W/m² 8,7 °C 9,5 °C 0,0 km/h (0 Bft)
15.05.2017 01:53 9,5 °C 9,6 °C 95 % 1025,7 hPa 0,0 mm 0,3 km/h (0 Bft) S-SW 200 ° 0 min 0,000 mm 0,0 UV-I 0 W/m² 8,7 °C 9,5 °C 1,6 km/h (1 Bft)
15.05.2017 01:54 9,5 °C 9,5 °C 95 % 1025,6 hPa 0,0 mm 0,1 km/h (0 Bft) S-SW 200 ° 0 min 0,000 mm 0,0 UV-I 0 W/m² 8,7 °C 9,5 °C 1,6 km/h (1 Bft)
15.05.2017 01:55 9,5 °C 9,5 °C 95 % 1025,7 hPa 0,0 mm 0,0 km/h (0 Bft) S-SW 200 ° 0 min 0,000 mm 0,0 UV-I 0 W/m² 8,7 °C 9,5 °C 0,0 km/h (0 Bft)
15.05.2017 01:56 9,5 °C 9,5 °C 95 % 1025,7 hPa 0,0 mm 0,0 km/h (0 Bft) S-SW 200 ° 0 min 0,000 mm 0,0 UV-I 0 W/m² 8,7 °C 9,5 °C 0,0 km/h (0 Bft)
15.05.2017 01:57 9,5 °C 9,5 °C 95 % 1025,7 hPa 0,0 mm 0,0 km/h (0 Bft) S-SW 200 ° 0 min 0,000 mm 0,0 UV-I 0 W/m² 8,7 °C 9,5 °C 0,0 km/h (0 Bft)
15.05.2017 01:58 9,5 °C 9,5 °C 95 % 1025,7 hPa 0,0 mm 0,0 km/h (0 Bft) S-SW 200 ° 0 min 0,000 mm 0,0 UV-I 0 W/m² 8,7 °C 9,5 °C 0,0 km/h (0 Bft)
15.05.2017 01:59 9,4 °C 9,5 °C 95 % 1025,7 hPa 0,0 mm 0,0 km/h (0 Bft) S-SW 200 ° 0 min 0,000 mm 0,0 UV-I 0 W/m² 8,6 °C 9,4 °C 0,0 km/h (0 Bft)
15.05.2017 02:00 9,4 °C 9,5 °C 95 % 1025,8 hPa 0,0 mm 0,0 km/h (0 Bft) S-SW 200 ° 0 min 0,000 mm 0,0 UV-I 0 W/m² 8,6 °C 9,4 °C 0,0 km/h (0 Bft)
15.05.2017 02:01 9,4 °C 9,5 °C 95 % 1025,7 hPa 0,0 mm 0,0 km/h (0 Bft) S-SW 200 ° 0 min 0,000 mm 0,0 UV-I 0 W/m² 8,6 °C 9,4 °C 0,0 km/h (0 Bft)
15.05.2017 02:02 9,5 °C 9,5 °C 95 % 1025,7 hPa 0,0 mm 0,0 km/h (0 Bft) S-SW 200 ° 0 min 0,000 mm 0,0 UV-I 0 W/m² 8,7 °C 9,5 °C 0,0 km/h (0 Bft)
15.05.2017 02:03 9,4 °C 9,5 °C 95 % 1025,6 hPa 0,0 mm 0,0 km/h (0 Bft) S-SW 200 ° 0 min 0,000 mm 0,0 UV-I 0 W/m² 8,6 °C 9,4 °C 0,0 km/h (0 Bft)
15.05.2017 02:04 9,5 °C 9,6 °C 95 % 1025,7 hPa 0,0 mm 0,0 km/h (0 Bft) S-SW 200 ° 0 min 0,000 mm 0,0 UV-I 0 W/m² 8,7 °C 9,5 °C 0,0 km/h (0 Bft)
15.05.2017 02:05 9,5 °C 9,6 °C 95 % 1025,7 hPa 0,0 mm 0,0 km/h (0 Bft) S-SW 200 ° 0 min 0,000 mm 0,0 UV-I 0 W/m² 8,7 °C 9,5 °C 0,0 km/h (0 Bft)
15.05.2017 02:06 9,6 °C 9,6 °C 95 % 1025,7 hPa 0,0 mm 0,2 km/h (0 Bft) S-SW 200 ° 0 min 0,000 mm 0,0 UV-I 0 W/m² 8,8 °C 9,6 °C 1,6 km/h (1 Bft)
15.05.2017 02:07 9,6 °C 9,6 °C 95 % 1025,7 hPa 0,0 mm 0,0 km/h (0 Bft) S-SW 200 ° 0 min 0,000 mm 0,0 UV-I 0 W/m² 8,8 °C 9,6 °C 0,0 km/h (0 Bft)
15.05.2017 02:08 9,6 °C 9,6 °C 95 % 1025,8 hPa 0,0 mm 0,0 km/h (0 Bft) S-SW 200 ° 0 min 0,000 mm 0,0 UV-I 0 W/m² 8,8 °C 9,6 °C 0,0 km/h (0 Bft)
15.05.2017 02:09 9,7 °C 9,7 °C 95 % 1025,8 hPa 0,0 mm 0,0 km/h (0 Bft) S-SW 200 ° 0 min 0,000 mm 0,0 UV-I 0 W/m² 8,9 °C 9,7 °C 0,0 km/h (0 Bft)
15.05.2017 02:10 9,7 °C 9,7 °C 95 % 1025,8 hPa 0,0 mm 0,0 km/h (0 Bft) S-SW 200 ° 0 min 0,000 mm 0,0 UV-I 0 W/m² 8,9 °C 9,7 °C 0,0 km/h (0 Bft)
15.05.2017 02:11 9,7 °C 9,7 °C 95 % 1025,8 hPa 0,0 mm 0,0 km/h (0 Bft) S-SW 200 ° 0 min 0,000 mm 0,0 UV-I 0 W/m² 8,9 °C 9,7 °C 0,0 km/h (0 Bft)
15.05.2017 02:12 9,7 °C 9,7 °C 95 % 1025,8 hPa 0,0 mm 0,0 km/h (0 Bft) S-SW 200 ° 0 min 0,000 mm 0,0 UV-I 0 W/m² 8,9 °C 9,7 °C 0,0 km/h (0 Bft)
15.05.2017 02:13 9,7 °C 9,7 °C 95 % 1025,8 hPa 0,0 mm 0,0 km/h (0 Bft) S-SW 200 ° 0 min 0,000 mm 0,0 UV-I 0 W/m² 8,9 °C 9,7 °C 0,0 km/h (0 Bft)
15.05.2017 02:14 9,6 °C 9,7 °C 95 % 1025,8 hPa 0,0 mm 0,0 km/h (0 Bft) S-SW 200 ° 0 min 0,000 mm 0,0 UV-I 0 W/m² 8,8 °C 9,6 °C 0,0 km/h (0 Bft)
15.05.2017 02:15 9,6 °C 9,6 °C 95 % 1025,8 hPa 0,0 mm 0,0 km/h (0 Bft) S-SW 200 ° 0 min 0,000 mm 0,0 UV-I 0 W/m² 8,8 °C 9,6 °C 0,0 km/h (0 Bft)
15.05.2017 02:16 9,6 °C 9,6 °C 95 % 1025,8 hPa 0,0 mm 0,0 km/h (0 Bft) S-SW 200 ° 0 min 0,000 mm 0,0 UV-I 0 W/m² 8,8 °C 9,6 °C 0,0 km/h (0 Bft)
15.05.2017 02:17 9,6 °C 9,6 °C 95 % 1025,8 hPa 0,0 mm 0,0 km/h (0 Bft) S-SW 200 ° 0 min 0,000 mm 0,0 UV-I 0 W/m² 8,8 °C 9,6 °C 0,0 km/h (0 Bft)
15.05.2017 02:18 9,6 °C 9,6 °C 95 % 1025,7 hPa 0,0 mm 0,0 km/h (0 Bft) S-SW 200 ° 0 min 0,000 mm 0,0 UV-I 0 W/m² 8,8 °C 9,6 °C 0,0 km/h (0 Bft)
15.05.2017 02:19 9,6 °C 9,6 °C 95 % 1025,8 hPa 0,0 mm 0,0 km/h (0 Bft) S-SW 200 ° 0 min 0,000 mm 0,0 UV-I 0 W/m² 8,8 °C 9,6 °C 0,0 km/h (0 Bft)
15.05.2017 02:20 9,6 °C 9,6 °C 95 % 1025,8 hPa 0,0 mm 0,0 km/h (0 Bft) S-SW 200 ° 0 min 0,000 mm 0,0 UV-I 0 W/m² 8,8 °C 9,6 °C 0,0 km/h (0 Bft)
15.05.2017 02:21 9,6 °C 9,6 °C 95 % 1025,8 hPa 0,0 mm 0,0 km/h (0 Bft) S-SW 200 ° 0 min 0,000 mm 0,0 UV-I 0 W/m² 8,8 °C 9,6 °C 0,0 km/h (0 Bft)
15.05.2017 02:22 9,6 °C 9,6 °C 95 % 1025,8 hPa 0,0 mm 0,0 km/h (0 Bft) S-SW 200 ° 0 min 0,000 mm 0,0 UV-I 0 W/m² 8,8 °C 9,6 °C 0,0 km/h (0 Bft)
15.05.2017 02:23 9,7 °C 9,7 °C 95 % 1025,8 hPa 0,0 mm 0,0 km/h (0 Bft) S-SW 200 ° 0 min 0,000 mm 0,0 UV-I 0 W/m² 8,9 °C 9,7 °C 0,0 km/h (0 Bft)
15.05.2017 02:24 9,6 °C 9,7 °C 95 % 1025,8 hPa 0,0 mm 0,0 km/h (0 Bft) S-SW 200 ° 0 min 0,000 mm 0,0 UV-I 0 W/m² 8,8 °C 9,6 °C 0,0 km/h (0 Bft)
15.05.2017 02:25 9,7 °C 9,7 °C 95 % 1025,8 hPa 0,0 mm 0,0 km/h (0 Bft) S-SW 200 ° 0 min 0,000 mm 0,0 UV-I 0 W/m² 8,9 °C 9,7 °C 0,0 km/h (0 Bft)
15.05.2017 02:26 9,7 °C 9,7 °C 95 % 1025,8 hPa 0,0 mm 0,0 km/h (0 Bft) S-SW 200 ° 0 min 0,000 mm 0,0 UV-I 0 W/m² 8,9 °C 9,7 °C 0,0 km/h (0 Bft)
15.05.2017 02:27 9,7 °C 9,7 °C 95 % 1025,8 hPa 0,0 mm 0,0 km/h (0 Bft) S-SW 200 ° 0 min 0,000 mm 0,0 UV-I 0 W/m² 8,9 °C 9,7 °C 0,0 km/h (0 Bft)
15.05.2017 02:28 9,7 °C 9,7 °C 95 % 1025,7 hPa 0,0 mm 0,0 km/h (0 Bft) S-SW 200 ° 0 min 0,000 mm 0,0 UV-I 0 W/m² 8,9 °C 9,7 °C 0,0 km/h (0 Bft)
15.05.2017 02:29 9,7 °C 9,7 °C 95 % 1025,7 hPa 0,0 mm 0,0 km/h (0 Bft) S-SW 200 ° 0 min 0,000 mm 0,0 UV-I 0 W/m² 8,9 °C 9,7 °C 0,0 km/h (0 Bft)
15.05.2017 02:30 9,7 °C 9,7 °C 95 % 1025,7 hPa 0,0 mm 0,0 km/h (0 Bft) S-SW 200 ° 0 min 0,000 mm 0,0 UV-I 0 W/m² 8,9 °C 9,7 °C 0,0 km/h (0 Bft)
15.05.2017 02:31 9,7 °C 9,7 °C 95 % 1025,7 hPa 0,0 mm 0,0 km/h (0 Bft) S-SW 200 ° 0 min 0,000 mm 0,0 UV-I 0 W/m² 8,9 °C 9,7 °C 0,0 km/h (0 Bft)
15.05.2017 02:32 9,7 °C 9,7 °C 95 % 1025,7 hPa 0,0 mm 0,0 km/h (0 Bft) S-SW 200 ° 0 min 0,000 mm 0,0 UV-I 0 W/m² 8,9 °C 9,7 °C 0,0 km/h (0 Bft)
15.05.2017 02:33 9,7 °C 9,7 °C 95 % 1025,7 hPa 0,0 mm 0,0 km/h (0 Bft) S-SW 200 ° 0 min 0,000 mm 0,0 UV-I 0 W/m² 8,9 °C 9,7 °C 0,0 km/h (0 Bft)
15.05.2017 02:34 9,7 °C 9,7 °C 95 % 1025,8 hPa 0,0 mm 0,9 km/h (0 Bft) W-SW 258 ° 0 min 0,000 mm 0,0 UV-I 0 W/m² 8,9 °C 9,7 °C 4,8 km/h (1 Bft)
15.05.2017 02:35 9,7 °C 9,7 °C 95 % 1025,8 hPa 0,0 mm 2,3 km/h (1 Bft) W-SW 258 ° 0 min 0,000 mm 0,0 UV-I 0 W/m² 8,9 °C 9,7 °C 4,8 km/h (1 Bft)
15.05.2017 02:36 9,7 °C 9,7 °C 95 % 1025,7 hPa 0,0 mm 0,2 km/h (0 Bft) W-SW 258 ° 0 min 0,000 mm 0,0 UV-I 0 W/m² 8,9 °C 9,7 °C 1,6 km/h (1 Bft)
15.05.2017 02:37 9,7 °C 9,7 °C 95 % 1025,7 hPa 0,0 mm 0,0 km/h (0 Bft) W-SW 258 ° 0 min 0,000 mm 0,0 UV-I 0 W/m² 8,9 °C 9,7 °C 0,0 km/h (0 Bft)
15.05.2017 02:38 9,6 °C 9,7 °C 95 % 1025,7 hPa 0,0 mm 0,0 km/h (0 Bft) W-SW 258 ° 0 min 0,000 mm 0,0 UV-I 0 W/m² 8,8 °C 9,6 °C 0,0 km/h (0 Bft)
15.05.2017 02:39 9,6 °C 9,6 °C 95 % 1025,8 hPa 0,0 mm 0,0 km/h (0 Bft) W-SW 258 ° 0 min 0,000 mm 0,0 UV-I 0 W/m² 8,8 °C 9,6 °C 0,0 km/h (0 Bft)
15.05.2017 02:40 9,6 °C 9,6 °C 95 % 1025,7 hPa 0,0 mm 0,0 km/h (0 Bft) W-SW 258 ° 0 min 0,000 mm 0,0 UV-I 0 W/m² 8,8 °C 9,6 °C 0,0 km/h (0 Bft)
15.05.2017 02:41 9,6 °C 9,6 °C 95 % 1025,7 hPa 0,0 mm 0,0 km/h (0 Bft) W-SW 258 ° 0 min 0,000 mm 0,0 UV-I 0 W/m² 8,8 °C 9,6 °C 0,0 km/h (0 Bft)
15.05.2017 02:42 9,6 °C 9,6 °C 95 % 1025,8 hPa 0,0 mm 0,0 km/h (0 Bft) W-SW 258 ° 0 min 0,000 mm 0,0 UV-I 0 W/m² 8,8 °C 9,6 °C 0,0 km/h (0 Bft)
15.05.2017 02:43 9,6 °C 9,6 °C 95 % 1025,7 hPa 0,0 mm 0,0 km/h (0 Bft) W-SW 258 ° 0 min 0,000 mm 0,0 UV-I 0 W/m² 8,8 °C 9,6 °C 0,0 km/h (0 Bft)
15.05.2017 02:44 9,6 °C 9,6 °C 95 % 1025,8 hPa 0,0 mm 0,0 km/h (0 Bft) W-SW 258 ° 0 min 0,000 mm 0,0 UV-I 0 W/m² 8,8 °C 9,6 °C 0,0 km/h (0 Bft)
15.05.2017 02:45 9,6 °C 9,6 °C 95 % 1025,7 hPa 0,0 mm 0,0 km/h (0 Bft) W-SW 258 ° 0 min 0,000 mm 0,0 UV-I 0 W/m² 8,8 °C 9,6 °C 0,0 km/h (0 Bft)
15.05.2017 02:46 9,6 °C 9,6 °C 95 % 1025,7 hPa 0,0 mm 0,0 km/h (0 Bft) W-SW 258 ° 0 min 0,000 mm 0,0 UV-I 0 W/m² 8,8 °C 9,6 °C 0,0 km/h (0 Bft)
15.05.2017 02:47 9,6 °C 9,6 °C 95 % 1025,8 hPa 0,0 mm 0,0 km/h (0 Bft) W-SW 258 ° 0 min 0,000 mm 0,0 UV-I 0 W/m² 8,8 °C 9,6 °C 0,0 km/h (0 Bft)
15.05.2017 02:48 9,6 °C 9,6 °C 95 % 1025,7 hPa 0,0 mm 0,0 km/h (0 Bft) W-SW 258 ° 0 min 0,000 mm 0,0 UV-I 0 W/m² 8,8 °C 9,6 °C 0,0 km/h (0 Bft)
15.05.2017 02:49 9,6 °C 9,6 °C 95 % 1025,8 hPa 0,0 mm 0,0 km/h (0 Bft) W-SW 258 ° 0 min 0,000 mm 0,0 UV-I 0 W/m² 8,8 °C 9,6 °C 0,0 km/h (0 Bft)
15.05.2017 02:50 9,6 °C 9,6 °C 95 % 1025,8 hPa 0,0 mm 0,0 km/h (0 Bft) W-SW 258 ° 0 min 0,000 mm 0,0 UV-I 0 W/m² 8,8 °C 9,6 °C 0,0 km/h (0 Bft)
15.05.2017 02:51 9,6 °C 9,7 °C 95 % 1025,8 hPa 0,0 mm 0,0 km/h (0 Bft) W-SW 258 ° 0 min 0,000 mm 0,0 UV-I 0 W/m² 8,8 °C 9,6 °C 0,0 km/h (0 Bft)
15.05.2017 02:52 9,6 °C 9,7 °C 95 % 1025,8 hPa 0,0 mm 0,0 km/h (0 Bft) W-SW 258 ° 0 min 0,000 mm 0,0 UV-I 0 W/m² 8,8 °C 9,6 °C 0,0 km/h (0 Bft)
15.05.2017 02:53 9,6 °C 9,7 °C 95 % 1025,8 hPa 0,0 mm 0,0 km/h (0 Bft) W-SW 258 ° 0 min 0,000 mm 0,0 UV-I 0 W/m² 8,8 °C 9,6 °C 0,0 km/h (0 Bft)
15.05.2017 02:54 9,7 °C 9,7 °C 95 % 1025,8 hPa 0,0 mm 0,0 km/h (0 Bft) W-SW 258 ° 0 min 0,000 mm 0,0 UV-I 0 W/m² 8,9 °C 9,7 °C 0,0 km/h (0 Bft)
15.05.2017 02:55 9,7 °C 9,7 °C 95 % 1025,8 hPa 0,0 mm 0,0 km/h (0 Bft) W-SW 258 ° 0 min 0,000 mm 0,0 UV-I 0 W/m² 8,9 °C 9,7 °C 0,0 km/h (0 Bft)
15.05.2017 02:56 9,7 °C 9,7 °C 95 % 1025,8 hPa 0,0 mm 0,0 km/h (0 Bft) W-SW 258 ° 0 min 0,000 mm 0,0 UV-I 0 W/m² 8,9 °C 9,7 °C 0,0 km/h (0 Bft)
15.05.2017 02:57 9,7 °C 9,7 °C 95 % 1025,8 hPa 0,0 mm 0,0 km/h (0 Bft) W-SW 258 ° 0 min 0,000 mm 0,0 UV-I 0 W/m² 8,9 °C 9,7 °C 0,0 km/h (0 Bft)
15.05.2017 02:58 9,6 °C 9,7 °C 95 % 1025,8 hPa 0,0 mm 0,0 km/h (0 Bft) W-SW 258 ° 0 min 0,000 mm 0,0 UV-I 0 W/m² 8,8 °C 9,6 °C 0,0 km/h (0 Bft)
15.05.2017 02:59 9,6 °C 9,6 °C 95 % 1025,8 hPa 0,0 mm 0,0 km/h (0 Bft) W-SW 258 ° 0 min 0,000 mm 0,0 UV-I 0 W/m² 8,8 °C 9,6 °C 0,0 km/h (0 Bft)
15.05.2017 03:00 9,6 °C 9,6 °C 95 % 1025,7 hPa 0,0 mm 0,0 km/h (0 Bft) W-SW 258 ° 0 min 0,000 mm 0,0 UV-I 0 W/m² 8,8 °C 9,6 °C 0,0 km/h (0 Bft)
15.05.2017 03:01 9,6 °C 9,6 °C 95 % 1025,8 hPa 0,0 mm 1,3 km/h (1 Bft) W-SW 258 ° 0 min 0,000 mm 0,0 UV-I 0 W/m² 8,8 °C 9,6 °C 3,2 km/h (1 Bft)
15.05.2017 03:02 9,6 °C 9,6 °C 95 % 1025,8 hPa 0,0 mm 2,0 km/h (1 Bft) W-SW 258 ° 0 min 0,000 mm 0,0 UV-I 0 W/m² 8,8 °C 9,6 °C 3,2 km/h (1 Bft)
15.05.2017 03:04 9,6 °C 9,6 °C 95 % 1025,8 hPa 0,0 mm 2,0 km/h (1 Bft) W-SW 258 ° 0 min 0,000 mm 0,0 UV-I 0 W/m² 8,8 °C 9,6 °C 3,2 km/h (1 Bft)
15.05.2017 03:05 9,6 °C 9,6 °C 95 % 1025,8 hPa 0,0 mm 0,3 km/h (0 Bft) W-SW 258 ° 0 min 0,000 mm 0,0 UV-I 0 W/m² 8,8 °C 9,6 °C 1,6 km/h (1 Bft)
15.05.2017 03:06 9,6 °C 9,6 °C 95 % 1025,8 hPa 0,0 mm 0,0 km/h (0 Bft) W-SW 258 ° 0 min 0,000 mm 0,0 UV-I 0 W/m² 8,8 °C 9,6 °C 0,0 km/h (0 Bft)
15.05.2017 03:07 9,6 °C 9,6 °C 95 % 1025,8 hPa 0,0 mm 0,1 km/h (0 Bft) W-SW 258 ° 0 min 0,000 mm 0,0 UV-I 0 W/m² 8,8 °C 9,6 °C 1,6 km/h (1 Bft)
15.05.2017 03:08 9,5 °C 9,6 °C 95 % 1025,8 hPa 0,0 mm 0,0 km/h (0 Bft) S 186 ° 0 min 0,000 mm 0,0 UV-I 0 W/m² 8,7 °C 9,5 °C 0,0 km/h (0 Bft)
15.05.2017 03:09 9,5 °C 9,6 °C 95 % 1025,8 hPa 0,0 mm 1,1 km/h (1 Bft) W 280 ° 0 min 0,000 mm 0,0 UV-I 0 W/m² 8,7 °C 9,5 °C 3,2 km/h (1 Bft)
15.05.2017 03:10 9,6 °C 9,6 °C 95 % 1025,8 hPa 0,0 mm 0,8 km/h (0 Bft) SW 221 ° 0 min 0,000 mm 0,0 UV-I 0 W/m² 8,8 °C 9,6 °C 1,6 km/h (1 Bft)
15.05.2017 03:11 9,5 °C 9,6 °C 95 % 1025,8 hPa 0,0 mm 1,3 km/h (1 Bft) SW 221 ° 0 min 0,000 mm 0,0 UV-I 0 W/m² 8,7 °C 9,5 °C 3,2 km/h (1 Bft)
15.05.2017 03:12 9,6 °C 9,6 °C 95 % 1025,8 hPa 0,0 mm 2,2 km/h (1 Bft) SW 221 ° 0 min 0,000 mm 0,0 UV-I 0 W/m² 8,8 °C 9,6 °C 3,2 km/h (1 Bft)
15.05.2017 03:13 9,6 °C 9,6 °C 94 % 1025,8 hPa 0,0 mm 2,4 km/h (1 Bft) O 81 ° 0 min 0,000 mm 0,0 UV-I 0 W/m² 8,7 °C 9,6 °C 4,8 km/h (1 Bft)
15.05.2017 03:14 9,6 °C 9,6 °C 94 % 1025,8 hPa 0,0 mm 1,9 km/h (1 Bft) S 188 ° 0 min 0,000 mm 0,0 UV-I 0 W/m² 8,7 °C 9,6 °C 3,2 km/h (1 Bft)
15.05.2017 03:15 9,6 °C 9,6 °C 94 % 1025,8 hPa 0,0 mm 1,7 km/h (1 Bft) W 277 ° 0 min 0,000 mm 0,0 UV-I 0 W/m² 8,7 °C 9,6 °C 4,8 km/h (1 Bft)
15.05.2017 03:16 9,6 °C 9,6 °C 94 % 1025,8 hPa 0,0 mm 0,6 km/h (0 Bft) W 277 ° 0 min 0,000 mm 0,0 UV-I 0 W/m² 8,7 °C 9,6 °C 3,2 km/h (1 Bft)
15.05.2017 03:17 9,6 °C 9,6 °C 94 % 1025,8 hPa 0,0 mm 0,5 km/h (0 Bft) W-SW 238 ° 0 min 0,000 mm 0,0 UV-I 0 W/m² 8,7 °C 9,6 °C 1,6 km/h (1 Bft)
15.05.2017 03:18 9,6 °C 9,6 °C 94 % 1025,8 hPa 0,0 mm 0,1 km/h (0 Bft) W-SW 238 ° 0 min 0,000 mm 0,0 UV-I 0 W/m² 8,7 °C 9,6 °C 1,6 km/h (1 Bft)
15.05.2017 03:19 9,5 °C 9,6 °C 94 % 1025,8 hPa 0,0 mm 0,0 km/h (0 Bft) W-SW 238 ° 0 min 0,000 mm 0,0 UV-I 0 W/m² 8,6 °C 9,5 °C 0,0 km/h (0 Bft)
15.05.2017 03:20 9,5 °C 9,6 °C 94 % 1025,8 hPa 0,0 mm 0,5 km/h (0 Bft) W-SW 238 ° 0 min 0,000 mm 0,0 UV-I 0 W/m² 8,6 °C 9,5 °C 1,6 km/h (1 Bft)
15.05.2017 03:21 9,5 °C 9,5 °C 94 % 1025,8 hPa 0,0 mm 0,0 km/h (0 Bft) W-SW 238 ° 0 min 0,000 mm 0,0 UV-I 0 W/m² 8,6 °C 9,5 °C 0,0 km/h (0 Bft)
15.05.2017 03:22 9,5 °C 9,5 °C 94 % 1025,8 hPa 0,0 mm 0,0 km/h (0 Bft) W-SW 238 ° 0 min 0,000 mm 0,0 UV-I 0 W/m² 8,6 °C 9,5 °C 0,0 km/h (0 Bft)
15.05.2017 03:23 9,4 °C 9,5 °C 94 % 1025,8 hPa 0,0 mm 0,0 km/h (0 Bft) W-SW 238 ° 0 min 0,000 mm 0,0 UV-I 0 W/m² 8,5 °C 9,4 °C 0,0 km/h (0 Bft)
15.05.2017 03:24 9,4 °C 9,4 °C 94 % 1025,8 hPa 0,0 mm 0,0 km/h (0 Bft) W-SW 238 ° 0 min 0,000 mm 0,0 UV-I 0 W/m² 8,5 °C 9,4 °C 0,0 km/h (0 Bft)
15.05.2017 03:25 9,4 °C 9,4 °C 95 % 1025,9 hPa 0,0 mm 0,0 km/h (0 Bft) W-SW 238 ° 0 min 0,000 mm 0,0 UV-I 0 W/m² 8,6 °C 9,4 °C 0,0 km/h (0 Bft)
15.05.2017 03:26 9,4 °C 9,4 °C 95 % 1025,9 hPa 0,0 mm 2,7 km/h (1 Bft) S-SW 198 ° 0 min 0,000 mm 0,0 UV-I 0 W/m² 8,6 °C 9,4 °C 4,8 km/h (1 Bft)
15.05.2017 03:27 9,4 °C 9,4 °C 95 % 1025,9 hPa 0,0 mm 0,5 km/h (0 Bft) S-SW 198 ° 0 min 0,000 mm 0,0 UV-I 0 W/m² 8,6 °C 9,4 °C 1,6 km/h (1 Bft)
15.05.2017 03:28 9,4 °C 9,4 °C 95 % 1025,9 hPa 0,0 mm 0,8 km/h (0 Bft) S-SW 198 ° 0 min 0,000 mm 0,0 UV-I 0 W/m² 8,6 °C 9,4 °C 3,2 km/h (1 Bft)
15.05.2017 03:29 9,5 °C 9,5 °C 95 % 1025,9 hPa 0,0 mm 1,0 km/h (0 Bft) S-SW 198 ° 0 min 0,000 mm 0,0 UV-I 0 W/m² 8,7 °C 9,5 °C 3,2 km/h (1 Bft)
15.05.2017 03:30 9,5 °C 9,5 °C 95 % 1025,9 hPa 0,0 mm 0,5 km/h (0 Bft) S-SW 198 ° 0 min 0,000 mm 0,0 UV-I 0 W/m² 8,7 °C 9,5 °C 1,6 km/h (1 Bft)
15.05.2017 03:31 9,6 °C 9,6 °C 95 % 1025,9 hPa 0,0 mm 0,0 km/h (0 Bft) S-SW 198 ° 0 min 0,000 mm 0,0 UV-I 0 W/m² 8,8 °C 9,6 °C 0,0 km/h (0 Bft)
15.05.2017 03:32 9,6 °C 9,6 °C 94 % 1025,9 hPa 0,0 mm 1,0 km/h (0 Bft) S-SW 198 ° 0 min 0,000 mm 0,0 UV-I 0 W/m² 8,7 °C 9,6 °C 3,2 km/h (1 Bft)
15.05.2017 03:33 9,6 °C 9,6 °C 94 % 1026,0 hPa 0,0 mm 0,0 km/h (0 Bft) S-SW 198 ° 0 min 0,000 mm 0,0 UV-I 0 W/m² 8,7 °C 9,6 °C 0,0 km/h (0 Bft)
15.05.2017 03:34 9,6 °C 9,6 °C 94 % 1026,0 hPa 0,0 mm 0,0 km/h (0 Bft) S-SW 198 ° 0 min 0,000 mm 0,0 UV-I 0 W/m² 8,7 °C 9,6 °C 0,0 km/h (0 Bft)
15.05.2017 03:35 9,6 °C 9,6 °C 94 % 1026,0 hPa 0,0 mm 0,7 km/h (0 Bft) S-SW 198 ° 0 min 0,000 mm 0,0 UV-I 0 W/m² 8,7 °C 9,6 °C 3,2 km/h (1 Bft)
15.05.2017 03:36 9,5 °C 9,6 °C 94 % 1026,0 hPa 0,0 mm 1,9 km/h (1 Bft) S-SW 198 ° 0 min 0,000 mm 0,0 UV-I 0 W/m² 8,6 °C 9,5 °C 3,2 km/h (1 Bft)
15.05.2017 03:37 9,5 °C 9,5 °C 94 % 1026,0 hPa 0,0 mm 3,2 km/h (1 Bft) O-NO 68 ° 0 min 0,000 mm 0,0 UV-I 0 W/m² 8,6 °C 9,5 °C 6,4 km/h (2 Bft)
15.05.2017 03:38 9,4 °C 9,5 °C 94 % 1026,0 hPa 0,0 mm 4,0 km/h (1 Bft) O-NO 67 ° 0 min 0,000 mm 0,0 UV-I 0 W/m² 8,5 °C 9,4 °C 4,8 km/h (1 Bft)
15.05.2017 03:39 9,5 °C 9,5 °C 94 % 1026,0 hPa 0,0 mm 2,9 km/h (1 Bft) NO 40 ° 0 min 0,000 mm 0,0 UV-I 0 W/m² 8,6 °C 9,5 °C 4,8 km/h (1 Bft)
15.05.2017 03:40 9,5 °C 9,5 °C 94 % 1026,0 hPa 0,0 mm 1,1 km/h (1 Bft) NO 40 ° 0 min 0,000 mm 0,0 UV-I 0 W/m² 8,6 °C 9,5 °C 1,6 km/h (1 Bft)
15.05.2017 03:41 9,5 °C 9,5 °C 94 % 1026,1 hPa 0,0 mm 0,1 km/h (0 Bft) NO 40 ° 0 min 0,000 mm 0,0 UV-I 0 W/m² 8,6 °C 9,5 °C 1,6 km/h (1 Bft)
15.05.2017 03:42 9,5 °C 9,5 °C 94 % 1026,1 hPa 0,0 mm 0,3 km/h (0 Bft) NO 40 ° 0 min 0,000 mm 0,0 UV-I 0 W/m² 8,6 °C 9,5 °C 1,6 km/h (1 Bft)
15.05.2017 03:43 9,4 °C 9,5 °C 94 % 1026,1 hPa 0,0 mm 0,6 km/h (0 Bft) NO 40 ° 0 min 0,000 mm 0,0 UV-I 0 W/m² 8,5 °C 9,4 °C 1,6 km/h (1 Bft)
15.05.2017 03:44 9,5 °C 9,5 °C 94 % 1026,1 hPa 0,0 mm 0,2 km/h (0 Bft) NO 40 ° 0 min 0,000 mm 0,0 UV-I 0 W/m² 8,6 °C 9,5 °C 1,6 km/h (1 Bft)
15.05.2017 03:45 9,4 °C 9,5 °C 94 % 1026,1 hPa 0,0 mm 2,3 km/h (1 Bft) NO 56 ° 0 min 0,000 mm 0,0 UV-I 0 W/m² 8,5 °C 9,4 °C 6,4 km/h (2 Bft)
15.05.2017 03:46 9,4 °C 9,4 °C 94 % 1026,1 hPa 0,0 mm 1,7 km/h (1 Bft) NO 53 ° 0 min 0,000 mm 0,0 UV-I 0 W/m² 8,5 °C 9,4 °C 3,2 km/h (1 Bft)
15.05.2017 03:47 9,4 °C 9,4 °C 95 % 1026,1 hPa 0,0 mm 0,0 km/h (0 Bft) NO 53 ° 0 min 0,000 mm 0,0 UV-I 0 W/m² 8,6 °C 9,4 °C 0,0 km/h (0 Bft)
15.05.2017 03:48 9,4 °C 9,4 °C 94 % 1026,1 hPa 0,0 mm 0,0 km/h (0 Bft) NO 53 ° 0 min 0,000 mm 0,0 UV-I 0 W/m² 8,5 °C 9,4 °C 0,0 km/h (0 Bft)
15.05.2017 03:49 9,4 °C 9,4 °C 95 % 1026,1 hPa 0,0 mm 0,3 km/h (0 Bft) NO 53 ° 0 min 0,000 mm 0,0 UV-I 0 W/m² 8,6 °C 9,4 °C 1,6 km/h (1 Bft)
15.05.2017 03:50 9,4 °C 9,4 °C 95 % 1026,1 hPa 0,0 mm 1,0 km/h (0 Bft) NO 53 ° 0 min 0,000 mm 0,0 UV-I 0 W/m² 8,6 °C 9,4 °C 1,6 km/h (1 Bft)
15.05.2017 03:51 9,3 °C 9,4 °C 95 % 1026,1 hPa 0,0 mm 1,0 km/h (0 Bft) NO 53 ° 0 min 0,000 mm 0,0 UV-I 0 W/m² 8,5 °C 9,3 °C 1,6 km/h (1 Bft)
15.05.2017 03:52 9,3 °C 9,4 °C 95 % 1026,2 hPa 0,0 mm 1,2 km/h (1 Bft) NO 53 ° 0 min 0,000 mm 0,0 UV-I 0 W/m² 8,5 °C 9,3 °C 3,2 km/h (1 Bft)
15.05.2017 03:53 9,3 °C 9,3 °C 95 % 1026,1 hPa 0,0 mm 2,9 km/h (1 Bft) NO 54 ° 0 min 0,000 mm 0,0 UV-I 0 W/m² 8,5 °C 9,3 °C 4,8 km/h (1 Bft)
15.05.2017 03:54 9,3 °C 9,3 °C 95 % 1026,1 hPa 0,0 mm 3,0 km/h (1 Bft) NO 53 ° 0 min 0,000 mm 0,0 UV-I 0 W/m² 8,5 °C 9,3 °C 4,8 km/h (1 Bft)
15.05.2017 03:55 9,3 °C 9,3 °C 95 % 1026,1 hPa 0,0 mm 0,9 km/h (0 Bft) NO 53 ° 0 min 0,000 mm 0,0 UV-I 0 W/m² 8,5 °C 9,3 °C 3,2 km/h (1 Bft)
15.05.2017 03:56 9,3 °C 9,3 °C 95 % 1026,1 hPa 0,0 mm 2,9 km/h (1 Bft) O 94 ° 0 min 0,000 mm 0,0 UV-I 0 W/m² 8,5 °C 9,3 °C 4,8 km/h (1 Bft)
15.05.2017 03:57 9,3 °C 9,3 °C 95 % 1026,1 hPa 0,0 mm 2,8 km/h (1 Bft) O-NO 62 ° 0 min 0,000 mm 0,0 UV-I 0 W/m² 8,5 °C 9,3 °C 4,8 km/h (1 Bft)
15.05.2017 03:58 9,3 °C 9,3 °C 95 % 1026,1 hPa 0,0 mm 1,7 km/h (1 Bft) O-NO 62 ° 0 min 0,000 mm 0,0 UV-I 0 W/m² 8,5 °C 9,3 °C 4,8 km/h (1 Bft)
15.05.2017 03:59 9,3 °C 9,3 °C 95 % 1026,1 hPa 0,0 mm 0,0 km/h (0 Bft) O-NO 62 ° 0 min 0,000 mm 0,0 UV-I 0 W/m² 8,5 °C 9,3 °C 0,0 km/h (0 Bft)
15.05.2017 04:00 9,3 °C 9,3 °C 95 % 1026,1 hPa 0,0 mm 0,0 km/h (0 Bft) O-NO 62 ° 0 min 0,000 mm 0,0 UV-I 0 W/m² 8,5 °C 9,3 °C 0,0 km/h (0 Bft)
15.05.2017 04:01 9,3 °C 9,3 °C 95 % 1026,1 hPa 0,0 mm 0,0 km/h (0 Bft) O-NO 62 ° 0 min 0,000 mm 0,0 UV-I 0 W/m² 8,5 °C 9,3 °C 0,0 km/h (0 Bft)
15.05.2017 04:02 9,3 °C 9,3 °C 95 % 1026,1 hPa 0,0 mm 0,0 km/h (0 Bft) O-NO 62 ° 0 min 0,000 mm 0,0 UV-I 0 W/m² 8,5 °C 9,3 °C 0,0 km/h (0 Bft)
15.05.2017 04:03 9,3 °C 9,3 °C 95 % 1026,1 hPa 0,0 mm 0,0 km/h (0 Bft) O-NO 62 ° 0 min 0,000 mm 0,0 UV-I 0 W/m² 8,5 °C 9,3 °C 0,0 km/h (0 Bft)
15.05.2017 04:04 9,3 °C 9,3 °C 95 % 1026,1 hPa 0,0 mm 0,0 km/h (0 Bft) O-NO 62 ° 0 min 0,000 mm 0,0 UV-I 0 W/m² 8,5 °C 9,3 °C 0,0 km/h (0 Bft)
15.05.2017 04:05 9,3 °C 9,3 °C 95 % 1026,1 hPa 0,0 mm 0,0 km/h (0 Bft) O-NO 62 ° 0 min 0,000 mm 0,0 UV-I 0 W/m² 8,5 °C 9,3 °C 0,0 km/h (0 Bft)
15.05.2017 04:06 9,3 °C 9,3 °C 95 % 1026,1 hPa 0,0 mm 0,0 km/h (0 Bft) O-NO 62 ° 0 min 0,000 mm 0,0 UV-I 0 W/m² 8,5 °C 9,3 °C 0,0 km/h (0 Bft)
15.05.2017 04:07 9,3 °C 9,3 °C 95 % 1026,1 hPa 0,0 mm 0,0 km/h (0 Bft) O-NO 62 ° 0 min 0,000 mm 0,0 UV-I 0 W/m² 8,5 °C 9,3 °C 0,0 km/h (0 Bft)
15.05.2017 04:08 9,3 °C 9,3 °C 95 % 1026,2 hPa 0,0 mm 0,0 km/h (0 Bft) O-NO 62 ° 0 min 0,000 mm 0,0 UV-I 0 W/m² 8,5 °C 9,3 °C 0,0 km/h (0 Bft)
15.05.2017 04:09 9,3 °C 9,3 °C 95 % 1026,1 hPa 0,0 mm 0,0 km/h (0 Bft) O-NO 62 ° 0 min 0,000 mm 0,0 UV-I 0 W/m² 8,5 °C 9,3 °C 0,0 km/h (0 Bft)
15.05.2017 04:10 9,3 °C 9,3 °C 95 % 1026,1 hPa 0,0 mm 0,0 km/h (0 Bft) O-NO 62 ° 0 min 0,000 mm 0,0 UV-I 0 W/m² 8,5 °C 9,3 °C 0,0 km/h (0 Bft)
15.05.2017 04:11 9,3 °C 9,3 °C 95 % 1026,1 hPa 0,0 mm 0,0 km/h (0 Bft) O-NO 62 ° 0 min 0,000 mm 0,0 UV-I 0 W/m² 8,5 °C 9,3 °C 0,0 km/h (0 Bft)
15.05.2017 04:12 9,2 °C 9,3 °C 95 % 1026,1 hPa 0,0 mm 0,0 km/h (0 Bft) O-NO 62 ° 0 min 0,000 mm 0,0 UV-I 0 W/m² 8,4 °C 9,2 °C 0,0 km/h (0 Bft)
15.05.2017 04:13 9,2 °C 9,2 °C 95 % 1026,1 hPa 0,0 mm 0,0 km/h (0 Bft) O-NO 62 ° 0 min 0,000 mm 0,0 UV-I 0 W/m² 8,4 °C 9,2 °C 0,0 km/h (0 Bft)
15.05.2017 04:14 9,2 °C 9,2 °C 95 % 1026,1 hPa 0,0 mm 0,0 km/h (0 Bft) O-NO 62 ° 0 min 0,000 mm 0,0 UV-I 0 W/m² 8,4 °C 9,2 °C 0,0 km/h (0 Bft)
15.05.2017 04:15 9,2 °C 9,2 °C 95 % 1026,1 hPa 0,0 mm 0,0 km/h (0 Bft) O-NO 62 ° 0 min 0,000 mm 0,0 UV-I 0 W/m² 8,4 °C 9,2 °C 0,0 km/h (0 Bft)
15.05.2017 04:16 9,2 °C 9,2 °C 95 % 1026,2 hPa 0,0 mm 0,0 km/h (0 Bft) O-NO 62 ° 0 min 0,000 mm 0,0 UV-I 0 W/m² 8,4 °C 9,2 °C 0,0 km/h (0 Bft)
15.05.2017 04:17 9,2 °C 9,2 °C 95 % 1026,2 hPa 0,0 mm 0,0 km/h (0 Bft) O-NO 62 ° 0 min 0,000 mm 0,0 UV-I 0 W/m² 8,4 °C 9,2 °C 0,0 km/h (0 Bft)
15.05.2017 04:18 9,1 °C 9,2 °C 95 % 1026,1 hPa 0,0 mm 1,3 km/h (1 Bft) O-NO 63 ° 0 min 0,000 mm 0,0 UV-I 0 W/m² 8,3 °C 9,1 °C 3,2 km/h (1 Bft)
15.05.2017 04:19 9,2 °C 9,2 °C 95 % 1026,1 hPa 0,0 mm 1,8 km/h (1 Bft) O-NO 63 ° 0 min 0,000 mm 0,0 UV-I 0 W/m² 8,4 °C 9,2 °C 3,2 km/h (1 Bft)
15.05.2017 04:20 9,2 °C 9,2 °C 95 % 1026,1 hPa 0,0 mm 1,9 km/h (1 Bft) O-SO 107 ° 0 min 0,000 mm 0,0 UV-I 0 W/m² 8,4 °C 9,2 °C 3,2 km/h (1 Bft)
15.05.2017 04:21 9,1 °C 9,2 °C 95 % 1026,1 hPa 0,0 mm 1,8 km/h (1 Bft) O-SO 107 ° 0 min 0,000 mm 0,0 UV-I 0 W/m² 8,3 °C 9,1 °C 3,2 km/h (1 Bft)
15.05.2017 04:22 9,1 °C 9,1 °C 95 % 1026,1 hPa 0,0 mm 0,2 km/h (0 Bft) O-SO 107 ° 0 min 0,000 mm 0,0 UV-I 0 W/m² 8,3 °C 9,1 °C 1,6 km/h (1 Bft)
15.05.2017 04:23 9,1 °C 9,1 °C 95 % 1026,1 hPa 0,0 mm 0,0 km/h (0 Bft) O-SO 107 ° 0 min 0,000 mm 0,0 UV-I 0 W/m² 8,3 °C 9,1 °C 0,0 km/h (0 Bft)
15.05.2017 04:24 9,1 °C 9,1 °C 95 % 1026,1 hPa 0,0 mm 0,0 km/h (0 Bft) O-SO 107 ° 0 min 0,000 mm 0,0 UV-I 0 W/m² 8,3 °C 9,1 °C 0,0 km/h (0 Bft)
15.05.2017 04:25 9,1 °C 9,1 °C 95 % 1026,1 hPa 0,0 mm 0,0 km/h (0 Bft) O-SO 107 ° 0 min 0,000 mm 0,0 UV-I 0 W/m² 8,3 °C 9,1 °C 0,0 km/h (0 Bft)
15.05.2017 04:26 9,1 °C 9,1 °C 95 % 1026,1 hPa 0,0 mm 0,0 km/h (0 Bft) O-SO 107 ° 0 min 0,000 mm 0,0 UV-I 0 W/m² 8,3 °C 9,1 °C 0,0 km/h (0 Bft)
15.05.2017 04:27 8,9 °C 9,1 °C 95 % 1026,1 hPa 0,0 mm 0,0 km/h (0 Bft) O-SO 107 ° 0 min 0,000 mm 0,0 UV-I 0 W/m² 8,1 °C 8,9 °C 0,0 km/h (0 Bft)
15.05.2017 04:28 8,9 °C 8,9 °C 94 % 1026,1 hPa 0,0 mm 0,0 km/h (0 Bft) O-SO 107 ° 0 min 0,000 mm 0,0 UV-I 0 W/m² 8,0 °C 8,9 °C 0,0 km/h (0 Bft)
15.05.2017 04:29 8,8 °C 8,9 °C 94 % 1026,1 hPa 0,0 mm 0,0 km/h (0 Bft) O-SO 107 ° 0 min 0,000 mm 0,0 UV-I 0 W/m² 7,9 °C 8,8 °C 0,0 km/h (0 Bft)
15.05.2017 04:30 8,8 °C 8,8 °C 94 % 1026,2 hPa 0,0 mm 0,0 km/h (0 Bft) O-SO 107 ° 0 min 0,000 mm 0,0 UV-I 0 W/m² 7,9 °C 8,8 °C 0,0 km/h (0 Bft)
15.05.2017 04:31 8,8 °C 8,8 °C 94 % 1026,2 hPa 0,0 mm 0,0 km/h (0 Bft) O-SO 107 ° 0 min 0,000 mm 0,0 UV-I 0 W/m² 7,9 °C 8,8 °C 0,0 km/h (0 Bft)
15.05.2017 04:32 8,8 °C 8,8 °C 95 % 1026,2 hPa 0,0 mm 0,0 km/h (0 Bft) O-SO 107 ° 0 min 0,000 mm 0,0 UV-I 0 W/m² 8,0 °C 8,8 °C 0,0 km/h (0 Bft)
15.05.2017 04:33 8,7 °C 8,8 °C 95 % 1026,2 hPa 0,0 mm 0,0 km/h (0 Bft) O-SO 107 ° 0 min 0,000 mm 0,0 UV-I 0 W/m² 7,9 °C 8,7 °C 0,0 km/h (0 Bft)
15.05.2017 04:34 8,6 °C 8,7 °C 94 % 1026,2 hPa 0,0 mm 0,0 km/h (0 Bft) O-SO 107 ° 0 min 0,000 mm 0,0 UV-I 0 W/m² 7,7 °C 8,6 °C 0,0 km/h (0 Bft)
15.05.2017 04:35 8,6 °C 8,6 °C 94 % 1026,2 hPa 0,0 mm 0,0 km/h (0 Bft) O-SO 107 ° 0 min 0,000 mm 0,0 UV-I 0 W/m² 7,7 °C 8,6 °C 0,0 km/h (0 Bft)
15.05.2017 04:36 8,6 °C 8,6 °C 95 % 1026,2 hPa 0,0 mm 0,0 km/h (0 Bft) O-SO 107 ° 0 min 0,000 mm 0,0 UV-I 0 W/m² 7,8 °C 8,6 °C 0,0 km/h (0 Bft)
15.05.2017 04:37 8,6 °C 8,6 °C 95 % 1026,2 hPa 0,0 mm 0,0 km/h (0 Bft) O-SO 107 ° 0 min 0,000 mm 0,0 UV-I 0 W/m² 7,8 °C 8,6 °C 0,0 km/h (0 Bft)
15.05.2017 04:38 8,6 °C 8,6 °C 95 % 1026,2 hPa 0,0 mm 0,0 km/h (0 Bft) O-SO 107 ° 0 min 0,000 mm 0,0 UV-I 0 W/m² 7,8 °C 8,6 °C 0,0 km/h (0 Bft)
15.05.2017 04:39 8,6 °C 8,6 °C 95 % 1026,2 hPa 0,0 mm 0,0 km/h (0 Bft) O-SO 107 ° 0 min 0,000 mm 0,0 UV-I 0 W/m² 7,8 °C 8,6 °C 0,0 km/h (0 Bft)
15.05.2017 04:40 8,6 °C 8,6 °C 95 % 1026,2 hPa 0,0 mm 0,0 km/h (0 Bft) O-SO 107 ° 0 min 0,000 mm 0,0 UV-I 0 W/m² 7,8 °C 8,6 °C 0,0 km/h (0 Bft)
15.05.2017 04:41 8,6 °C 8,6 °C 95 % 1026,2 hPa 0,0 mm 0,0 km/h (0 Bft) O-SO 107 ° 0 min 0,000 mm 0,0 UV-I 0 W/m² 7,8 °C 8,6 °C 0,0 km/h (0 Bft)
15.05.2017 04:42 8,5 °C 8,6 °C 95 % 1026,2 hPa 0,0 mm 0,0 km/h (0 Bft) O-SO 107 ° 0 min 0,000 mm 0,0 UV-I 0 W/m² 7,7 °C 8,5 °C 0,0 km/h (0 Bft)
15.05.2017 04:43 8,4 °C 8,5 °C 95 % 1026,2 hPa 0,0 mm 0,0 km/h (0 Bft) O-SO 107 ° 0 min 0,000 mm 0,0 UV-I 0 W/m² 7,6 °C 8,4 °C 0,0 km/h (0 Bft)
15.05.2017 04:44 8,4 °C 8,4 °C 95 % 1026,2 hPa 0,0 mm 0,0 km/h (0 Bft) O-SO 107 ° 0 min 0,000 mm 0,0 UV-I 0 W/m² 7,6 °C 8,4 °C 0,0 km/h (0 Bft)
15.05.2017 04:45 8,4 °C 8,5 °C 95 % 1026,2 hPa 0,0 mm 0,0 km/h (0 Bft) O-SO 107 ° 0 min 0,000 mm 0,0 UV-I 0 W/m² 7,6 °C 8,4 °C 0,0 km/h (0 Bft)
15.05.2017 04:46 8,4 °C 8,4 °C 95 % 1026,1 hPa 0,0 mm 0,0 km/h (0 Bft) O-SO 107 ° 0 min 0,000 mm 0,0 UV-I 0 W/m² 7,6 °C 8,4 °C 0,0 km/h (0 Bft)
15.05.2017 04:47 8,4 °C 8,4 °C 95 % 1026,2 hPa 0,0 mm 0,0 km/h (0 Bft) O-SO 107 ° 0 min 0,000 mm 0,0 UV-I 0 W/m² 7,6 °C 8,4 °C 0,0 km/h (0 Bft)
15.05.2017 04:48 8,4 °C 8,4 °C 95 % 1026,2 hPa 0,0 mm 0,0 km/h (0 Bft) O-SO 107 ° 0 min 0,000 mm 0,0 UV-I 0 W/m² 7,6 °C 8,4 °C 0,0 km/h (0 Bft)
15.05.2017 04:49 8,4 °C 8,4 °C 95 % 1026,2 hPa 0,0 mm 0,0 km/h (0 Bft) O-SO 107 ° 0 min 0,000 mm 0,0 UV-I 0 W/m² 7,6 °C 8,4 °C 0,0 km/h (0 Bft)
15.05.2017 04:50 8,4 °C 8,4 °C 95 % 1026,2 hPa 0,0 mm 0,0 km/h (0 Bft) O-SO 107 ° 0 min 0,000 mm 0,0 UV-I 0 W/m² 7,6 °C 8,4 °C 0,0 km/h (0 Bft)
15.05.2017 04:51 8,3 °C 8,4 °C 95 % 1026,2 hPa 0,0 mm 0,0 km/h (0 Bft) O-SO 107 ° 0 min 0,000 mm 0,0 UV-I 0 W/m² 7,5 °C 8,3 °C 0,0 km/h (0 Bft)
15.05.2017 04:52 8,4 °C 8,4 °C 95 % 1026,2 hPa 0,0 mm 0,0 km/h (0 Bft) O-SO 107 ° 0 min 0,000 mm 0,0 UV-I 0 W/m² 7,6 °C 8,4 °C 0,0 km/h (0 Bft)
15.05.2017 04:53 8,4 °C 8,4 °C 95 % 1026,2 hPa 0,0 mm 0,0 km/h (0 Bft) O-SO 107 ° 0 min 0,000 mm 0,0 UV-I 0 W/m² 7,6 °C 8,4 °C 0,0 km/h (0 Bft)
15.05.2017 04:54 8,4 °C 8,4 °C 95 % 1026,2 hPa 0,0 mm 0,0 km/h (0 Bft) O-SO 107 ° 0 min 0,000 mm 0,0 UV-I 0 W/m² 7,6 °C 8,4 °C 0,0 km/h (0 Bft)
15.05.2017 04:55 8,4 °C 8,4 °C 95 % 1026,1 hPa 0,0 mm 0,0 km/h (0 Bft) O-SO 107 ° 0 min 0,000 mm 0,0 UV-I 0 W/m² 7,6 °C 8,4 °C 0,0 km/h (0 Bft)
15.05.2017 04:56 8,4 °C 8,4 °C 95 % 1026,2 hPa 0,0 mm 0,0 km/h (0 Bft) O-SO 107 ° 0 min 0,000 mm 0,0 UV-I 0 W/m² 7,6 °C 8,4 °C 0,0 km/h (0 Bft)
15.05.2017 04:57 8,3 °C 8,4 °C 95 % 1026,2 hPa 0,0 mm 0,0 km/h (0 Bft) O-SO 107 ° 0 min 0,000 mm 0,0 UV-I 0 W/m² 7,5 °C 8,3 °C 0,0 km/h (0 Bft)
15.05.2017 04:58 8,3 °C 8,3 °C 95 % 1026,2 hPa 0,0 mm 0,0 km/h (0 Bft) O-SO 107 ° 0 min 0,000 mm 0,0 UV-I 0 W/m² 7,5 °C 8,3 °C 0,0 km/h (0 Bft)
15.05.2017 04:59 8,2 °C 8,3 °C 95 % 1026,3 hPa 0,0 mm 0,0 km/h (0 Bft) O-SO 107 ° 0 min 0,000 mm 0,0 UV-I 0 W/m² 7,4 °C 8,2 °C 0,0 km/h (0 Bft)
15.05.2017 05:00 8,2 °C 8,2 °C 95 % 1026,2 hPa 0,0 mm 0,0 km/h (0 Bft) O-SO 107 ° 0 min 0,000 mm 0,0 UV-I 0 W/m² 7,4 °C 8,2 °C 0,0 km/h (0 Bft)
15.05.2017 05:01 8,1 °C 8,2 °C 95 % 1026,3 hPa 0,0 mm 0,0 km/h (0 Bft) O-SO 107 ° 0 min 0,000 mm 0,0 UV-I 0 W/m² 7,3 °C 8,1 °C 0,0 km/h (0 Bft)
15.05.2017 05:02 8,2 °C 8,2 °C 95 % 1026,2 hPa 0,0 mm 0,0 km/h (0 Bft) O-SO 107 ° 0 min 0,000 mm 0,0 UV-I 0 W/m² 7,4 °C 8,2 °C 0,0 km/h (0 Bft)
15.05.2017 05:03 8,2 °C 8,2 °C 95 % 1026,2 hPa 0,0 mm 0,0 km/h (0 Bft) O-SO 107 ° 0 min 0,000 mm 0,0 UV-I 0 W/m² 7,4 °C 8,2 °C 0,0 km/h (0 Bft)
15.05.2017 05:04 8,2 °C 8,2 °C 95 % 1026,2 hPa 0,0 mm 0,0 km/h (0 Bft) O-SO 107 ° 0 min 0,000 mm 0,0 UV-I 0 W/m² 7,4 °C 8,2 °C 0,0 km/h (0 Bft)
15.05.2017 05:05 8,1 °C 8,2 °C 95 % 1026,2 hPa 0,0 mm 0,0 km/h (0 Bft) O-SO 107 ° 0 min 0,000 mm 0,0 UV-I 0 W/m² 7,3 °C 8,1 °C 0,0 km/h (0 Bft)
15.05.2017 05:06 8,0 °C 8,1 °C 95 % 1026,2 hPa 0,0 mm 0,0 km/h (0 Bft) O-SO 107 ° 0 min 0,000 mm 0,0 UV-I 0 W/m² 7,2 °C 8,0 °C 0,0 km/h (0 Bft)
15.05.2017 05:07 7,9 °C 8,0 °C 95 % 1026,3 hPa 0,0 mm 0,0 km/h (0 Bft) O-SO 107 ° 0 min 0,000 mm 0,0 UV-I 0 W/m² 7,1 °C 7,9 °C 0,0 km/h (0 Bft)
15.05.2017 05:08 7,9 °C 7,9 °C 95 % 1026,3 hPa 0,0 mm 0,0 km/h (0 Bft) O-SO 107 ° 0 min 0,000 mm 0,0 UV-I 0 W/m² 7,1 °C 7,9 °C 0,0 km/h (0 Bft)
15.05.2017 05:09 7,9 °C 7,9 °C 95 % 1026,3 hPa 0,0 mm 0,0 km/h (0 Bft) O-SO 107 ° 0 min 0,000 mm 0,0 UV-I 0 W/m² 7,1 °C 7,9 °C 0,0 km/h (0 Bft)
15.05.2017 05:10 7,9 °C 7,9 °C 95 % 1026,3 hPa 0,0 mm 0,0 km/h (0 Bft) O-SO 107 ° 0 min 0,000 mm 0,0 UV-I 0 W/m² 7,1 °C 7,9 °C 0,0 km/h (0 Bft)
15.05.2017 05:11 7,9 °C 7,9 °C 95 % 1026,3 hPa 0,0 mm 0,0 km/h (0 Bft) O-SO 107 ° 0 min 0,000 mm 0,0 UV-I 0 W/m² 7,1 °C 7,9 °C 0,0 km/h (0 Bft)
15.05.2017 05:12 7,8 °C 7,9 °C 95 % 1026,3 hPa 0,0 mm 0,0 km/h (0 Bft) O-SO 107 ° 0 min 0,000 mm 0,0 UV-I 0 W/m² 7,0 °C 7,8 °C 0,0 km/h (0 Bft)
15.05.2017 05:13 7,8 °C 7,9 °C 95 % 1026,3 hPa 0,0 mm 0,0 km/h (0 Bft) O-SO 107 ° 0 min 0,000 mm 0,0 UV-I 0 W/m² 7,0 °C 7,8 °C 0,0 km/h (0 Bft)
15.05.2017 05:14 7,9 °C 7,9 °C 95 % 1026,3 hPa 0,0 mm 0,0 km/h (0 Bft) O-SO 107 ° 0 min 0,000 mm 0,0 UV-I 0 W/m² 7,1 °C 7,9 °C 0,0 km/h (0 Bft)
15.05.2017 05:15 7,9 °C 7,9 °C 95 % 1026,3 hPa 0,0 mm 0,0 km/h (0 Bft) O-SO 107 ° 0 min 0,000 mm 0,0 UV-I 0 W/m² 7,1 °C 7,9 °C 0,0 km/h (0 Bft)
15.05.2017 05:16 7,9 °C 7,9 °C 95 % 1026,3 hPa 0,0 mm 0,0 km/h (0 Bft) O-SO 107 ° 0 min 0,000 mm 0,0 UV-I 0 W/m² 7,1 °C 7,9 °C 0,0 km/h (0 Bft)
15.05.2017 05:17 7,8 °C 7,9 °C 95 % 1026,3 hPa 0,0 mm 0,0 km/h (0 Bft) O-SO 107 ° 0 min 0,000 mm 0,0 UV-I 0 W/m² 7,0 °C 7,8 °C 0,0 km/h (0 Bft)
15.05.2017 05:18 7,8 °C 7,9 °C 95 % 1026,3 hPa 0,0 mm 0,0 km/h (0 Bft) O-SO 107 ° 0 min 0,000 mm 0,0 UV-I 0 W/m² 7,0 °C 7,8 °C 0,0 km/h (0 Bft)
15.05.2017 05:19 7,8 °C 7,8 °C 95 % 1026,3 hPa 0,0 mm 0,0 km/h (0 Bft) O-SO 107 ° 0 min 0,000 mm 0,0 UV-I 0 W/m² 7,0 °C 7,8 °C 0,0 km/h (0 Bft)
15.05.2017 05:20 7,8 °C 7,8 °C 95 % 1026,4 hPa 0,0 mm 0,0 km/h (0 Bft) O-SO 107 ° 0 min 0,000 mm 0,0 UV-I 0 W/m² 7,0 °C 7,8 °C 0,0 km/h (0 Bft)
15.05.2017 05:21 7,8 °C 7,8 °C 95 % 1026,3 hPa 0,0 mm 0,1 km/h (0 Bft) O-SO 107 ° 0 min 0,000 mm 0,0 UV-I 0 W/m² 7,0 °C 7,8 °C 1,6 km/h (1 Bft)
15.05.2017 05:22 7,8 °C 7,8 °C 95 % 1026,3 hPa 0,0 mm 1,4 km/h (1 Bft) O-SO 107 ° 0 min 0,000 mm 0,0 UV-I 0 W/m² 7,0 °C 7,8 °C 1,6 km/h (1 Bft)
15.05.2017 05:23 7,7 °C 7,8 °C 95 % 1026,4 hPa 0,0 mm 1,1 km/h (1 Bft) O-SO 107 ° 0 min 0,000 mm 0,0 UV-I 0 W/m² 7,0 °C 7,7 °C 1,6 km/h (1 Bft)
15.05.2017 05:24 7,7 °C 7,7 °C 95 % 1026,3 hPa 0,0 mm 1,0 km/h (0 Bft) O-SO 107 ° 0 min 0,000 mm 0,0 UV-I 0 W/m² 7,0 °C 7,7 °C 1,6 km/h (1 Bft)
15.05.2017 05:25 7,7 °C 7,7 °C 95 % 1026,3 hPa 0,0 mm 0,0 km/h (0 Bft) O-SO 107 ° 0 min 0,000 mm 0,0 UV-I 0 W/m² 7,0 °C 7,7 °C 0,0 km/h (0 Bft)
15.05.2017 05:26 7,7 °C 7,7 °C 95 % 1026,3 hPa 0,0 mm 0,0 km/h (0 Bft) O-SO 107 ° 0 min 0,000 mm 0,0 UV-I 0 W/m² 7,0 °C 7,7 °C 0,0 km/h (0 Bft)
15.05.2017 05:27 7,7 °C 7,7 °C 95 % 1026,4 hPa 0,0 mm 0,0 km/h (0 Bft) O-SO 107 ° 0 min 0,000 mm 0,0 UV-I 0 W/m² 7,0 °C 7,7 °C 0,0 km/h (0 Bft)
15.05.2017 05:28 7,7 °C 7,7 °C 95 % 1026,3 hPa 0,0 mm 0,0 km/h (0 Bft) O-SO 107 ° 0 min 0,000 mm 0,0 UV-I 0 W/m² 7,0 °C 7,7 °C 0,0 km/h (0 Bft)
15.05.2017 05:29 7,8 °C 7,8 °C 96 % 1026,3 hPa 0,0 mm 0,0 km/h (0 Bft) O-SO 107 ° 0 min 0,000 mm 0,0 UV-I 0 W/m² 7,2 °C 7,8 °C 0,0 km/h (0 Bft)
15.05.2017 05:30 7,8 °C 7,8 °C 96 % 1026,3 hPa 0,0 mm 0,0 km/h (0 Bft) O-SO 107 ° 0 min 0,000 mm 0,0 UV-I 0 W/m² 7,2 °C 7,8 °C 0,0 km/h (0 Bft)
15.05.2017 05:31 7,8 °C 7,8 °C 96 % 1026,4 hPa 0,0 mm 0,0 km/h (0 Bft) O-SO 107 ° 0 min 0,000 mm 0,0 UV-I 0 W/m² 7,2 °C 7,8 °C 0,0 km/h (0 Bft)
15.05.2017 05:32 7,9 °C 7,9 °C 96 % 1026,4 hPa 0,0 mm 0,0 km/h (0 Bft) O-SO 107 ° 0 min 0,000 mm 0,0 UV-I 0 W/m² 7,3 °C 7,9 °C 0,0 km/h (0 Bft)
15.05.2017 05:33 7,9 °C 7,9 °C 96 % 1026,4 hPa 0,0 mm 0,0 km/h (0 Bft) O-SO 107 ° 0 min 0,000 mm 0,0 UV-I 0 W/m² 7,3 °C 7,9 °C 0,0 km/h (0 Bft)
15.05.2017 05:34 7,9 °C 7,9 °C 96 % 1026,4 hPa 0,0 mm 0,0 km/h (0 Bft) O-SO 107 ° 0 min 0,000 mm 0,0 UV-I 0 W/m² 7,3 °C 7,9 °C 0,0 km/h (0 Bft)
15.05.2017 05:35 7,9 °C 8,0 °C 96 % 1026,4 hPa 0,0 mm 0,0 km/h (0 Bft) O-SO 107 ° 0 min 0,000 mm 0,0 UV-I 0 W/m² 7,3 °C 7,9 °C 0,0 km/h (0 Bft)
15.05.2017 05:36 8,0 °C 8,0 °C 96 % 1026,4 hPa 0,0 mm 0,0 km/h (0 Bft) O-SO 107 ° 0 min 0,000 mm 0,0 UV-I 0 W/m² 7,4 °C 8,0 °C 0,0 km/h (0 Bft)
15.05.2017 05:37 7,9 °C 8,0 °C 96 % 1026,4 hPa 0,0 mm 0,0 km/h (0 Bft) O-SO 107 ° 0 min 0,000 mm 0,0 UV-I 0 W/m² 7,3 °C 7,9 °C 0,0 km/h (0 Bft)
15.05.2017 05:38 7,9 °C 7,9 °C 96 % 1026,4 hPa 0,0 mm 0,0 km/h (0 Bft) O-SO 107 ° 0 min 0,000 mm 0,0 UV-I 0 W/m² 7,3 °C 7,9 °C 0,0 km/h (0 Bft)
15.05.2017 05:39 7,9 °C 7,9 °C 96 % 1026,4 hPa 0,0 mm 0,0 km/h (0 Bft) O-SO 107 ° 0 min 0,000 mm 0,0 UV-I 0 W/m² 7,3 °C 7,9 °C 0,0 km/h (0 Bft)
15.05.2017 05:40 7,9 °C 7,9 °C 96 % 1026,3 hPa 0,0 mm 0,0 km/h (0 Bft) O-SO 107 ° 0 min 0,000 mm 0,0 UV-I 0 W/m² 7,3 °C 7,9 °C 0,0 km/h (0 Bft)
15.05.2017 05:41 7,9 °C 7,9 °C 96 % 1026,3 hPa 0,0 mm 0,0 km/h (0 Bft) O-SO 107 ° 0 min 0,000 mm 0,0 UV-I 0 W/m² 7,3 °C 7,9 °C 0,0 km/h (0 Bft)
15.05.2017 05:42 7,9 °C 7,9 °C 96 % 1026,4 hPa 0,0 mm 0,0 km/h (0 Bft) O-SO 107 ° 0 min 0,000 mm 0,0 UV-I 0 W/m² 7,3 °C 7,9 °C 0,0 km/h (0 Bft)
15.05.2017 05:43 7,9 °C 7,9 °C 96 % 1026,4 hPa 0,0 mm 0,0 km/h (0 Bft) O-SO 107 ° 0 min 0,000 mm 0,0 UV-I 0 W/m² 7,3 °C 7,9 °C 0,0 km/h (0 Bft)
15.05.2017 05:44 7,9 °C 7,9 °C 96 % 1026,4 hPa 0,0 mm 0,0 km/h (0 Bft) O-SO 107 ° 0 min 0,000 mm 0,0 UV-I 0 W/m² 7,3 °C 7,9 °C 0,0 km/h (0 Bft)
15.05.2017 05:45 7,9 °C 7,9 °C 96 % 1026,4 hPa 0,0 mm 0,0 km/h (0 Bft) O-SO 107 ° 0 min 0,000 mm 0,0 UV-I 0 W/m² 7,3 °C 7,9 °C 0,0 km/h (0 Bft)
15.05.2017 05:46 7,9 °C 7,9 °C 96 % 1026,5 hPa 0,0 mm 0,0 km/h (0 Bft) O-SO 107 ° 0 min 0,000 mm 0,0 UV-I 0 W/m² 7,3 °C 7,9 °C 0,0 km/h (0 Bft)
15.05.2017 05:47 7,9 °C 7,9 °C 96 % 1026,5 hPa 0,0 mm 0,0 km/h (0 Bft) O-SO 107 ° 0 min 0,000 mm 0,0 UV-I 0 W/m² 7,3 °C 7,9 °C 0,0 km/h (0 Bft)
15.05.2017 05:48 7,9 °C 7,9 °C 96 % 1026,5 hPa 0,0 mm 0,0 km/h (0 Bft) O-SO 107 ° 0 min 0,000 mm 0,0 UV-I 0 W/m² 7,3 °C 7,9 °C 0,0 km/h (0 Bft)
15.05.2017 05:49 7,9 °C 7,9 °C 96 % 1026,4 hPa 0,0 mm 0,0 km/h (0 Bft) O-SO 107 ° 0 min 0,000 mm 0,0 UV-I 0 W/m² 7,3 °C 7,9 °C 0,0 km/h (0 Bft)
15.05.2017 05:50 7,9 °C 7,9 °C 96 % 1026,5 hPa 0,0 mm 0,0 km/h (0 Bft) O-SO 107 ° 0 min 0,000 mm 0,0 UV-I 0 W/m² 7,3 °C 7,9 °C 0,0 km/h (0 Bft)
15.05.2017 05:51 7,9 °C 7,9 °C 96 % 1026,5 hPa 0,0 mm 0,0 km/h (0 Bft) O-SO 107 ° 0 min 0,000 mm 0,0 UV-I 0 W/m² 7,3 °C 7,9 °C 0,0 km/h (0 Bft)
15.05.2017 05:52 7,8 °C 7,9 °C 96 % 1026,5 hPa 0,0 mm 0,0 km/h (0 Bft) O-SO 107 ° 0 min 0,000 mm 0,0 UV-I 0 W/m² 7,2 °C 7,8 °C 0,0 km/h (0 Bft)
15.05.2017 05:53 7,9 °C 7,9 °C 96 % 1026,5 hPa 0,0 mm 0,0 km/h (0 Bft) O-SO 107 ° 0 min 0,000 mm 0,0 UV-I 0 W/m² 7,3 °C 7,9 °C 0,0 km/h (0 Bft)
15.05.2017 05:54 7,9 °C 7,9 °C 96 % 1026,5 hPa 0,0 mm 0,0 km/h (0 Bft) O-SO 107 ° 0 min 0,000 mm 0,0 UV-I 0 W/m² 7,3 °C 7,9 °C 0,0 km/h (0 Bft)
15.05.2017 05:55 7,9 °C 7,9 °C 96 % 1026,5 hPa 0,0 mm 0,0 km/h (0 Bft) O-SO 107 ° 0 min 0,000 mm 0,0 UV-I 0 W/m² 7,3 °C 7,9 °C 0,0 km/h (0 Bft)
15.05.2017 05:56 7,9 °C 7,9 °C 96 % 1026,5 hPa 0,0 mm 0,0 km/h (0 Bft) O-SO 107 ° 0 min 0,000 mm 0,0 UV-I 0 W/m² 7,3 °C 7,9 °C 0,0 km/h (0 Bft)
15.05.2017 05:57 7,9 °C 7,9 °C 96 % 1026,6 hPa 0,0 mm 0,0 km/h (0 Bft) O-SO 107 ° 0 min 0,000 mm 0,0 UV-I 0 W/m² 7,3 °C 7,9 °C 0,0 km/h (0 Bft)
15.05.2017 05:58 7,9 °C 7,9 °C 96 % 1026,6 hPa 0,0 mm 0,0 km/h (0 Bft) O-SO 107 ° 0 min 0,000 mm 0,0 UV-I 0 W/m² 7,3 °C 7,9 °C 0,0 km/h (0 Bft)
15.05.2017 05:59 7,9 °C 7,9 °C 96 % 1026,6 hPa 0,0 mm 0,0 km/h (0 Bft) O-SO 107 ° 0 min 0,000 mm 0,0 UV-I 5 W/m² 7,3 °C 7,9 °C 0,0 km/h (0 Bft)
15.05.2017 06:00 7,9 °C 7,9 °C 96 % 1026,6 hPa 0,0 mm 0,0 km/h (0 Bft) O-SO 107 ° 0 min 0,000 mm 0,0 UV-I 5 W/m² 7,3 °C 7,9 °C 0,0 km/h (0 Bft)
15.05.2017 06:01 7,9 °C 7,9 °C 96 % 1026,6 hPa 0,0 mm 0,0 km/h (0 Bft) O-SO 107 ° 0 min 0,000 mm 0,0 UV-I 5 W/m² 7,3 °C 7,9 °C 0,0 km/h (0 Bft)
15.05.2017 06:02 7,9 °C 7,9 °C 96 % 1026,6 hPa 0,0 mm 0,0 km/h (0 Bft) O-SO 107 ° 0 min 0,000 mm 0,0 UV-I 5 W/m² 7,3 °C 7,9 °C 0,0 km/h (0 Bft)
15.05.2017 06:03 7,9 °C 8,0 °C 96 % 1026,6 hPa 0,0 mm 0,0 km/h (0 Bft) O-SO 107 ° 0 min 0,000 mm 0,0 UV-I 5 W/m² 7,3 °C 7,9 °C 0,0 km/h (0 Bft)
15.05.2017 06:04 8,0 °C 8,0 °C 96 % 1026,6 hPa 0,0 mm 0,0 km/h (0 Bft) O-SO 107 ° 0 min 0,000 mm 0,0 UV-I 5 W/m² 7,4 °C 8,0 °C 0,0 km/h (0 Bft)
15.05.2017 06:05 8,0 °C 8,0 °C 96 % 1026,6 hPa 0,0 mm 0,0 km/h (0 Bft) O-SO 107 ° 0 min 0,000 mm 0,0 UV-I 5 W/m² 7,4 °C 8,0 °C 0,0 km/h (0 Bft)
15.05.2017 06:06 8,1 °C 8,1 °C 96 % 1026,6 hPa 0,0 mm 0,0 km/h (0 Bft) O-SO 107 ° 0 min 0,000 mm 0,0 UV-I 5 W/m² 7,5 °C 8,1 °C 0,0 km/h (0 Bft)
15.05.2017 06:07 8,0 °C 8,1 °C 96 % 1026,6 hPa 0,0 mm 0,0 km/h (0 Bft) O-SO 107 ° 0 min 0,000 mm 0,0 UV-I 5 W/m² 7,4 °C 8,0 °C 0,0 km/h (0 Bft)
15.05.2017 06:08 8,0 °C 8,1 °C 96 % 1026,6 hPa 0,0 mm 0,0 km/h (0 Bft) O-SO 107 ° 0 min 0,000 mm 0,0 UV-I 5 W/m² 7,4 °C 8,0 °C 0,0 km/h (0 Bft)
15.05.2017 06:09 8,0 °C 8,1 °C 96 % 1026,7 hPa 0,0 mm 0,0 km/h (0 Bft) O-SO 107 ° 0 min 0,000 mm 0,0 UV-I 5 W/m² 7,4 °C 8,0 °C 0,0 km/h (0 Bft)
15.05.2017 06:10 8,1 °C 8,1 °C 96 % 1026,7 hPa 0,0 mm 0,0 km/h (0 Bft) O-SO 107 ° 0 min 0,000 mm 0,0 UV-I 5 W/m² 7,5 °C 8,1 °C 0,0 km/h (0 Bft)
15.05.2017 06:11 8,1 °C 8,1 °C 96 % 1026,7 hPa 0,0 mm 0,0 km/h (0 Bft) O-SO 107 ° 0 min 0,000 mm 0,0 UV-I 5 W/m² 7,5 °C 8,1 °C 0,0 km/h (0 Bft)
15.05.2017 06:12 8,1 °C 8,1 °C 96 % 1026,7 hPa 0,0 mm 0,0 km/h (0 Bft) O-SO 107 ° 0 min 0,000 mm 0,0 UV-I 7 W/m² 7,5 °C 8,1 °C 0,0 km/h (0 Bft)
15.05.2017 06:13 8,0 °C 8,1 °C 96 % 1026,7 hPa 0,0 mm 0,0 km/h (0 Bft) O-SO 107 ° 0 min 0,000 mm 0,0 UV-I 7 W/m² 7,4 °C 8,0 °C 0,0 km/h (0 Bft)
15.05.2017 06:14 8,0 °C 8,1 °C 96 % 1026,8 hPa 0,0 mm 0,0 km/h (0 Bft) O-SO 107 ° 0 min 0,000 mm 0,0 UV-I 7 W/m² 7,4 °C 8,0 °C 0,0 km/h (0 Bft)
15.05.2017 06:15 8,0 °C 8,0 °C 96 % 1026,8 hPa 0,0 mm 0,1 km/h (0 Bft) O-SO 107 ° 0 min 0,000 mm 0,0 UV-I 7 W/m² 7,4 °C 8,0 °C 1,6 km/h (1 Bft)
15.05.2017 06:16 8,0 °C 8,0 °C 96 % 1026,7 hPa 0,0 mm 1,4 km/h (1 Bft) O-SO 107 ° 0 min 0,000 mm 0,0 UV-I 7 W/m² 7,4 °C 8,0 °C 3,2 km/h (1 Bft)
15.05.2017 06:17 8,1 °C 8,1 °C 96 % 1026,8 hPa 0,0 mm 2,4 km/h (1 Bft) O-SO 107 ° 0 min 0,000 mm 0,0 UV-I 7 W/m² 7,5 °C 8,1 °C 4,8 km/h (1 Bft)
15.05.2017 06:18 8,2 °C 8,2 °C 96 % 1026,8 hPa 0,0 mm 2,3 km/h (1 Bft) O-SO 107 ° 0 min 0,000 mm 0,0 UV-I 7 W/m² 7,6 °C 8,2 °C 3,2 km/h (1 Bft)
15.05.2017 06:19 8,3 °C 8,3 °C 96 % 1026,8 hPa 0,0 mm 2,4 km/h (1 Bft) O-SO 107 ° 0 min 0,000 mm 0,0 UV-I 9 W/m² 7,7 °C 8,3 °C 4,8 km/h (1 Bft)
15.05.2017 06:20 8,3 °C 8,3 °C 96 % 1026,8 hPa 0,0 mm 0,3 km/h (0 Bft) O-SO 107 ° 0 min 0,000 mm 0,0 UV-I 9 W/m² 7,7 °C 8,3 °C 1,6 km/h (1 Bft)
15.05.2017 06:21 8,4 °C 8,4 °C 96 % 1026,8 hPa 0,0 mm 0,4 km/h (0 Bft) O-SO 107 ° 0 min 0,000 mm 0,0 UV-I 9 W/m² 7,8 °C 8,4 °C 1,6 km/h (1 Bft)
15.05.2017 06:22 8,4 °C 8,4 °C 96 % 1026,8 hPa 0,0 mm 0,0 km/h (0 Bft) O-SO 107 ° 0 min 0,000 mm 0,0 UV-I 9 W/m² 7,8 °C 8,4 °C 0,0 km/h (0 Bft)
15.05.2017 06:23 8,4 °C 8,4 °C 96 % 1026,8 hPa 0,0 mm 0,3 km/h (0 Bft) O-SO 107 ° 0 min 0,000 mm 0,0 UV-I 9 W/m² 7,8 °C 8,4 °C 1,6 km/h (1 Bft)
15.05.2017 06:24 8,4 °C 8,4 °C 96 % 1026,8 hPa 0,0 mm 0,0 km/h (0 Bft) O-SO 107 ° 0 min 0,000 mm 0,0 UV-I 9 W/m² 7,8 °C 8,4 °C 0,0 km/h (0 Bft)
15.05.2017 06:25 8,4 °C 8,4 °C 96 % 1026,8 hPa 0,0 mm 0,0 km/h (0 Bft) O-SO 107 ° 0 min 0,000 mm 0,0 UV-I 9 W/m² 7,8 °C 8,4 °C 0,0 km/h (0 Bft)
15.05.2017 06:26 8,3 °C 8,4 °C 96 % 1026,9 hPa 0,0 mm 0,0 km/h (0 Bft) O-SO 107 ° 0 min 0,000 mm 0,0 UV-I 9 W/m² 7,7 °C 8,3 °C 0,0 km/h (0 Bft)
15.05.2017 06:27 8,4 °C 8,4 °C 96 % 1026,9 hPa 0,0 mm 1,5 km/h (1 Bft) S 175 ° 0 min 0,000 mm 0,0 UV-I 9 W/m² 7,8 °C 8,4 °C 4,8 km/h (1 Bft)
15.05.2017 06:28 8,4 °C 8,4 °C 96 % 1026,9 hPa 0,0 mm 0,7 km/h (0 Bft) S 174 ° 0 min 0,000 mm 0,0 UV-I 9 W/m² 7,8 °C 8,4 °C 3,2 km/h (1 Bft)
15.05.2017 06:29 8,5 °C 8,5 °C 96 % 1026,9 hPa 0,0 mm 3,3 km/h (1 Bft) S 179 ° 0 min 0,000 mm 0,0 UV-I 9 W/m² 7,9 °C 8,5 °C 4,8 km/h (1 Bft)
15.05.2017 06:30 8,6 °C 8,6 °C 96 % 1026,9 hPa 0,0 mm 4,5 km/h (1 Bft) S 175 ° 0 min 0,000 mm 0,0 UV-I 11 W/m² 8,0 °C 8,6 °C 6,4 km/h (2 Bft)
15.05.2017 06:31 8,7 °C 8,7 °C 96 % 1026,9 hPa 0,0 mm 2,1 km/h (1 Bft) S 175 ° 0 min 0,000 mm 0,0 UV-I 12 W/m² 8,1 °C 8,7 °C 3,2 km/h (1 Bft)
15.05.2017 06:32 8,7 °C 8,7 °C 96 % 1026,9 hPa 0,0 mm 4,5 km/h (1 Bft) S-SO 167 ° 0 min 0,000 mm 0,0 UV-I 14 W/m² 8,1 °C 8,7 °C 6,4 km/h (2 Bft)
15.05.2017 06:33 8,8 °C 8,8 °C 96 % 1026,9 hPa 0,0 mm 3,9 km/h (1 Bft) S-SO 168 ° 0 min 0,000 mm 0,0 UV-I 16 W/m² 8,2 °C 8,8 °C 6,4 km/h (2 Bft)
15.05.2017 06:34 8,9 °C 8,9 °C 96 % 1026,9 hPa 0,0 mm 4,7 km/h (1 Bft) S 187 ° 0 min 0,000 mm 0,0 UV-I 21 W/m² 8,3 °C 8,6 °C 6,4 km/h (2 Bft)
15.05.2017 06:35 8,9 °C 8,9 °C 96 % 1027,0 hPa 0,0 mm 2,3 km/h (1 Bft) S 186 ° 0 min 0,000 mm 0,0 UV-I 26 W/m² 8,3 °C 8,9 °C 3,2 km/h (1 Bft)
15.05.2017 06:36 9,0 °C 9,0 °C 96 % 1027,0 hPa 0,0 mm 0,4 km/h (0 Bft) S 186 ° 0 min 0,000 mm 0,0 UV-I 30 W/m² 8,4 °C 9,0 °C 1,6 km/h (1 Bft)
15.05.2017 06:37 9,0 °C 9,0 °C 96 % 1027,0 hPa 0,0 mm 0,5 km/h (0 Bft) S 186 ° 0 min 0,000 mm 0,0 UV-I 32 W/m² 8,4 °C 9,0 °C 3,2 km/h (1 Bft)
15.05.2017 06:38 9,0 °C 9,0 °C 96 % 1027,0 hPa 0,2 mm 1,5 km/h (1 Bft) S-SW 196 ° 0 min 0,000 mm 0,0 UV-I 33 W/m² 8,4 °C 9,0 °C 3,2 km/h (1 Bft)
15.05.2017 06:39 9,1 °C 9,1 °C 95 % 1027,0 hPa 0,0 mm 3,8 km/h (1 Bft) S 188 ° 0 min 0,000 mm 0,0 UV-I 37 W/m² 8,3 °C 9,1 °C 4,8 km/h (1 Bft)
15.05.2017 06:40 9,1 °C 9,1 °C 96 % 1027,0 hPa 0,0 mm 2,3 km/h (1 Bft) S 188 ° 0 min 0,000 mm 0,0 UV-I 37 W/m² 8,5 °C 9,1 °C 4,8 km/h (1 Bft)
15.05.2017 06:41 9,1 °C 9,1 °C 95 % 1027,0 hPa 0,0 mm 3,9 km/h (1 Bft) S 187 ° 0 min 0,000 mm 0,0 UV-I 46 W/m² 8,3 °C 9,1 °C 4,8 km/h (1 Bft)
15.05.2017 06:42 9,1 °C 9,2 °C 95 % 1027,0 hPa 0,0 mm 3,7 km/h (1 Bft) S-SO 168 ° 0 min 0,000 mm 0,0 UV-I 47 W/m² 8,3 °C 9,1 °C 6,4 km/h (2 Bft)
15.05.2017 06:43 9,2 °C 9,2 °C 95 % 1027,0 hPa 0,0 mm 4,1 km/h (1 Bft) S-SO 153 ° 0 min 0,000 mm 0,0 UV-I 47 W/m² 8,4 °C 9,2 °C 6,4 km/h (2 Bft)
15.05.2017 06:44 9,2 °C 9,2 °C 95 % 1027,0 hPa 0,0 mm 1,9 km/h (1 Bft) S-SO 153 ° 0 min 0,000 mm 0,0 UV-I 46 W/m² 8,4 °C 9,2 °C 4,8 km/h (1 Bft)
15.05.2017 06:45 9,2 °C 9,2 °C 95 % 1027,1 hPa 0,0 mm 3,0 km/h (1 Bft) S 188 ° 0 min 0,000 mm 0,0 UV-I 47 W/m² 8,4 °C 9,2 °C 4,8 km/h (1 Bft)
15.05.2017 06:46 9,2 °C 9,2 °C 95 % 1027,0 hPa 0,0 mm 1,2 km/h (1 Bft) S 188 ° 0 min 0,000 mm 0,0 UV-I 47 W/m² 8,4 °C 9,2 °C 3,2 km/h (1 Bft)
15.05.2017 06:47 9,3 °C 9,3 °C 95 % 1027,1 hPa 0,0 mm 2,7 km/h (1 Bft) S-SW 196 ° 0 min 0,000 mm 0,0 UV-I 49 W/m² 8,5 °C 9,3 °C 4,8 km/h (1 Bft)
15.05.2017 06:48 9,3 °C 9,3 °C 95 % 1027,1 hPa 0,0 mm 6,6 km/h (2 Bft) S-SW 200 ° 0 min 0,000 mm 0,0 UV-I 49 W/m² 8,5 °C 8,5 °C 8,0 km/h (2 Bft)
15.05.2017 06:49 9,3 °C 9,3 °C 95 % 1027,1 hPa 0,0 mm 4,6 km/h (1 Bft) S 169 ° 0 min 0,000 mm 0,0 UV-I 47 W/m² 8,5 °C 9,1 °C 8,0 km/h (2 Bft)
15.05.2017 06:50 9,3 °C 9,4 °C 95 % 1027,0 hPa 0,0 mm 5,9 km/h (2 Bft) S-SO 168 ° 0 min 0,000 mm 0,0 UV-I 47 W/m² 8,5 °C 8,7 °C 9,7 km/h (2 Bft)
15.05.2017 06:51 9,4 °C 9,4 °C 95 % 1027,1 hPa 0,0 mm 3,8 km/h (1 Bft) S-SW 200 ° 0 min 0,000 mm 0,0 UV-I 46 W/m² 8,6 °C 9,4 °C 6,4 km/h (2 Bft)
15.05.2017 06:52 9,4 °C 9,4 °C 94 % 1027,1 hPa 0,0 mm 3,1 km/h (1 Bft) S 185 ° 0 min 0,000 mm 0,0 UV-I 46 W/m² 8,5 °C 9,4 °C 4,8 km/h (1 Bft)
15.05.2017 06:53 9,5 °C 9,5 °C 94 % 1027,1 hPa 0,0 mm 7,5 km/h (2 Bft) S 175 ° 0 min 0,000 mm 0,0 UV-I 44 W/m² 8,6 °C 8,5 °C 9,7 km/h (2 Bft)
15.05.2017 06:54 9,6 °C 9,6 °C 94 % 1027,1 hPa 0,0 mm 6,0 km/h (2 Bft) S-SO 160 ° 0 min 0,000 mm 0,0 UV-I 44 W/m² 8,7 °C 9,0 °C 9,7 km/h (2 Bft)
15.05.2017 06:55 9,6 °C 9,6 °C 94 % 1027,1 hPa 0,0 mm 5,3 km/h (1 Bft) S 175 ° 0 min 0,000 mm 0,0 UV-I 42 W/m² 8,7 °C 9,2 °C 9,7 km/h (2 Bft)
15.05.2017 06:56 9,7 °C 9,7 °C 94 % 1027,1 hPa 0,2 mm 4,3 km/h (1 Bft) S-SW 196 ° 0 min 0,000 mm 0,0 UV-I 42 W/m² 8,8 °C 9,7 °C 8,0 km/h (2 Bft)
15.05.2017 06:57 9,7 °C 9,7 °C 94 % 1027,1 hPa 0,0 mm 3,1 km/h (1 Bft) S-SW 207 ° 0 min 0,000 mm 0,0 UV-I 44 W/m² 8,8 °C 9,7 °C 4,8 km/h (1 Bft)
15.05.2017 06:58 9,7 °C 9,7 °C 93 % 1027,2 hPa 0,0 mm 4,9 km/h (1 Bft) S-SW 204 ° 0 min 0,000 mm 0,0 UV-I 44 W/m² 8,6 °C 9,4 °C 8,0 km/h (2 Bft)
15.05.2017 06:59 9,7 °C 9,7 °C 93 % 1027,2 hPa 0,0 mm 7,1 km/h (2 Bft) S 180 ° 0 min 0,000 mm 0,0 UV-I 44 W/m² 8,6 °C 8,9 °C 9,7 km/h (2 Bft)
15.05.2017 07:00 9,7 °C 9,7 °C 93 % 1027,2 hPa 0,0 mm 7,2 km/h (2 Bft) S-SW 209 ° 0 min 0,000 mm 0,0 UV-I 44 W/m² 8,6 °C 8,8 °C 8,0 km/h (2 Bft)
15.05.2017 07:01 9,7 °C 9,7 °C 93 % 1027,1 hPa 0,0 mm 4,8 km/h (1 Bft) S 191 ° 0 min 0,000 mm 0,0 UV-I 49 W/m² 8,6 °C 9,5 °C 8,0 km/h (2 Bft)
15.05.2017 07:02 9,7 °C 9,7 °C 93 % 1027,1 hPa 0,0 mm 5,4 km/h (1 Bft) S-SO 167 ° 0 min 0,000 mm 0,0 UV-I 51 W/m² 8,6 °C 9,3 °C 11,3 km/h (2 Bft)
15.05.2017 07:03 9,7 °C 9,7 °C 93 % 1027,1 hPa 0,0 mm 1,0 km/h (0 Bft) S-SO 167 ° 0 min 0,000 mm 0,0 UV-I 51 W/m² 8,6 °C 9,7 °C 1,6 km/h (1 Bft)
15.05.2017 07:04 9,6 °C 9,7 °C 94 % 1027,2 hPa 0,0 mm 2,4 km/h (1 Bft) S 190 ° 0 min 0,000 mm 0,0 UV-I 49 W/m² 8,7 °C 9,6 °C 4,8 km/h (1 Bft)
15.05.2017 07:05 9,7 °C 9,7 °C 94 % 1027,2 hPa 0,0 mm 4,2 km/h (1 Bft) S 183 ° 0 min 0,000 mm 0,0 UV-I 49 W/m² 8,8 °C 9,7 °C 6,4 km/h (2 Bft)
15.05.2017 07:06 9,7 °C 9,7 °C 94 % 1027,2 hPa 0,0 mm 2,3 km/h (1 Bft) S 181 ° 0 min 0,000 mm 0,0 UV-I 47 W/m² 8,8 °C 9,7 °C 3,2 km/h (1 Bft)
15.05.2017 07:07 9,6 °C 9,7 °C 94 % 1027,2 hPa 0,0 mm 2,6 km/h (1 Bft) S 182 ° 0 min 0,000 mm 0,0 UV-I 47 W/m² 8,7 °C 9,6 °C 4,8 km/h (1 Bft)
15.05.2017 07:08 9,6 °C 9,6 °C 94 % 1027,2 hPa 0,0 mm 1,9 km/h (1 Bft) S 182 ° 0 min 0,000 mm 0,0 UV-I 47 W/m² 8,7 °C 9,6 °C 3,2 km/h (1 Bft)
15.05.2017 07:09 9,6 °C 9,6 °C 94 % 1027,2 hPa 0,0 mm 2,6 km/h (1 Bft) S 184 ° 0 min 0,000 mm 0,0 UV-I 47 W/m² 8,7 °C 9,6 °C 3,2 km/h (1 Bft)
15.05.2017 07:10 9,7 °C 9,7 °C 94 % 1027,2 hPa 0,0 mm 2,1 km/h (1 Bft) S 187 ° 0 min 0,000 mm 0,0 UV-I 49 W/m² 8,8 °C 9,7 °C 4,8 km/h (1 Bft)
15.05.2017 07:11 9,6 °C 9,7 °C 94 % 1027,2 hPa 0,0 mm 2,9 km/h (1 Bft) S 187 ° 0 min 0,000 mm 0,0 UV-I 65 W/m² 8,7 °C 9,6 °C 4,8 km/h (1 Bft)
15.05.2017 07:12 9,7 °C 9,7 °C 94 % 1027,2 hPa 0,0 mm 1,6 km/h (1 Bft) S 187 ° 0 min 0,000 mm 0,0 UV-I 56 W/m² 8,8 °C 9,7 °C 3,2 km/h (1 Bft)
15.05.2017 07:13 9,7 °C 9,7 °C 94 % 1027,2 hPa 0,0 mm 1,5 km/h (1 Bft) S 182 ° 0 min 0,000 mm 0,0 UV-I 62 W/m² 8,8 °C 9,7 °C 3,2 km/h (1 Bft)
15.05.2017 07:14 9,6 °C 9,7 °C 94 % 1027,2 hPa 0,0 mm 2,1 km/h (1 Bft) S 182 ° 0 min 0,000 mm 0,0 UV-I 107 W/m² 8,7 °C 9,6 °C 3,2 km/h (1 Bft)
15.05.2017 07:15 9,7 °C 9,7 °C 94 % 1027,3 hPa 0,0 mm 2,4 km/h (1 Bft) S 182 ° 0 min 0,000 mm 0,0 UV-I 77 W/m² 8,8 °C 9,7 °C 3,2 km/h (1 Bft)
15.05.2017 07:16 9,7 °C 9,7 °C 94 % 1027,2 hPa 0,0 mm 1,4 km/h (1 Bft) S 182 ° 0 min 0,000 mm 0,0 UV-I 100 W/m² 8,8 °C 9,7 °C 3,2 km/h (1 Bft)
15.05.2017 07:17 9,7 °C 9,7 °C 95 % 1027,2 hPa 0,0 mm 0,8 km/h (0 Bft) S 182 ° 0 min 0,000 mm 0,0 UV-I 118 W/m² 8,9 °C 9,7 °C 3,2 km/h (1 Bft)
15.05.2017 07:18 9,7 °C 9,7 °C 94 % 1027,2 hPa 0,0 mm 2,0 km/h (1 Bft) S 182 ° 0 min 0,000 mm 0,0 UV-I 104 W/m² 8,8 °C 9,7 °C 3,2 km/h (1 Bft)
15.05.2017 07:19 9,8 °C 9,8 °C 95 % 1027,2 hPa 0,0 mm 2,0 km/h (1 Bft) S 182 ° 0 min 0,000 mm 0,0 UV-I 93 W/m² 9,0 °C 9,8 °C 3,2 km/h (1 Bft)
15.05.2017 07:20 9,8 °C 9,8 °C 95 % 1027,2 hPa 0,0 mm 1,8 km/h (1 Bft) S 182 ° 0 min 0,000 mm 0,0 UV-I 74 W/m² 9,0 °C 9,8 °C 3,2 km/h (1 Bft)
15.05.2017 07:21 9,8 °C 9,8 °C 94 % 1027,3 hPa 0,0 mm 1,1 km/h (1 Bft) S 182 ° 0 min 0,000 mm 0,0 UV-I 54 W/m² 8,9 °C 9,8 °C 1,6 km/h (1 Bft)
15.05.2017 07:22 9,8 °C 9,8 °C 94 % 1027,4 hPa 0,0 mm 0,6 km/h (0 Bft) S 182 ° 0 min 0,000 mm 0,0 UV-I 44 W/m² 8,9 °C 9,8 °C 1,6 km/h (1 Bft)
15.05.2017 07:23 9,8 °C 9,9 °C 95 % 1027,4 hPa 0,0 mm 2,3 km/h (1 Bft) S 182 ° 0 min 0,000 mm 0,0 UV-I 42 W/m² 9,0 °C 9,8 °C 4,8 km/h (1 Bft)
15.05.2017 07:24 9,9 °C 9,9 °C 94 % 1027,3 hPa 0,0 mm 2,6 km/h (1 Bft) S 182 ° 0 min 0,000 mm 0,0 UV-I 40 W/m² 9,0 °C 9,9 °C 3,2 km/h (1 Bft)
15.05.2017 07:25 9,9 °C 9,9 °C 94 % 1027,3 hPa 0,0 mm 0,6 km/h (0 Bft) S 182 ° 0 min 0,000 mm 0,0 UV-I 40 W/m² 9,0 °C 9,9 °C 1,6 km/h (1 Bft)
15.05.2017 07:26 9,9 °C 9,9 °C 94 % 1027,4 hPa 0,0 mm 0,0 km/h (0 Bft) S 182 ° 0 min 0,000 mm 0,0 UV-I 35 W/m² 9,0 °C 9,9 °C 0,0 km/h (0 Bft)
15.05.2017 07:27 9,9 °C 9,9 °C 94 % 1027,3 hPa 0,0 mm 0,0 km/h (0 Bft) S 182 ° 0 min 0,000 mm 0,0 UV-I 35 W/m² 9,0 °C 9,9 °C 0,0 km/h (0 Bft)
15.05.2017 07:28 9,8 °C 9,9 °C 94 % 1027,4 hPa 0,0 mm 0,0 km/h (0 Bft) S 182 ° 0 min 0,000 mm 0,0 UV-I 33 W/m² 8,9 °C 9,8 °C 0,0 km/h (0 Bft)
15.05.2017 07:29 9,8 °C 9,9 °C 94 % 1027,4 hPa 0,0 mm 0,0 km/h (0 Bft) S 182 ° 0 min 0,000 mm 0,0 UV-I 33 W/m² 8,9 °C 9,8 °C 0,0 km/h (0 Bft)
15.05.2017 07:30 9,8 °C 9,8 °C 94 % 1027,4 hPa 0,0 mm 1,0 km/h (0 Bft) S 182 ° 0 min 0,000 mm 0,0 UV-I 33 W/m² 8,9 °C 9,8 °C 1,6 km/h (1 Bft)
15.05.2017 07:31 9,8 °C 9,9 °C 94 % 1027,4 hPa 0,2 mm 1,0 km/h (0 Bft) S 182 ° 0 min 0,000 mm 0,0 UV-I 33 W/m² 8,9 °C 9,8 °C 3,2 km/h (1 Bft)
15.05.2017 07:32 9,8 °C 9,9 °C 94 % 1027,4 hPa 0,0 mm 1,0 km/h (0 Bft) S 182 ° 0 min 0,000 mm 0,0 UV-I 33 W/m² 8,9 °C 9,8 °C 3,2 km/h (1 Bft)
15.05.2017 07:33 9,9 °C 9,9 °C 94 % 1027,4 hPa 0,0 mm 0,9 km/h (0 Bft) S 182 ° 0 min 0,000 mm 0,0 UV-I 33 W/m² 9,0 °C 9,9 °C 3,2 km/h (1 Bft)
15.05.2017 07:34 9,8 °C 9,9 °C 94 % 1027,4 hPa 0,0 mm 0,0 km/h (0 Bft) S 182 ° 0 min 0,000 mm 0,0 UV-I 33 W/m² 8,9 °C 9,8 °C 0,0 km/h (0 Bft)
15.05.2017 07:35 9,8 °C 9,9 °C 94 % 1027,4 hPa 0,0 mm 1,6 km/h (1 Bft) S 182 ° 0 min 0,000 mm 0,0 UV-I 35 W/m² 8,9 °C 9,8 °C 3,2 km/h (1 Bft)
15.05.2017 07:36 9,8 °C 9,8 °C 94 % 1027,4 hPa 0,0 mm 0,5 km/h (0 Bft) S 182 ° 0 min 0,000 mm 0,0 UV-I 35 W/m² 8,9 °C 9,8 °C 1,6 km/h (1 Bft)
15.05.2017 07:37 9,8 °C 9,8 °C 94 % 1027,4 hPa 0,0 mm 0,2 km/h (0 Bft) S 182 ° 0 min 0,000 mm 0,0 UV-I 37 W/m² 8,9 °C 9,8 °C 1,6 km/h (1 Bft)
15.05.2017 07:38 9,8 °C 9,8 °C 94 % 1027,4 hPa 0,0 mm 0,0 km/h (0 Bft) S 182 ° 0 min 0,000 mm 0,0 UV-I 39 W/m² 8,9 °C 9,8 °C 0,0 km/h (0 Bft)
15.05.2017 07:39 9,8 °C 9,8 °C 94 % 1027,3 hPa 0,0 mm 0,0 km/h (0 Bft) S 182 ° 0 min 0,000 mm 0,0 UV-I 40 W/m² 8,9 °C 9,8 °C 0,0 km/h (0 Bft)
15.05.2017 07:40 9,8 °C 9,8 °C 94 % 1027,3 hPa 0,0 mm 0,0 km/h (0 Bft) S 182 ° 0 min 0,000 mm 0,0 UV-I 44 W/m² 8,9 °C 9,8 °C 0,0 km/h (0 Bft)
15.05.2017 07:41 9,8 °C 9,8 °C 94 % 1027,3 hPa 0,0 mm 0,0 km/h (0 Bft) S 182 ° 0 min 0,000 mm 0,0 UV-I 46 W/m² 8,9 °C 9,8 °C 0,0 km/h (0 Bft)
15.05.2017 07:42 9,8 °C 9,8 °C 95 % 1027,3 hPa 0,0 mm 0,0 km/h (0 Bft) S 181 ° 0 min 0,000 mm 0,0 UV-I 47 W/m² 9,0 °C 9,8 °C 0,0 km/h (0 Bft)
15.05.2017 07:43 9,8 °C 9,8 °C 95 % 1027,3 hPa 0,0 mm 0,4 km/h (0 Bft) S 181 ° 0 min 0,000 mm 0,0 UV-I 51 W/m² 9,0 °C 9,8 °C 1,6 km/h (1 Bft)
15.05.2017 07:44 9,8 °C 9,8 °C 95 % 1027,3 hPa 0,0 mm 0,8 km/h (0 Bft) S 181 ° 0 min 0,000 mm 0,0 UV-I 53 W/m² 9,0 °C 9,8 °C 1,6 km/h (1 Bft)
15.05.2017 07:45 9,8 °C 9,9 °C 95 % 1027,3 hPa 0,0 mm 0,9 km/h (0 Bft) S 181 ° 0 min 0,000 mm 0,0 UV-I 54 W/m² 9,0 °C 9,8 °C 1,6 km/h (1 Bft)
15.05.2017 07:46 9,9 °C 9,9 °C 95 % 1027,4 hPa 0,0 mm 0,0 km/h (0 Bft) S 181 ° 0 min 0,000 mm 0,0 UV-I 56 W/m² 9,1 °C 9,9 °C 0,0 km/h (0 Bft)
15.05.2017 07:47 9,8 °C 9,9 °C 95 % 1027,3 hPa 0,0 mm 0,0 km/h (0 Bft) S 181 ° 0 min 0,000 mm 0,0 UV-I 56 W/m² 9,0 °C 9,8 °C 0,0 km/h (0 Bft)
15.05.2017 07:48 9,8 °C 9,8 °C 95 % 1027,4 hPa 0,0 mm 0,0 km/h (0 Bft) S 181 ° 0 min 0,000 mm 0,0 UV-I 56 W/m² 9,0 °C 9,8 °C 0,0 km/h (0 Bft)
15.05.2017 07:49 9,8 °C 9,8 °C 95 % 1027,4 hPa 0,0 mm 0,0 km/h (0 Bft) S 181 ° 0 min 0,000 mm 0,0 UV-I 58 W/m² 9,0 °C 9,8 °C 0,0 km/h (0 Bft)
15.05.2017 07:50 9,8 °C 9,8 °C 95 % 1027,4 hPa 0,0 mm 0,0 km/h (0 Bft) S 181 ° 0 min 0,000 mm 0,0 UV-I 58 W/m² 9,0 °C 9,8 °C 0,0 km/h (0 Bft)
15.05.2017 07:51 9,9 °C 9,9 °C 95 % 1027,4 hPa 0,0 mm 0,0 km/h (0 Bft) S 181 ° 0 min 0,000 mm 0,0 UV-I 60 W/m² 9,1 °C 9,9 °C 0,0 km/h (0 Bft)
15.05.2017 07:52 9,9 °C 9,9 °C 95 % 1027,5 hPa 0,0 mm 1,2 km/h (1 Bft) S 182 ° 0 min 0,000 mm 0,5 UV-I 65 W/m² 9,1 °C 9,9 °C 3,2 km/h (1 Bft)
15.05.2017 07:53 9,9 °C 9,9 °C 95 % 1027,5 hPa 0,0 mm 2,5 km/h (1 Bft) S 182 ° 0 min 0,000 mm 0,5 UV-I 65 W/m² 9,1 °C 9,9 °C 3,2 km/h (1 Bft)
15.05.2017 07:54 10,0 °C 10,0 °C 95 % 1027,4 hPa 0,0 mm 1,9 km/h (1 Bft) S 184 ° 0 min 0,000 mm 0,5 UV-I 72 W/m² 9,2 °C 10,0 °C 3,2 km/h (1 Bft)
15.05.2017 07:55 10,1 °C 10,1 °C 95 % 1027,5 hPa 0,0 mm 1,1 km/h (1 Bft) S 184 ° 0 min 0,000 mm 0,5 UV-I 76 W/m² 9,3 °C 10,1 °C 3,2 km/h (1 Bft)
15.05.2017 07:56 10,1 °C 10,1 °C 95 % 1027,5 hPa 0,0 mm 0,0 km/h (0 Bft) S 184 ° 0 min 0,000 mm 0,5 UV-I 79 W/m² 9,3 °C 10,1 °C 0,0 km/h (0 Bft)
15.05.2017 07:57 10,1 °C 10,1 °C 95 % 1027,5 hPa 0,0 mm 0,0 km/h (0 Bft) S 184 ° 0 min 0,000 mm 0,5 UV-I 79 W/m² 9,3 °C 10,1 °C 0,0 km/h (0 Bft)
15.05.2017 07:58 10,2 °C 10,2 °C 95 % 1027,5 hPa 0,0 mm 0,0 km/h (0 Bft) S 184 ° 0 min 0,000 mm 0,5 UV-I 81 W/m² 9,4 °C 10,2 °C 0,0 km/h (0 Bft)
15.05.2017 07:59 10,2 °C 10,2 °C 95 % 1027,4 hPa 0,0 mm 0,0 km/h (0 Bft) S 184 ° 0 min 0,000 mm 0,6 UV-I 83 W/m² 9,4 °C 10,2 °C 0,0 km/h (0 Bft)
15.05.2017 08:00 10,2 °C 10,2 °C 95 % 1027,4 hPa 0,0 mm 0,0 km/h (0 Bft) S 184 ° 0 min 0,025 mm 0,6 UV-I 86 W/m² 9,4 °C 10,2 °C 0,0 km/h (0 Bft)
15.05.2017 08:01 10,2 °C 10,2 °C 95 % 1027,4 hPa 0,0 mm 0,0 km/h (0 Bft) S 184 ° 0 min 0,000 mm 0,6 UV-I 90 W/m² 9,4 °C 10,2 °C 0,0 km/h (0 Bft)
15.05.2017 08:02 10,2 °C 10,3 °C 95 % 1027,4 hPa 0,0 mm 0,0 km/h (0 Bft) S 184 ° 0 min 0,000 mm 0,6 UV-I 91 W/m² 9,4 °C 10,2 °C 0,0 km/h (0 Bft)
15.05.2017 08:03 10,3 °C 10,3 °C 95 % 1027,4 hPa 0,0 mm 0,0 km/h (0 Bft) S 184 ° 0 min 0,000 mm 0,6 UV-I 93 W/m² 9,5 °C 10,3 °C 0,0 km/h (0 Bft)
15.05.2017 08:04 10,3 °C 10,3 °C 95 % 1027,4 hPa 0,0 mm 0,4 km/h (0 Bft) S 183 ° 0 min 0,000 mm 0,6 UV-I 95 W/m² 9,5 °C 10,3 °C 3,2 km/h (1 Bft)
15.05.2017 08:05 10,4 °C 10,4 °C 95 % 1027,4 hPa 0,0 mm 1,2 km/h (1 Bft) S 183 ° 0 min 0,000 mm 0,7 UV-I 98 W/m² 9,6 °C 10,4 °C 1,6 km/h (1 Bft)
15.05.2017 08:06 10,4 °C 10,4 °C 95 % 1027,4 hPa 0,0 mm 0,0 km/h (0 Bft) S 182 ° 0 min 0,000 mm 0,7 UV-I 104 W/m² 9,6 °C 10,4 °C 0,0 km/h (0 Bft)
15.05.2017 08:07 10,4 °C 10,4 °C 95 % 1027,4 hPa 0,0 mm 0,0 km/h (0 Bft) S 182 ° 0 min 0,000 mm 0,7 UV-I 109 W/m² 9,6 °C 10,4 °C 0,0 km/h (0 Bft)
15.05.2017 08:08 10,4 °C 10,4 °C 95 % 1027,4 hPa 0,0 mm 0,0 km/h (0 Bft) S 182 ° 0 min 0,000 mm 0,8 UV-I 113 W/m² 9,6 °C 10,4 °C 0,0 km/h (0 Bft)
15.05.2017 08:09 10,4 °C 10,4 °C 95 % 1027,4 hPa 0,0 mm 0,0 km/h (0 Bft) S 182 ° 0 min 0,000 mm 0,8 UV-I 118 W/m² 9,6 °C 10,4 °C 0,0 km/h (0 Bft)
15.05.2017 08:10 10,4 °C 10,4 °C 95 % 1027,4 hPa 0,0 mm 0,0 km/h (0 Bft) S 182 ° 0 min 0,000 mm 0,8 UV-I 125 W/m² 9,6 °C 10,4 °C 0,0 km/h (0 Bft)
15.05.2017 08:11 10,4 °C 10,4 °C 95 % 1027,4 hPa 0,0 mm 0,0 km/h (0 Bft) S 182 ° 0 min 0,000 mm 0,8 UV-I 125 W/m² 9,6 °C 10,4 °C 0,0 km/h (0 Bft)
15.05.2017 08:12 10,4 °C 10,4 °C 94 % 1027,4 hPa 0,0 mm 0,7 km/h (0 Bft) S 182 ° 0 min 0,000 mm 0,8 UV-I 120 W/m² 9,5 °C 10,4 °C 1,6 km/h (1 Bft)
15.05.2017 08:13 10,5 °C 10,5 °C 94 % 1027,4 hPa 0,0 mm 0,0 km/h (0 Bft) S 182 ° 0 min 0,000 mm 0,8 UV-I 114 W/m² 9,6 °C 10,5 °C 0,0 km/h (0 Bft)
15.05.2017 08:14 10,6 °C 10,6 °C 94 % 1027,4 hPa 0,0 mm 0,0 km/h (0 Bft) S 182 ° 0 min 0,000 mm 0,8 UV-I 109 W/m² 9,7 °C 10,6 °C 0,0 km/h (0 Bft)
15.05.2017 08:15 10,6 °C 10,6 °C 94 % 1027,5 hPa 0,0 mm 0,0 km/h (0 Bft) S 182 ° 0 min 0,000 mm 0,8 UV-I 113 W/m² 9,7 °C 10,6 °C 0,0 km/h (0 Bft)
15.05.2017 08:16 10,6 °C 10,6 °C 94 % 1027,4 hPa 0,0 mm 0,0 km/h (0 Bft) S 182 ° 0 min 0,000 mm 0,8 UV-I 118 W/m² 9,7 °C 10,6 °C 0,0 km/h (0 Bft)
15.05.2017 08:17 10,6 °C 10,7 °C 94 % 1027,5 hPa 0,0 mm 0,6 km/h (0 Bft) S 182 ° 0 min 0,000 mm 0,9 UV-I 123 W/m² 9,7 °C 10,6 °C 1,6 km/h (1 Bft)
15.05.2017 08:18 10,6 °C 10,6 °C 94 % 1027,5 hPa 0,0 mm 0,1 km/h (0 Bft) S 182 ° 0 min 0,000 mm 0,9 UV-I 127 W/m² 9,7 °C 10,6 °C 1,6 km/h (1 Bft)
15.05.2017 08:19 10,6 °C 10,6 °C 94 % 1027,5 hPa 0,0 mm 0,8 km/h (0 Bft) S 182 ° 0 min 0,000 mm 0,9 UV-I 128 W/m² 9,7 °C 10,6 °C 3,2 km/h (1 Bft)
15.05.2017 08:20 10,7 °C 10,7 °C 94 % 1027,5 hPa 0,0 mm 2,0 km/h (1 Bft) S 182 ° 0 min 0,000 mm 0,9 UV-I 127 W/m² 9,8 °C 10,7 °C 3,2 km/h (1 Bft)
15.05.2017 08:21 10,7 °C 10,7 °C 94 % 1027,5 hPa 0,0 mm 2,6 km/h (1 Bft) S 170 ° 0 min 0,000 mm 0,8 UV-I 111 W/m² 9,8 °C 10,7 °C 6,4 km/h (2 Bft)
15.05.2017 08:22 10,7 °C 10,8 °C 94 % 1027,6 hPa 0,0 mm 1,6 km/h (1 Bft) S 170 ° 0 min 0,000 mm 0,8 UV-I 105 W/m² 9,8 °C 10,7 °C 3,2 km/h (1 Bft)
15.05.2017 08:23 10,8 °C 10,8 °C 94 % 1027,6 hPa 0,0 mm 0,0 km/h (0 Bft) S 170 ° 0 min 0,000 mm 0,8 UV-I 102 W/m² 9,9 °C 10,8 °C 0,0 km/h (0 Bft)
15.05.2017 08:24 10,8 °C 10,8 °C 94 % 1027,6 hPa 0,0 mm 0,0 km/h (0 Bft) S 170 ° 0 min 0,000 mm 0,8 UV-I 104 W/m² 9,9 °C 10,8 °C 0,0 km/h (0 Bft)
15.05.2017 08:25 10,8 °C 10,8 °C 94 % 1027,5 hPa 0,0 mm 0,0 km/h (0 Bft) S 170 ° 0 min 0,000 mm 0,8 UV-I 105 W/m² 9,9 °C 10,8 °C 0,0 km/h (0 Bft)
15.05.2017 08:26 10,8 °C 10,8 °C 94 % 1027,6 hPa 0,0 mm 0,0 km/h (0 Bft) S 170 ° 0 min 0,000 mm 0,8 UV-I 107 W/m² 9,9 °C 10,8 °C 0,0 km/h (0 Bft)
15.05.2017 08:27 10,9 °C 10,9 °C 94 % 1027,6 hPa 0,0 mm 1,6 km/h (1 Bft) SW 232 ° 0 min 0,000 mm 0,8 UV-I 107 W/m² 10,0 °C 10,9 °C 4,8 km/h (1 Bft)
15.05.2017 08:28 10,9 °C 10,9 °C 93 % 1027,6 hPa 0,0 mm 3,2 km/h (1 Bft) SW 232 ° 0 min 0,000 mm 0,8 UV-I 111 W/m² 9,8 °C 10,9 °C 4,8 km/h (1 Bft)
15.05.2017 08:29 11,0 °C 11,0 °C 93 % 1027,6 hPa 0,0 mm 1,8 km/h (1 Bft) SW 232 ° 0 min 0,000 mm 0,8 UV-I 111 W/m² 9,9 °C 11,0 °C 3,2 km/h (1 Bft)
15.05.2017 08:30 11,1 °C 11,1 °C 93 % 1027,6 hPa 0,0 mm 2,0 km/h (1 Bft) SW 232 ° 0 min 0,000 mm 0,9 UV-I 111 W/m² 10,0 °C 11,1 °C 3,2 km/h (1 Bft)
15.05.2017 08:31 11,1 °C 11,1 °C 93 % 1027,6 hPa 0,0 mm 0,4 km/h (0 Bft) SW 232 ° 0 min 0,000 mm 0,9 UV-I 111 W/m² 10,0 °C 11,1 °C 1,6 km/h (1 Bft)
15.05.2017 08:32 11,1 °C 11,1 °C 93 % 1027,6 hPa 0,0 mm 0,2 km/h (0 Bft) SW 232 ° 0 min 0,000 mm 0,9 UV-I 111 W/m² 10,0 °C 11,1 °C 1,6 km/h (1 Bft)
15.05.2017 08:33 11,1 °C 11,1 °C 93 % 1027,6 hPa 0,0 mm 0,0 km/h (0 Bft) SW 232 ° 0 min 0,000 mm 0,9 UV-I 111 W/m² 10,0 °C 11,1 °C 0,0 km/h (0 Bft)
15.05.2017 08:34 11,2 °C 11,2 °C 93 % 1027,6 hPa 0,0 mm 0,9 km/h (0 Bft) SW 227 ° 0 min 0,000 mm 1,0 UV-I 113 W/m² 10,1 °C 11,2 °C 3,2 km/h (1 Bft)
15.05.2017 08:35 11,1 °C 11,2 °C 93 % 1027,6 hPa 0,0 mm 1,1 km/h (1 Bft) S-SW 206 ° 0 min 0,000 mm 1,0 UV-I 111 W/m² 10,0 °C 11,1 °C 4,8 km/h (1 Bft)
15.05.2017 08:36 11,1 °C 11,1 °C 92 % 1027,6 hPa 0,0 mm 1,1 km/h (1 Bft) S-SW 206 ° 0 min 0,000 mm 1,0 UV-I 111 W/m² 9,8 °C 11,1 °C 3,2 km/h (1 Bft)
15.05.2017 08:37 11,2 °C 11,2 °C 92 % 1027,6 hPa 0,0 mm 0,2 km/h (0 Bft) S-SW 206 ° 0 min 0,000 mm 1,0 UV-I 114 W/m² 9,9 °C 11,2 °C 1,6 km/h (1 Bft)
15.05.2017 08:38 11,2 °C 11,2 °C 93 % 1027,6 hPa 0,0 mm 0,0 km/h (0 Bft) S-SW 206 ° 0 min 0,000 mm 1,1 UV-I 125 W/m² 10,1 °C 11,2 °C 0,0 km/h (0 Bft)
15.05.2017 08:39 11,2 °C 11,2 °C 93 % 1027,6 hPa 0,0 mm 1,9 km/h (1 Bft) S-SW 205 ° 0 min 0,000 mm 1,1 UV-I 135 W/m² 10,1 °C 11,2 °C 3,2 km/h (1 Bft)
15.05.2017 08:40 11,2 °C 11,2 °C 93 % 1027,6 hPa 0,0 mm 3,7 km/h (1 Bft) S-SO 148 ° 0 min 0,000 mm 1,2 UV-I 146 W/m² 10,1 °C 11,2 °C 4,8 km/h (1 Bft)
15.05.2017 08:41 11,2 °C 11,2 °C 93 % 1027,6 hPa 0,0 mm 2,2 km/h (1 Bft) S-SO 148 ° 0 min 0,000 mm 1,2 UV-I 156 W/m² 10,1 °C 11,2 °C 4,8 km/h (1 Bft)
15.05.2017 08:42 11,2 °C 11,2 °C 93 % 1027,6 hPa 0,0 mm 0,0 km/h (0 Bft) S-SO 148 ° 0 min 0,000 mm 1,3 UV-I 165 W/m² 10,1 °C 11,2 °C 0,0 km/h (0 Bft)
15.05.2017 08:43 11,3 °C 11,3 °C 93 % 1027,6 hPa 0,0 mm 1,7 km/h (1 Bft) W-SW 250 ° 0 min 0,000 mm 1,3 UV-I 171 W/m² 10,2 °C 11,3 °C 4,8 km/h (1 Bft)
15.05.2017 08:44 11,4 °C 11,4 °C 94 % 1027,6 hPa 0,0 mm 1,7 km/h (1 Bft) W-SW 250 ° 0 min 0,000 mm 1,3 UV-I 185 W/m² 10,5 °C 11,4 °C 3,2 km/h (1 Bft)
15.05.2017 08:45 11,4 °C 11,4 °C 93 % 1027,6 hPa 0,0 mm 0,0 km/h (0 Bft) W-SW 250 ° 0 min 0,000 mm 1,3 UV-I 185 W/m² 10,3 °C 11,4 °C 0,0 km/h (0 Bft)
15.05.2017 08:46 11,5 °C 11,5 °C 92 % 1027,6 hPa 0,0 mm 0,0 km/h (0 Bft) W-SW 250 ° 0 min 0,000 mm 1,3 UV-I 176 W/m² 10,2 °C 11,5 °C 0,0 km/h (0 Bft)
15.05.2017 08:47 11,6 °C 11,6 °C 92 % 1027,6 hPa 0,0 mm 1,3 km/h (1 Bft) W-SW 250 ° 0 min 0,000 mm 1,3 UV-I 171 W/m² 10,3 °C 11,6 °C 3,2 km/h (1 Bft)
15.05.2017 08:48 11,6 °C 11,6 °C 91 % 1027,6 hPa 0,0 mm 2,2 km/h (1 Bft) W-SW 250 ° 0 min 0,000 mm 1,4 UV-I 167 W/m² 10,2 °C 11,6 °C 3,2 km/h (1 Bft)
15.05.2017 08:49 11,6 °C 11,6 °C 90 % 1027,6 hPa 0,0 mm 0,8 km/h (0 Bft) W-SW 250 ° 0 min 0,000 mm 1,4 UV-I 169 W/m² 10,0 °C 11,6 °C 1,6 km/h (1 Bft)
15.05.2017 08:50 11,7 °C 11,7 °C 91 % 1027,6 hPa 0,0 mm 0,0 km/h (0 Bft) W-SW 250 ° 0 min 0,000 mm 1,4 UV-I 172 W/m² 10,3 °C 11,7 °C 0,0 km/h (0 Bft)
15.05.2017 08:51 11,7 °C 11,7 °C 92 % 1027,6 hPa 0,0 mm 0,0 km/h (0 Bft) W-SW 250 ° 0 min 0,000 mm 1,4 UV-I 178 W/m² 10,4 °C 11,7 °C 0,0 km/h (0 Bft)
15.05.2017 08:52 11,8 °C 11,8 °C 91 % 1027,6 hPa 0,0 mm 0,0 km/h (0 Bft) W-SW 250 ° 0 min 0,000 mm 1,4 UV-I 185 W/m² 10,4 °C 11,8 °C 0,0 km/h (0 Bft)
15.05.2017 08:53 11,8 °C 11,8 °C 88 % 1027,7 hPa 0,0 mm 2,2 km/h (1 Bft) W 271 ° 0 min 0,000 mm 1,4 UV-I 193 W/m² 9,9 °C 11,8 °C 6,4 km/h (2 Bft)
15.05.2017 08:54 11,9 °C 11,9 °C 89 % 1027,7 hPa 0,0 mm 1,9 km/h (1 Bft) W 271 ° 0 min 0,000 mm 1,4 UV-I 199 W/m² 10,1 °C 11,9 °C 3,2 km/h (1 Bft)
15.05.2017 08:55 12,1 °C 12,1 °C 88 % 1027,7 hPa 0,0 mm 1,7 km/h (1 Bft) W 271 ° 0 min 0,000 mm 1,4 UV-I 199 W/m² 10,2 °C 12,1 °C 3,2 km/h (1 Bft)
15.05.2017 08:56 12,1 °C 12,1 °C 88 % 1027,7 hPa 0,0 mm 1,5 km/h (1 Bft) SW 232 ° 0 min 0,000 mm 1,4 UV-I 193 W/m² 10,2 °C 12,1 °C 3,2 km/h (1 Bft)
15.05.2017 08:57 12,1 °C 12,1 °C 89 % 1027,7 hPa 0,0 mm 0,5 km/h (0 Bft) SW 232 ° 0 min 0,000 mm 1,4 UV-I 183 W/m² 10,3 °C 12,1 °C 3,2 km/h (1 Bft)
15.05.2017 08:58 12,2 °C 12,2 °C 89 % 1027,8 hPa 0,0 mm 0,5 km/h (0 Bft) SW 232 ° 0 min 0,000 mm 1,4 UV-I 176 W/m² 10,4 °C 12,2 °C 3,2 km/h (1 Bft)
15.05.2017 08:59 12,2 °C 12,2 °C 91 % 1027,8 hPa 0,0 mm 0,0 km/h (0 Bft) SW 232 ° 0 min 0,000 mm 1,4 UV-I 174 W/m² 10,8 °C 12,2 °C 0,0 km/h (0 Bft)
15.05.2017 09:00 12,2 °C 12,2 °C 90 % 1027,7 hPa 0,0 mm 0,0 km/h (0 Bft) SW 232 ° 0 min 0,077 mm 1,4 UV-I 179 W/m² 10,6 °C 12,2 °C 0,0 km/h (0 Bft)
15.05.2017 09:01 12,2 °C 12,2 °C 89 % 1027,8 hPa 0,0 mm 0,0 km/h (0 Bft) SW 232 ° 0 min 0,000 mm 1,4 UV-I 193 W/m² 10,4 °C 12,2 °C 0,0 km/h (0 Bft)
15.05.2017 09:02 12,3 °C 12,3 °C 90 % 1027,8 hPa 0,0 mm 1,4 km/h (1 Bft) SW 232 ° 0 min 0,000 mm 1,4 UV-I 225 W/m² 10,7 °C 12,3 °C 1,6 km/h (1 Bft)
15.05.2017 09:03 12,3 °C 12,3 °C 89 % 1027,8 hPa 0,0 mm 0,0 km/h (0 Bft) SW 232 ° 0 min 0,000 mm 1,6 UV-I 225 W/m² 10,5 °C 12,3 °C 0,0 km/h (0 Bft)
15.05.2017 09:04 12,3 °C 12,3 °C 88 % 1027,8 hPa 0,0 mm 0,7 km/h (0 Bft) SW 232 ° 0 min 0,000 mm 1,6 UV-I 264 W/m² 10,4 °C 12,3 °C 1,6 km/h (1 Bft)
15.05.2017 09:05 12,3 °C 12,3 °C 88 % 1027,8 hPa 0,0 mm 3,0 km/h (1 Bft) SW 232 ° 0 min 0,000 mm 1,6 UV-I 274 W/m² 10,4 °C 12,3 °C 4,8 km/h (1 Bft)
15.05.2017 09:06 12,4 °C 12,4 °C 88 % 1027,8 hPa 0,0 mm 0,8 km/h (0 Bft) SW 232 ° 1 min 0,000 mm 1,7 UV-I 322 W/m² 10,5 °C 12,4 °C 3,2 km/h (1 Bft)
15.05.2017 09:07 12,4 °C 12,4 °C 87 % 1027,8 hPa 0,0 mm 1,8 km/h (1 Bft) SW 232 ° 0 min 0,000 mm 1,7 UV-I 269 W/m² 10,3 °C 12,4 °C 3,2 km/h (1 Bft)
15.05.2017 09:08 12,4 °C 12,4 °C 86 % 1027,8 hPa 0,0 mm 3,6 km/h (1 Bft) SW 232 ° 0 min 0,000 mm 1,5 UV-I 244 W/m² 10,1 °C 12,4 °C 6,4 km/h (2 Bft)
15.05.2017 09:09 12,5 °C 12,5 °C 86 % 1027,8 hPa 0,0 mm 5,5 km/h (1 Bft) W-SW 252 ° 1 min 0,000 mm 2,1 UV-I 461 W/m² 10,2 °C 12,5 °C 8,0 km/h (2 Bft)
15.05.2017 09:10 12,6 °C 12,6 °C 85 % 1027,8 hPa 0,0 mm 4,3 km/h (1 Bft) W-SW 251 ° 1 min 0,000 mm 1,7 UV-I 461 W/m² 10,1 °C 12,6 °C 4,8 km/h (1 Bft)
15.05.2017 09:11 12,6 °C 12,6 °C 85 % 1027,8 hPa 0,0 mm 3,0 km/h (1 Bft) W-SW 251 ° 0 min 0,000 mm 1,5 UV-I 213 W/m² 10,1 °C 12,6 °C 4,8 km/h (1 Bft)
15.05.2017 09:12 12,6 °C 12,6 °C 86 % 1027,8 hPa 0,0 mm 1,1 km/h (1 Bft) W-SW 251 ° 0 min 0,000 mm 1,5 UV-I 213 W/m² 10,3 °C 12,6 °C 3,2 km/h (1 Bft)
15.05.2017 09:13 12,6 °C 12,7 °C 85 % 1027,9 hPa 0,0 mm 1,4 km/h (1 Bft) W-SW 251 ° 0 min 0,000 mm 1,5 UV-I 197 W/m² 10,1 °C 12,6 °C 3,2 km/h (1 Bft)
15.05.2017 09:14 12,7 °C 12,7 °C 87 % 1027,9 hPa 0,0 mm 1,1 km/h (1 Bft) W-SW 251 ° 0 min 0,000 mm 1,5 UV-I 213 W/m² 10,6 °C 12,7 °C 3,2 km/h (1 Bft)
15.05.2017 09:15 12,7 °C 12,7 °C 87 % 1027,9 hPa 0,0 mm 0,9 km/h (0 Bft) W-SW 251 ° 0 min 0,000 mm 1,5 UV-I 218 W/m² 10,6 °C 12,7 °C 1,6 km/h (1 Bft)
15.05.2017 09:16 12,7 °C 12,7 °C 87 % 1027,8 hPa 0,0 mm 2,6 km/h (1 Bft) W-NW 284 ° 0 min 0,000 mm 1,5 UV-I 216 W/m² 10,6 °C 12,7 °C 6,4 km/h (2 Bft)
15.05.2017 09:17 12,8 °C 12,8 °C 86 % 1027,8 hPa 0,0 mm 5,4 km/h (1 Bft) W 262 ° 0 min 0,000 mm 1,6 UV-I 250 W/m² 10,5 °C 12,8 °C 8,0 km/h (2 Bft)
15.05.2017 09:18 12,8 °C 12,8 °C 87 % 1027,9 hPa 0,0 mm 4,2 km/h (1 Bft) W 269 ° 0 min 0,000 mm 1,5 UV-I 221 W/m² 10,7 °C 12,8 °C 6,4 km/h (2 Bft)
15.05.2017 09:19 12,8 °C 12,8 °C 86 % 1027,9 hPa 0,0 mm 3,6 km/h (1 Bft) W 269 ° 0 min 0,000 mm 1,6 UV-I 223 W/m² 10,5 °C 12,8 °C 4,8 km/h (1 Bft)
15.05.2017 09:20 12,8 °C 12,8 °C 86 % 1027,9 hPa 0,0 mm 2,5 km/h (1 Bft) W 281 ° 0 min 0,000 mm 1,6 UV-I 239 W/m² 10,5 °C 12,8 °C 4,8 km/h (1 Bft)
15.05.2017 09:21 12,8 °C 12,8 °C 86 % 1027,9 hPa 0,0 mm 3,0 km/h (1 Bft) W-NW 292 ° 0 min 0,000 mm 1,7 UV-I 239 W/m² 10,5 °C 12,8 °C 4,8 km/h (1 Bft)
15.05.2017 09:22 12,8 °C 12,8 °C 85 % 1027,9 hPa 0,0 mm 3,3 km/h (1 Bft) W-NW 292 ° 0 min 0,000 mm 1,7 UV-I 265 W/m² 10,3 °C 12,8 °C 4,8 km/h (1 Bft)
15.05.2017 09:23 12,8 °C 12,8 °C 85 % 1027,9 hPa 0,0 mm 0,9 km/h (0 Bft) W-NW 292 ° 0 min 0,000 mm 1,8 UV-I 279 W/m² 10,3 °C 12,8 °C 3,2 km/h (1 Bft)
15.05.2017 09:24 12,8 °C 12,9 °C 84 % 1027,9 hPa 0,0 mm 0,0 km/h (0 Bft) W-NW 292 ° 0 min 0,000 mm 2,4 UV-I 279 W/m² 10,2 °C 12,8 °C 0,0 km/h (0 Bft)
15.05.2017 09:25 13,0 °C 13,0 °C 87 % 1027,9 hPa 0,0 mm 4,1 km/h (1 Bft) W-NW 288 ° 1 min 0,000 mm 2,4 UV-I 313 W/m² 10,9 °C 13,0 °C 4,8 km/h (1 Bft)
15.05.2017 09:26 13,0 °C 13,1 °C 85 % 1027,8 hPa 0,0 mm 2,9 km/h (1 Bft) W-SW 255 ° 0 min 0,000 mm 1,6 UV-I 253 W/m² 10,5 °C 13,0 °C 4,8 km/h (1 Bft)
15.05.2017 09:27 13,0 °C 13,1 °C 84 % 1027,9 hPa 0,0 mm 4,5 km/h (1 Bft) W 272 ° 0 min 0,000 mm 1,6 UV-I 236 W/m² 10,4 °C 13,0 °C 4,8 km/h (1 Bft)
15.05.2017 09:28 13,1 °C 13,1 °C 86 % 1027,9 hPa 0,0 mm 3,7 km/h (1 Bft) W-SW 250 ° 0 min 0,000 mm 1,6 UV-I 229 W/m² 10,8 °C 13,1 °C 4,8 km/h (1 Bft)
15.05.2017 09:29 13,1 °C 13,1 °C 82 % 1027,9 hPa 0,0 mm 5,9 km/h (2 Bft) W 281 ° 0 min 0,000 mm 1,6 UV-I 225 W/m² 10,1 °C 13,1 °C 9,7 km/h (2 Bft)
15.05.2017 09:30 13,1 °C 13,1 °C 84 % 1027,9 hPa 0,0 mm 3,1 km/h (1 Bft) W 281 ° 0 min 0,000 mm 1,6 UV-I 225 W/m² 10,5 °C 13,1 °C 4,8 km/h (1 Bft)
15.05.2017 09:31 13,1 °C 13,1 °C 84 % 1027,9 hPa 0,0 mm 2,7 km/h (1 Bft) W 279 ° 0 min 0,000 mm 1,6 UV-I 227 W/m² 10,5 °C 13,1 °C 4,8 km/h (1 Bft)
15.05.2017 09:32 13,1 °C 13,1 °C 87 % 1027,9 hPa 0,0 mm 3,0 km/h (1 Bft) W 279 ° 0 min 0,000 mm 1,6 UV-I 234 W/m² 11,0 °C 13,1 °C 4,8 km/h (1 Bft)
15.05.2017 09:33 13,1 °C 13,1 °C 85 % 1027,9 hPa 0,0 mm 5,3 km/h (1 Bft) W 264 ° 0 min 0,000 mm 1,6 UV-I 237 W/m² 10,6 °C 13,1 °C 9,7 km/h (2 Bft)
15.05.2017 09:34 13,1 °C 13,1 °C 83 % 1027,9 hPa 0,0 mm 5,0 km/h (1 Bft) W-SW 242 ° 0 min 0,000 mm 1,6 UV-I 239 W/m² 10,3 °C 13,1 °C 6,4 km/h (2 Bft)
15.05.2017 09:35 13,1 °C 13,1 °C 83 % 1028,0 hPa 0,0 mm 2,3 km/h (1 Bft) SW 235 ° 0 min 0,000 mm 1,6 UV-I 239 W/m² 10,3 °C 13,1 °C 3,2 km/h (1 Bft)
15.05.2017 09:36 13,1 °C 13,1 °C 84 % 1028,0 hPa 0,0 mm 1,2 km/h (1 Bft) SW 236 ° 0 min 0,000 mm 1,6 UV-I 237 W/m² 10,5 °C 13,1 °C 3,2 km/h (1 Bft)
15.05.2017 09:37 13,1 °C 13,1 °C 81 % 1028,0 hPa 0,0 mm 1,1 km/h (1 Bft) SW 236 ° 0 min 0,000 mm 1,6 UV-I 230 W/m² 9,9 °C 13,1 °C 3,2 km/h (1 Bft)
15.05.2017 09:38 13,1 °C 13,1 °C 84 % 1028,0 hPa 0,0 mm 3,1 km/h (1 Bft) W 269 ° 0 min 0,000 mm 1,5 UV-I 229 W/m² 10,5 °C 13,1 °C 6,4 km/h (2 Bft)
15.05.2017 09:39 13,1 °C 13,1 °C 83 % 1028,0 hPa 0,0 mm 3,2 km/h (1 Bft) W 271 ° 0 min 0,000 mm 1,5 UV-I 229 W/m² 10,3 °C 13,1 °C 4,8 km/h (1 Bft)
15.05.2017 09:40 13,1 °C 13,2 °C 82 % 1028,0 hPa 0,0 mm 3,5 km/h (1 Bft) W-NW 290 ° 0 min 0,000 mm 1,5 UV-I 232 W/m² 10,1 °C 13,1 °C 6,4 km/h (2 Bft)
15.05.2017 09:41 13,2 °C 13,2 °C 84 % 1028,0 hPa 0,0 mm 3,9 km/h (1 Bft) W-NW 290 ° 0 min 0,000 mm 1,6 UV-I 287 W/m² 10,6 °C 13,2 °C 6,4 km/h (2 Bft)
15.05.2017 09:42 13,1 °C 13,2 °C 83 % 1028,0 hPa 0,0 mm 1,0 km/h (0 Bft) W-NW 290 ° 1 min 0,000 mm 1,7 UV-I 292 W/m² 10,3 °C 13,1 °C 3,2 km/h (1 Bft)
15.05.2017 09:43 13,2 °C 13,2 °C 85 % 1028,1 hPa 0,0 mm 3,0 km/h (1 Bft) W 269 ° 0 min 0,000 mm 1,7 UV-I 207 W/m² 10,7 °C 13,2 °C 6,4 km/h (2 Bft)
15.05.2017 09:44 13,2 °C 13,2 °C 83 % 1028,0 hPa 0,0 mm 5,5 km/h (1 Bft) W 261 ° 0 min 0,000 mm 1,3 UV-I 199 W/m² 10,4 °C 13,2 °C 6,4 km/h (2 Bft)
15.05.2017 09:45 13,2 °C 13,2 °C 82 % 1028,0 hPa 0,0 mm 4,3 km/h (1 Bft) W-NW 294 ° 0 min 0,000 mm 1,3 UV-I 193 W/m² 10,2 °C 13,2 °C 4,8 km/h (1 Bft)
15.05.2017 09:46 13,2 °C 13,2 °C 84 % 1028,0 hPa 0,0 mm 3,1 km/h (1 Bft) W-NW 294 ° 0 min 0,000 mm 1,3 UV-I 188 W/m² 10,6 °C 13,2 °C 4,8 km/h (1 Bft)
15.05.2017 09:47 13,2 °C 13,2 °C 84 % 1028,1 hPa 0,0 mm 1,1 km/h (1 Bft) W-NW 294 ° 0 min 0,000 mm 1,3 UV-I 188 W/m² 10,6 °C 13,2 °C 1,6 km/h (1 Bft)
15.05.2017 09:48 13,2 °C 13,2 °C 83 % 1028,1 hPa 0,0 mm 3,3 km/h (1 Bft) W-NW 294 ° 0 min 0,000 mm 1,3 UV-I 186 W/m² 10,4 °C 13,2 °C 6,4 km/h (2 Bft)
15.05.2017 09:49 13,2 °C 13,2 °C 83 % 1028,1 hPa 0,0 mm 3,3 km/h (1 Bft) W 264 ° 0 min 0,000 mm 1,3 UV-I 186 W/m² 10,4 °C 13,2 °C 4,8 km/h (1 Bft)
15.05.2017 09:50 13,2 °C 13,2 °C 84 % 1028,1 hPa 0,0 mm 3,9 km/h (1 Bft) W 263 ° 0 min 0,000 mm 1,3 UV-I 190 W/m² 10,6 °C 13,2 °C 6,4 km/h (2 Bft)
15.05.2017 09:51 13,2 °C 13,2 °C 83 % 1028,1 hPa 0,0 mm 3,3 km/h (1 Bft) W-SW 248 ° 0 min 0,000 mm 1,3 UV-I 193 W/m² 10,4 °C 13,2 °C 6,4 km/h (2 Bft)
15.05.2017 09:52 13,2 °C 13,2 °C 83 % 1028,1 hPa 0,0 mm 0,3 km/h (0 Bft) W-SW 248 ° 0 min 0,000 mm 1,4 UV-I 197 W/m² 10,4 °C 13,2 °C 1,6 km/h (1 Bft)
15.05.2017 09:53 13,2 °C 13,2 °C 84 % 1028,1 hPa 0,0 mm 4,0 km/h (1 Bft) W-SW 256 ° 0 min 0,000 mm 1,4 UV-I 202 W/m² 10,6 °C 13,2 °C 6,4 km/h (2 Bft)
15.05.2017 09:54 13,2 °C 13,2 °C 83 % 1028,1 hPa 0,0 mm 5,6 km/h (1 Bft) W 260 ° 0 min 0,000 mm 1,4 UV-I 214 W/m² 10,4 °C 13,2 °C 6,4 km/h (2 Bft)
15.05.2017 09:55 13,1 °C 13,2 °C 83 % 1028,1 hPa 0,0 mm 5,1 km/h (1 Bft) W 269 ° 0 min 0,000 mm 1,5 UV-I 223 W/m² 10,3 °C 13,1 °C 6,4 km/h (2 Bft)
15.05.2017 09:56 13,1 °C 13,2 °C 82 % 1028,1 hPa 0,0 mm 2,4 km/h (1 Bft) W 269 ° 0 min 0,000 mm 1,6 UV-I 230 W/m² 10,1 °C 13,1 °C 3,2 km/h (1 Bft)
15.05.2017 09:57 13,1 °C 13,1 °C 83 % 1028,1 hPa 0,0 mm 2,7 km/h (1 Bft) W 276 ° 0 min 0,000 mm 1,6 UV-I 230 W/m² 10,3 °C 13,1 °C 4,8 km/h (1 Bft)
15.05.2017 09:58 13,1 °C 13,2 °C 83 % 1028,1 hPa 0,0 mm 2,9 km/h (1 Bft) W 276 ° 0 min 0,000 mm 1,6 UV-I 237 W/m² 10,3 °C 13,1 °C 4,8 km/h (1 Bft)
15.05.2017 09:59 13,1 °C 13,2 °C 82 % 1028,1 hPa 0,0 mm 2,8 km/h (1 Bft) W 276 ° 0 min 0,000 mm 1,7 UV-I 241 W/m² 10,1 °C 13,1 °C 4,8 km/h (1 Bft)
15.05.2017 10:00 13,2 °C 13,2 °C 83 % 1028,1 hPa 0,0 mm 3,2 km/h (1 Bft) W 274 ° 0 min 0,127 mm 1,7 UV-I 250 W/m² 10,4 °C 13,2 °C 4,8 km/h (1 Bft)
15.05.2017 10:01 13,2 °C 13,2 °C 82 % 1028,2 hPa 0,0 mm 2,5 km/h (1 Bft) W 273 ° 0 min 0,000 mm 2,1 UV-I 274 W/m² 10,2 °C 13,2 °C 4,8 km/h (1 Bft)
15.05.2017 10:02 13,2 °C 13,2 °C 84 % 1028,2 hPa 0,0 mm 4,1 km/h (1 Bft) W 273 ° 0 min 0,000 mm 2,5 UV-I 274 W/m² 10,6 °C 13,2 °C 4,8 km/h (1 Bft)
15.05.2017 10:03 13,4 °C 13,4 °C 86 % 1028,2 hPa 0,0 mm 2,6 km/h (1 Bft) W-SW 254 ° 0 min 0,000 mm 1,8 UV-I 274 W/m² 11,1 °C 13,4 °C 4,8 km/h (1 Bft)
15.05.2017 10:04 13,4 °C 13,4 °C 82 % 1028,2 hPa 0,0 mm 2,4 km/h (1 Bft) W-SW 254 ° 0 min 0,000 mm 1,8 UV-I 251 W/m² 10,4 °C 13,4 °C 3,2 km/h (1 Bft)
15.05.2017 10:05 13,4 °C 13,4 °C 82 % 1028,1 hPa 0,0 mm 2,0 km/h (1 Bft) W-SW 254 ° 0 min 0,000 mm 1,8 UV-I 255 W/m² 10,4 °C 13,4 °C 3,2 km/h (1 Bft)
15.05.2017 10:06 13,4 °C 13,4 °C 82 % 1028,1 hPa 0,0 mm 4,3 km/h (1 Bft) W 279 ° 0 min 0,000 mm 1,9 UV-I 269 W/m² 10,4 °C 13,4 °C 6,4 km/h (2 Bft)
15.05.2017 10:07 13,4 °C 13,4 °C 84 % 1028,1 hPa 0,0 mm 4,4 km/h (1 Bft) W 278 ° 0 min 0,000 mm 2,0 UV-I 279 W/m² 10,8 °C 13,4 °C 4,8 km/h (1 Bft)
15.05.2017 10:08 13,4 °C 13,4 °C 81 % 1028,2 hPa 0,0 mm 3,9 km/h (1 Bft) W 278 ° 0 min 0,000 mm 2,1 UV-I 288 W/m² 10,2 °C 13,4 °C 4,8 km/h (1 Bft)
15.05.2017 10:09 13,3 °C 13,4 °C 81 % 1028,2 hPa 0,0 mm 1,7 km/h (1 Bft) W 278 ° 1 min 0,000 mm 2,1 UV-I 294 W/m² 10,1 °C 13,3 °C 3,2 km/h (1 Bft)
15.05.2017 10:10 13,3 °C 13,3 °C 83 % 1028,2 hPa 0,0 mm 3,5 km/h (1 Bft) W 271 ° 1 min 0,000 mm 2,1 UV-I 295 W/m² 10,5 °C 13,3 °C 6,4 km/h (2 Bft)
15.05.2017 10:11 13,3 °C 13,4 °C 82 % 1028,2 hPa 0,0 mm 2,8 km/h (1 Bft) W-SW 255 ° 1 min 0,000 mm 2,1 UV-I 297 W/m² 10,3 °C 13,3 °C 4,8 km/h (1 Bft)
15.05.2017 10:12 13,3 °C 13,4 °C 81 % 1028,2 hPa 0,0 mm 2,4 km/h (1 Bft) W-SW 252 ° 1 min 0,000 mm 2,2 UV-I 304 W/m² 10,1 °C 13,3 °C 3,2 km/h (1 Bft)
15.05.2017 10:13 13,3 °C 13,4 °C 81 % 1028,2 hPa 0,0 mm 2,1 km/h (1 Bft) W 266 ° 1 min 0,000 mm 2,2 UV-I 306 W/m² 10,1 °C 13,3 °C 4,8 km/h (1 Bft)
15.05.2017 10:14 13,4 °C 13,4 °C 81 % 1028,2 hPa 0,0 mm 3,1 km/h (1 Bft) SW 226 ° 1 min 0,000 mm 2,2 UV-I 311 W/m² 10,2 °C 13,4 °C 4,8 km/h (1 Bft)
15.05.2017 10:15 13,4 °C 13,4 °C 82 % 1028,2 hPa 0,0 mm 5,1 km/h (1 Bft) W-SW 258 ° 1 min 0,000 mm 2,3 UV-I 311 W/m² 10,4 °C 13,4 °C 6,4 km/h (2 Bft)
15.05.2017 10:16 13,5 °C 13,5 °C 81 % 1028,2 hPa 0,0 mm 2,9 km/h (1 Bft) W-SW 258 ° 1 min 0,000 mm 2,3 UV-I 318 W/m² 10,3 °C 13,5 °C 4,8 km/h (1 Bft)
15.05.2017 10:17 13,5 °C 13,5 °C 83 % 1028,2 hPa 0,0 mm 1,9 km/h (1 Bft) W-SW 258 ° 1 min 0,000 mm 2,4 UV-I 323 W/m² 10,7 °C 13,5 °C 3,2 km/h (1 Bft)
15.05.2017 10:18 13,6 °C 13,6 °C 82 % 1028,2 hPa 0,0 mm 2,7 km/h (1 Bft) W-SW 258 ° 1 min 0,000 mm 2,5 UV-I 308 W/m² 10,6 °C 13,6 °C 4,8 km/h (1 Bft)
15.05.2017 10:19 13,6 °C 13,6 °C 82 % 1028,3 hPa 0,0 mm 2,5 km/h (1 Bft) W-SW 258 ° 1 min 0,000 mm 2,5 UV-I 299 W/m² 10,6 °C 13,6 °C 4,8 km/h (1 Bft)
15.05.2017 10:20 13,6 °C 13,6 °C 82 % 1028,2 hPa 0,0 mm 3,5 km/h (1 Bft) W-SW 251 ° 1 min 0,000 mm 2,7 UV-I 322 W/m² 10,6 °C 13,6 °C 6,4 km/h (2 Bft)
15.05.2017 10:21 13,7 °C 13,7 °C 83 % 1028,3 hPa 0,0 mm 1,8 km/h (1 Bft) W-SW 247 ° 1 min 0,000 mm 3,9 UV-I 322 W/m² 10,9 °C 13,7 °C 4,8 km/h (1 Bft)
15.05.2017 10:22 13,8 °C 13,8 °C 84 % 1028,2 hPa 0,0 mm 2,9 km/h (1 Bft) W-SW 248 ° 1 min 0,000 mm 4,0 UV-I 322 W/m² 11,1 °C 13,8 °C 4,8 km/h (1 Bft)
15.05.2017 10:23 13,9 °C 13,9 °C 83 % 1028,3 hPa 0,0 mm 7,9 km/h (2 Bft) W 262 ° 1 min 0,000 mm 2,6 UV-I 322 W/m² 11,1 °C 13,9 °C 9,7 km/h (2 Bft)
15.05.2017 10:24 13,9 °C 13,9 °C 80 % 1028,2 hPa 0,0 mm 4,7 km/h (1 Bft) W 260 ° 1 min 0,000 mm 2,7 UV-I 357 W/m² 10,5 °C 13,9 °C 6,4 km/h (2 Bft)
15.05.2017 10:25 13,8 °C 13,9 °C 81 % 1028,2 hPa 0,0 mm 1,9 km/h (1 Bft) W 261 ° 1 min 0,000 mm 3,2 UV-I 413 W/m² 10,6 °C 13,8 °C 3,2 km/h (1 Bft)
15.05.2017 10:26 13,8 °C 13,8 °C 82 % 1028,3 hPa 0,0 mm 1,5 km/h (1 Bft) W 261 ° 1 min 0,000 mm 3,9 UV-I 432 W/m² 10,8 °C 13,8 °C 3,2 km/h (1 Bft)
15.05.2017 10:27 13,9 °C 13,9 °C 82 % 1028,2 hPa 0,0 mm 0,0 km/h (0 Bft) W 261 ° 1 min 0,000 mm 4,7 UV-I 432 W/m² 10,9 °C 13,9 °C 0,0 km/h (0 Bft)
15.05.2017 10:28 14,1 °C 14,1 °C 83 % 1028,2 hPa 0,0 mm 2,2 km/h (1 Bft) W 261 ° 1 min 0,000 mm 2,9 UV-I 432 W/m² 11,3 °C 14,1 °C 3,2 km/h (1 Bft)
15.05.2017 10:29 14,2 °C 14,2 °C 83 % 1028,2 hPa 0,0 mm 5,1 km/h (1 Bft) W 271 ° 1 min 0,000 mm 4,7 UV-I 432 W/m² 11,4 °C 14,2 °C 9,7 km/h (2 Bft)
15.05.2017 10:30 14,2 °C 14,2 °C 79 % 1028,2 hPa 0,0 mm 1,1 km/h (1 Bft) W 271 ° 1 min 0,000 mm 4,7 UV-I 756 W/m² 10,6 °C 14,2 °C 3,2 km/h (1 Bft)
15.05.2017 10:31 14,2 °C 14,2 °C 79 % 1028,2 hPa 0,0 mm 2,6 km/h (1 Bft) W 275 ° 1 min 0,000 mm 4,7 UV-I 751 W/m² 10,6 °C 14,2 °C 4,8 km/h (1 Bft)
15.05.2017 10:32 14,2 °C 14,2 °C 78 % 1028,2 hPa 0,0 mm 3,6 km/h (1 Bft) W 277 ° 1 min 0,000 mm 4,6 UV-I 745 W/m² 10,4 °C 14,2 °C 6,4 km/h (2 Bft)
15.05.2017 10:33 14,2 °C 14,2 °C 80 % 1028,2 hPa 0,0 mm 5,3 km/h (1 Bft) NW 313 ° 1 min 0,000 mm 4,7 UV-I 745 W/m² 10,8 °C 14,2 °C 6,4 km/h (2 Bft)
15.05.2017 10:34 14,3 °C 14,3 °C 79 % 1028,1 hPa 0,0 mm 5,9 km/h (2 Bft) W-NW 301 ° 1 min 0,000 mm 4,7 UV-I 742 W/m² 10,7 °C 14,3 °C 8,0 km/h (2 Bft)
15.05.2017 10:35 14,4 °C 14,4 °C 82 % 1028,2 hPa 0,0 mm 3,4 km/h (1 Bft) W-NW 290 ° 1 min 0,000 mm 4,7 UV-I 744 W/m² 11,4 °C 14,4 °C 6,4 km/h (2 Bft)
15.05.2017 10:36 14,6 °C 14,6 °C 81 % 1028,1 hPa 0,0 mm 6,7 km/h (2 Bft) W 265 ° 1 min 0,000 mm 4,7 UV-I 745 W/m² 11,4 °C 14,6 °C 9,7 km/h (2 Bft)
15.05.2017 10:37 14,6 °C 14,6 °C 80 % 1028,2 hPa 0,0 mm 7,4 km/h (2 Bft) W 269 ° 1 min 0,000 mm 4,7 UV-I 747 W/m² 11,2 °C 14,6 °C 11,3 km/h (2 Bft)
15.05.2017 10:38 14,6 °C 14,6 °C 78 % 1028,1 hPa 0,0 mm 5,5 km/h (1 Bft) W-NW 293 ° 1 min 0,000 mm 4,8 UV-I 749 W/m² 10,8 °C 14,6 °C 8,0 km/h (2 Bft)
15.05.2017 10:39 14,6 °C 14,6 °C 75 % 1028,1 hPa 0,0 mm 3,7 km/h (1 Bft) W-NW 283 ° 1 min 0,000 mm 4,8 UV-I 749 W/m² 10,2 °C 14,6 °C 4,8 km/h (1 Bft)
15.05.2017 10:40 14,6 °C 14,6 °C 77 % 1028,1 hPa 0,0 mm 2,1 km/h (1 Bft) W 278 ° 1 min 0,000 mm 4,8 UV-I 751 W/m² 10,6 °C 14,6 °C 4,8 km/h (1 Bft)
15.05.2017 10:41 14,6 °C 14,6 °C 79 % 1028,1 hPa 0,0 mm 6,9 km/h (2 Bft) W-NW 285 ° 1 min 0,000 mm 4,9 UV-I 756 W/m² 11,0 °C 14,6 °C 9,7 km/h (2 Bft)
15.05.2017 10:42 14,6 °C 14,6 °C 77 % 1028,1 hPa 0,0 mm 9,4 km/h (2 Bft) W 269 ° 1 min 0,000 mm 4,9 UV-I 761 W/m² 10,6 °C 14,6 °C 12,9 km/h (3 Bft)
15.05.2017 10:43 14,7 °C 14,7 °C 78 % 1028,1 hPa 0,0 mm 8,0 km/h (2 Bft) W 263 ° 1 min 0,000 mm 4,9 UV-I 765 W/m² 10,9 °C 14,7 °C 11,3 km/h (2 Bft)
15.05.2017 10:44 14,8 °C 14,8 °C 82 % 1028,1 hPa 0,0 mm 4,3 km/h (1 Bft) W 274 ° 1 min 0,000 mm 5,0 UV-I 768 W/m² 11,8 °C 14,8 °C 6,4 km/h (2 Bft)
15.05.2017 10:45 14,8 °C 14,9 °C 78 % 1028,1 hPa 0,0 mm 1,9 km/h (1 Bft) W 274 ° 1 min 0,000 mm 5,0 UV-I 770 W/m² 11,0 °C 14,8 °C 4,8 km/h (1 Bft)
15.05.2017 10:46 14,9 °C 14,9 °C 81 % 1028,1 hPa 0,0 mm 6,7 km/h (2 Bft) W 269 ° 1 min 0,000 mm 5,0 UV-I 772 W/m² 11,7 °C 14,9 °C 9,7 km/h (2 Bft)
15.05.2017 10:47 15,1 °C 15,1 °C 82 % 1028,1 hPa 0,0 mm 5,0 km/h (1 Bft) W-SW 238 ° 1 min 0,000 mm 5,1 UV-I 784 W/m² 12,0 °C 15,1 °C 9,7 km/h (2 Bft)
15.05.2017 10:48 14,9 °C 15,1 °C 75 % 1028,0 hPa 0,0 mm 0,5 km/h (0 Bft) S-SW 213 ° 1 min 0,000 mm 5,2 UV-I 791 W/m² 10,5 °C 14,9 °C 1,6 km/h (1 Bft)
15.05.2017 10:49 14,9 °C 14,9 °C 77 % 1028,0 hPa 0,0 mm 0,0 km/h (0 Bft) S-SW 213 ° 1 min 0,000 mm 5,2 UV-I 795 W/m² 10,9 °C 14,9 °C 0,0 km/h (0 Bft)
15.05.2017 10:50 15,1 °C 15,1 °C 81 % 1028,1 hPa 0,0 mm 4,4 km/h (1 Bft) W-NW 284 ° 1 min 0,000 mm 5,3 UV-I 798 W/m² 11,9 °C 15,1 °C 6,4 km/h (2 Bft)
15.05.2017 10:51 15,2 °C 15,2 °C 80 % 1028,1 hPa 0,0 mm 4,4 km/h (1 Bft) W-SW 255 ° 1 min 0,000 mm 5,3 UV-I 798 W/m² 11,8 °C 15,2 °C 6,4 km/h (2 Bft)
15.05.2017 10:52 15,1 °C 15,2 °C 74 % 1028,0 hPa 0,0 mm 4,4 km/h (1 Bft) S 180 ° 1 min 0,000 mm 5,4 UV-I 810 W/m² 10,5 °C 15,1 °C 8,0 km/h (2 Bft)
15.05.2017 10:53 15,1 °C 15,1 °C 78 % 1028,0 hPa 0,0 mm 4,6 km/h (1 Bft) W-SW 246 ° 1 min 0,000 mm 5,5 UV-I 833 W/m² 11,3 °C 15,1 °C 8,0 km/h (2 Bft)
15.05.2017 10:54 15,1 °C 15,1 °C 77 % 1028,1 hPa 0,0 mm 7,2 km/h (2 Bft) W 273 ° 1 min 0,000 mm 5,5 UV-I 853 W/m² 11,1 °C 15,1 °C 11,3 km/h (2 Bft)
15.05.2017 10:55 15,2 °C 15,2 °C 76 % 1028,1 hPa 0,0 mm 9,0 km/h (2 Bft) W 266 ° 1 min 0,000 mm 3,3 UV-I 865 W/m² 11,0 °C 15,2 °C 11,3 km/h (2 Bft)
15.05.2017 10:56 15,2 °C 15,2 °C 78 % 1028,0 hPa 0,0 mm 8,2 km/h (2 Bft) W 264 ° 1 min 0,000 mm 5,7 UV-I 893 W/m² 11,4 °C 15,2 °C 12,9 km/h (3 Bft)
15.05.2017 10:57 15,2 °C 15,2 °C 75 % 1028,0 hPa 0,0 mm 5,2 km/h (1 Bft) NW 307 ° 1 min 0,000 mm 5,8 UV-I 896 W/m² 10,8 °C 15,2 °C 8,0 km/h (2 Bft)
15.05.2017 10:58 15,3 °C 15,3 °C 75 % 1028,0 hPa 0,0 mm 3,9 km/h (1 Bft) W 266 ° 1 min 0,000 mm 5,8 UV-I 905 W/m² 10,9 °C 15,3 °C 4,8 km/h (1 Bft)
15.05.2017 10:59 15,3 °C 15,3 °C 74 % 1028,0 hPa 0,0 mm 2,7 km/h (1 Bft) W 261 ° 1 min 0,000 mm 5,9 UV-I 947 W/m² 10,7 °C 15,3 °C 4,8 km/h (1 Bft)
15.05.2017 11:00 15,4 °C 15,4 °C 79 % 1028,0 hPa 0,0 mm 4,1 km/h (1 Bft) SW 233 ° 1 min 0,000 mm 6,2 UV-I 974 W/m² 11,8 °C 15,4 °C 4,8 km/h (1 Bft)
15.05.2017 11:01 15,5 °C 15,5 °C 77 % 1028,0 hPa 0,0 mm 0,6 km/h (0 Bft) SW 233 ° 1 min 0,304 mm 6,2 UV-I 1004 W/m² 11,5 °C 15,5 °C 3,2 km/h (1 Bft)
15.05.2017 11:02 15,4 °C 15,5 °C 73 % 1028,0 hPa 0,0 mm 0,0 km/h (0 Bft) SW 233 ° 1 min 0,000 mm 6,4 UV-I 1034 W/m² 10,6 °C 15,4 °C 0,0 km/h (0 Bft)
15.05.2017 11:03 15,3 °C 15,4 °C 76 % 1028,0 hPa 0,0 mm 0,1 km/h (0 Bft) SW 233 ° 1 min 0,000 mm 6,4 UV-I 1058 W/m² 11,1 °C 15,3 °C 1,6 km/h (1 Bft)
15.05.2017 11:04 15,2 °C 15,3 °C 72 % 1027,9 hPa 0,0 mm 0,0 km/h (0 Bft) SW 233 ° 1 min 0,000 mm 6,4 UV-I 1058 W/m² 10,2 °C 15,2 °C 0,0 km/h (0 Bft)
15.05.2017 11:05 15,2 °C 15,2 °C 74 % 1027,9 hPa 0,0 mm 0,2 km/h (0 Bft) SW 230 ° 1 min 0,000 mm 5,7 UV-I 1090 W/m² 10,6 °C 15,2 °C 1,6 km/h (1 Bft)
15.05.2017 11:06 15,5 °C 15,5 °C 80 % 1027,9 hPa 0,0 mm 4,6 km/h (1 Bft) W-NW 286 ° 1 min 0,000 mm 3,4 UV-I 1090 W/m² 12,1 °C 15,5 °C 9,7 km/h (2 Bft)
15.05.2017 11:07 15,6 °C 15,6 °C 75 % 1027,9 hPa 0,0 mm 5,6 km/h (1 Bft) N-NW 330 ° 1 min 0,000 mm 3,3 UV-I 371 W/m² 11,2 °C 15,6 °C 8,0 km/h (2 Bft)
15.05.2017 11:08 15,7 °C 15,7 °C 75 % 1027,9 hPa 0,0 mm 8,7 km/h (2 Bft) W-NW 294 ° 1 min 0,000 mm 6,4 UV-I 371 W/m² 11,3 °C 15,7 °C 12,9 km/h (3 Bft)
15.05.2017 11:09 15,7 °C 15,7 °C 70 % 1027,9 hPa 0,0 mm 6,7 km/h (2 Bft) W 269 ° 1 min 0,000 mm 6,2 UV-I 371 W/m² 10,2 °C 15,7 °C 9,7 km/h (2 Bft)
15.05.2017 11:10 15,9 °C 15,9 °C 77 % 1027,9 hPa 0,0 mm 5,5 km/h (1 Bft) W 279 ° 1 min 0,000 mm 6,1 UV-I 1016 W/m² 11,9 °C 15,9 °C 9,7 km/h (2 Bft)
15.05.2017 11:11 16,1 °C 16,1 °C 75 % 1028,0 hPa 0,0 mm 3,1 km/h (1 Bft) W-NW 282 ° 1 min 0,000 mm 5,9 UV-I 1016 W/m² 11,7 °C 16,1 °C 6,4 km/h (2 Bft)
15.05.2017 11:12 16,2 °C 16,3 °C 74 % 1028,0 hPa 0,0 mm 6,5 km/h (2 Bft) W 278 ° 1 min 0,000 mm 5,8 UV-I 1016 W/m² 11,6 °C 16,2 °C 14,5 km/h (3 Bft)
15.05.2017 11:13 16,0 °C 16,2 °C 73 % 1028,0 hPa 0,0 mm 7,9 km/h (2 Bft) W-NW 289 ° 1 min 0,000 mm 2,6 UV-I 366 W/m² 11,2 °C 16,0 °C 14,5 km/h (3 Bft)
15.05.2017 11:14 15,7 °C 16,0 °C 74 % 1027,9 hPa 0,0 mm 6,2 km/h (2 Bft) W-NW 302 ° 1 min 0,000 mm 2,3 UV-I 327 W/m² 11,1 °C 15,7 °C 12,9 km/h (3 Bft)
15.05.2017 11:15 15,4 °C 15,7 °C 77 % 1027,9 hPa 0,0 mm 5,3 km/h (1 Bft) W-NW 283 ° 1 min 0,000 mm 2,2 UV-I 301 W/m² 11,4 °C 15,4 °C 9,7 km/h (2 Bft)
15.05.2017 11:16 15,3 °C 15,4 °C 76 % 1028,0 hPa 0,0 mm 10,4 km/h (2 Bft) NW 313 ° 0 min 0,000 mm 2,0 UV-I 271 W/m² 11,1 °C 15,3 °C 14,5 km/h (3 Bft)
15.05.2017 11:17 15,1 °C 15,3 °C 76 % 1028,0 hPa 0,0 mm 10,9 km/h (2 Bft) W-NW 283 ° 0 min 0,000 mm 2,0 UV-I 271 W/m² 10,9 °C 15,1 °C 14,5 km/h (3 Bft)
15.05.2017 11:18 14,9 °C 15,1 °C 76 % 1028,0 hPa 0,0 mm 10,4 km/h (2 Bft) N-NW 329 ° 0 min 0,000 mm 2,7 UV-I 271 W/m² 10,7 °C 14,9 °C 14,5 km/h (3 Bft)
15.05.2017 11:19 14,7 °C 14,9 °C 77 % 1028,0 hPa 0,0 mm 6,9 km/h (2 Bft) N-NW 327 ° 0 min 0,000 mm 1,9 UV-I 271 W/m² 10,7 °C 14,7 °C 11,3 km/h (2 Bft)
15.05.2017 11:20 14,6 °C 14,7 °C 78 % 1028,0 hPa 0,0 mm 8,4 km/h (2 Bft) NW 318 ° 0 min 0,000 mm 1,8 UV-I 234 W/m² 10,8 °C 14,6 °C 12,9 km/h (3 Bft)
15.05.2017 11:21 14,4 °C 14,6 °C 79 % 1028,0 hPa 0,0 mm 6,9 km/h (2 Bft) N-NW 343 ° 0 min 0,000 mm 1,8 UV-I 221 W/m² 10,8 °C 14,4 °C 9,7 km/h (2 Bft)
15.05.2017 11:22 14,2 °C 14,4 °C 81 % 1028,0 hPa 0,0 mm 4,7 km/h (1 Bft) N-NO 13 ° 0 min 0,000 mm 1,7 UV-I 197 W/m² 11,0 °C 14,2 °C 6,4 km/h (2 Bft)
15.05.2017 11:23 14,2 °C 14,3 °C 81 % 1027,9 hPa 0,0 mm 6,0 km/h (2 Bft) N-NW 328 ° 0 min 0,000 mm 1,6 UV-I 192 W/m² 11,0 °C 14,2 °C 11,3 km/h (2 Bft)
15.05.2017 11:24 14,1 °C 14,2 °C 81 % 1028,0 hPa 0,0 mm 6,8 km/h (2 Bft) N 355 ° 0 min 0,000 mm 1,6 UV-I 188 W/m² 10,9 °C 14,1 °C 8,0 km/h (2 Bft)
15.05.2017 11:25 14,0 °C 14,1 °C 81 % 1028,0 hPa 0,0 mm 7,1 km/h (2 Bft) NW 323 ° 0 min 0,000 mm 1,6 UV-I 186 W/m² 10,8 °C 14,0 °C 9,7 km/h (2 Bft)
15.05.2017 11:26 13,9 °C 14,0 °C 82 % 1028,0 hPa 0,0 mm 6,9 km/h (2 Bft) NW 314 ° 0 min 0,000 mm 1,6 UV-I 186 W/m² 10,9 °C 13,9 °C 11,3 km/h (2 Bft)
15.05.2017 11:27 13,8 °C 13,9 °C 84 % 1028,0 hPa 0,0 mm 4,1 km/h (1 Bft) N-NW 340 ° 0 min 0,000 mm 1,6 UV-I 186 W/m² 11,1 °C 13,8 °C 4,8 km/h (1 Bft)
15.05.2017 11:28 13,8 °C 13,8 °C 84 % 1028,0 hPa 0,0 mm 5,4 km/h (1 Bft) N-NO 13 ° 0 min 0,000 mm 1,5 UV-I 188 W/m² 11,1 °C 13,8 °C 8,0 km/h (2 Bft)
15.05.2017 11:29 13,8 °C 13,8 °C 84 % 1028,0 hPa 0,0 mm 9,7 km/h (2 Bft) N 355 ° 0 min 0,000 mm 1,5 UV-I 185 W/m² 11,1 °C 13,8 °C 12,9 km/h (3 Bft)
15.05.2017 11:30 13,7 °C 13,8 °C 81 % 1028,1 hPa 0,0 mm 9,7 km/h (2 Bft) N 355 ° 0 min 0,000 mm 1,5 UV-I 183 W/m² 10,5 °C 13,7 °C 12,9 km/h (3 Bft)
15.05.2017 11:31 13,6 °C 13,7 °C 80 % 1028,0 hPa 0,0 mm 5,4 km/h (1 Bft) N 9 ° 0 min 0,000 mm 1,6 UV-I 185 W/m² 10,2 °C 13,6 °C 9,7 km/h (2 Bft)
15.05.2017 11:32 13,6 °C 13,6 °C 80 % 1028,0 hPa 0,0 mm 1,8 km/h (1 Bft) N 9 ° 0 min 0,000 mm 1,6 UV-I 188 W/m² 10,2 °C 13,6 °C 3,2 km/h (1 Bft)
15.05.2017 11:33 13,4 °C 13,6 °C 81 % 1028,1 hPa 0,0 mm 3,8 km/h (1 Bft) N 5 ° 0 min 0,000 mm 1,7 UV-I 195 W/m² 10,2 °C 13,4 °C 4,8 km/h (1 Bft)
15.05.2017 11:34 13,4 °C 13,4 °C 80 % 1028,0 hPa 0,0 mm 4,0 km/h (1 Bft) N-NO 21 ° 0 min 0,000 mm 1,7 UV-I 200 W/m² 10,0 °C 13,4 °C 6,4 km/h (2 Bft)
15.05.2017 11:35 13,4 °C 13,4 °C 81 % 1028,0 hPa 0,0 mm 6,4 km/h (2 Bft) N 355 ° 0 min 0,000 mm 1,8 UV-I 209 W/m² 10,2 °C 13,4 °C 9,7 km/h (2 Bft)
15.05.2017 11:36 13,4 °C 13,4 °C 78 % 1028,1 hPa 0,0 mm 6,1 km/h (2 Bft) N-NO 15 ° 0 min 0,000 mm 1,9 UV-I 211 W/m² 9,6 °C 13,4 °C 9,7 km/h (2 Bft)
15.05.2017 11:37 13,4 °C 13,4 °C 77 % 1028,1 hPa 0,0 mm 3,8 km/h (1 Bft) N 11 ° 0 min 0,000 mm 1,9 UV-I 213 W/m² 9,5 °C 13,4 °C 4,8 km/h (1 Bft)
15.05.2017 11:38 13,4 °C 13,4 °C 77 % 1028,1 hPa 0,0 mm 4,0 km/h (1 Bft) N 11 ° 0 min 0,000 mm 2,0 UV-I 216 W/m² 9,5 °C 13,4 °C 6,4 km/h (2 Bft)
15.05.2017 11:39 13,4 °C 13,4 °C 77 % 1028,1 hPa 0,0 mm 5,2 km/h (1 Bft) N 11 ° 0 min 0,000 mm 2,1 UV-I 223 W/m² 9,5 °C 13,4 °C 6,4 km/h (2 Bft)
15.05.2017 11:40 13,4 °C 13,4 °C 76 % 1028,0 hPa 0,0 mm 4,7 km/h (1 Bft) N 11 ° 0 min 0,000 mm 2,2 UV-I 248 W/m² 9,3 °C 13,4 °C 6,4 km/h (2 Bft)
15.05.2017 11:41 13,4 °C 13,4 °C 77 % 1028,0 hPa 0,0 mm 3,5 km/h (1 Bft) N-NO 12 ° 0 min 0,000 mm 2,3 UV-I 257 W/m² 9,5 °C 13,4 °C 4,8 km/h (1 Bft)
15.05.2017 11:42 13,4 °C 13,4 °C 77 % 1028,1 hPa 0,0 mm 3,3 km/h (1 Bft) NO 43 ° 0 min 0,000 mm 2,3 UV-I 260 W/m² 9,5 °C 13,4 °C 4,8 km/h (1 Bft)
15.05.2017 11:43 13,4 °C 13,4 °C 77 % 1028,1 hPa 0,0 mm 1,8 km/h (1 Bft) NO 44 ° 0 min 0,000 mm 2,4 UV-I 262 W/m² 9,5 °C 13,4 °C 4,8 km/h (1 Bft)
15.05.2017 11:44 13,4 °C 13,4 °C 77 % 1028,0 hPa 0,0 mm 5,1 km/h (1 Bft) NO 43 ° 0 min 0,000 mm 2,4 UV-I 265 W/m² 9,5 °C 13,4 °C 6,4 km/h (2 Bft)
15.05.2017 11:45 13,4 °C 13,4 °C 78 % 1028,1 hPa 0,0 mm 3,0 km/h (1 Bft) N-NO 30 ° 0 min 0,000 mm 2,4 UV-I 265 W/m² 9,6 °C 13,4 °C 4,8 km/h (1 Bft)
15.05.2017 11:46 13,4 °C 13,4 °C 76 % 1028,1 hPa 0,0 mm 4,8 km/h (1 Bft) N-NO 33 ° 0 min 0,000 mm 2,4 UV-I 276 W/m² 9,3 °C 13,4 °C 6,4 km/h (2 Bft)
15.05.2017 11:47 13,4 °C 13,4 °C 77 % 1028,1 hPa 0,0 mm 3,5 km/h (1 Bft) O 98 ° 0 min 0,000 mm 2,5 UV-I 283 W/m² 9,5 °C 13,4 °C 4,8 km/h (1 Bft)
15.05.2017 11:48 13,3 °C 13,4 °C 76 % 1028,1 hPa 0,0 mm 5,3 km/h (1 Bft) O-NO 61 ° 1 min 0,000 mm 2,5 UV-I 295 W/m² 9,2 °C 13,3 °C 8,0 km/h (2 Bft)
15.05.2017 11:49 13,3 °C 13,3 °C 77 % 1028,1 hPa 0,0 mm 5,5 km/h (1 Bft) O-NO 71 ° 1 min 0,000 mm 2,6 UV-I 301 W/m² 9,4 °C 13,3 °C 8,0 km/h (2 Bft)
15.05.2017 11:50 13,3 °C 13,3 °C 77 % 1028,2 hPa 0,0 mm 5,0 km/h (1 Bft) O 84 ° 1 min 0,000 mm 2,6 UV-I 301 W/m² 9,4 °C 13,3 °C 8,0 km/h (2 Bft)
15.05.2017 11:51 13,2 °C 13,3 °C 77 % 1028,2 hPa 0,0 mm 5,9 km/h (2 Bft) O-NO 75 ° 1 min 0,000 mm 2,6 UV-I 304 W/m² 9,3 °C 13,2 °C 8,0 km/h (2 Bft)
15.05.2017 11:52 13,2 °C 13,2 °C 78 % 1028,1 hPa 0,0 mm 5,6 km/h (1 Bft) O-NO 76 ° 1 min 0,000 mm 2,7 UV-I 332 W/m² 9,4 °C 13,2 °C 8,0 km/h (2 Bft)
15.05.2017 11:53 13,2 °C 13,2 °C 79 % 1028,1 hPa 0,0 mm 4,8 km/h (1 Bft) O-NO 78 ° 1 min 0,000 mm 2,8 UV-I 338 W/m² 9,6 °C 13,2 °C 8,0 km/h (2 Bft)
15.05.2017 11:54 13,2 °C 13,2 °C 78 % 1028,1 hPa 0,0 mm 6,4 km/h (2 Bft) O 84 ° 1 min 0,000 mm 3,0 UV-I 357 W/m² 9,4 °C 13,2 °C 11,3 km/h (2 Bft)
15.05.2017 11:55 13,2 °C 13,2 °C 78 % 1028,1 hPa 0,0 mm 3,2 km/h (1 Bft) O 88 ° 1 min 0,000 mm 3,1 UV-I 378 W/m² 9,4 °C 13,2 °C 6,4 km/h (2 Bft)
15.05.2017 11:56 13,3 °C 13,3 °C 80 % 1028,2 hPa 0,0 mm 3,9 km/h (1 Bft) O-NO 63 ° 1 min 0,000 mm 3,4 UV-I 411 W/m² 9,9 °C 13,3 °C 4,8 km/h (1 Bft)
15.05.2017 11:57 13,3 °C 13,4 °C 80 % 1028,2 hPa 0,0 mm 4,0 km/h (1 Bft) O-NO 75 ° 1 min 0,000 mm 3,5 UV-I 455 W/m² 9,9 °C 13,3 °C 6,4 km/h (2 Bft)
15.05.2017 11:58 13,4 °C 13,4 °C 79 % 1028,2 hPa 0,0 mm 6,4 km/h (2 Bft) O-NO 60 ° 1 min 0,000 mm 3,5 UV-I 461 W/m² 9,8 °C 13,4 °C 8,0 km/h (2 Bft)
15.05.2017 11:59 13,4 °C 13,4 °C 78 % 1028,2 hPa 0,0 mm 4,3 km/h (1 Bft) O 92 ° 1 min 0,000 mm 3,7 UV-I 473 W/m² 9,6 °C 13,4 °C 4,8 km/h (1 Bft)
15.05.2017 12:00 13,5 °C 13,5 °C 78 % 1028,2 hPa 0,0 mm 3,4 km/h (1 Bft) O 90 ° 1 min 0,000 mm 3,7 UV-I 462 W/m² 9,7 °C 13,5 °C 6,4 km/h (2 Bft)
15.05.2017 12:01 13,7 °C 13,7 °C 81 % 1028,2 hPa 0,0 mm 3,1 km/h (1 Bft) NO 54 ° 1 min 0,204 mm 3,7 UV-I 462 W/m² 10,5 °C 13,7 °C 6,4 km/h (2 Bft)
15.05.2017 12:02 13,7 °C 13,7 °C 78 % 1028,2 hPa 0,0 mm 3,1 km/h (1 Bft) O-NO 57 ° 1 min 0,000 mm 3,7 UV-I 466 W/m² 9,9 °C 13,7 °C 6,4 km/h (2 Bft)
15.05.2017 12:03 13,8 °C 13,8 °C 78 % 1028,2 hPa 0,0 mm 5,6 km/h (1 Bft) O 87 ° 1 min 0,000 mm 4,0 UV-I 561 W/m² 10,0 °C 13,8 °C 11,3 km/h (2 Bft)
15.05.2017 12:04 13,8 °C 13,8 °C 78 % 1028,3 hPa 0,0 mm 4,2 km/h (1 Bft) O-NO 57 ° 1 min 0,000 mm 4,5 UV-I 582 W/m² 10,0 °C 13,8 °C 8,0 km/h (2 Bft)
15.05.2017 12:05 13,7 °C 13,8 °C 78 % 1028,3 hPa 0,0 mm 7,6 km/h (2 Bft) O-NO 76 ° 1 min 0,000 mm 4,5 UV-I 582 W/m² 9,9 °C 13,7 °C 11,3 km/h (2 Bft)
15.05.2017 12:06 13,9 °C 13,9 °C 81 % 1028,3 hPa 0,0 mm 3,1 km/h (1 Bft) O-NO 67 ° 1 min 0,000 mm 4,9 UV-I 582 W/m² 10,7 °C 13,9 °C 4,8 km/h (1 Bft)
15.05.2017 12:07 14,1 °C 14,1 °C 79 % 1028,3 hPa 0,0 mm 4,6 km/h (1 Bft) O-NO 75 ° 1 min 0,000 mm 3,5 UV-I 424 W/m² 10,5 °C 14,1 °C 6,4 km/h (2 Bft)
15.05.2017 12:08 14,1 °C 14,1 °C 79 % 1028,3 hPa 0,0 mm 2,6 km/h (1 Bft) O-NO 69 ° 1 min 0,000 mm 3,1 UV-I 371 W/m² 10,5 °C 14,1 °C 6,4 km/h (2 Bft)
15.05.2017 12:09 14,0 °C 14,1 °C 80 % 1028,3 hPa 0,0 mm 2,1 km/h (1 Bft) O-NO 67 ° 0 min 0,000 mm 2,6 UV-I 239 W/m² 10,6 °C 14,0 °C 3,2 km/h (1 Bft)
15.05.2017 12:10 14,0 °C 14,0 °C 81 % 1028,3 hPa 0,0 mm 1,0 km/h (0 Bft) O-NO 67 ° 0 min 0,000 mm 2,1 UV-I 181 W/m² 10,8 °C 14,0 °C 3,2 km/h (1 Bft)
15.05.2017 12:11 14,0 °C 14,0 °C 80 % 1028,4 hPa 0,0 mm 1,0 km/h (0 Bft) W 263 ° 0 min 0,000 mm 1,2 UV-I 139 W/m² 10,6 °C 14,0 °C 6,4 km/h (2 Bft)
15.05.2017 12:12 14,0 °C 14,0 °C 82 % 1028,5 hPa 0,0 mm 8,0 km/h (2 Bft) W 279 ° 0 min 0,000 mm 0,9 UV-I 111 W/m² 11,0 °C 14,0 °C 12,9 km/h (3 Bft)
15.05.2017 12:13 14,1 °C 14,1 °C 81 % 1028,5 hPa 0,0 mm 11,4 km/h (2 Bft) W 270 ° 0 min 0,000 mm 0,8 UV-I 95 W/m² 10,9 °C 14,1 °C 19,3 km/h (3 Bft)
15.05.2017 12:14 14,0 °C 14,1 °C 79 % 1028,6 hPa 0,0 mm 11,3 km/h (2 Bft) W 261 ° 0 min 0,000 mm 0,7 UV-I 86 W/m² 10,4 °C 14,0 °C 20,9 km/h (4 Bft)
15.05.2017 12:15 13,9 °C 14,0 °C 79 % 1028,6 hPa 0,0 mm 8,9 km/h (2 Bft) W 267 ° 0 min 0,000 mm 0,7 UV-I 84 W/m² 10,3 °C 13,9 °C 12,9 km/h (3 Bft)
15.05.2017 12:16 13,7 °C 13,9 °C 76 % 1028,7 hPa 0,0 mm 17,5 km/h (3 Bft) W-SW 258 ° 0 min 0,000 mm 0,8 UV-I 93 W/m² 9,5 °C 13,7 °C 25,7 km/h (4 Bft)
15.05.2017 12:17 13,5 °C 13,7 °C 75 % 1028,7 hPa 0,0 mm 13,1 km/h (3 Bft) W 281 ° 0 min 0,000 mm 0,8 UV-I 98 W/m² 9,2 °C 13,5 °C 20,9 km/h (4 Bft)
15.05.2017 12:18 13,3 °C 13,5 °C 75 % 1028,6 hPa 0,0 mm 4,7 km/h (1 Bft) W-NW 296 ° 0 min 0,000 mm 0,9 UV-I 111 W/m² 9,0 °C 13,3 °C 6,4 km/h (2 Bft)
15.05.2017 12:19 13,2 °C 13,3 °C 78 % 1028,7 hPa 0,0 mm 9,3 km/h (2 Bft) W-NW 298 ° 0 min 0,000 mm 1,0 UV-I 121 W/m² 9,4 °C 13,2 °C 17,7 km/h (3 Bft)
15.05.2017 12:20 13,0 °C 13,2 °C 76 % 1028,7 hPa 0,0 mm 10,9 km/h (2 Bft) NW 321 ° 0 min 0,000 mm 1,1 UV-I 130 W/m² 8,9 °C 13,0 °C 16,1 km/h (3 Bft)
15.05.2017 12:21 12,8 °C 13,0 °C 77 % 1028,7 hPa 0,0 mm 9,2 km/h (2 Bft) W-NW 298 ° 0 min 0,000 mm 1,2 UV-I 148 W/m² 8,9 °C 12,8 °C 12,9 km/h (3 Bft)
15.05.2017 12:22 12,7 °C 12,8 °C 77 % 1028,7 hPa 0,0 mm 10,3 km/h (2 Bft) W-NW 288 ° 0 min 0,000 mm 1,2 UV-I 149 W/m² 8,8 °C 12,7 °C 16,1 km/h (3 Bft)
15.05.2017 12:23 12,6 °C 12,7 °C 78 % 1028,6 hPa 0,0 mm 10,5 km/h (2 Bft) W-NW 286 ° 0 min 0,000 mm 1,2 UV-I 148 W/m² 8,9 °C 12,6 °C 17,7 km/h (3 Bft)
15.05.2017 12:24 12,5 °C 12,6 °C 78 % 1028,7 hPa 0,0 mm 12,6 km/h (3 Bft) W-NW 298 ° 0 min 0,000 mm 1,2 UV-I 146 W/m² 8,8 °C 12,5 °C 19,3 km/h (3 Bft)
15.05.2017 12:25 12,4 °C 12,5 °C 80 % 1028,7 hPa 0,0 mm 7,9 km/h (2 Bft) W-NW 285 ° 0 min 0,000 mm 1,2 UV-I 144 W/m² 9,0 °C 12,4 °C 14,5 km/h (3 Bft)
15.05.2017 12:26 12,4 °C 12,4 °C 79 % 1028,8 hPa 0,0 mm 10,4 km/h (2 Bft) W 261 ° 0 min 0,000 mm 1,2 UV-I 139 W/m² 8,9 °C 12,4 °C 14,5 km/h (3 Bft)
15.05.2017 12:27 12,3 °C 12,4 °C 80 % 1028,8 hPa 0,0 mm 13,2 km/h (3 Bft) NW 309 ° 0 min 0,000 mm 1,1 UV-I 125 W/m² 8,9 °C 12,3 °C 17,7 km/h (3 Bft)
15.05.2017 12:28 12,3 °C 12,3 °C 80 % 1028,8 hPa 0,0 mm 5,9 km/h (2 Bft) W 260 ° 0 min 0,000 mm 1,0 UV-I 118 W/m² 8,9 °C 12,3 °C 8,0 km/h (2 Bft)
15.05.2017 12:29 12,2 °C 12,3 °C 81 % 1028,8 hPa 0,0 mm 4,9 km/h (1 Bft) W-NW 284 ° 0 min 0,000 mm 1,0 UV-I 111 W/m² 9,0 °C 12,2 °C 6,4 km/h (2 Bft)
15.05.2017 12:30 12,1 °C 12,2 °C 82 % 1028,8 hPa 0,0 mm 6,9 km/h (2 Bft) N-NW 336 ° 0 min 0,000 mm 1,0 UV-I 107 W/m² 9,1 °C 12,1 °C 12,9 km/h (3 Bft)
15.05.2017 12:31 12,0 °C 12,1 °C 82 % 1028,8 hPa 0,0 mm 10,6 km/h (2 Bft) W-NW 288 ° 0 min 0,000 mm 0,9 UV-I 105 W/m² 9,0 °C 12,0 °C 12,9 km/h (3 Bft)
15.05.2017 12:32 11,9 °C 12,0 °C 83 % 1028,8 hPa 0,0 mm 8,7 km/h (2 Bft) N-NW 334 ° 0 min 0,000 mm 0,9 UV-I 102 W/m² 9,1 °C 11,9 °C 12,9 km/h (3 Bft)
15.05.2017 12:33 11,8 °C 11,9 °C 83 % 1028,9 hPa 0,0 mm 7,4 km/h (2 Bft) NW 319 ° 0 min 0,000 mm 0,9 UV-I 98 W/m² 9,0 °C 11,8 °C 12,9 km/h (3 Bft)
15.05.2017 12:34 11,7 °C 11,8 °C 84 % 1028,9 hPa 0,0 mm 5,4 km/h (1 Bft) W 279 ° 0 min 0,000 mm 0,9 UV-I 98 W/m² 9,1 °C 11,7 °C 11,3 km/h (2 Bft)
15.05.2017 12:35 11,6 °C 11,7 °C 84 % 1028,8 hPa 0,0 mm 11,5 km/h (2 Bft) NW 306 ° 0 min 0,000 mm 0,9 UV-I 98 W/m² 9,0 °C 11,6 °C 14,5 km/h (3 Bft)
15.05.2017 12:36 11,6 °C 11,6 °C 85 % 1028,8 hPa 0,0 mm 4,6 km/h (1 Bft) NW 319 ° 0 min 0,000 mm 0,9 UV-I 98 W/m² 9,2 °C 11,6 °C 6,4 km/h (2 Bft)
15.05.2017 12:37 11,5 °C 11,6 °C 85 % 1028,9 hPa 0,0 mm 3,6 km/h (1 Bft) W-NW 301 ° 0 min 0,000 mm 0,9 UV-I 100 W/m² 9,1 °C 11,5 °C 4,8 km/h (1 Bft)
15.05.2017 12:38 11,4 °C 11,5 °C 85 % 1028,9 hPa 0,0 mm 4,0 km/h (1 Bft) W-SW 250 ° 0 min 0,000 mm 0,9 UV-I 102 W/m² 9,0 °C 11,4 °C 4,8 km/h (1 Bft)
15.05.2017 12:39 11,3 °C 11,4 °C 86 % 1028,8 hPa 0,0 mm 3,4 km/h (1 Bft) W 273 ° 0 min 0,000 mm 1,0 UV-I 109 W/m² 9,0 °C 11,3 °C 6,4 km/h (2 Bft)
15.05.2017 12:40 11,3 °C 11,4 °C 86 % 1028,9 hPa 0,0 mm 2,6 km/h (1 Bft) W-NW 284 ° 0 min 0,000 mm 1,0 UV-I 114 W/m² 9,0 °C 11,3 °C 4,8 km/h (1 Bft)
15.05.2017 12:41 11,3 °C 11,4 °C 87 % 1028,8 hPa 0,0 mm 0,7 km/h (0 Bft) W 277 ° 0 min 0,000 mm 1,1 UV-I 118 W/m² 9,2 °C 11,3 °C 3,2 km/h (1 Bft)
15.05.2017 12:42 11,4 °C 11,4 °C 86 % 1028,9 hPa 0,0 mm 3,6 km/h (1 Bft) W-SW 257 ° 0 min 0,000 mm 1,1 UV-I 123 W/m² 9,1 °C 11,4 °C 6,4 km/h (2 Bft)
15.05.2017 12:43 11,3 °C 11,4 °C 87 % 1028,9 hPa 0,0 mm 0,1 km/h (0 Bft) W-SW 257 ° 0 min 0,000 mm 1,1 UV-I 127 W/m² 9,2 °C 11,3 °C 1,6 km/h (1 Bft)
15.05.2017 12:44 11,3 °C 11,3 °C 87 % 1028,8 hPa 0,0 mm 0,9 km/h (0 Bft) W-SW 257 ° 0 min 0,000 mm 1,2 UV-I 135 W/m² 9,2 °C 11,3 °C 3,2 km/h (1 Bft)
15.05.2017 12:45 11,2 °C 11,3 °C 86 % 1028,8 hPa 0,0 mm 0,4 km/h (0 Bft) W-SW 257 ° 0 min 0,000 mm 1,2 UV-I 141 W/m² 8,9 °C 11,2 °C 1,6 km/h (1 Bft)
15.05.2017 12:46 11,2 °C 11,2 °C 86 % 1028,8 hPa 0,0 mm 0,0 km/h (0 Bft) W-SW 257 ° 0 min 0,000 mm 1,2 UV-I 144 W/m² 8,9 °C 11,2 °C 0,0 km/h (0 Bft)
15.05.2017 12:47 11,1 °C 11,2 °C 86 % 1028,8 hPa 0,0 mm 0,1 km/h (0 Bft) W-SW 257 ° 0 min 0,000 mm 1,3 UV-I 148 W/m² 8,8 °C 11,1 °C 1,6 km/h (1 Bft)
15.05.2017 12:48 11,1 °C 11,2 °C 87 % 1028,8 hPa 0,0 mm 0,0 km/h (0 Bft) W-SW 257 ° 0 min 0,000 mm 1,3 UV-I 149 W/m² 9,0 °C 11,1 °C 0,0 km/h (0 Bft)
15.05.2017 12:49 11,2 °C 11,2 °C 87 % 1028,9 hPa 0,0 mm 0,3 km/h (0 Bft) W-SW 257 ° 0 min 0,000 mm 1,3 UV-I 149 W/m² 9,1 °C 11,2 °C 3,2 km/h (1 Bft)
15.05.2017 12:50 11,2 °C 11,2 °C 88 % 1028,8 hPa 0,0 mm 1,5 km/h (1 Bft) SW 215 ° 0 min 0,000 mm 1,3 UV-I 151 W/m² 9,3 °C 11,2 °C 3,2 km/h (1 Bft)
15.05.2017 12:51 11,3 °C 11,3 °C 88 % 1028,8 hPa 0,0 mm 2,4 km/h (1 Bft) S-SW 196 ° 0 min 0,000 mm 1,3 UV-I 151 W/m² 9,4 °C 11,3 °C 3,2 km/h (1 Bft)
15.05.2017 12:52 11,3 °C 11,3 °C 88 % 1028,8 hPa 0,0 mm 1,8 km/h (1 Bft) S-SW 196 ° 0 min 0,000 mm 1,3 UV-I 149 W/m² 9,4 °C 11,3 °C 3,2 km/h (1 Bft)
15.05.2017 12:53 11,3 °C 11,3 °C 88 % 1028,8 hPa 0,0 mm 2,6 km/h (1 Bft) O-SO 110 ° 0 min 0,000 mm 1,3 UV-I 148 W/m² 9,4 °C 11,3 °C 4,8 km/h (1 Bft)
15.05.2017 12:54 11,3 °C 11,3 °C 88 % 1028,8 hPa 0,0 mm 3,2 km/h (1 Bft) O 88 ° 0 min 0,000 mm 1,3 UV-I 148 W/m² 9,4 °C 11,3 °C 4,8 km/h (1 Bft)
15.05.2017 12:55 11,4 °C 11,4 °C 88 % 1028,8 hPa 0,0 mm 2,1 km/h (1 Bft) O 88 ° 0 min 0,000 mm 1,3 UV-I 148 W/m² 9,5 °C 11,4 °C 3,2 km/h (1 Bft)
15.05.2017 12:56 11,4 °C 11,4 °C 88 % 1028,7 hPa 0,2 mm 2,5 km/h (1 Bft) O 88 ° 0 min 0,000 mm 1,3 UV-I 148 W/m² 9,5 °C 11,4 °C 3,2 km/h (1 Bft)
15.05.2017 12:57 11,4 °C 11,4 °C 88 % 1028,6 hPa 0,0 mm 1,0 km/h (0 Bft) O 88 ° 0 min 0,000 mm 1,3 UV-I 149 W/m² 9,5 °C 11,4 °C 1,6 km/h (1 Bft)
15.05.2017 12:58 11,4 °C 11,4 °C 89 % 1028,7 hPa 0,0 mm 1,4 km/h (1 Bft) O 88 ° 0 min 0,000 mm 1,3 UV-I 151 W/m² 9,7 °C 11,4 °C 3,2 km/h (1 Bft)
15.05.2017 12:59 11,6 °C 11,6 °C 89 % 1028,7 hPa 0,0 mm 2,4 km/h (1 Bft) O 88 ° 0 min 0,000 mm 1,3 UV-I 151 W/m² 9,8 °C 11,6 °C 4,8 km/h (1 Bft)
15.05.2017 13:00 11,6 °C 11,6 °C 88 % 1028,7 hPa 0,0 mm 0,5 km/h (0 Bft) O 88 ° 0 min 0,000 mm 1,3 UV-I 151 W/m² 9,7 °C 11,6 °C 1,6 km/h (1 Bft)
15.05.2017 13:01 11,6 °C 11,6 °C 88 % 1028,6 hPa 0,0 mm 0,9 km/h (0 Bft) O 88 ° 0 min 0,101 mm 1,4 UV-I 156 W/m² 9,7 °C 11,6 °C 3,2 km/h (1 Bft)
15.05.2017 13:02 11,6 °C 11,6 °C 88 % 1028,6 hPa 0,0 mm 3,3 km/h (1 Bft) O-NO 76 ° 0 min 0,000 mm 1,4 UV-I 167 W/m² 9,7 °C 11,6 °C 4,8 km/h (1 Bft)
15.05.2017 13:03 11,6 °C 11,6 °C 88 % 1028,6 hPa 0,0 mm 1,3 km/h (1 Bft) O-NO 76 ° 0 min 0,000 mm 1,6 UV-I 174 W/m² 9,7 °C 11,6 °C 4,8 km/h (1 Bft)
15.05.2017 13:04 11,6 °C 11,6 °C 88 % 1028,6 hPa 0,0 mm 3,4 km/h (1 Bft) O-NO 76 ° 0 min 0,000 mm 1,7 UV-I 183 W/m² 9,7 °C 11,6 °C 4,8 km/h (1 Bft)
15.05.2017 13:05 11,6 °C 11,6 °C 89 % 1028,7 hPa 0,0 mm 1,5 km/h (1 Bft) O-NO 73 ° 0 min 0,000 mm 1,8 UV-I 192 W/m² 9,8 °C 11,6 °C 4,8 km/h (1 Bft)
15.05.2017 13:06 11,7 °C 11,7 °C 90 % 1028,7 hPa 0,0 mm 2,7 km/h (1 Bft) O-NO 67 ° 0 min 0,000 mm 1,9 UV-I 200 W/m² 10,1 °C 11,7 °C 4,8 km/h (1 Bft)
15.05.2017 13:07 11,8 °C 11,8 °C 89 % 1028,6 hPa 0,0 mm 0,4 km/h (0 Bft) O-NO 67 ° 0 min 0,000 mm 1,9 UV-I 209 W/m² 10,0 °C 11,8 °C 1,6 km/h (1 Bft)
15.05.2017 13:08 11,7 °C 11,8 °C 88 % 1028,6 hPa 0,0 mm 1,2 km/h (1 Bft) O-NO 67 ° 0 min 0,000 mm 2,0 UV-I 227 W/m² 9,8 °C 11,7 °C 1,6 km/h (1 Bft)
15.05.2017 13:09 11,8 °C 11,8 °C 88 % 1028,6 hPa 0,0 mm 0,0 km/h (0 Bft) O-NO 67 ° 0 min 0,000 mm 2,1 UV-I 232 W/m² 9,9 °C 11,8 °C 0,0 km/h (0 Bft)
15.05.2017 13:10 11,9 °C 11,9 °C 89 % 1028,6 hPa 0,0 mm 0,2 km/h (0 Bft) O-NO 67 ° 0 min 0,000 mm 2,2 UV-I 239 W/m² 10,1 °C 11,9 °C 1,6 km/h (1 Bft)
15.05.2017 13:11 11,9 °C 11,9 °C 89 % 1028,7 hPa 0,0 mm 2,4 km/h (1 Bft) O-NO 67 ° 0 min 0,000 mm 2,3 UV-I 250 W/m² 10,1 °C 11,9 °C 6,4 km/h (2 Bft)
15.05.2017 13:12 11,9 °C 11,9 °C 87 % 1028,7 hPa 0,0 mm 3,8 km/h (1 Bft) NO 36 ° 0 min 0,000 mm 2,3 UV-I 258 W/m² 9,8 °C 11,9 °C 4,8 km/h (1 Bft)
15.05.2017 13:13 11,9 °C 11,9 °C 88 % 1028,8 hPa 0,0 mm 3,0 km/h (1 Bft) NO 36 ° 0 min 0,000 mm 2,4 UV-I 278 W/m² 10,0 °C 11,9 °C 4,8 km/h (1 Bft)
15.05.2017 13:14 11,9 °C 11,9 °C 87 % 1028,8 hPa 0,0 mm 2,3 km/h (1 Bft) N-NO 32 ° 0 min 0,000 mm 2,5 UV-I 278 W/m² 9,8 °C 11,9 °C 4,8 km/h (1 Bft)
15.05.2017 13:15 12,0 °C 12,0 °C 87 % 1028,8 hPa 0,0 mm 4,0 km/h (1 Bft) N-NO 32 ° 1 min 0,000 mm 2,8 UV-I 316 W/m² 9,9 °C 12,0 °C 4,8 km/h (1 Bft)
15.05.2017 13:16 12,1 °C 12,1 °C 88 % 1028,9 hPa 0,0 mm 3,9 km/h (1 Bft) N-NO 32 ° 1 min 0,000 mm 3,2 UV-I 383 W/m² 10,2 °C 12,1 °C 4,8 km/h (1 Bft)
15.05.2017 13:17 12,1 °C 12,1 °C 86 % 1028,8 hPa 0,0 mm 2,2 km/h (1 Bft) N-NO 32 ° 1 min 0,000 mm 3,5 UV-I 445 W/m² 9,8 °C 12,1 °C 3,2 km/h (1 Bft)
15.05.2017 13:18 12,1 °C 12,2 °C 85 % 1028,9 hPa 0,0 mm 0,1 km/h (0 Bft) N-NO 32 ° 1 min 0,000 mm 3,5 UV-I 469 W/m² 9,7 °C 12,1 °C 1,6 km/h (1 Bft)
15.05.2017 13:19 12,2 °C 12,2 °C 86 % 1028,9 hPa 0,0 mm 0,6 km/h (0 Bft) N-NO 32 ° 1 min 0,000 mm 3,7 UV-I 468 W/m² 9,9 °C 12,2 °C 3,2 km/h (1 Bft)
15.05.2017 13:20 12,2 °C 12,2 °C 86 % 1028,9 hPa 0,0 mm 2,7 km/h (1 Bft) N-NO 32 ° 1 min 0,000 mm 3,9 UV-I 476 W/m² 9,9 °C 12,2 °C 4,8 km/h (1 Bft)
15.05.2017 13:21 12,3 °C 12,3 °C 86 % 1028,9 hPa 0,0 mm 3,8 km/h (1 Bft) NO 42 ° 1 min 0,000 mm 3,8 UV-I 475 W/m² 10,0 °C 12,3 °C 6,4 km/h (2 Bft)
15.05.2017 13:22 12,3 °C 12,3 °C 87 % 1028,9 hPa 0,0 mm 3,6 km/h (1 Bft) NO 46 ° 1 min 0,000 mm 3,9 UV-I 480 W/m² 10,2 °C 12,3 °C 4,8 km/h (1 Bft)
15.05.2017 13:23 12,4 °C 12,4 °C 82 % 1028,8 hPa 0,0 mm 0,8 km/h (0 Bft) NO 46 ° 1 min 0,000 mm 4,0 UV-I 490 W/m² 9,4 °C 12,4 °C 1,6 km/h (1 Bft)
15.05.2017 13:24 12,4 °C 12,4 °C 83 % 1028,9 hPa 0,0 mm 1,2 km/h (1 Bft) NO 46 ° 1 min 0,000 mm 4,0 UV-I 492 W/m² 9,6 °C 12,4 °C 3,2 km/h (1 Bft)
15.05.2017 13:25 12,4 °C 12,4 °C 81 % 1028,8 hPa 0,0 mm 0,1 km/h (0 Bft) NO 46 ° 1 min 0,000 mm 4,1 UV-I 499 W/m² 9,2 °C 12,4 °C 1,6 km/h (1 Bft)
15.05.2017 13:26 12,5 °C 12,5 °C 81 % 1028,8 hPa 0,0 mm 0,9 km/h (0 Bft) NO 46 ° 1 min 0,000 mm 4,1 UV-I 533 W/m² 9,3 °C 12,5 °C 3,2 km/h (1 Bft)
15.05.2017 13:27 12,6 °C 12,6 °C 82 % 1028,8 hPa 0,0 mm 0,5 km/h (0 Bft) NO 46 ° 1 min 0,000 mm 4,3 UV-I 540 W/m² 9,6 °C 12,6 °C 1,6 km/h (1 Bft)
15.05.2017 13:28 12,7 °C 12,7 °C 81 % 1028,8 hPa 0,0 mm 1,0 km/h (0 Bft) NO 46 ° 1 min 0,000 mm 4,4 UV-I 550 W/m² 9,5 °C 12,7 °C 4,8 km/h (1 Bft)
15.05.2017 13:29 12,8 °C 12,8 °C 81 % 1028,8 hPa 0,0 mm 2,2 km/h (1 Bft) NO 45 ° 1 min 0,000 mm 4,4 UV-I 555 W/m² 9,6 °C 12,8 °C 4,8 km/h (1 Bft)
15.05.2017 13:30 13,0 °C 13,0 °C 82 % 1028,8 hPa 0,0 mm 0,2 km/h (0 Bft) NO 45 ° 1 min 0,000 mm 4,4 UV-I 552 W/m² 10,0 °C 13,0 °C 1,6 km/h (1 Bft)
15.05.2017 13:31 13,2 °C 13,2 °C 79 % 1028,8 hPa 0,0 mm 2,0 km/h (1 Bft) NO 42 ° 1 min 0,000 mm 4,4 UV-I 577 W/m² 9,6 °C 13,2 °C 4,8 km/h (1 Bft)
15.05.2017 13:32 13,2 °C 13,2 °C 78 % 1028,8 hPa 0,0 mm 1,9 km/h (1 Bft) NO 42 ° 1 min 0,000 mm 4,7 UV-I 577 W/m² 9,4 °C 13,2 °C 3,2 km/h (1 Bft)
15.05.2017 13:33 13,2 °C 13,2 °C 77 % 1028,8 hPa 0,0 mm 0,0 km/h (0 Bft) NO 42 ° 1 min 0,000 mm 4,7 UV-I 608 W/m² 9,3 °C 13,2 °C 0,0 km/h (0 Bft)
15.05.2017 13:34 13,2 °C 13,2 °C 80 % 1028,8 hPa 0,0 mm 0,2 km/h (0 Bft) NO 42 ° 1 min 0,000 mm 4,8 UV-I 626 W/m² 9,8 °C 13,2 °C 1,6 km/h (1 Bft)
15.05.2017 13:35 13,3 °C 13,3 °C 78 % 1028,8 hPa 0,0 mm 0,3 km/h (0 Bft) NO 42 ° 1 min 0,000 mm 4,9 UV-I 640 W/m² 9,5 °C 13,3 °C 1,6 km/h (1 Bft)
15.05.2017 13:36 13,3 °C 13,3 °C 76 % 1028,8 hPa 0,0 mm 1,2 km/h (1 Bft) S 178 ° 1 min 0,000 mm 4,9 UV-I 654 W/m² 9,2 °C 13,3 °C 4,8 km/h (1 Bft)
15.05.2017 13:37 13,3 °C 13,4 °C 78 % 1028,8 hPa 0,0 mm 3,6 km/h (1 Bft) S 178 ° 1 min 0,000 mm 5,7 UV-I 751 W/m² 9,5 °C 13,3 °C 4,8 km/h (1 Bft)
15.05.2017 13:38 13,5 °C 13,5 °C 76 % 1028,8 hPa 0,0 mm 3,4 km/h (1 Bft) S 178 ° 1 min 0,000 mm 7,1 UV-I 1027 W/m² 9,4 °C 13,5 °C 4,8 km/h (1 Bft)
15.05.2017 13:39 13,5 °C 13,5 °C 73 % 1028,8 hPa 0,0 mm 1,7 km/h (1 Bft) S 178 ° 1 min 0,000 mm 6,8 UV-I 1039 W/m² 8,8 °C 13,5 °C 3,2 km/h (1 Bft)
15.05.2017 13:40 13,6 °C 13,6 °C 74 % 1028,7 hPa 0,0 mm 0,2 km/h (0 Bft) S 178 ° 1 min 0,000 mm 6,8 UV-I 1039 W/m² 9,1 °C 13,6 °C 1,6 km/h (1 Bft)
15.05.2017 13:41 13,7 °C 13,7 °C 74 % 1028,7 hPa 0,0 mm 2,5 km/h (1 Bft) W-NW 289 ° 1 min 0,000 mm 6,5 UV-I 867 W/m² 9,2 °C 13,7 °C 6,4 km/h (2 Bft)
15.05.2017 13:42 13,9 °C 13,9 °C 74 % 1028,7 hPa 0,0 mm 4,0 km/h (1 Bft) W-NW 288 ° 1 min 0,000 mm 5,8 UV-I 786 W/m² 9,3 °C 13,9 °C 6,4 km/h (2 Bft)
15.05.2017 13:43 14,1 °C 14,1 °C 75 % 1028,7 hPa 0,0 mm 1,0 km/h (0 Bft) W-NW 288 ° 1 min 0,000 mm 6,0 UV-I 722 W/m² 9,7 °C 14,1 °C 3,2 km/h (1 Bft)
15.05.2017 13:44 14,3 °C 14,3 °C 75 % 1028,6 hPa 0,0 mm 4,5 km/h (1 Bft) W-SW 257 ° 1 min 0,000 mm 6,0 UV-I 784 W/m² 9,9 °C 14,3 °C 6,4 km/h (2 Bft)
15.05.2017 13:45 14,3 °C 14,3 °C 72 % 1028,7 hPa 0,0 mm 3,6 km/h (1 Bft) W 270 ° 1 min 0,000 mm 6,0 UV-I 751 W/m² 9,3 °C 14,3 °C 6,4 km/h (2 Bft)
15.05.2017 13:46 14,5 °C 14,6 °C 75 % 1028,6 hPa 0,0 mm 5,8 km/h (2 Bft) W-SW 250 ° 1 min 0,000 mm 5,4 UV-I 673 W/m² 10,1 °C 14,5 °C 6,4 km/h (2 Bft)
15.05.2017 13:47 14,4 °C 14,5 °C 74 % 1028,6 hPa 0,0 mm 3,8 km/h (1 Bft) W 264 ° 1 min 0,000 mm 5,4 UV-I 712 W/m² 9,8 °C 14,4 °C 4,8 km/h (1 Bft)
15.05.2017 13:48 14,5 °C 14,5 °C 76 % 1028,6 hPa 0,0 mm 5,0 km/h (1 Bft) S 188 ° 1 min 0,000 mm 5,9 UV-I 740 W/m² 10,3 °C 14,5 °C 9,7 km/h (2 Bft)
15.05.2017 13:49 14,3 °C 14,5 °C 72 % 1028,6 hPa 0,0 mm 2,7 km/h (1 Bft) S-SO 157 ° 1 min 0,000 mm 7,0 UV-I 740 W/m² 9,3 °C 14,3 °C 4,8 km/h (1 Bft)
15.05.2017 13:50 14,3 °C 14,3 °C 74 % 1028,6 hPa 0,0 mm 1,1 km/h (1 Bft) S-SO 157 ° 1 min 0,000 mm 6,9 UV-I 740 W/m² 9,7 °C 14,3 °C 3,2 km/h (1 Bft)
15.05.2017 13:51 14,3 °C 14,3 °C 75 % 1028,6 hPa 0,0 mm 1,2 km/h (1 Bft) S-SO 158 ° 1 min 0,000 mm 5,7 UV-I 747 W/m² 9,9 °C 14,3 °C 3,2 km/h (1 Bft)
15.05.2017 13:52 14,3 °C 14,3 °C 78 % 1028,6 hPa 0,0 mm 1,7 km/h (1 Bft) W 275 ° 1 min 0,000 mm 5,6 UV-I 684 W/m² 10,5 °C 14,3 °C 3,2 km/h (1 Bft)
15.05.2017 13:53 14,4 °C 14,4 °C 78 % 1028,6 hPa 0,0 mm 1,8 km/h (1 Bft) S-SW 196 ° 1 min 0,000 mm 5,5 UV-I 659 W/m² 10,6 °C 14,4 °C 3,2 km/h (1 Bft)
15.05.2017 13:54 14,6 °C 14,6 °C 73 % 1028,6 hPa 0,0 mm 2,3 km/h (1 Bft) SW 236 ° 1 min 0,000 mm 5,5 UV-I 744 W/m² 9,8 °C 14,6 °C 4,8 km/h (1 Bft)
15.05.2017 13:55 14,6 °C 14,6 °C 71 % 1028,6 hPa 0,0 mm 6,4 km/h (2 Bft) W-NW 296 ° 1 min 0,000 mm 5,9 UV-I 679 W/m² 9,4 °C 14,6 °C 9,7 km/h (2 Bft)
15.05.2017 13:56 14,6 °C 14,6 °C 74 % 1028,6 hPa 0,0 mm 4,3 km/h (1 Bft) W-NW 296 ° 1 min 0,000 mm 5,6 UV-I 670 W/m² 10,0 °C 14,6 °C 4,8 km/h (1 Bft)
15.05.2017 13:57 14,7 °C 14,7 °C 72 % 1028,6 hPa 0,0 mm 2,0 km/h (1 Bft) W-NW 296 ° 1 min 0,000 mm 5,6 UV-I 715 W/m² 9,7 °C 14,7 °C 4,8 km/h (1 Bft)
15.05.2017 13:58 14,7 °C 14,7 °C 74 % 1028,6 hPa 0,0 mm 1,4 km/h (1 Bft) NW 313 ° 1 min 0,000 mm 6,7 UV-I 715 W/m² 10,1 °C 14,7 °C 4,8 km/h (1 Bft)
15.05.2017 13:59 14,8 °C 14,8 °C 73 % 1028,6 hPa 0,0 mm 1,0 km/h (0 Bft) NW 313 ° 1 min 0,000 mm 5,0 UV-I 715 W/m² 10,0 °C 14,8 °C 4,8 km/h (1 Bft)
15.05.2017 14:00 14,8 °C 14,8 °C 73 % 1028,6 hPa 0,0 mm 3,5 km/h (1 Bft) NW 313 ° 1 min 0,000 mm 4,7 UV-I 555 W/m² 10,0 °C 14,8 °C 4,8 km/h (1 Bft)
15.05.2017 14:01 14,8 °C 14,9 °C 73 % 1028,6 hPa 0,0 mm 0,4 km/h (0 Bft) NW 313 ° 1 min 0,280 mm 5,0 UV-I 545 W/m² 10,0 °C 14,8 °C 1,6 km/h (1 Bft)
15.05.2017 14:02 14,9 °C 14,9 °C 73 % 1028,6 hPa 0,0 mm 3,6 km/h (1 Bft) W-NW 289 ° 1 min 0,000 mm 4,3 UV-I 497 W/m² 10,1 °C 14,9 °C 4,8 km/h (1 Bft)
15.05.2017 14:03 15,0 °C 15,0 °C 74 % 1028,6 hPa 0,0 mm 2,9 km/h (1 Bft) W-SW 254 ° 1 min 0,000 mm 5,0 UV-I 497 W/m² 10,4 °C 15,0 °C 4,8 km/h (1 Bft)
15.05.2017 14:04 15,0 °C 15,0 °C 75 % 1028,6 hPa 0,0 mm 3,6 km/h (1 Bft) SW 221 ° 1 min 0,000 mm 4,7 UV-I 700 W/m² 10,6 °C 15,0 °C 6,4 km/h (2 Bft)
15.05.2017 14:05 15,0 °C 15,0 °C 73 % 1028,5 hPa 0,0 mm 1,1 km/h (1 Bft) SW 221 ° 1 min 0,000 mm 3,9 UV-I 700 W/m² 10,2 °C 15,0 °C 3,2 km/h (1 Bft)
15.05.2017 14:06 15,0 °C 15,0 °C 74 % 1028,6 hPa 0,0 mm 1,1 km/h (1 Bft) SW 221 ° 1 min 0,000 mm 4,4 UV-I 471 W/m² 10,4 °C 15,0 °C 3,2 km/h (1 Bft)
15.05.2017 14:07 15,1 °C 15,1 °C 76 % 1028,6 hPa 0,0 mm 0,1 km/h (0 Bft) SW 221 ° 1 min 0,000 mm 3,9 UV-I 462 W/m² 10,9 °C 15,1 °C 1,6 km/h (1 Bft)
15.05.2017 14:08 15,1 °C 15,1 °C 76 % 1028,6 hPa 0,0 mm 3,6 km/h (1 Bft) NW 304 ° 1 min 0,000 mm 3,8 UV-I 462 W/m² 10,9 °C 15,1 °C 4,8 km/h (1 Bft)
15.05.2017 14:09 15,1 °C 15,1 °C 72 % 1028,5 hPa 0,0 mm 3,4 km/h (1 Bft) NW 319 ° 1 min 0,000 mm 3,5 UV-I 392 W/m² 10,1 °C 15,1 °C 6,4 km/h (2 Bft)
15.05.2017 14:10 14,9 °C 15,1 °C 72 % 1028,5 hPa 0,0 mm 0,0 km/h (0 Bft) NW 319 ° 1 min 0,000 mm 3,4 UV-I 373 W/m² 9,9 °C 14,9 °C 0,0 km/h (0 Bft)
15.05.2017 14:11 14,9 °C 14,9 °C 76 % 1028,5 hPa 0,0 mm 2,3 km/h (1 Bft) N-NW 333 ° 1 min 0,000 mm 3,3 UV-I 359 W/m² 10,7 °C 14,9 °C 3,2 km/h (1 Bft)
15.05.2017 14:12 14,8 °C 14,9 °C 76 % 1028,6 hPa 0,0 mm 0,8 km/h (0 Bft) N-NW 333 ° 1 min 0,000 mm 3,3 UV-I 345 W/m² 10,6 °C 14,8 °C 3,2 km/h (1 Bft)
15.05.2017 14:13 14,8 °C 14,9 °C 73 % 1028,5 hPa 0,0 mm 2,5 km/h (1 Bft) N-NW 333 ° 1 min 0,000 mm 3,2 UV-I 345 W/m² 10,0 °C 14,8 °C 3,2 km/h (1 Bft)
15.05.2017 14:14 14,9 °C 14,9 °C 73 % 1028,6 hPa 0,0 mm 1,8 km/h (1 Bft) N-NW 333 ° 1 min 0,000 mm 3,2 UV-I 346 W/m² 10,1 °C 14,9 °C 3,2 km/h (1 Bft)
15.05.2017 14:15 14,9 °C 14,9 °C 76 % 1028,6 hPa 0,0 mm 0,8 km/h (0 Bft) W-NW 300 ° 1 min 0,000 mm 3,2 UV-I 348 W/m² 10,7 °C 14,9 °C 3,2 km/h (1 Bft)
15.05.2017 14:16 14,9 °C 14,9 °C 74 % 1028,6 hPa 0,0 mm 2,3 km/h (1 Bft) W-NW 296 ° 1 min 0,000 mm 3,2 UV-I 352 W/m² 10,3 °C 14,9 °C 3,2 km/h (1 Bft)
15.05.2017 14:17 14,9 °C 14,9 °C 77 % 1028,6 hPa 0,0 mm 3,9 km/h (1 Bft) W-NW 296 ° 1 min 0,000 mm 3,2 UV-I 353 W/m² 10,9 °C 14,9 °C 6,4 km/h (2 Bft)
15.05.2017 14:18 14,9 °C 15,0 °C 74 % 1028,6 hPa 0,0 mm 2,4 km/h (1 Bft) W-NW 295 ° 1 min 0,000 mm 3,2 UV-I 352 W/m² 10,3 °C 14,9 °C 3,2 km/h (1 Bft)
15.05.2017 14:19 14,9 °C 14,9 °C 73 % 1028,6 hPa 0,0 mm 4,7 km/h (1 Bft) W 273 ° 1 min 0,000 mm 3,1 UV-I 346 W/m² 10,1 °C 14,9 °C 6,4 km/h (2 Bft)
15.05.2017 14:20 14,8 °C 14,9 °C 73 % 1028,6 hPa 0,0 mm 5,9 km/h (2 Bft) W-SW 246 ° 1 min 0,000 mm 3,1 UV-I 341 W/m² 10,0 °C 14,8 °C 6,4 km/h (2 Bft)
15.05.2017 14:21 14,8 °C 14,8 °C 74 % 1028,6 hPa 0,0 mm 6,1 km/h (2 Bft) W-NW 297 ° 1 min 0,000 mm 3,0 UV-I 338 W/m² 10,2 °C 14,8 °C 8,0 km/h (2 Bft)
15.05.2017 14:22 14,8 °C 14,8 °C 77 % 1028,6 hPa 0,0 mm 9,1 km/h (2 Bft) W 281 ° 1 min 0,000 mm 3,0 UV-I 334 W/m² 10,8 °C 14,8 °C 11,3 km/h (2 Bft)
15.05.2017 14:23 14,8 °C 14,8 °C 75 % 1028,6 hPa 0,0 mm 5,2 km/h (1 Bft) W-NW 283 ° 1 min 0,000 mm 2,9 UV-I 329 W/m² 10,4 °C 14,8 °C 6,4 km/h (2 Bft)
15.05.2017 14:24 14,8 °C 14,8 °C 74 % 1028,6 hPa 0,0 mm 3,3 km/h (1 Bft) W-NW 283 ° 1 min 0,000 mm 2,9 UV-I 309 W/m² 10,2 °C 14,8 °C 4,8 km/h (1 Bft)
15.05.2017 14:25 14,7 °C 14,8 °C 75 % 1028,6 hPa 0,0 mm 1,0 km/h (0 Bft) W-NW 283 ° 1 min 0,000 mm 2,7 UV-I 301 W/m² 10,3 °C 14,7 °C 1,6 km/h (1 Bft)
15.05.2017 14:26 14,7 °C 14,7 °C 76 % 1028,6 hPa 0,0 mm 2,5 km/h (1 Bft) W 268 ° 1 min 0,000 mm 2,6 UV-I 301 W/m² 10,5 °C 14,7 °C 4,8 km/h (1 Bft)
15.05.2017 14:27 14,6 °C 14,7 °C 74 % 1028,7 hPa 0,0 mm 1,2 km/h (1 Bft) W 268 ° 0 min 0,000 mm 2,6 UV-I 285 W/m² 10,0 °C 14,6 °C 3,2 km/h (1 Bft)
15.05.2017 14:28 14,7 °C 14,7 °C 78 % 1028,7 hPa 0,0 mm 5,6 km/h (1 Bft) W-NW 291 ° 0 min 0,000 mm 2,5 UV-I 279 W/m² 10,9 °C 14,7 °C 12,9 km/h (3 Bft)
15.05.2017 14:29 14,7 °C 14,7 °C 77 % 1028,7 hPa 0,0 mm 6,9 km/h (2 Bft) W 266 ° 0 min 0,000 mm 2,5 UV-I 276 W/m² 10,7 °C 14,7 °C 12,9 km/h (3 Bft)
15.05.2017 14:30 14,8 °C 14,8 °C 78 % 1028,6 hPa 0,0 mm 5,0 km/h (1 Bft) W 261 ° 0 min 0,000 mm 2,5 UV-I 269 W/m² 11,0 °C 14,8 °C 6,4 km/h (2 Bft)
15.05.2017 14:31 14,8 °C 14,8 °C 77 % 1028,7 hPa 0,0 mm 5,1 km/h (1 Bft) W 262 ° 0 min 0,000 mm 2,4 UV-I 267 W/m² 10,8 °C 14,8 °C 9,7 km/h (2 Bft)
15.05.2017 14:32 14,8 °C 14,8 °C 79 % 1028,8 hPa 0,0 mm 6,4 km/h (2 Bft) W-NW 285 ° 0 min 0,000 mm 2,4 UV-I 264 W/m² 11,2 °C 14,8 °C 11,3 km/h (2 Bft)
15.05.2017 14:33 14,8 °C 14,8 °C 79 % 1028,7 hPa 0,0 mm 10,2 km/h (2 Bft) W-SW 257 ° 0 min 0,000 mm 2,3 UV-I 260 W/m² 11,2 °C 14,8 °C 16,1 km/h (3 Bft)
15.05.2017 14:34 14,8 °C 14,8 °C 76 % 1028,7 hPa 0,0 mm 8,3 km/h (2 Bft) W 276 ° 0 min 0,000 mm 2,3 UV-I 258 W/m² 10,6 °C 14,8 °C 14,5 km/h (3 Bft)
15.05.2017 14:35 14,6 °C 14,8 °C 78 % 1028,7 hPa 0,0 mm 9,4 km/h (2 Bft) W 266 ° 0 min 0,000 mm 2,3 UV-I 257 W/m² 10,8 °C 14,6 °C 11,3 km/h (2 Bft)
15.05.2017 14:36 14,4 °C 14,6 °C 79 % 1028,7 hPa 0,0 mm 7,6 km/h (2 Bft) W 260 ° 0 min 0,000 mm 2,3 UV-I 255 W/m² 10,8 °C 14,4 °C 11,3 km/h (2 Bft)
15.05.2017 14:37 14,4 °C 14,4 °C 80 % 1028,8 hPa 0,0 mm 7,4 km/h (2 Bft) W-SW 246 ° 0 min 0,000 mm 2,2 UV-I 253 W/m² 11,0 °C 14,4 °C 11,3 km/h (2 Bft)
15.05.2017 14:38 14,3 °C 14,4 °C 81 % 1028,7 hPa 0,0 mm 5,4 km/h (1 Bft) W 280 ° 0 min 0,000 mm 2,2 UV-I 251 W/m² 11,1 °C 14,3 °C 11,3 km/h (2 Bft)
15.05.2017 14:39 14,2 °C 14,3 °C 82 % 1028,7 hPa 0,0 mm 8,8 km/h (2 Bft) W-NW 282 ° 0 min 0,000 mm 2,2 UV-I 248 W/m² 11,2 °C 14,2 °C 12,9 km/h (3 Bft)
15.05.2017 14:40 14,2 °C 14,3 °C 83 % 1028,7 hPa 0,0 mm 7,0 km/h (2 Bft) W-NW 296 ° 0 min 0,000 mm 2,1 UV-I 244 W/m² 11,4 °C 14,2 °C 11,3 km/h (2 Bft)
15.05.2017 14:41 14,2 °C 14,2 °C 84 % 1028,7 hPa 0,0 mm 7,5 km/h (2 Bft) W 273 ° 0 min 0,000 mm 2,1 UV-I 243 W/m² 11,5 °C 14,2 °C 11,3 km/h (2 Bft)
15.05.2017 14:42 14,1 °C 14,2 °C 84 % 1028,8 hPa 0,0 mm 6,4 km/h (2 Bft) W-SW 248 ° 0 min 0,000 mm 2,1 UV-I 244 W/m² 11,4 °C 14,1 °C 9,7 km/h (2 Bft)
15.05.2017 14:43 14,1 °C 14,1 °C 86 % 1028,6 hPa 0,0 mm 6,6 km/h (2 Bft) W 280 ° 0 min 0,000 mm 2,1 UV-I 246 W/m² 11,8 °C 14,1 °C 11,3 km/h (2 Bft)
15.05.2017 14:44 14,1 °C 14,1 °C 84 % 1028,7 hPa 0,0 mm 6,0 km/h (2 Bft) SW 232 ° 0 min 0,000 mm 2,1 UV-I 246 W/m² 11,4 °C 14,1 °C 11,3 km/h (2 Bft)
15.05.2017 14:45 14,0 °C 14,1 °C 84 % 1028,7 hPa 0,0 mm 5,7 km/h (1 Bft) W 275 ° 0 min 0,000 mm 2,0 UV-I 241 W/m² 11,3 °C 14,0 °C 9,7 km/h (2 Bft)
15.05.2017 14:46 13,9 °C 14,0 °C 85 % 1028,7 hPa 0,0 mm 4,0 km/h (1 Bft) W 267 ° 0 min 0,000 mm 2,0 UV-I 236 W/m² 11,4 °C 13,9 °C 6,4 km/h (2 Bft)
15.05.2017 14:47 13,9 °C 13,9 °C 86 % 1028,7 hPa 0,0 mm 3,4 km/h (1 Bft) W 267 ° 0 min 0,000 mm 1,9 UV-I 223 W/m² 11,6 °C 13,9 °C 4,8 km/h (1 Bft)
15.05.2017 14:48 13,8 °C 13,9 °C 84 % 1028,7 hPa 0,0 mm 2,3 km/h (1 Bft) W 266 ° 0 min 0,000 mm 1,8 UV-I 218 W/m² 11,1 °C 13,8 °C 3,2 km/h (1 Bft)
15.05.2017 14:49 13,8 °C 13,8 °C 85 % 1028,6 hPa 0,0 mm 4,2 km/h (1 Bft) W 269 ° 0 min 0,000 mm 1,8 UV-I 211 W/m² 11,3 °C 13,8 °C 4,8 km/h (1 Bft)
15.05.2017 14:50 13,7 °C 13,8 °C 86 % 1028,7 hPa 0,0 mm 3,8 km/h (1 Bft) W-SW 246 ° 0 min 0,000 mm 1,7 UV-I 207 W/m² 11,4 °C 13,7 °C 8,0 km/h (2 Bft)
15.05.2017 14:51 13,7 °C 13,7 °C 83 % 1028,6 hPa 0,0 mm 2,6 km/h (1 Bft) S-SW 205 ° 0 min 0,000 mm 1,7 UV-I 204 W/m² 10,9 °C 13,7 °C 4,8 km/h (1 Bft)
15.05.2017 14:52 13,7 °C 13,7 °C 84 % 1028,7 hPa 0,0 mm 2,8 km/h (1 Bft) S-SW 194 ° 0 min 0,000 mm 1,6 UV-I 202 W/m² 11,0 °C 13,7 °C 8,0 km/h (2 Bft)
15.05.2017 14:53 13,6 °C 13,7 °C 84 % 1028,7 hPa 0,0 mm 3,8 km/h (1 Bft) SW 225 ° 0 min 0,000 mm 1,6 UV-I 204 W/m² 10,9 °C 13,6 °C 6,4 km/h (2 Bft)
15.05.2017 14:54 13,6 °C 13,6 °C 86 % 1028,7 hPa 0,0 mm 3,9 km/h (1 Bft) W-NW 282 ° 0 min 0,000 mm 1,7 UV-I 206 W/m² 11,3 °C 13,6 °C 4,8 km/h (1 Bft)
15.05.2017 14:55 13,6 °C 13,6 °C 85 % 1028,7 hPa 0,0 mm 3,0 km/h (1 Bft) S-SW 196 ° 0 min 0,000 mm 1,7 UV-I 209 W/m² 11,1 °C 13,6 °C 8,0 km/h (2 Bft)
15.05.2017 14:56 13,6 °C 13,6 °C 86 % 1028,6 hPa 0,0 mm 6,5 km/h (2 Bft) W-SW 247 ° 0 min 0,000 mm 1,7 UV-I 213 W/m² 11,3 °C 13,6 °C 12,9 km/h (3 Bft)
15.05.2017 14:57 13,5 °C 13,6 °C 84 % 1028,7 hPa 0,0 mm 4,8 km/h (1 Bft) W 273 ° 0 min 0,000 mm 1,7 UV-I 214 W/m² 10,8 °C 13,5 °C 6,4 km/h (2 Bft)
15.05.2017 14:58 13,4 °C 13,5 °C 86 % 1028,7 hPa 0,0 mm 2,6 km/h (1 Bft) SW 231 ° 0 min 0,000 mm 1,8 UV-I 216 W/m² 11,1 °C 13,4 °C 6,4 km/h (2 Bft)
15.05.2017 14:59 13,4 °C 13,4 °C 84 % 1028,6 hPa 0,0 mm 1,8 km/h (1 Bft) W-SW 244 ° 0 min 0,000 mm 1,8 UV-I 221 W/m² 10,8 °C 13,4 °C 4,8 km/h (1 Bft)
15.05.2017 15:00 13,4 °C 13,4 °C 84 % 1028,7 hPa 0,0 mm 3,0 km/h (1 Bft) S-SW 195 ° 0 min 0,000 mm 1,9 UV-I 225 W/m² 10,8 °C 13,4 °C 6,4 km/h (2 Bft)
15.05.2017 15:01 13,3 °C 13,4 °C 83 % 1028,7 hPa 0,0 mm 2,3 km/h (1 Bft) S 186 ° 0 min 0,177 mm 1,9 UV-I 229 W/m² 10,5 °C 13,3 °C 4,8 km/h (1 Bft)
15.05.2017 15:02 13,3 °C 13,3 °C 85 % 1028,6 hPa 0,0 mm 3,2 km/h (1 Bft) SW 235 ° 0 min 0,000 mm 1,9 UV-I 229 W/m² 10,8 °C 13,3 °C 4,8 km/h (1 Bft)
15.05.2017 15:03 13,3 °C 13,3 °C 84 % 1028,6 hPa 0,0 mm 5,6 km/h (1 Bft) W 275 ° 0 min 0,000 mm 1,9 UV-I 230 W/m² 10,7 °C 13,3 °C 6,4 km/h (2 Bft)
15.05.2017 15:04 13,3 °C 13,4 °C 84 % 1028,7 hPa 0,0 mm 4,6 km/h (1 Bft) S-SW 209 ° 0 min 0,000 mm 1,8 UV-I 230 W/m² 10,7 °C 13,3 °C 9,7 km/h (2 Bft)
15.05.2017 15:05 13,4 °C 13,4 °C 85 % 1028,7 hPa 0,0 mm 5,1 km/h (1 Bft) W 263 ° 0 min 0,000 mm 1,8 UV-I 221 W/m² 10,9 °C 13,4 °C 9,7 km/h (2 Bft)
15.05.2017 15:06 13,4 °C 13,4 °C 85 % 1028,7 hPa 0,0 mm 4,1 km/h (1 Bft) SW 219 ° 0 min 0,000 mm 1,7 UV-I 216 W/m² 10,9 °C 13,4 °C 4,8 km/h (1 Bft)
15.05.2017 15:07 13,4 °C 13,4 °C 84 % 1028,7 hPa 0,0 mm 2,0 km/h (1 Bft) SW 217 ° 0 min 0,000 mm 1,7 UV-I 211 W/m² 10,8 °C 13,4 °C 3,2 km/h (1 Bft)
15.05.2017 15:08 13,3 °C 13,4 °C 83 % 1028,7 hPa 0,0 mm 8,8 km/h (2 Bft) S-SW 206 ° 0 min 0,000 mm 1,7 UV-I 211 W/m² 10,5 °C 13,3 °C 9,7 km/h (2 Bft)
15.05.2017 15:09 13,3 °C 13,3 °C 84 % 1028,6 hPa 0,0 mm 3,6 km/h (1 Bft) W 261 ° 0 min 0,000 mm 1,7 UV-I 209 W/m² 10,7 °C 13,3 °C 6,4 km/h (2 Bft)
15.05.2017 15:10 13,3 °C 13,3 °C 84 % 1028,6 hPa 0,0 mm 3,2 km/h (1 Bft) W 261 ° 0 min 0,000 mm 1,7 UV-I 211 W/m² 10,7 °C 13,3 °C 4,8 km/h (1 Bft)
15.05.2017 15:11 13,2 °C 13,3 °C 83 % 1028,7 hPa 0,0 mm 1,7 km/h (1 Bft) W 262 ° 0 min 0,000 mm 1,7 UV-I 216 W/m² 10,4 °C 13,2 °C 3,2 km/h (1 Bft)
15.05.2017 15:12 13,3 °C 13,3 °C 85 % 1028,8 hPa 0,0 mm 1,8 km/h (1 Bft) W 266 ° 0 min 0,000 mm 1,7 UV-I 220 W/m² 10,8 °C 13,3 °C 3,2 km/h (1 Bft)
15.05.2017 15:13 13,3 °C 13,3 °C 85 % 1028,8 hPa 0,0 mm 4,0 km/h (1 Bft) W 277 ° 0 min 0,000 mm 1,7 UV-I 221 W/m² 10,8 °C 13,3 °C 4,8 km/h (1 Bft)
15.05.2017 15:14 13,3 °C 13,3 °C 84 % 1028,8 hPa 0,0 mm 6,0 km/h (2 Bft) W-SW 258 ° 0 min 0,000 mm 1,7 UV-I 223 W/m² 10,7 °C 13,3 °C 12,9 km/h (3 Bft)
15.05.2017 15:15 13,3 °C 13,3 °C 85 % 1028,8 hPa 0,0 mm 5,3 km/h (1 Bft) W 259 ° 0 min 0,000 mm 1,8 UV-I 225 W/m² 10,8 °C 13,3 °C 8,0 km/h (2 Bft)
15.05.2017 15:16 13,3 °C 13,3 °C 86 % 1028,7 hPa 0,0 mm 3,8 km/h (1 Bft) W 276 ° 0 min 0,000 mm 1,8 UV-I 227 W/m² 11,0 °C 13,3 °C 4,8 km/h (1 Bft)
15.05.2017 15:17 13,3 °C 13,3 °C 86 % 1028,7 hPa 0,0 mm 4,6 km/h (1 Bft) W-SW 254 ° 0 min 0,000 mm 1,8 UV-I 227 W/m² 11,0 °C 13,3 °C 11,3 km/h (2 Bft)
15.05.2017 15:18 13,3 °C 13,3 °C 83 % 1028,7 hPa 0,0 mm 4,5 km/h (1 Bft) W 273 ° 0 min 0,000 mm 1,8 UV-I 229 W/m² 10,5 °C 13,3 °C 11,3 km/h (2 Bft)
15.05.2017 15:19 13,2 °C 13,3 °C 84 % 1028,8 hPa 0,0 mm 7,6 km/h (2 Bft) W-SW 248 ° 0 min 0,000 mm 1,8 UV-I 230 W/m² 10,6 °C 13,2 °C 14,5 km/h (3 Bft)
15.05.2017 15:20 13,2 °C 13,2 °C 85 % 1028,8 hPa 0,0 mm 7,3 km/h (2 Bft) W 269 ° 0 min 0,000 mm 1,8 UV-I 232 W/m² 10,7 °C 13,2 °C 11,3 km/h (2 Bft)
15.05.2017 15:21 13,1 °C 13,2 °C 85 % 1028,8 hPa 0,0 mm 10,4 km/h (2 Bft) W-SW 256 ° 0 min 0,000 mm 1,8 UV-I 234 W/m² 10,6 °C 13,1 °C 16,1 km/h (3 Bft)
15.05.2017 15:22 13,1 °C 13,1 °C 84 % 1028,8 hPa 0,0 mm 4,1 km/h (1 Bft) SW 224 ° 0 min 0,000 mm 1,8 UV-I 232 W/m² 10,5 °C 13,1 °C 4,8 km/h (1 Bft)
15.05.2017 15:23 12,9 °C 13,1 °C 84 % 1028,8 hPa 0,0 mm 4,3 km/h (1 Bft) W-SW 250 ° 0 min 0,000 mm 1,8 UV-I 230 W/m² 10,3 °C 12,9 °C 9,7 km/h (2 Bft)
15.05.2017 15:24 12,8 °C 12,9 °C 84 % 1028,8 hPa 0,0 mm 4,8 km/h (1 Bft) SW 231 ° 0 min 0,000 mm 1,8 UV-I 227 W/m² 10,2 °C 12,8 °C 8,0 km/h (2 Bft)
15.05.2017 15:25 12,8 °C 12,8 °C 86 % 1028,8 hPa 0,0 mm 6,1 km/h (2 Bft) S-SW 196 ° 0 min 0,000 mm 1,8 UV-I 221 W/m² 10,5 °C 12,8 °C 11,3 km/h (2 Bft)
15.05.2017 15:26 12,8 °C 12,8 °C 85 % 1028,7 hPa 0,0 mm 4,0 km/h (1 Bft) S 191 ° 0 min 0,000 mm 1,8 UV-I 221 W/m² 10,3 °C 12,8 °C 12,9 km/h (3 Bft)
15.05.2017 15:27 12,7 °C 12,8 °C 85 % 1028,8 hPa 0,0 mm 4,8 km/h (1 Bft) S-SW 196 ° 0 min 0,000 mm 1,8 UV-I 223 W/m² 10,2 °C 12,7 °C 12,9 km/h (3 Bft)
15.05.2017 15:28 12,6 °C 12,7 °C 85 % 1028,7 hPa 0,0 mm 4,0 km/h (1 Bft) S 178 ° 0 min 0,000 mm 1,8 UV-I 229 W/m² 10,1 °C 12,6 °C 8,0 km/h (2 Bft)
15.05.2017 15:29 12,6 °C 12,6 °C 85 % 1028,8 hPa 0,2 mm 9,4 km/h (2 Bft) S 180 ° 0 min 0,000 mm 1,9 UV-I 230 W/m² 10,1 °C 12,6 °C 16,1 km/h (3 Bft)
15.05.2017 15:30 12,6 °C 12,6 °C 85 % 1028,8 hPa 0,0 mm 4,6 km/h (1 Bft) W-SW 238 ° 0 min 0,000 mm 1,9 UV-I 232 W/m² 10,1 °C 12,6 °C 11,3 km/h (2 Bft)
15.05.2017 15:31 12,5 °C 12,6 °C 86 % 1028,7 hPa 0,0 mm 3,5 km/h (1 Bft) S-SW 207 ° 0 min 0,000 mm 1,9 UV-I 234 W/m² 10,2 °C 12,5 °C 8,0 km/h (2 Bft)
15.05.2017 15:32 12,5 °C 12,6 °C 84 % 1028,8 hPa 0,0 mm 7,2 km/h (2 Bft) S-SW 198 ° 0 min 0,000 mm 1,9 UV-I 230 W/m² 9,9 °C 12,5 °C 11,3 km/h (2 Bft)
15.05.2017 15:33 12,5 °C 12,5 °C 85 % 1028,8 hPa 0,0 mm 6,4 km/h (2 Bft) W-SW 242 ° 0 min 0,000 mm 1,8 UV-I 227 W/m² 10,0 °C 12,5 °C 11,3 km/h (2 Bft)
15.05.2017 15:34 12,5 °C 12,5 °C 86 % 1028,7 hPa 0,0 mm 2,7 km/h (1 Bft) W-NW 294 ° 0 min 0,000 mm 1,8 UV-I 213 W/m² 10,2 °C 12,5 °C 6,4 km/h (2 Bft)
15.05.2017 15:35 12,5 °C 12,5 °C 86 % 1028,8 hPa 0,0 mm 1,4 km/h (1 Bft) SW 214 ° 0 min 0,000 mm 1,7 UV-I 202 W/m² 10,2 °C 12,5 °C 3,2 km/h (1 Bft)
15.05.2017 15:36 12,6 °C 12,6 °C 86 % 1028,7 hPa 0,0 mm 4,3 km/h (1 Bft) W-SW 242 ° 0 min 0,000 mm 1,6 UV-I 193 W/m² 10,3 °C 12,6 °C 8,0 km/h (2 Bft)
15.05.2017 15:37 12,6 °C 12,6 °C 88 % 1028,8 hPa 0,0 mm 2,5 km/h (1 Bft) W 260 ° 0 min 0,000 mm 1,5 UV-I 185 W/m² 10,7 °C 12,6 °C 4,8 km/h (1 Bft)
15.05.2017 15:38 12,7 °C 12,7 °C 88 % 1028,8 hPa 0,0 mm 1,5 km/h (1 Bft) W 259 ° 0 min 0,000 mm 1,5 UV-I 178 W/m² 10,8 °C 12,7 °C 4,8 km/h (1 Bft)
15.05.2017 15:39 12,7 °C 12,7 °C 87 % 1028,7 hPa 0,0 mm 2,4 km/h (1 Bft) S 189 ° 0 min 0,000 mm 1,4 UV-I 171 W/m² 10,6 °C 12,7 °C 6,4 km/h (2 Bft)
15.05.2017 15:40 12,7 °C 12,7 °C 87 % 1028,7 hPa 0,0 mm 2,9 km/h (1 Bft) SW 222 ° 0 min 0,000 mm 1,4 UV-I 162 W/m² 10,6 °C 12,7 °C 4,8 km/h (1 Bft)
15.05.2017 15:41 12,7 °C 12,7 °C 88 % 1028,6 hPa 0,0 mm 2,5 km/h (1 Bft) SW 236 ° 0 min 0,000 mm 1,4 UV-I 160 W/m² 10,8 °C 12,7 °C 4,8 km/h (1 Bft)
15.05.2017 15:42 12,7 °C 12,8 °C 87 % 1028,6 hPa 0,0 mm 1,8 km/h (1 Bft) SW 236 ° 0 min 0,000 mm 1,3 UV-I 158 W/m² 10,6 °C 12,7 °C 3,2 km/h (1 Bft)
15.05.2017 15:43 12,8 °C 12,8 °C 87 % 1028,7 hPa 0,0 mm 4,5 km/h (1 Bft) W-SW 252 ° 0 min 0,000 mm 1,3 UV-I 158 W/m² 10,7 °C 12,8 °C 6,4 km/h (2 Bft)
15.05.2017 15:44 12,8 °C 12,8 °C 87 % 1028,6 hPa 0,0 mm 4,8 km/h (1 Bft) W-SW 254 ° 0 min 0,000 mm 1,3 UV-I 158 W/m² 10,7 °C 12,8 °C 6,4 km/h (2 Bft)
15.05.2017 15:45 12,7 °C 12,8 °C 87 % 1028,6 hPa 0,0 mm 1,0 km/h (0 Bft) W-SW 254 ° 0 min 0,000 mm 1,3 UV-I 158 W/m² 10,6 °C 12,7 °C 3,2 km/h (1 Bft)
15.05.2017 15:46 12,7 °C 12,8 °C 87 % 1028,6 hPa 0,0 mm 2,0 km/h (1 Bft) SW 221 ° 0 min 0,000 mm 1,3 UV-I 155 W/m² 10,6 °C 12,7 °C 3,2 km/h (1 Bft)
15.05.2017 15:47 12,7 °C 12,8 °C 87 % 1028,5 hPa 0,0 mm 1,0 km/h (0 Bft) SW 221 ° 0 min 0,000 mm 1,2 UV-I 153 W/m² 10,6 °C 12,7 °C 1,6 km/h (1 Bft)
15.05.2017 15:48 12,7 °C 12,7 °C 86 % 1028,5 hPa 0,0 mm 0,5 km/h (0 Bft) SW 221 ° 0 min 0,000 mm 1,2 UV-I 151 W/m² 10,4 °C 12,7 °C 1,6 km/h (1 Bft)
15.05.2017 15:49 12,7 °C 12,7 °C 87 % 1028,6 hPa 0,0 mm 4,5 km/h (1 Bft) S-SO 159 ° 0 min 0,000 mm 1,2 UV-I 149 W/m² 10,6 °C 12,7 °C 8,0 km/h (2 Bft)
15.05.2017 15:50 12,7 °C 12,7 °C 88 % 1028,6 hPa 0,0 mm 3,4 km/h (1 Bft) W-SW 258 ° 0 min 0,000 mm 1,1 UV-I 149 W/m² 10,8 °C 12,7 °C 4,8 km/h (1 Bft)
15.05.2017 15:51 12,7 °C 12,7 °C 88 % 1028,5 hPa 0,0 mm 4,4 km/h (1 Bft) W-SW 242 ° 0 min 0,000 mm 1,2 UV-I 153 W/m² 10,8 °C 12,7 °C 6,4 km/h (2 Bft)
15.05.2017 15:52 12,8 °C 12,8 °C 88 % 1028,5 hPa 0,0 mm 4,4 km/h (1 Bft) W-SW 240 ° 0 min 0,000 mm 1,2 UV-I 183 W/m² 10,9 °C 12,8 °C 6,4 km/h (2 Bft)
15.05.2017 15:53 12,7 °C 12,8 °C 88 % 1028,5 hPa 0,0 mm 2,5 km/h (1 Bft) W-SW 240 ° 0 min 0,000 mm 1,3 UV-I 204 W/m² 10,8 °C 12,7 °C 4,8 km/h (1 Bft)
15.05.2017 15:54 12,8 °C 12,8 °C 88 % 1028,5 hPa 0,0 mm 1,8 km/h (1 Bft) W-SW 257 ° 0 min 0,000 mm 1,6 UV-I 227 W/m² 10,9 °C 12,8 °C 3,2 km/h (1 Bft)
15.05.2017 15:55 12,8 °C 12,8 °C 88 % 1028,4 hPa 0,0 mm 1,0 km/h (0 Bft) W 276 ° 0 min 0,000 mm 1,7 UV-I 250 W/m² 10,9 °C 12,8 °C 1,6 km/h (1 Bft)
15.05.2017 15:56 12,7 °C 12,8 °C 90 % 1028,5 hPa 0,0 mm 0,1 km/h (0 Bft) W 276 ° 0 min 0,000 mm 1,9 UV-I 269 W/m² 11,1 °C 12,7 °C 1,6 km/h (1 Bft)
15.05.2017 15:57 12,7 °C 12,7 °C 90 % 1028,4 hPa 0,0 mm 0,4 km/h (0 Bft) SW 217 ° 0 min 0,000 mm 2,0 UV-I 281 W/m² 11,1 °C 12,7 °C 3,2 km/h (1 Bft)
15.05.2017 15:58 12,8 °C 12,8 °C 90 % 1028,4 hPa 0,0 mm 1,6 km/h (1 Bft) S 175 ° 0 min 0,000 mm 2,1 UV-I 288 W/m² 11,2 °C 12,8 °C 3,2 km/h (1 Bft)
15.05.2017 15:59 12,8 °C 12,8 °C 90 % 1028,4 hPa 0,0 mm 1,2 km/h (1 Bft) NW 311 ° 1 min 0,000 mm 2,1 UV-I 290 W/m² 11,2 °C 12,8 °C 3,2 km/h (1 Bft)
15.05.2017 16:00 12,9 °C 12,9 °C 89 % 1028,4 hPa 0,0 mm 0,2 km/h (0 Bft) NW 311 ° 0 min 0,000 mm 2,2 UV-I 285 W/m² 11,1 °C 12,9 °C 1,6 km/h (1 Bft)
15.05.2017 16:01 12,9 °C 12,9 °C 89 % 1028,4 hPa 0,0 mm 0,0 km/h (0 Bft) W-NW 286 ° 0 min 0,102 mm 2,1 UV-I 276 W/m² 11,1 °C 12,9 °C 0,0 km/h (0 Bft)
15.05.2017 16:02 13,0 °C 13,0 °C 89 % 1028,4 hPa 0,0 mm 1,1 km/h (1 Bft) S-SO 158 ° 0 min 0,000 mm 2,1 UV-I 269 W/m² 11,2 °C 13,0 °C 3,2 km/h (1 Bft)
15.05.2017 16:03 13,0 °C 13,0 °C 89 % 1028,3 hPa 0,0 mm 0,0 km/h (0 Bft) S-SO 158 ° 0 min 0,000 mm 2,1 UV-I 265 W/m² 11,2 °C 13,0 °C 0,0 km/h (0 Bft)
15.05.2017 16:04 13,1 °C 13,1 °C 88 % 1028,3 hPa 0,0 mm 0,0 km/h (0 Bft) S-SO 158 ° 0 min 0,000 mm 2,1 UV-I 262 W/m² 11,2 °C 13,1 °C 0,0 km/h (0 Bft)
15.05.2017 16:05 13,2 °C 13,2 °C 89 % 1028,3 hPa 0,2 mm 0,0 km/h (0 Bft) S-SO 158 ° 0 min 0,000 mm 2,0 UV-I 257 W/m² 11,4 °C 13,2 °C 0,0 km/h (0 Bft)
15.05.2017 16:06 13,2 °C 13,2 °C 89 % 1028,3 hPa 0,0 mm 0,0 km/h (0 Bft) S-SO 158 ° 0 min 0,000 mm 1,9 UV-I 251 W/m² 11,4 °C 13,2 °C 0,0 km/h (0 Bft)
15.05.2017 16:07 13,3 °C 13,3 °C 90 % 1028,3 hPa 0,0 mm 0,9 km/h (0 Bft) S-SO 158 ° 0 min 0,000 mm 1,9 UV-I 243 W/m² 11,7 °C 13,3 °C 3,2 km/h (1 Bft)
15.05.2017 16:08 13,4 °C 13,4 °C 89 % 1028,3 hPa 0,0 mm 1,0 km/h (0 Bft) O-NO 69 ° 0 min 0,000 mm 1,8 UV-I 236 W/m² 11,6 °C 13,4 °C 4,8 km/h (1 Bft)
15.05.2017 16:09 13,6 °C 13,6 °C 90 % 1028,2 hPa 0,0 mm 2,7 km/h (1 Bft) W-NW 289 ° 0 min 0,000 mm 1,8 UV-I 227 W/m² 12,0 °C 13,6 °C 4,8 km/h (1 Bft)
15.05.2017 16:10 13,6 °C 13,6 °C 89 % 1028,2 hPa 0,0 mm 3,1 km/h (1 Bft) N-NO 27 ° 0 min 0,000 mm 1,8 UV-I 225 W/m² 11,8 °C 13,6 °C 4,8 km/h (1 Bft)
15.05.2017 16:11 13,7 °C 13,7 °C 87 % 1028,2 hPa 0,0 mm 1,1 km/h (1 Bft) N-NO 27 ° 0 min 0,000 mm 1,7 UV-I 225 W/m² 11,6 °C 13,7 °C 3,2 km/h (1 Bft)
15.05.2017 16:12 13,7 °C 13,7 °C 86 % 1028,2 hPa 0,0 mm 0,9 km/h (0 Bft) N-NO 27 ° 0 min 0,000 mm 1,7 UV-I 227 W/m² 11,4 °C 13,7 °C 1,6 km/h (1 Bft)
15.05.2017 16:13 13,6 °C 13,7 °C 87 % 1028,2 hPa 0,0 mm 3,7 km/h (1 Bft) W 277 ° 0 min 0,000 mm 1,7 UV-I 229 W/m² 11,5 °C 13,6 °C 4,8 km/h (1 Bft)
15.05.2017 16:14 13,6 °C 13,6 °C 86 % 1028,2 hPa 0,0 mm 1,4 km/h (1 Bft) W 277 ° 0 min 0,000 mm 1,7 UV-I 229 W/m² 11,3 °C 13,6 °C 4,8 km/h (1 Bft)
15.05.2017 16:15 13,6 °C 13,6 °C 86 % 1028,2 hPa 0,0 mm 1,8 km/h (1 Bft) W 260 ° 0 min 0,000 mm 1,7 UV-I 232 W/m² 11,3 °C 13,6 °C 3,2 km/h (1 Bft)
15.05.2017 16:16 13,7 °C 13,7 °C 85 % 1028,1 hPa 0,0 mm 3,0 km/h (1 Bft) W-SW 251 ° 0 min 0,000 mm 1,7 UV-I 236 W/m² 11,2 °C 13,7 °C 4,8 km/h (1 Bft)
15.05.2017 16:17 13,7 °C 13,7 °C 85 % 1028,2 hPa 0,0 mm 3,3 km/h (1 Bft) W-SW 248 ° 0 min 0,000 mm 1,7 UV-I 237 W/m² 11,2 °C 13,7 °C 4,8 km/h (1 Bft)
15.05.2017 16:18 13,7 °C 13,7 °C 85 % 1028,2 hPa 0,0 mm 2,5 km/h (1 Bft) SW 225 ° 0 min 0,000 mm 1,7 UV-I 239 W/m² 11,2 °C 13,7 °C 4,8 km/h (1 Bft)
15.05.2017 16:19 13,8 °C 13,8 °C 86 % 1028,2 hPa 0,0 mm 2,1 km/h (1 Bft) W-SW 248 ° 0 min 0,000 mm 1,7 UV-I 239 W/m² 11,5 °C 13,8 °C 3,2 km/h (1 Bft)
15.05.2017 16:20 13,8 °C 13,8 °C 84 % 1028,2 hPa 0,0 mm 0,0 km/h (0 Bft) W-SW 248 ° 0 min 0,000 mm 1,7 UV-I 236 W/m² 11,1 °C 13,8 °C 0,0 km/h (0 Bft)
15.05.2017 16:21 13,8 °C 13,8 °C 85 % 1028,2 hPa 0,0 mm 1,8 km/h (1 Bft) SW 226 ° 0 min 0,000 mm 1,6 UV-I 232 W/m² 11,3 °C 13,8 °C 3,2 km/h (1 Bft)
15.05.2017 16:22 13,8 °C 13,8 °C 86 % 1028,2 hPa 0,0 mm 1,4 km/h (1 Bft) SW 225 ° 0 min 0,000 mm 1,6 UV-I 232 W/m² 11,5 °C 13,8 °C 3,2 km/h (1 Bft)
15.05.2017 16:23 13,8 °C 13,8 °C 86 % 1028,3 hPa 0,0 mm 3,1 km/h (1 Bft) W-SW 238 ° 0 min 0,000 mm 1,6 UV-I 234 W/m² 11,5 °C 13,8 °C 4,8 km/h (1 Bft)
15.05.2017 16:24 13,9 °C 13,9 °C 84 % 1028,3 hPa 0,0 mm 4,1 km/h (1 Bft) S 178 ° 0 min 0,000 mm 1,6 UV-I 237 W/m² 11,2 °C 13,9 °C 6,4 km/h (2 Bft)
15.05.2017 16:25 13,9 °C 13,9 °C 81 % 1028,2 hPa 0,0 mm 4,1 km/h (1 Bft) SW 232 ° 0 min 0,000 mm 1,6 UV-I 241 W/m² 10,7 °C 13,9 °C 6,4 km/h (2 Bft)
15.05.2017 16:26 13,8 °C 13,9 °C 82 % 1028,3 hPa 0,0 mm 2,2 km/h (1 Bft) SW 232 ° 0 min 0,000 mm 1,6 UV-I 243 W/m² 10,8 °C 13,8 °C 3,2 km/h (1 Bft)
15.05.2017 16:27 13,8 °C 13,8 °C 82 % 1028,3 hPa 0,0 mm 3,6 km/h (1 Bft) S-SW 213 ° 0 min 0,000 mm 1,6 UV-I 241 W/m² 10,8 °C 13,8 °C 6,4 km/h (2 Bft)
15.05.2017 16:28 13,9 °C 13,9 °C 84 % 1028,3 hPa 0,0 mm 3,4 km/h (1 Bft) W-SW 246 ° 0 min 0,000 mm 1,6 UV-I 237 W/m² 11,2 °C 13,9 °C 4,8 km/h (1 Bft)
15.05.2017 16:29 13,9 °C 13,9 °C 82 % 1028,3 hPa 0,0 mm 4,6 km/h (1 Bft) SW 217 ° 0 min 0,000 mm 1,6 UV-I 234 W/m² 10,9 °C 13,9 °C 8,0 km/h (2 Bft)
15.05.2017 16:30 13,9 °C 13,9 °C 82 % 1028,3 hPa 0,0 mm 1,6 km/h (1 Bft) SW 218 ° 0 min 0,000 mm 1,6 UV-I 234 W/m² 10,9 °C 13,9 °C 3,2 km/h (1 Bft)
15.05.2017 16:31 13,9 °C 13,9 °C 83 % 1028,3 hPa 0,0 mm 2,3 km/h (1 Bft) SW 236 ° 0 min 0,000 mm 1,6 UV-I 241 W/m² 11,1 °C 13,9 °C 4,8 km/h (1 Bft)
15.05.2017 16:32 13,9 °C 13,9 °C 81 % 1028,3 hPa 0,0 mm 4,9 km/h (1 Bft) SW 219 ° 0 min 0,000 mm 1,6 UV-I 241 W/m² 10,7 °C 13,9 °C 9,7 km/h (2 Bft)
15.05.2017 16:33 13,9 °C 13,9 °C 81 % 1028,3 hPa 0,0 mm 2,3 km/h (1 Bft) W-SW 247 ° 1 min 0,000 mm 2,0 UV-I 301 W/m² 10,7 °C 13,9 °C 6,4 km/h (2 Bft)
15.05.2017 16:34 14,0 °C 14,0 °C 80 % 1028,3 hPa 0,0 mm 4,5 km/h (1 Bft) S-SW 208 ° 1 min 0,000 mm 2,2 UV-I 323 W/m² 10,6 °C 14,0 °C 6,4 km/h (2 Bft)
15.05.2017 16:35 14,1 °C 14,1 °C 82 % 1028,2 hPa 0,0 mm 3,6 km/h (1 Bft) W-SW 249 ° 1 min 0,000 mm 2,2 UV-I 338 W/m² 11,1 °C 14,1 °C 4,8 km/h (1 Bft)
15.05.2017 16:36 14,2 °C 14,2 °C 81 % 1028,2 hPa 0,0 mm 2,7 km/h (1 Bft) W-SW 249 ° 1 min 0,000 mm 2,3 UV-I 336 W/m² 11,0 °C 14,2 °C 3,2 km/h (1 Bft)
15.05.2017 16:37 14,2 °C 14,2 °C 81 % 1028,2 hPa 0,0 mm 3,0 km/h (1 Bft) SW 234 ° 1 min 0,000 mm 2,3 UV-I 323 W/m² 11,0 °C 14,2 °C 6,4 km/h (2 Bft)
15.05.2017 16:38 14,3 °C 14,3 °C 82 % 1028,2 hPa 0,0 mm 2,5 km/h (1 Bft) W-NW 284 ° 1 min 0,000 mm 2,3 UV-I 304 W/m² 11,3 °C 14,3 °C 4,8 km/h (1 Bft)
15.05.2017 16:39 14,4 °C 14,4 °C 83 % 1028,2 hPa 0,0 mm 3,5 km/h (1 Bft) W 259 ° 1 min 0,000 mm 2,2 UV-I 301 W/m² 11,5 °C 14,4 °C 4,8 km/h (1 Bft)
15.05.2017 16:40 14,5 °C 14,5 °C 81 % 1028,2 hPa 0,0 mm 3,0 km/h (1 Bft) W 259 ° 1 min 0,000 mm 2,2 UV-I 308 W/m² 11,3 °C 14,5 °C 4,8 km/h (1 Bft)
15.05.2017 16:41 14,6 °C 14,6 °C 80 % 1028,2 hPa 0,0 mm 5,0 km/h (1 Bft) W 269 ° 1 min 0,000 mm 2,2 UV-I 311 W/m² 11,2 °C 14,6 °C 9,7 km/h (2 Bft)
15.05.2017 16:42 14,7 °C 14,7 °C 81 % 1028,2 hPa 0,0 mm 6,4 km/h (2 Bft) W 259 ° 1 min 0,000 mm 2,2 UV-I 315 W/m² 11,5 °C 14,7 °C 9,7 km/h (2 Bft)
15.05.2017 16:43 14,7 °C 14,7 °C 77 % 1028,2 hPa 0,0 mm 3,8 km/h (1 Bft) W 280 ° 1 min 0,000 mm 2,2 UV-I 306 W/m² 10,7 °C 14,7 °C 6,4 km/h (2 Bft)
15.05.2017 16:44 14,7 °C 14,7 °C 76 % 1028,2 hPa 0,0 mm 5,1 km/h (1 Bft) W-NW 290 ° 1 min 0,000 mm 2,2 UV-I 306 W/m² 10,5 °C 14,7 °C 6,4 km/h (2 Bft)
15.05.2017 16:45 14,8 °C 14,8 °C 78 % 1028,2 hPa 0,0 mm 5,6 km/h (1 Bft) W 271 ° 1 min 0,000 mm 2,2 UV-I 309 W/m² 11,0 °C 14,8 °C 6,4 km/h (2 Bft)
15.05.2017 16:46 14,8 °C 14,8 °C 78 % 1028,3 hPa 0,0 mm 2,5 km/h (1 Bft) W 275 ° 1 min 0,000 mm 2,2 UV-I 316 W/m² 11,0 °C 14,8 °C 4,8 km/h (1 Bft)
15.05.2017 16:47 14,9 °C 14,9 °C 80 % 1028,3 hPa 0,0 mm 4,9 km/h (1 Bft) W 259 ° 1 min 0,000 mm 2,2 UV-I 327 W/m² 11,5 °C 14,9 °C 6,4 km/h (2 Bft)
15.05.2017 16:48 14,9 °C 14,9 °C 78 % 1028,3 hPa 0,0 mm 3,0 km/h (1 Bft) W 259 ° 1 min 0,000 mm 2,3 UV-I 332 W/m² 11,1 °C 14,9 °C 4,8 km/h (1 Bft)
15.05.2017 16:49 14,9 °C 14,9 °C 77 % 1028,3 hPa 0,0 mm 0,4 km/h (0 Bft) W 259 ° 1 min 0,000 mm 2,2 UV-I 327 W/m² 10,9 °C 14,9 °C 1,6 km/h (1 Bft)
15.05.2017 16:50 14,9 °C 15,0 °C 74 % 1028,3 hPa 0,0 mm 2,3 km/h (1 Bft) W 259 ° 1 min 0,000 mm 2,2 UV-I 299 W/m² 10,3 °C 14,9 °C 4,8 km/h (1 Bft)
15.05.2017 16:51 14,9 °C 14,9 °C 72 % 1028,3 hPa 0,0 mm 3,1 km/h (1 Bft) W-NW 300 ° 0 min 0,000 mm 2,1 UV-I 283 W/m² 9,9 °C 14,9 °C 4,8 km/h (1 Bft)
15.05.2017 16:52 14,9 °C 14,9 °C 72 % 1028,2 hPa 0,0 mm 0,5 km/h (0 Bft) W 263 ° 0 min 0,000 mm 2,0 UV-I 271 W/m² 9,9 °C 14,9 °C 3,2 km/h (1 Bft)
15.05.2017 16:53 14,9 °C 14,9 °C 73 % 1028,2 hPa 0,0 mm 2,7 km/h (1 Bft) W-SW 255 ° 0 min 0,000 mm 2,0 UV-I 262 W/m² 10,1 °C 14,9 °C 4,8 km/h (1 Bft)
15.05.2017 16:54 14,9 °C 14,9 °C 77 % 1028,2 hPa 0,0 mm 4,9 km/h (1 Bft) W 262 ° 0 min 0,000 mm 2,0 UV-I 258 W/m² 10,9 °C 14,9 °C 6,4 km/h (2 Bft)
15.05.2017 16:55 14,9 °C 14,9 °C 77 % 1028,2 hPa 0,0 mm 2,5 km/h (1 Bft) W 262 ° 0 min 0,000 mm 2,0 UV-I 265 W/m² 10,9 °C 14,9 °C 3,2 km/h (1 Bft)
15.05.2017 16:56 14,9 °C 14,9 °C 73 % 1028,2 hPa 0,0 mm 1,2 km/h (1 Bft) W 262 ° 0 min 0,000 mm 2,0 UV-I 285 W/m² 10,1 °C 14,9 °C 3,2 km/h (1 Bft)
15.05.2017 16:57 15,0 °C 15,0 °C 74 % 1028,2 hPa 0,0 mm 0,5 km/h (0 Bft) W 262 ° 1 min 0,000 mm 2,1 UV-I 290 W/m² 10,4 °C 15,0 °C 1,6 km/h (1 Bft)
15.05.2017 16:58 15,0 °C 15,0 °C 76 % 1028,2 hPa 0,0 mm 1,9 km/h (1 Bft) W 262 ° 1 min 0,000 mm 2,1 UV-I 290 W/m² 10,8 °C 15,0 °C 4,8 km/h (1 Bft)
15.05.2017 16:59 15,0 °C 15,0 °C 76 % 1028,2 hPa 0,0 mm 1,1 km/h (1 Bft) W 262 ° 0 min 0,000 mm 2,1 UV-I 285 W/m² 10,8 °C 15,0 °C 3,2 km/h (1 Bft)
15.05.2017 17:00 15,0 °C 15,1 °C 74 % 1028,2 hPa 0,0 mm 3,0 km/h (1 Bft) W 262 ° 0 min 0,000 mm 2,0 UV-I 271 W/m² 10,4 °C 15,0 °C 4,8 km/h (1 Bft)
15.05.2017 17:01 15,0 °C 15,0 °C 72 % 1028,2 hPa 0,0 mm 4,2 km/h (1 Bft) SW 215 ° 0 min 0,152 mm 1,9 UV-I 257 W/m² 10,0 °C 15,0 °C 6,4 km/h (2 Bft)
15.05.2017 17:02 15,0 °C 15,1 °C 74 % 1028,2 hPa 0,0 mm 3,4 km/h (1 Bft) S 182 ° 0 min 0,000 mm 1,9 UV-I 243 W/m² 10,4 °C 15,0 °C 6,4 km/h (2 Bft)
15.05.2017 17:03 14,9 °C 15,0 °C 74 % 1028,2 hPa 0,0 mm 0,5 km/h (0 Bft) S 182 ° 0 min 0,000 mm 1,8 UV-I 241 W/m² 10,3 °C 14,9 °C 1,6 km/h (1 Bft)
15.05.2017 17:04 14,9 °C 14,9 °C 72 % 1028,1 hPa 0,0 mm 1,3 km/h (1 Bft) S-SW 198 ° 0 min 0,000 mm 1,8 UV-I 237 W/m² 9,9 °C 14,9 °C 3,2 km/h (1 Bft)
15.05.2017 17:05 14,9 °C 14,9 °C 72 % 1028,1 hPa 0,0 mm 0,3 km/h (0 Bft) S-SW 198 ° 0 min 0,000 mm 1,8 UV-I 230 W/m² 9,9 °C 14,9 °C 1,6 km/h (1 Bft)
15.05.2017 17:06 14,9 °C 14,9 °C 75 % 1028,2 hPa 0,0 mm 3,4 km/h (1 Bft) W-SW 240 ° 0 min 0,000 mm 1,7 UV-I 220 W/m² 10,5 °C 14,9 °C 6,4 km/h (2 Bft)
15.05.2017 17:07 14,8 °C 14,9 °C 74 % 1028,1 hPa 0,0 mm 1,0 km/h (0 Bft) W-SW 240 ° 0 min 0,000 mm 1,7 UV-I 207 W/m² 10,2 °C 14,8 °C 3,2 km/h (1 Bft)
15.05.2017 17:08 14,9 °C 14,9 °C 75 % 1028,1 hPa 0,0 mm 0,4 km/h (0 Bft) W-SW 240 ° 0 min 0,000 mm 1,6 UV-I 195 W/m² 10,5 °C 14,9 °C 1,6 km/h (1 Bft)
15.05.2017 17:09 14,9 °C 14,9 °C 74 % 1028,1 hPa 0,0 mm 1,0 km/h (0 Bft) W-SW 240 ° 0 min 0,000 mm 1,6 UV-I 195 W/m² 10,3 °C 14,9 °C 3,2 km/h (1 Bft)
15.05.2017 17:10 14,8 °C 14,9 °C 73 % 1028,1 hPa 0,0 mm 1,2 km/h (1 Bft) W-SW 240 ° 0 min 0,000 mm 1,6 UV-I 195 W/m² 10,0 °C 14,8 °C 1,6 km/h (1 Bft)
15.05.2017 17:11 14,8 °C 14,9 °C 74 % 1028,1 hPa 0,0 mm 0,9 km/h (0 Bft) S-SW 206 ° 0 min 0,000 mm 1,6 UV-I 197 W/m² 10,2 °C 14,8 °C 3,2 km/h (1 Bft)
15.05.2017 17:12 14,9 °C 14,9 °C 77 % 1028,1 hPa 0,0 mm 2,5 km/h (1 Bft) S-SW 207 ° 0 min 0,000 mm 1,6 UV-I 197 W/m² 10,9 °C 14,9 °C 4,8 km/h (1 Bft)
15.05.2017 17:13 14,9 °C 14,9 °C 75 % 1028,1 hPa 0,0 mm 1,4 km/h (1 Bft) S-SW 209 ° 0 min 0,000 mm 1,5 UV-I 197 W/m² 10,5 °C 14,9 °C 3,2 km/h (1 Bft)
15.05.2017 17:14 14,9 °C 14,9 °C 74 % 1028,2 hPa 0,0 mm 0,5 km/h (0 Bft) S-SW 196 ° 0 min 0,000 mm 1,5 UV-I 199 W/m² 10,3 °C 14,9 °C 3,2 km/h (1 Bft)
15.05.2017 17:15 15,0 °C 15,0 °C 77 % 1028,2 hPa 0,0 mm 0,0 km/h (0 Bft) S-SW 196 ° 0 min 0,000 mm 1,5 UV-I 200 W/m² 11,0 °C 15,0 °C 0,0 km/h (0 Bft)
15.05.2017 17:16 15,0 °C 15,0 °C 74 % 1028,2 hPa 0,0 mm 1,5 km/h (1 Bft) SW 228 ° 0 min 0,000 mm 1,5 UV-I 204 W/m² 10,4 °C 15,0 °C 3,2 km/h (1 Bft)
15.05.2017 17:17 14,9 °C 15,0 °C 73 % 1028,2 hPa 0,0 mm 0,3 km/h (0 Bft) SW 228 ° 0 min 0,000 mm 1,5 UV-I 209 W/m² 10,1 °C 14,9 °C 1,6 km/h (1 Bft)
15.05.2017 17:18 15,0 °C 15,0 °C 73 % 1028,2 hPa 0,0 mm 0,1 km/h (0 Bft) SW 228 ° 0 min 0,000 mm 1,5 UV-I 218 W/m² 10,2 °C 15,0 °C 1,6 km/h (1 Bft)
15.05.2017 17:19 15,0 °C 15,0 °C 76 % 1028,2 hPa 0,0 mm 1,1 km/h (1 Bft) SW 228 ° 0 min 0,000 mm 1,5 UV-I 227 W/m² 10,8 °C 15,0 °C 3,2 km/h (1 Bft)
15.05.2017 17:20 15,1 °C 15,1 °C 75 % 1028,2 hPa 0,0 mm 0,6 km/h (0 Bft) SW 228 ° 0 min 0,000 mm 1,5 UV-I 239 W/m² 10,7 °C 15,1 °C 1,6 km/h (1 Bft)
15.05.2017 17:21 15,1 °C 15,1 °C 75 % 1028,2 hPa 0,0 mm 0,9 km/h (0 Bft) SW 228 ° 0 min 0,000 mm 1,6 UV-I 246 W/m² 10,7 °C 15,1 °C 3,2 km/h (1 Bft)
15.05.2017 17:22 15,1 °C 15,1 °C 75 % 1028,2 hPa 0,0 mm 0,0 km/h (0 Bft) SW 228 ° 0 min 0,000 mm 1,7 UV-I 257 W/m² 10,7 °C 15,1 °C 0,0 km/h (0 Bft)
15.05.2017 17:23 15,1 °C 15,1 °C 75 % 1028,1 hPa 0,0 mm 0,6 km/h (0 Bft) S 174 ° 0 min 0,000 mm 1,7 UV-I 271 W/m² 10,7 °C 15,1 °C 3,2 km/h (1 Bft)
15.05.2017 17:24 15,1 °C 15,1 °C 73 % 1028,1 hPa 0,0 mm 0,1 km/h (0 Bft) S 174 ° 0 min 0,000 mm 1,7 UV-I 281 W/m² 10,3 °C 15,1 °C 1,6 km/h (1 Bft)
15.05.2017 17:25 15,1 °C 15,1 °C 74 % 1028,1 hPa 0,0 mm 2,4 km/h (1 Bft) S 174 ° 0 min 0,000 mm 1,8 UV-I 288 W/m² 10,5 °C 15,1 °C 3,2 km/h (1 Bft)
15.05.2017 17:26 15,2 °C 15,2 °C 75 % 1028,1 hPa 0,0 mm 2,7 km/h (1 Bft) S-SO 167 ° 0 min 0,000 mm 1,8 UV-I 283 W/m² 10,8 °C 15,2 °C 4,8 km/h (1 Bft)
15.05.2017 17:27 15,3 °C 15,3 °C 73 % 1028,2 hPa 0,0 mm 2,6 km/h (1 Bft) O-SO 123 ° 0 min 0,000 mm 1,8 UV-I 276 W/m² 10,5 °C 15,3 °C 3,2 km/h (1 Bft)
15.05.2017 17:28 15,3 °C 15,3 °C 75 % 1028,2 hPa 0,0 mm 1,9 km/h (1 Bft) O 80 ° 0 min 0,000 mm 1,8 UV-I 199 W/m² 10,9 °C 15,3 °C 3,2 km/h (1 Bft)
15.05.2017 17:29 15,3 °C 15,3 °C 73 % 1028,2 hPa 0,0 mm 2,0 km/h (1 Bft) O-NO 76 ° 0 min 0,000 mm 1,8 UV-I 195 W/m² 10,5 °C 15,3 °C 4,8 km/h (1 Bft)
15.05.2017 17:30 15,3 °C 15,3 °C 76 % 1028,2 hPa 0,0 mm 2,0 km/h (1 Bft) N 349 ° 0 min 0,000 mm 1,8 UV-I 265 W/m² 11,1 °C 15,3 °C 4,8 km/h (1 Bft)
15.05.2017 17:31 15,4 °C 15,4 °C 72 % 1028,2 hPa 0,0 mm 3,6 km/h (1 Bft) N-NW 331 ° 0 min 0,000 mm 1,8 UV-I 248 W/m² 10,4 °C 15,4 °C 4,8 km/h (1 Bft)
15.05.2017 17:32 15,4 °C 15,4 °C 75 % 1028,1 hPa 0,0 mm 1,3 km/h (1 Bft) NO 47 ° 0 min 0,000 mm 1,8 UV-I 229 W/m² 11,0 °C 15,4 °C 3,2 km/h (1 Bft)
15.05.2017 17:33 15,6 °C 15,6 °C 75 % 1028,1 hPa 0,0 mm 4,8 km/h (1 Bft) N-NO 27 ° 0 min 0,000 mm 1,7 UV-I 202 W/m² 11,2 °C 15,6 °C 6,4 km/h (2 Bft)
15.05.2017 17:34 15,6 °C 15,6 °C 72 % 1028,1 hPa 0,0 mm 2,5 km/h (1 Bft) NO 44 ° 0 min 0,000 mm 1,7 UV-I 227 W/m² 10,6 °C 15,6 °C 3,2 km/h (1 Bft)
15.05.2017 17:35 15,6 °C 15,6 °C 73 % 1028,1 hPa 0,0 mm 5,6 km/h (1 Bft) O 97 ° 0 min 0,000 mm 1,6 UV-I 163 W/m² 10,8 °C 15,6 °C 9,7 km/h (2 Bft)
15.05.2017 17:36 15,6 °C 15,6 °C 70 % 1028,1 hPa 0,0 mm 4,7 km/h (1 Bft) O 82 ° 0 min 0,000 mm 1,5 UV-I 146 W/m² 10,1 °C 15,6 °C 6,4 km/h (2 Bft)
15.05.2017 17:37 15,6 °C 15,6 °C 71 % 1028,1 hPa 0,0 mm 2,7 km/h (1 Bft) O-NO 77 ° 0 min 0,000 mm 1,5 UV-I 141 W/m² 10,4 °C 15,6 °C 6,4 km/h (2 Bft)
15.05.2017 17:38 15,5 °C 15,6 °C 73 % 1028,1 hPa 0,0 mm 1,4 km/h (1 Bft) O-NO 77 ° 0 min 0,000 mm 1,5 UV-I 151 W/m² 10,7 °C 15,5 °C 3,2 km/h (1 Bft)
15.05.2017 17:39 15,5 °C 15,5 °C 70 % 1028,1 hPa 0,0 mm 3,3 km/h (1 Bft) O-NO 76 ° 0 min 0,000 mm 1,5 UV-I 153 W/m² 10,1 °C 15,5 °C 4,8 km/h (1 Bft)
15.05.2017 17:40 15,5 °C 15,5 °C 71 % 1028,0 hPa 0,0 mm 4,8 km/h (1 Bft) O-NO 77 ° 0 min 0,000 mm 1,5 UV-I 156 W/m² 10,3 °C 15,5 °C 6,4 km/h (2 Bft)
15.05.2017 17:41 15,5 °C 15,5 °C 70 % 1028,1 hPa 0,0 mm 4,7 km/h (1 Bft) SO 138 ° 0 min 0,000 mm 1,5 UV-I 160 W/m² 10,1 °C 15,5 °C 6,4 km/h (2 Bft)
15.05.2017 17:42 15,4 °C 15,5 °C 69 % 1028,1 hPa 0,0 mm 2,1 km/h (1 Bft) SO 138 ° 0 min 0,000 mm 1,6 UV-I 165 W/m² 9,7 °C 15,4 °C 3,2 km/h (1 Bft)
15.05.2017 17:43 15,4 °C 15,4 °C 69 % 1028,1 hPa 0,0 mm 1,4 km/h (1 Bft) SO 137 ° 0 min 0,000 mm 1,6 UV-I 167 W/m² 9,7 °C 15,4 °C 3,2 km/h (1 Bft)
15.05.2017 17:44 15,4 °C 15,4 °C 70 % 1028,1 hPa 0,0 mm 0,0 km/h (0 Bft) SO 137 ° 0 min 0,000 mm 1,5 UV-I 167 W/m² 10,0 °C 15,4 °C 0,0 km/h (0 Bft)
15.05.2017 17:45 15,6 °C 15,6 °C 72 % 1028,1 hPa 0,0 mm 1,3 km/h (1 Bft) SO 137 ° 0 min 0,000 mm 1,5 UV-I 134 W/m² 10,6 °C 15,6 °C 3,2 km/h (1 Bft)
15.05.2017 17:46 15,7 °C 15,7 °C 72 % 1028,1 hPa 0,0 mm 1,4 km/h (1 Bft) SO 138 ° 0 min 0,000 mm 1,5 UV-I 125 W/m² 10,7 °C 15,7 °C 3,2 km/h (1 Bft)
15.05.2017 17:47 15,6 °C 15,7 °C 67 % 1028,1 hPa 0,0 mm 2,7 km/h (1 Bft) SW 223 ° 0 min 0,000 mm 1,5 UV-I 118 W/m² 9,5 °C 15,6 °C 4,8 km/h (1 Bft)
15.05.2017 17:48 15,6 °C 15,6 °C 68 % 1028,1 hPa 0,0 mm 0,7 km/h (0 Bft) S-SW 205 ° 0 min 0,000 mm 1,5 UV-I 125 W/m² 9,7 °C 15,6 °C 3,2 km/h (1 Bft)
15.05.2017 17:49 15,6 °C 15,6 °C 71 % 1028,0 hPa 0,0 mm 3,9 km/h (1 Bft) SW 227 ° 0 min 0,000 mm 1,4 UV-I 127 W/m² 10,4 °C 15,6 °C 4,8 km/h (1 Bft)
15.05.2017 17:50 15,5 °C 15,6 °C 70 % 1028,0 hPa 0,0 mm 3,9 km/h (1 Bft) W-SW 238 ° 0 min 0,000 mm 1,4 UV-I 139 W/m² 10,1 °C 15,5 °C 4,8 km/h (1 Bft)
15.05.2017 17:51 15,6 °C 15,6 °C 68 % 1028,0 hPa 0,0 mm 2,4 km/h (1 Bft) W-SW 246 ° 0 min 0,000 mm 1,4 UV-I 135 W/m² 9,7 °C 15,6 °C 4,8 km/h (1 Bft)
15.05.2017 17:52 15,6 °C 15,6 °C 68 % 1028,0 hPa 0,0 mm 1,9 km/h (1 Bft) W-SW 246 ° 0 min 0,000 mm 1,3 UV-I 113 W/m² 9,7 °C 15,6 °C 3,2 km/h (1 Bft)
15.05.2017 17:53 15,5 °C 15,6 °C 68 % 1028,0 hPa 0,0 mm 0,1 km/h (0 Bft) W-SW 246 ° 0 min 0,000 mm 1,3 UV-I 105 W/m² 9,6 °C 15,5 °C 1,6 km/h (1 Bft)
15.05.2017 17:54 15,5 °C 15,5 °C 68 % 1028,0 hPa 0,0 mm 0,4 km/h (0 Bft) W-SW 246 ° 0 min 0,000 mm 1,3 UV-I 105 W/m² 9,6 °C 15,5 °C 1,6 km/h (1 Bft)
15.05.2017 17:55 15,4 °C 15,5 °C 69 % 1028,0 hPa 0,0 mm 0,2 km/h (0 Bft) W-SW 246 ° 0 min 0,000 mm 1,3 UV-I 116 W/m² 9,7 °C 15,4 °C 1,6 km/h (1 Bft)
15.05.2017 17:56 15,5 °C 15,5 °C 70 % 1028,0 hPa 0,0 mm 0,2 km/h (0 Bft) W-SW 246 ° 0 min 0,000 mm 1,4 UV-I 156 W/m² 10,1 °C 15,5 °C 1,6 km/h (1 Bft)
15.05.2017 17:57 15,6 °C 15,6 °C 70 % 1028,0 hPa 0,0 mm 2,9 km/h (1 Bft) W-NW 300 ° 0 min 0,000 mm 1,5 UV-I 146 W/m² 10,1 °C 15,6 °C 6,4 km/h (2 Bft)
15.05.2017 17:58 15,7 °C 15,7 °C 72 % 1027,9 hPa 0,0 mm 4,3 km/h (1 Bft) W-NW 299 ° 0 min 0,000 mm 1,4 UV-I 97 W/m² 10,7 °C 15,7 °C 4,8 km/h (1 Bft)
15.05.2017 17:59 15,9 °C 15,9 °C 70 % 1028,0 hPa 0,0 mm 7,3 km/h (2 Bft) W 271 ° 0 min 0,000 mm 1,3 UV-I 111 W/m² 10,4 °C 15,9 °C 9,7 km/h (2 Bft)
15.05.2017 18:00 15,9 °C 15,9 °C 70 % 1027,9 hPa 0,0 mm 5,8 km/h (2 Bft) W 271 ° 0 min 0,000 mm 1,3 UV-I 111 W/m² 10,4 °C 15,9 °C 6,4 km/h (2 Bft)
15.05.2017 18:01 15,9 °C 15,9 °C 68 % 1027,9 hPa 0,0 mm 2,2 km/h (1 Bft) W 261 ° 0 min 0,102 mm 1,3 UV-I 125 W/m² 10,0 °C 15,9 °C 4,8 km/h (1 Bft)
15.05.2017 18:02 15,8 °C 15,9 °C 66 % 1028,0 hPa 0,0 mm 4,2 km/h (1 Bft) SW 229 ° 0 min 0,000 mm 1,3 UV-I 111 W/m² 9,5 °C 15,8 °C 4,8 km/h (1 Bft)
15.05.2017 18:03 15,8 °C 15,8 °C 67 % 1027,9 hPa 0,0 mm 2,5 km/h (1 Bft) SW 218 ° 0 min 0,000 mm 1,3 UV-I 111 W/m² 9,7 °C 15,8 °C 4,8 km/h (1 Bft)
15.05.2017 18:04 15,7 °C 15,8 °C 69 % 1027,9 hPa 0,0 mm 1,4 km/h (1 Bft) SW 225 ° 0 min 0,000 mm 1,3 UV-I 137 W/m² 10,0 °C 15,7 °C 3,2 km/h (1 Bft)
15.05.2017 18:05 15,7 °C 15,7 °C 67 % 1028,0 hPa 0,0 mm 3,4 km/h (1 Bft) S-SW 205 ° 0 min 0,000 mm 1,3 UV-I 113 W/m² 9,6 °C 15,7 °C 6,4 km/h (2 Bft)
15.05.2017 18:06 15,6 °C 15,7 °C 67 % 1027,9 hPa 0,0 mm 3,0 km/h (1 Bft) S-SW 205 ° 0 min 0,000 mm 1,3 UV-I 127 W/m² 9,5 °C 15,6 °C 6,4 km/h (2 Bft)
15.05.2017 18:07 15,6 °C 15,6 °C 66 % 1027,9 hPa 0,0 mm 0,8 km/h (0 Bft) S-SW 205 ° 0 min 0,000 mm 1,2 UV-I 114 W/m² 9,3 °C 15,6 °C 1,6 km/h (1 Bft)
15.05.2017 18:08 15,5 °C 15,6 °C 67 % 1027,9 hPa 0,0 mm 0,4 km/h (0 Bft) S-SW 205 ° 0 min 0,000 mm 1,2 UV-I 95 W/m² 9,4 °C 15,5 °C 1,6 km/h (1 Bft)
15.05.2017 18:09 15,5 °C 15,6 °C 66 % 1027,9 hPa 0,0 mm 2,4 km/h (1 Bft) S-SW 205 ° 0 min 0,000 mm 1,1 UV-I 141 W/m² 9,2 °C 15,5 °C 3,2 km/h (1 Bft)
15.05.2017 18:10 15,6 °C 15,6 °C 66 % 1027,8 hPa 0,0 mm 0,3 km/h (0 Bft) S-SW 205 ° 0 min 0,000 mm 1,1 UV-I 88 W/m² 9,3 °C 15,6 °C 1,6 km/h (1 Bft)
15.05.2017 18:11 15,6 °C 15,6 °C 68 % 1027,9 hPa 0,0 mm 2,5 km/h (1 Bft) SW 219 ° 0 min 0,000 mm 1,1 UV-I 84 W/m² 9,7 °C 15,6 °C 4,8 km/h (1 Bft)
15.05.2017 18:12 15,6 °C 15,6 °C 68 % 1027,8 hPa 0,0 mm 1,4 km/h (1 Bft) SW 222 ° 0 min 0,000 mm 1,1 UV-I 86 W/m² 9,7 °C 15,6 °C 4,8 km/h (1 Bft)
15.05.2017 18:13 15,7 °C 15,7 °C 67 % 1027,8 hPa 0,0 mm 3,1 km/h (1 Bft) W 281 ° 0 min 0,000 mm 1,1 UV-I 91 W/m² 9,6 °C 15,7 °C 6,4 km/h (2 Bft)
15.05.2017 18:14 15,7 °C 15,7 °C 69 % 1027,9 hPa 0,0 mm 4,5 km/h (1 Bft) W-NW 299 ° 0 min 0,000 mm 1,0 UV-I 83 W/m² 10,0 °C 15,7 °C 6,4 km/h (2 Bft)
15.05.2017 18:15 15,8 °C 15,8 °C 68 % 1027,9 hPa 0,0 mm 6,1 km/h (2 Bft) W-NW 294 ° 0 min 0,000 mm 1,0 UV-I 74 W/m² 9,9 °C 15,8 °C 9,7 km/h (2 Bft)
15.05.2017 18:16 15,8 °C 15,8 °C 66 % 1027,9 hPa 0,0 mm 4,6 km/h (1 Bft) W-NW 289 ° 0 min 0,000 mm 1,0 UV-I 74 W/m² 9,5 °C 15,8 °C 6,4 km/h (2 Bft)
15.05.2017 18:17 15,8 °C 15,8 °C 65 % 1027,9 hPa 0,0 mm 5,0 km/h (1 Bft) W 276 ° 0 min 0,000 mm 1,0 UV-I 74 W/m² 9,2 °C 15,8 °C 6,4 km/h (2 Bft)
15.05.2017 18:18 15,7 °C 15,8 °C 66 % 1027,9 hPa 0,0 mm 5,0 km/h (1 Bft) W-NW 287 ° 0 min 0,000 mm 1,0 UV-I 76 W/m² 9,4 °C 15,7 °C 6,4 km/h (2 Bft)
15.05.2017 18:19 15,7 °C 15,7 °C 62 % 1027,9 hPa 0,0 mm 3,2 km/h (1 Bft) W-NW 287 ° 0 min 0,000 mm 1,0 UV-I 76 W/m² 8,4 °C 15,7 °C 4,8 km/h (1 Bft)
15.05.2017 18:20 15,6 °C 15,7 °C 63 % 1027,9 hPa 0,0 mm 2,7 km/h (1 Bft) W-NW 284 ° 0 min 0,000 mm 1,0 UV-I 84 W/m² 8,6 °C 15,6 °C 4,8 km/h (1 Bft)
15.05.2017 18:21 15,6 °C 15,6 °C 67 % 1027,9 hPa 0,0 mm 2,7 km/h (1 Bft) W 281 ° 0 min 0,000 mm 1,0 UV-I 88 W/m² 9,5 °C 15,6 °C 4,8 km/h (1 Bft)
15.05.2017 18:22 15,5 °C 15,6 °C 67 % 1027,9 hPa 0,0 mm 4,0 km/h (1 Bft) W 265 ° 0 min 0,000 mm 0,9 UV-I 86 W/m² 9,4 °C 15,5 °C 6,4 km/h (2 Bft)
15.05.2017 18:23 15,4 °C 15,5 °C 67 % 1027,9 hPa 0,0 mm 0,6 km/h (0 Bft) W 265 ° 0 min 0,000 mm 0,9 UV-I 88 W/m² 9,3 °C 15,4 °C 1,6 km/h (1 Bft)
15.05.2017 18:24 15,4 °C 15,4 °C 67 % 1027,9 hPa 0,0 mm 0,3 km/h (0 Bft) W 265 ° 0 min 0,000 mm 0,9 UV-I 95 W/m² 9,3 °C 15,4 °C 1,6 km/h (1 Bft)
15.05.2017 18:25 15,3 °C 15,4 °C 69 % 1027,9 hPa 0,0 mm 1,3 km/h (1 Bft) W 265 ° 0 min 0,000 mm 0,9 UV-I 95 W/m² 9,6 °C 15,3 °C 3,2 km/h (1 Bft)
15.05.2017 18:26 15,3 °C 15,3 °C 70 % 1027,9 hPa 0,0 mm 0,0 km/h (0 Bft) W 265 ° 0 min 0,000 mm 0,8 UV-I 91 W/m² 9,9 °C 15,3 °C 0,0 km/h (0 Bft)
15.05.2017 18:27 15,2 °C 15,3 °C 70 % 1028,0 hPa 0,0 mm 0,0 km/h (0 Bft) W 265 ° 0 min 0,000 mm 0,8 UV-I 91 W/m² 9,8 °C 15,2 °C 0,0 km/h (0 Bft)
15.05.2017 18:28 15,2 °C 15,2 °C 71 % 1027,9 hPa 0,0 mm 1,4 km/h (1 Bft) W 265 ° 0 min 0,000 mm 0,8 UV-I 97 W/m² 10,0 °C 15,2 °C 3,2 km/h (1 Bft)
15.05.2017 18:29 15,2 °C 15,2 °C 70 % 1027,9 hPa 0,0 mm 2,4 km/h (1 Bft) W 265 ° 0 min 0,000 mm 0,8 UV-I 100 W/m² 9,8 °C 15,2 °C 3,2 km/h (1 Bft)
15.05.2017 18:30 15,2 °C 15,2 °C 72 % 1027,9 hPa 0,0 mm 1,3 km/h (1 Bft) W 265 ° 0 min 0,000 mm 0,8 UV-I 107 W/m² 10,2 °C 15,2 °C 3,2 km/h (1 Bft)
15.05.2017 18:31 15,2 °C 15,2 °C 73 % 1027,9 hPa 0,0 mm 2,7 km/h (1 Bft) W 265 ° 0 min 0,000 mm 0,7 UV-I 105 W/m² 10,4 °C 15,2 °C 3,2 km/h (1 Bft)
15.05.2017 18:32 15,2 °C 15,2 °C 75 % 1028,0 hPa 0,0 mm 1,3 km/h (1 Bft) W 265 ° 0 min 0,000 mm 0,7 UV-I 102 W/m² 10,8 °C 15,2 °C 3,2 km/h (1 Bft)
15.05.2017 18:33 15,2 °C 15,2 °C 72 % 1028,0 hPa 0,0 mm 1,4 km/h (1 Bft) W 265 ° 0 min 0,000 mm 0,7 UV-I 98 W/m² 10,2 °C 15,2 °C 3,2 km/h (1 Bft)
15.05.2017 18:34 15,2 °C 15,2 °C 72 % 1028,0 hPa 0,0 mm 1,3 km/h (1 Bft) W 265 ° 0 min 0,000 mm 0,7 UV-I 95 W/m² 10,2 °C 15,2 °C 3,2 km/h (1 Bft)
15.05.2017 18:35 15,2 °C 15,2 °C 72 % 1028,0 hPa 0,0 mm 1,0 km/h (0 Bft) W 265 ° 0 min 0,000 mm 0,7 UV-I 91 W/m² 10,2 °C 15,2 °C 1,6 km/h (1 Bft)
15.05.2017 18:36 15,3 °C 15,3 °C 72 % 1028,0 hPa 0,0 mm 0,2 km/h (0 Bft) W 265 ° 0 min 0,000 mm 0,7 UV-I 91 W/m² 10,3 °C 15,3 °C 1,6 km/h (1 Bft)
15.05.2017 18:37 15,3 °C 15,3 °C 72 % 1028,0 hPa 0,0 mm 3,0 km/h (1 Bft) W 265 ° 0 min 0,000 mm 0,7 UV-I 91 W/m² 10,3 °C 15,3 °C 4,8 km/h (1 Bft)
15.05.2017 18:38 15,3 °C 15,3 °C 71 % 1028,0 hPa 0,0 mm 1,1 km/h (1 Bft) W 265 ° 0 min 0,000 mm 0,7 UV-I 98 W/m² 10,1 °C 15,3 °C 3,2 km/h (1 Bft)
15.05.2017 18:39 15,3 °C 15,3 °C 74 % 1028,0 hPa 0,0 mm 2,1 km/h (1 Bft) W-NW 292 ° 0 min 0,000 mm 0,6 UV-I 95 W/m² 10,7 °C 15,3 °C 3,2 km/h (1 Bft)
15.05.2017 18:40 15,3 °C 15,4 °C 74 % 1028,0 hPa 0,0 mm 3,1 km/h (1 Bft) W-NW 296 ° 0 min 0,000 mm 0,6 UV-I 95 W/m² 10,7 °C 15,3 °C 4,8 km/h (1 Bft)
15.05.2017 18:41 15,4 °C 15,4 °C 75 % 1028,0 hPa 0,0 mm 2,7 km/h (1 Bft) W-NW 296 ° 0 min 0,000 mm 0,6 UV-I 98 W/m² 11,0 °C 15,4 °C 4,8 km/h (1 Bft)
15.05.2017 18:42 15,4 °C 15,4 °C 73 % 1028,0 hPa 0,0 mm 2,0 km/h (1 Bft) W-NW 296 ° 0 min 0,000 mm 0,6 UV-I 104 W/m² 10,6 °C 15,4 °C 3,2 km/h (1 Bft)
15.05.2017 18:43 15,4 °C 15,4 °C 73 % 1028,1 hPa 0,0 mm 4,0 km/h (1 Bft) W 278 ° 0 min 0,000 mm 0,6 UV-I 109 W/m² 10,6 °C 15,4 °C 9,7 km/h (2 Bft)
15.05.2017 18:44 15,4 °C 15,4 °C 73 % 1028,1 hPa 0,0 mm 6,6 km/h (2 Bft) W-NW 301 ° 0 min 0,000 mm 0,6 UV-I 114 W/m² 10,6 °C 15,4 °C 11,3 km/h (2 Bft)
15.05.2017 18:45 15,4 °C 15,4 °C 72 % 1028,1 hPa 0,0 mm 9,2 km/h (2 Bft) W-NW 302 ° 0 min 0,000 mm 0,6 UV-I 118 W/m² 10,4 °C 15,4 °C 12,9 km/h (3 Bft)
15.05.2017 18:46 15,3 °C 15,4 °C 73 % 1028,1 hPa 0,0 mm 4,6 km/h (1 Bft) N-NO 15 ° 0 min 0,000 mm 0,6 UV-I 121 W/m² 10,5 °C 15,3 °C 8,0 km/h (2 Bft)
15.05.2017 18:47 15,2 °C 15,3 °C 74 % 1028,2 hPa 0,0 mm 6,5 km/h (2 Bft) N 5 ° 0 min 0,000 mm 0,6 UV-I 127 W/m² 10,6 °C 15,2 °C 8,0 km/h (2 Bft)
15.05.2017 18:48 15,1 °C 15,2 °C 74 % 1028,2 hPa 0,0 mm 6,6 km/h (2 Bft) N-NO 17 ° 0 min 0,000 mm 0,6 UV-I 130 W/m² 10,5 °C 15,1 °C 9,7 km/h (2 Bft)
15.05.2017 18:49 15,0 °C 15,1 °C 75 % 1028,3 hPa 0,0 mm 4,2 km/h (1 Bft) N-NW 342 ° 0 min 0,000 mm 0,6 UV-I 132 W/m² 10,6 °C 15,0 °C 6,4 km/h (2 Bft)
15.05.2017 18:50 14,9 °C 15,0 °C 75 % 1028,2 hPa 0,0 mm 4,9 km/h (1 Bft) NW 309 ° 0 min 0,000 mm 0,6 UV-I 134 W/m² 10,5 °C 14,9 °C 6,4 km/h (2 Bft)
15.05.2017 18:51 14,9 °C 14,9 °C 76 % 1028,2 hPa 0,0 mm 3,4 km/h (1 Bft) NW 312 ° 0 min 0,000 mm 0,6 UV-I 134 W/m² 10,7 °C 14,9 °C 6,4 km/h (2 Bft)
15.05.2017 18:52 14,8 °C 14,9 °C 77 % 1028,3 hPa 0,0 mm 7,5 km/h (2 Bft) NW 317 ° 0 min 0,000 mm 0,6 UV-I 132 W/m² 10,8 °C 14,8 °C 12,9 km/h (3 Bft)
15.05.2017 18:53 14,8 °C 14,8 °C 77 % 1028,3 hPa 0,0 mm 10,5 km/h (2 Bft) NW 310 ° 0 min 0,000 mm 0,6 UV-I 123 W/m² 10,8 °C 14,8 °C 16,1 km/h (3 Bft)
15.05.2017 18:54 14,7 °C 14,8 °C 75 % 1028,3 hPa 0,0 mm 8,7 km/h (2 Bft) NW 312 ° 0 min 0,000 mm 0,6 UV-I 118 W/m² 10,3 °C 14,7 °C 16,1 km/h (3 Bft)
15.05.2017 18:55 14,4 °C 14,7 °C 75 % 1028,3 hPa 0,0 mm 4,8 km/h (1 Bft) NW 306 ° 0 min 0,000 mm 0,5 UV-I 118 W/m² 10,0 °C 14,4 °C 11,3 km/h (2 Bft)
15.05.2017 18:56 14,3 °C 14,4 °C 76 % 1028,3 hPa 0,0 mm 3,7 km/h (1 Bft) N-NW 342 ° 0 min 0,000 mm 0,5 UV-I 104 W/m² 10,1 °C 14,3 °C 6,4 km/h (2 Bft)
15.05.2017 18:57 14,1 °C 14,3 °C 77 % 1028,3 hPa 0,0 mm 3,9 km/h (1 Bft) N-NO 12 ° 0 min 0,000 mm 0,5 UV-I 98 W/m² 10,1 °C 14,1 °C 6,4 km/h (2 Bft)
15.05.2017 18:58 14,0 °C 14,1 °C 77 % 1028,3 hPa 0,0 mm 3,5 km/h (1 Bft) N 9 ° 0 min 0,000 mm 0,5 UV-I 97 W/m² 10,0 °C 14,0 °C 4,8 km/h (1 Bft)
15.05.2017 18:59 13,9 °C 14,0 °C 77 % 1028,3 hPa 0,0 mm 0,9 km/h (0 Bft) N 9 ° 0 min 0,000 mm 0,5 UV-I 98 W/m² 9,9 °C 13,9 °C 3,2 km/h (1 Bft)
15.05.2017 19:00 13,8 °C 13,9 °C 78 % 1028,4 hPa 0,0 mm 2,2 km/h (1 Bft) N 9 ° 0 min 0,076 mm 0,0 UV-I 98 W/m² 10,0 °C 13,8 °C 3,2 km/h (1 Bft)
15.05.2017 19:01 13,8 °C 13,8 °C 79 % 1028,3 hPa 0,0 mm 1,0 km/h (0 Bft) N 9 ° 0 min 0,000 mm 0,0 UV-I 97 W/m² 10,2 °C 13,8 °C 3,2 km/h (1 Bft)
15.05.2017 19:02 13,7 °C 13,8 °C 78 % 1028,4 hPa 0,0 mm 1,0 km/h (0 Bft) N 9 ° 0 min 0,000 mm 0,0 UV-I 93 W/m² 9,9 °C 13,7 °C 4,8 km/h (1 Bft)
15.05.2017 19:03 13,7 °C 13,7 °C 78 % 1028,4 hPa 0,0 mm 3,9 km/h (1 Bft) N 9 ° 0 min 0,000 mm 0,0 UV-I 90 W/m² 9,9 °C 13,7 °C 6,4 km/h (2 Bft)
15.05.2017 19:04 13,7 °C 13,7 °C 78 % 1028,4 hPa 0,0 mm 2,6 km/h (1 Bft) N 9 ° 0 min 0,000 mm 0,0 UV-I 88 W/m² 9,9 °C 13,7 °C 3,2 km/h (1 Bft)
15.05.2017 19:05 13,7 °C 13,7 °C 77 % 1028,4 hPa 0,0 mm 3,1 km/h (1 Bft) N 9 ° 0 min 0,000 mm 0,0 UV-I 84 W/m² 9,7 °C 13,7 °C 3,2 km/h (1 Bft)
15.05.2017 19:06 13,7 °C 13,7 °C 78 % 1028,4 hPa 0,0 mm 2,3 km/h (1 Bft) N 9 ° 0 min 0,000 mm 0,0 UV-I 83 W/m² 9,9 °C 13,7 °C 4,8 km/h (1 Bft)
15.05.2017 19:07 13,6 °C 13,7 °C 78 % 1028,4 hPa 0,0 mm 1,5 km/h (1 Bft) N-NO 13 ° 0 min 0,000 mm 0,0 UV-I 84 W/m² 9,8 °C 13,6 °C 3,2 km/h (1 Bft)
15.05.2017 19:08 13,6 °C 13,6 °C 78 % 1028,4 hPa 0,0 mm 1,1 km/h (1 Bft) N-NO 13 ° 0 min 0,000 mm 0,0 UV-I 86 W/m² 9,8 °C 13,6 °C 3,2 km/h (1 Bft)
15.05.2017 19:09 13,6 °C 13,6 °C 78 % 1028,4 hPa 0,0 mm 0,0 km/h (0 Bft) N-NO 13 ° 0 min 0,000 mm 0,0 UV-I 90 W/m² 9,8 °C 13,6 °C 0,0 km/h (0 Bft)
15.05.2017 19:10 13,5 °C 13,6 °C 78 % 1028,4 hPa 0,0 mm 0,0 km/h (0 Bft) N-NO 13 ° 0 min 0,000 mm 0,0 UV-I 97 W/m² 9,7 °C 13,5 °C 0,0 km/h (0 Bft)
15.05.2017 19:11 13,5 °C 13,5 °C 78 % 1028,4 hPa 0,0 mm 0,0 km/h (0 Bft) N-NO 13 ° 0 min 0,000 mm 0,0 UV-I 114 W/m² 9,7 °C 13,5 °C 0,0 km/h (0 Bft)
15.05.2017 19:12 13,5 °C 13,5 °C 78 % 1028,4 hPa 0,0 mm 0,0 km/h (0 Bft) N-NO 13 ° 0 min 0,000 mm 0,0 UV-I 134 W/m² 9,7 °C 13,5 °C 0,0 km/h (0 Bft)
15.05.2017 19:13 13,5 °C 13,5 °C 78 % 1028,3 hPa 0,0 mm 1,1 km/h (1 Bft) N-NO 13 ° 0 min 0,000 mm 0,0 UV-I 134 W/m² 9,7 °C 13,5 °C 1,6 km/h (1 Bft)
15.05.2017 19:14 13,5 °C 13,5 °C 80 % 1028,4 hPa 0,0 mm 0,1 km/h (0 Bft) N-NO 13 ° 0 min 0,000 mm 0,0 UV-I 144 W/m² 10,1 °C 13,5 °C 1,6 km/h (1 Bft)
15.05.2017 19:15 13,6 °C 13,6 °C 79 % 1028,3 hPa 0,0 mm 0,8 km/h (0 Bft) N-NO 13 ° 0 min 0,000 mm 0,0 UV-I 146 W/m² 10,0 °C 13,6 °C 1,6 km/h (1 Bft)
15.05.2017 19:16 13,6 °C 13,6 °C 78 % 1028,3 hPa 0,0 mm 0,1 km/h (0 Bft) N-NO 13 ° 0 min 0,000 mm 0,0 UV-I 149 W/m² 9,8 °C 13,6 °C 1,6 km/h (1 Bft)
15.05.2017 19:17 13,6 °C 13,6 °C 79 % 1028,3 hPa 0,0 mm 0,3 km/h (0 Bft) N-NO 13 ° 0 min 0,000 mm 0,0 UV-I 156 W/m² 10,0 °C 13,6 °C 1,6 km/h (1 Bft)
15.05.2017 19:18 13,6 °C 13,6 °C 78 % 1028,3 hPa 0,0 mm 0,0 km/h (0 Bft) N-NO 13 ° 0 min 0,000 mm 0,0 UV-I 192 W/m² 9,8 °C 13,6 °C 0,0 km/h (0 Bft)
15.05.2017 19:19 13,7 °C 13,7 °C 80 % 1028,3 hPa 0,0 mm 0,0 km/h (0 Bft) N-NO 13 ° 0 min 0,000 mm 0,0 UV-I 178 W/m² 10,3 °C 13,7 °C 0,0 km/h (0 Bft)
15.05.2017 19:20 13,7 °C 13,7 °C 78 % 1028,3 hPa 0,0 mm 0,0 km/h (0 Bft) N-NO 13 ° 0 min 0,000 mm 0,0 UV-I 179 W/m² 9,9 °C 13,7 °C 0,0 km/h (0 Bft)
15.05.2017 19:21 13,8 °C 13,8 °C 79 % 1028,3 hPa 0,0 mm 0,0 km/h (0 Bft) N-NO 13 ° 0 min 0,000 mm 0,0 UV-I 181 W/m² 10,2 °C 13,8 °C 0,0 km/h (0 Bft)
15.05.2017 19:22 13,9 °C 13,9 °C 80 % 1028,3 hPa 0,0 mm 0,0 km/h (0 Bft) N-NO 13 ° 0 min 0,000 mm 0,5 UV-I 172 W/m² 10,5 °C 13,9 °C 0,0 km/h (0 Bft)
15.05.2017 19:23 14,0 °C 14,0 °C 80 % 1028,3 hPa 0,0 mm 0,0 km/h (0 Bft) N-NO 13 ° 0 min 0,000 mm 0,5 UV-I 155 W/m² 10,6 °C 14,0 °C 0,0 km/h (0 Bft)
15.05.2017 19:24 14,1 °C 14,1 °C 79 % 1028,2 hPa 0,0 mm 0,0 km/h (0 Bft) N-NO 13 ° 0 min 0,000 mm 0,5 UV-I 169 W/m² 10,5 °C 14,1 °C 0,0 km/h (0 Bft)
15.05.2017 19:25 14,1 °C 14,1 °C 78 % 1028,3 hPa 0,0 mm 0,0 km/h (0 Bft) N-NO 13 ° 0 min 0,000 mm 0,5 UV-I 174 W/m² 10,3 °C 14,1 °C 0,0 km/h (0 Bft)
15.05.2017 19:26 14,2 °C 14,2 °C 79 % 1028,2 hPa 0,0 mm 0,8 km/h (0 Bft) N-NO 13 ° 0 min 0,000 mm 0,5 UV-I 176 W/m² 10,6 °C 14,2 °C 1,6 km/h (1 Bft)
15.05.2017 19:27 14,2 °C 14,2 °C 79 % 1028,2 hPa 0,0 mm 0,8 km/h (0 Bft) N-NO 13 ° 0 min 0,000 mm 0,5 UV-I 169 W/m² 10,6 °C 14,2 °C 1,6 km/h (1 Bft)
15.05.2017 19:28 14,3 °C 14,3 °C 79 % 1028,2 hPa 0,0 mm 2,4 km/h (1 Bft) N-NO 13 ° 0 min 0,000 mm 0,5 UV-I 160 W/m² 10,7 °C 14,3 °C 3,2 km/h (1 Bft)
15.05.2017 19:29 14,4 °C 14,4 °C 79 % 1028,2 hPa 0,0 mm 3,1 km/h (1 Bft) N-NO 13 ° 0 min 0,000 mm 0,5 UV-I 134 W/m² 10,8 °C 14,4 °C 4,8 km/h (1 Bft)
15.05.2017 19:30 14,6 °C 14,6 °C 79 % 1028,3 hPa 0,0 mm 2,8 km/h (1 Bft) N-NO 13 ° 0 min 0,000 mm 0,5 UV-I 148 W/m² 11,0 °C 14,6 °C 3,2 km/h (1 Bft)
15.05.2017 19:31 14,7 °C 14,7 °C 78 % 1028,3 hPa 0,0 mm 1,8 km/h (1 Bft) N-NO 13 ° 0 min 0,000 mm 0,0 UV-I 148 W/m² 10,9 °C 14,7 °C 3,2 km/h (1 Bft)
15.05.2017 19:32 14,6 °C 14,7 °C 76 % 1028,3 hPa 0,0 mm 0,4 km/h (0 Bft) N-NO 13 ° 0 min 0,000 mm 0,0 UV-I 149 W/m² 10,4 °C 14,6 °C 1,6 km/h (1 Bft)
15.05.2017 19:33 14,6 °C 14,6 °C 78 % 1028,2 hPa 0,0 mm 1,6 km/h (1 Bft) N-NO 13 ° 0 min 0,000 mm 0,0 UV-I 142 W/m² 10,8 °C 14,6 °C 3,2 km/h (1 Bft)
15.05.2017 19:34 14,6 °C 14,6 °C 77 % 1028,2 hPa 0,0 mm 2,1 km/h (1 Bft) N-NO 13 ° 0 min 0,000 mm 0,0 UV-I 130 W/m² 10,6 °C 14,6 °C 3,2 km/h (1 Bft)
15.05.2017 19:35 14,6 °C 14,6 °C 76 % 1028,2 hPa 0,0 mm 2,1 km/h (1 Bft) N-NO 13 ° 0 min 0,000 mm 0,0 UV-I 130 W/m² 10,4 °C 14,6 °C 3,2 km/h (1 Bft)
15.05.2017 19:36 14,6 °C 14,6 °C 77 % 1028,3 hPa 0,0 mm 0,7 km/h (0 Bft) N-NO 13 ° 0 min 0,000 mm 0,0 UV-I 127 W/m² 10,6 °C 14,6 °C 1,6 km/h (1 Bft)
15.05.2017 19:37 14,6 °C 14,7 °C 76 % 1028,2 hPa 0,0 mm 0,1 km/h (0 Bft) N-NO 13 ° 0 min 0,000 mm 0,0 UV-I 123 W/m² 10,4 °C 14,6 °C 1,6 km/h (1 Bft)
15.05.2017 19:38 14,6 °C 14,7 °C 76 % 1028,2 hPa 0,0 mm 0,0 km/h (0 Bft) N-NO 13 ° 0 min 0,000 mm 0,0 UV-I 118 W/m² 10,4 °C 14,6 °C 0,0 km/h (0 Bft)
15.05.2017 19:39 14,6 °C 14,6 °C 76 % 1028,3 hPa 0,0 mm 0,0 km/h (0 Bft) N-NO 13 ° 0 min 0,000 mm 0,0 UV-I 113 W/m² 10,4 °C 14,6 °C 0,0 km/h (0 Bft)
15.05.2017 19:40 14,6 °C 14,6 °C 78 % 1028,2 hPa 0,0 mm 0,0 km/h (0 Bft) N-NO 13 ° 0 min 0,000 mm 0,0 UV-I 102 W/m² 10,8 °C 14,6 °C 0,0 km/h (0 Bft)
15.05.2017 19:41 14,6 °C 14,6 °C 79 % 1028,3 hPa 0,0 mm 0,0 km/h (0 Bft) N-NO 13 ° 0 min 0,000 mm 0,0 UV-I 98 W/m² 11,0 °C 14,6 °C 0,0 km/h (0 Bft)
15.05.2017 19:42 14,5 °C 14,6 °C 78 % 1028,3 hPa 0,0 mm 1,4 km/h (1 Bft) N-NO 13 ° 0 min 0,000 mm 0,0 UV-I 91 W/m² 10,7 °C 14,5 °C 3,2 km/h (1 Bft)
15.05.2017 19:43 14,4 °C 14,5 °C 78 % 1028,3 hPa 0,0 mm 2,7 km/h (1 Bft) N-NO 13 ° 0 min 0,000 mm 0,0 UV-I 95 W/m² 10,6 °C 14,4 °C 4,8 km/h (1 Bft)
15.05.2017 19:44 14,4 °C 14,4 °C 79 % 1028,3 hPa 0,0 mm 3,4 km/h (1 Bft) O-NO 59 ° 0 min 0,000 mm 0,0 UV-I 93 W/m² 10,8 °C 14,4 °C 4,8 km/h (1 Bft)
15.05.2017 19:45 14,3 °C 14,4 °C 78 % 1028,3 hPa 0,0 mm 3,5 km/h (1 Bft) O-NO 59 ° 0 min 0,000 mm 0,0 UV-I 90 W/m² 10,5 °C 14,3 °C 4,8 km/h (1 Bft)
15.05.2017 19:46 14,3 °C 14,3 °C 79 % 1028,3 hPa 0,0 mm 3,5 km/h (1 Bft) O-NO 57 ° 0 min 0,000 mm 0,0 UV-I 84 W/m² 10,7 °C 14,3 °C 4,8 km/h (1 Bft)
15.05.2017 19:47 14,2 °C 14,3 °C 79 % 1028,3 hPa 0,0 mm 2,8 km/h (1 Bft) O-NO 57 ° 0 min 0,000 mm 0,0 UV-I 79 W/m² 10,6 °C 14,2 °C 4,8 km/h (1 Bft)
15.05.2017 19:48 14,2 °C 14,2 °C 81 % 1028,3 hPa 0,0 mm 3,0 km/h (1 Bft) O-NO 57 ° 0 min 0,000 mm 0,0 UV-I 79 W/m² 11,0 °C 14,2 °C 4,8 km/h (1 Bft)
15.05.2017 19:49 14,2 °C 14,2 °C 78 % 1028,3 hPa 0,0 mm 2,6 km/h (1 Bft) O-NO 57 ° 0 min 0,000 mm 0,0 UV-I 79 W/m² 10,4 °C 14,2 °C 4,8 km/h (1 Bft)
15.05.2017 19:50 14,2 °C 14,2 °C 78 % 1028,3 hPa 0,0 mm 2,6 km/h (1 Bft) O-NO 60 ° 0 min 0,000 mm 0,0 UV-I 77 W/m² 10,4 °C 14,2 °C 3,2 km/h (1 Bft)
15.05.2017 19:51 14,1 °C 14,2 °C 79 % 1028,3 hPa 0,0 mm 0,9 km/h (0 Bft) O-NO 60 ° 0 min 0,000 mm 0,0 UV-I 76 W/m² 10,5 °C 14,1 °C 3,2 km/h (1 Bft)
15.05.2017 19:52 14,1 °C 14,1 °C 78 % 1028,3 hPa 0,0 mm 1,0 km/h (0 Bft) O-NO 60 ° 0 min 0,000 mm 0,0 UV-I 70 W/m² 10,3 °C 14,1 °C 1,6 km/h (1 Bft)
15.05.2017 19:53 14,0 °C 14,1 °C 80 % 1028,3 hPa 0,0 mm 0,5 km/h (0 Bft) O-NO 60 ° 0 min 0,000 mm 0,0 UV-I 69 W/m² 10,6 °C 14,0 °C 1,6 km/h (1 Bft)
15.05.2017 19:54 13,9 °C 14,0 °C 81 % 1028,3 hPa 0,0 mm 0,3 km/h (0 Bft) O-NO 62 ° 0 min 0,000 mm 0,0 UV-I 69 W/m² 10,7 °C 13,9 °C 3,2 km/h (1 Bft)
15.05.2017 19:55 13,8 °C 13,9 °C 80 % 1028,3 hPa 0,0 mm 2,4 km/h (1 Bft) O 101 ° 0 min 0,000 mm 0,0 UV-I 65 W/m² 10,4 °C 13,8 °C 4,8 km/h (1 Bft)
15.05.2017 19:56 13,7 °C 13,8 °C 80 % 1028,3 hPa 0,0 mm 1,9 km/h (1 Bft) O 101 ° 0 min 0,000 mm 0,0 UV-I 60 W/m² 10,3 °C 13,7 °C 3,2 km/h (1 Bft)
15.05.2017 19:57 13,8 °C 13,8 °C 80 % 1028,3 hPa 0,0 mm 0,0 km/h (0 Bft) O 101 ° 0 min 0,000 mm 0,0 UV-I 53 W/m² 10,4 °C 13,8 °C 0,0 km/h (0 Bft)
15.05.2017 19:58 13,8 °C 13,8 °C 79 % 1028,3 hPa 0,0 mm 0,0 km/h (0 Bft) O 101 ° 0 min 0,000 mm 0,0 UV-I 49 W/m² 10,2 °C 13,8 °C 0,0 km/h (0 Bft)
15.05.2017 19:59 13,8 °C 13,8 °C 79 % 1028,4 hPa 0,0 mm 0,0 km/h (0 Bft) O 101 ° 0 min 0,000 mm 0,0 UV-I 49 W/m² 10,2 °C 13,8 °C 0,0 km/h (0 Bft)
15.05.2017 20:00 13,7 °C 13,8 °C 80 % 1028,4 hPa 0,0 mm 0,0 km/h (0 Bft) O 101 ° 0 min 0,051 mm 0,0 UV-I 47 W/m² 10,3 °C 13,7 °C 0,0 km/h (0 Bft)
15.05.2017 20:01 13,6 °C 13,7 °C 81 % 1028,4 hPa 0,0 mm 0,0 km/h (0 Bft) O 101 ° 0 min 0,000 mm 0,0 UV-I 44 W/m² 10,4 °C 13,6 °C 0,0 km/h (0 Bft)
15.05.2017 20:02 13,5 °C 13,6 °C 82 % 1028,3 hPa 0,0 mm 0,0 km/h (0 Bft) O 101 ° 0 min 0,000 mm 0,0 UV-I 40 W/m² 10,5 °C 13,5 °C 0,0 km/h (0 Bft)
15.05.2017 20:03 13,4 °C 13,5 °C 82 % 1028,4 hPa 0,0 mm 2,5 km/h (1 Bft) O 101 ° 0 min 0,000 mm 0,0 UV-I 39 W/m² 10,4 °C 13,4 °C 3,2 km/h (1 Bft)
15.05.2017 20:04 13,3 °C 13,4 °C 83 % 1028,3 hPa 0,0 mm 2,1 km/h (1 Bft) O 101 ° 0 min 0,000 mm 0,0 UV-I 35 W/m² 10,5 °C 13,3 °C 3,2 km/h (1 Bft)
15.05.2017 20:05 13,2 °C 13,3 °C 84 % 1028,3 hPa 0,0 mm 2,1 km/h (1 Bft) O 101 ° 0 min 0,000 mm 0,0 UV-I 35 W/m² 10,6 °C 13,2 °C 3,2 km/h (1 Bft)
15.05.2017 20:06 13,1 °C 13,2 °C 84 % 1028,4 hPa 0,0 mm 1,4 km/h (1 Bft) O 101 ° 0 min 0,000 mm 0,0 UV-I 33 W/m² 10,5 °C 13,1 °C 3,2 km/h (1 Bft)
15.05.2017 20:07 13,1 °C 13,1 °C 85 % 1028,4 hPa 0,0 mm 1,2 km/h (1 Bft) O 101 ° 0 min 0,000 mm 0,0 UV-I 33 W/m² 10,6 °C 13,1 °C 1,6 km/h (1 Bft)
15.05.2017 20:08 13,0 °C 13,1 °C 85 % 1028,4 hPa 0,0 mm 0,0 km/h (0 Bft) O 101 ° 0 min 0,000 mm 0,0 UV-I 33 W/m² 10,5 °C 13,0 °C 0,0 km/h (0 Bft)
15.05.2017 20:09 12,9 °C 13,0 °C 85 % 1028,4 hPa 0,0 mm 0,2 km/h (0 Bft) O 101 ° 0 min 0,000 mm 0,0 UV-I 35 W/m² 10,4 °C 12,9 °C 1,6 km/h (1 Bft)
15.05.2017 20:10 12,9 °C 12,9 °C 85 % 1028,4 hPa 0,0 mm 2,3 km/h (1 Bft) O 101 ° 0 min 0,000 mm 0,0 UV-I 33 W/m² 10,4 °C 12,9 °C 3,2 km/h (1 Bft)
15.05.2017 20:11 12,9 °C 12,9 °C 85 % 1028,4 hPa 0,0 mm 1,1 km/h (1 Bft) O 101 ° 0 min 0,000 mm 0,0 UV-I 32 W/m² 10,4 °C 12,9 °C 1,6 km/h (1 Bft)
15.05.2017 20:12 12,9 °C 12,9 °C 84 % 1028,4 hPa 0,0 mm 0,7 km/h (0 Bft) O 101 ° 0 min 0,000 mm 0,0 UV-I 32 W/m² 10,3 °C 12,9 °C 1,6 km/h (1 Bft)
15.05.2017 20:13 12,8 °C 12,9 °C 85 % 1028,4 hPa 0,0 mm 1,1 km/h (1 Bft) O 101 ° 0 min 0,000 mm 0,0 UV-I 30 W/m² 10,3 °C 12,8 °C 1,6 km/h (1 Bft)
15.05.2017 20:14 12,7 °C 12,8 °C 85 % 1028,4 hPa 0,0 mm 0,5 km/h (0 Bft) O 101 ° 0 min 0,000 mm 0,0 UV-I 30 W/m² 10,2 °C 12,7 °C 1,6 km/h (1 Bft)
15.05.2017 20:15 12,7 °C 12,7 °C 85 % 1028,5 hPa 0,0 mm 0,1 km/h (0 Bft) O 101 ° 0 min 0,000 mm 0,0 UV-I 30 W/m² 10,2 °C 12,7 °C 1,6 km/h (1 Bft)
15.05.2017 20:16 12,6 °C 12,7 °C 85 % 1028,5 hPa 0,0 mm 0,0 km/h (0 Bft) O 101 ° 0 min 0,000 mm 0,0 UV-I 26 W/m² 10,1 °C 12,6 °C 0,0 km/h (0 Bft)
15.05.2017 20:17 12,6 °C 12,7 °C 85 % 1028,5 hPa 0,0 mm 0,0 km/h (0 Bft) O 101 ° 0 min 0,000 mm 0,0 UV-I 25 W/m² 10,1 °C 12,6 °C 0,0 km/h (0 Bft)
15.05.2017 20:18 12,6 °C 12,6 °C 85 % 1028,5 hPa 0,0 mm 0,5 km/h (0 Bft) O 101 ° 0 min 0,000 mm 0,0 UV-I 23 W/m² 10,1 °C 12,6 °C 1,6 km/h (1 Bft)
15.05.2017 20:19 12,6 °C 12,7 °C 85 % 1028,5 hPa 0,0 mm 0,0 km/h (0 Bft) O 101 ° 0 min 0,000 mm 0,0 UV-I 21 W/m² 10,1 °C 12,6 °C 0,0 km/h (0 Bft)
15.05.2017 20:20 12,6 °C 12,6 °C 85 % 1028,5 hPa 0,0 mm 0,0 km/h (0 Bft) O 101 ° 0 min 0,000 mm 0,0 UV-I 21 W/m² 10,1 °C 12,6 °C 0,0 km/h (0 Bft)
15.05.2017 20:21 12,7 °C 12,7 °C 85 % 1028,5 hPa 0,0 mm 0,0 km/h (0 Bft) O 101 ° 0 min 0,000 mm 0,0 UV-I 21 W/m² 10,2 °C 12,7 °C 0,0 km/h (0 Bft)
15.05.2017 20:22 12,7 °C 12,7 °C 85 % 1028,5 hPa 0,0 mm 0,0 km/h (0 Bft) O 101 ° 0 min 0,000 mm 0,0 UV-I 21 W/m² 10,2 °C 12,7 °C 0,0 km/h (0 Bft)
15.05.2017 20:23 12,6 °C 12,7 °C 86 % 1028,5 hPa 0,0 mm 0,0 km/h (0 Bft) O 101 ° 0 min 0,000 mm 0,0 UV-I 21 W/m² 10,3 °C 12,6 °C 0,0 km/h (0 Bft)
15.05.2017 20:24 12,6 °C 12,6 °C 86 % 1028,5 hPa 0,0 mm 0,0 km/h (0 Bft) O 101 ° 0 min 0,000 mm 0,0 UV-I 21 W/m² 10,3 °C 12,6 °C 0,0 km/h (0 Bft)
15.05.2017 20:25 12,4 °C 12,6 °C 86 % 1028,6 hPa 0,0 mm 1,4 km/h (1 Bft) O 101 ° 0 min 0,000 mm 0,0 UV-I 21 W/m² 10,1 °C 12,4 °C 1,6 km/h (1 Bft)
15.05.2017 20:26 12,4 °C 12,4 °C 86 % 1028,6 hPa 0,0 mm 1,5 km/h (1 Bft) O 101 ° 0 min 0,000 mm 0,0 UV-I 19 W/m² 10,1 °C 12,4 °C 1,6 km/h (1 Bft)
15.05.2017 20:27 12,3 °C 12,4 °C 86 % 1028,6 hPa 0,0 mm 2,4 km/h (1 Bft) O 101 ° 0 min 0,000 mm 0,0 UV-I 18 W/m² 10,0 °C 12,3 °C 3,2 km/h (1 Bft)
15.05.2017 20:28 12,3 °C 12,3 °C 87 % 1028,6 hPa 0,0 mm 0,9 km/h (0 Bft) O 101 ° 0 min 0,000 mm 0,0 UV-I 18 W/m² 10,2 °C 12,3 °C 3,2 km/h (1 Bft)
15.05.2017 20:29 12,2 °C 12,3 °C 87 % 1028,6 hPa 0,0 mm 2,4 km/h (1 Bft) S 169 ° 0 min 0,000 mm 0,0 UV-I 18 W/m² 10,1 °C 12,2 °C 8,0 km/h (2 Bft)
15.05.2017 20:30 12,2 °C 12,2 °C 87 % 1028,6 hPa 0,0 mm 1,7 km/h (1 Bft) S 171 ° 0 min 0,000 mm 0,0 UV-I 16 W/m² 10,1 °C 12,2 °C 6,4 km/h (2 Bft)
15.05.2017 20:31 12,1 °C 12,2 °C 87 % 1028,6 hPa 0,0 mm 1,0 km/h (0 Bft) S 171 ° 0 min 0,000 mm 0,0 UV-I 16 W/m² 10,0 °C 12,1 °C 3,2 km/h (1 Bft)
15.05.2017 20:32 12,1 °C 12,1 °C 87 % 1028,6 hPa 0,0 mm 2,1 km/h (1 Bft) O 95 ° 0 min 0,000 mm 0,0 UV-I 14 W/m² 10,0 °C 12,1 °C 3,2 km/h (1 Bft)
15.05.2017 20:33 11,9 °C 12,1 °C 88 % 1028,6 hPa 0,0 mm 2,6 km/h (1 Bft) O 95 ° 0 min 0,000 mm 0,0 UV-I 14 W/m² 10,0 °C 11,9 °C 3,2 km/h (1 Bft)
15.05.2017 20:34 11,9 °C 11,9 °C 88 % 1028,6 hPa 0,0 mm 5,5 km/h (1 Bft) O 90 ° 0 min 0,000 mm 0,0 UV-I 12 W/m² 10,0 °C 11,9 °C 9,7 km/h (2 Bft)
15.05.2017 20:35 11,8 °C 11,9 °C 88 % 1028,6 hPa 0,0 mm 4,2 km/h (1 Bft) O 85 ° 0 min 0,000 mm 0,0 UV-I 12 W/m² 9,9 °C 11,8 °C 6,4 km/h (2 Bft)
15.05.2017 20:36 11,8 °C 11,8 °C 88 % 1028,6 hPa 0,0 mm 2,9 km/h (1 Bft) O 85 ° 0 min 0,000 mm 0,0 UV-I 11 W/m² 9,9 °C 11,8 °C 3,2 km/h (1 Bft)
15.05.2017 20:37 11,7 °C 11,8 °C 89 % 1028,6 hPa 0,0 mm 2,5 km/h (1 Bft) O 86 ° 0 min 0,000 mm 0,0 UV-I 11 W/m² 9,9 °C 11,7 °C 4,8 km/h (1 Bft)
15.05.2017 20:38 11,7 °C 11,7 °C 89 % 1028,6 hPa 0,0 mm 1,5 km/h (1 Bft) O 86 ° 0 min 0,000 mm 0,0 UV-I 9 W/m² 9,9 °C 11,7 °C 3,2 km/h (1 Bft)
15.05.2017 20:39 11,6 °C 11,7 °C 88 % 1028,7 hPa 0,0 mm 0,6 km/h (0 Bft) O 86 ° 0 min 0,000 mm 0,0 UV-I 9 W/m² 9,7 °C 11,6 °C 3,2 km/h (1 Bft)
15.05.2017 20:40 11,6 °C 11,6 °C 88 % 1028,7 hPa 0,0 mm 0,9 km/h (0 Bft) O 86 ° 0 min 0,000 mm 0,0 UV-I 7 W/m² 9,7 °C 11,6 °C 3,2 km/h (1 Bft)
15.05.2017 20:41 11,5 °C 11,6 °C 88 % 1028,7 hPa 0,0 mm 0,0 km/h (0 Bft) O 86 ° 0 min 0,000 mm 0,0 UV-I 7 W/m² 9,6 °C 11,5 °C 0,0 km/h (0 Bft)
15.05.2017 20:42 11,5 °C 11,5 °C 89 % 1028,7 hPa 0,0 mm 0,0 km/h (0 Bft) O 86 ° 0 min 0,000 mm 0,0 UV-I 7 W/m² 9,8 °C 11,5 °C 0,0 km/h (0 Bft)
15.05.2017 20:43 11,5 °C 11,5 °C 89 % 1028,7 hPa 0,0 mm 0,0 km/h (0 Bft) O 86 ° 0 min 0,000 mm 0,0 UV-I 7 W/m² 9,8 °C 11,5 °C 0,0 km/h (0 Bft)
15.05.2017 20:44 11,4 °C 11,5 °C 89 % 1028,8 hPa 0,0 mm 0,0 km/h (0 Bft) O 86 ° 0 min 0,000 mm 0,0 UV-I 5 W/m² 9,7 °C 11,4 °C 0,0 km/h (0 Bft)
15.05.2017 20:45 11,4 °C 11,4 °C 89 % 1028,7 hPa 0,0 mm 0,0 km/h (0 Bft) O 86 ° 0 min 0,000 mm 0,0 UV-I 5 W/m² 9,7 °C 11,4 °C 0,0 km/h (0 Bft)
15.05.2017 20:46 11,4 °C 11,4 °C 88 % 1028,7 hPa 0,0 mm 0,0 km/h (0 Bft) O 86 ° 0 min 0,000 mm 0,0 UV-I 0 W/m² 9,5 °C 11,4 °C 0,0 km/h (0 Bft)
15.05.2017 20:47 11,3 °C 11,4 °C 89 % 1028,7 hPa 0,0 mm 0,0 km/h (0 Bft) O 86 ° 0 min 0,000 mm 0,0 UV-I 0 W/m² 9,6 °C 11,3 °C 0,0 km/h (0 Bft)
15.05.2017 20:48 11,3 °C 11,3 °C 89 % 1028,8 hPa 0,0 mm 0,0 km/h (0 Bft) O 86 ° 0 min 0,000 mm 0,0 UV-I 0 W/m² 9,6 °C 11,3 °C 0,0 km/h (0 Bft)
15.05.2017 20:49 11,3 °C 11,3 °C 88 % 1028,7 hPa 0,0 mm 0,0 km/h (0 Bft) O 86 ° 0 min 0,000 mm 0,0 UV-I 0 W/m² 9,4 °C 11,3 °C 0,0 km/h (0 Bft)
15.05.2017 20:50 11,2 °C 11,3 °C 89 % 1028,7 hPa 0,0 mm 0,0 km/h (0 Bft) O 86 ° 0 min 0,000 mm 0,0 UV-I 0 W/m² 9,5 °C 11,2 °C 0,0 km/h (0 Bft)
15.05.2017 20:51 11,2 °C 11,3 °C 89 % 1028,7 hPa 0,0 mm 0,0 km/h (0 Bft) O 86 ° 0 min 0,000 mm 0,0 UV-I 0 W/m² 9,5 °C 11,2 °C 0,0 km/h (0 Bft)
15.05.2017 20:52 11,2 °C 11,3 °C 89 % 1028,7 hPa 0,0 mm 0,0 km/h (0 Bft) O 86 ° 0 min 0,000 mm 0,0 UV-I 0 W/m² 9,5 °C 11,2 °C 0,0 km/h (0 Bft)
15.05.2017 20:53 11,1 °C 11,2 °C 89 % 1028,8 hPa 0,0 mm 0,0 km/h (0 Bft) O 86 ° 0 min 0,000 mm 0,0 UV-I 0 W/m² 9,4 °C 11,1 °C 0,0 km/h (0 Bft)
15.05.2017 20:54 11,1 °C 11,1 °C 88 % 1028,8 hPa 0,0 mm 0,0 km/h (0 Bft) O 86 ° 0 min 0,000 mm 0,0 UV-I 0 W/m² 9,2 °C 11,1 °C 0,0 km/h (0 Bft)
15.05.2017 20:55 10,9 °C 11,1 °C 88 % 1028,8 hPa 0,0 mm 0,6 km/h (0 Bft) O 86 ° 0 min 0,000 mm 0,0 UV-I 0 W/m² 9,0 °C 10,9 °C 1,6 km/h (1 Bft)
15.05.2017 20:56 10,8 °C 10,9 °C 88 % 1028,9 hPa 0,0 mm 1,3 km/h (1 Bft) O 86 ° 0 min 0,000 mm 0,0 UV-I 0 W/m² 8,9 °C 10,8 °C 1,6 km/h (1 Bft)
15.05.2017 20:57 10,8 °C 10,8 °C 89 % 1028,9 hPa 0,0 mm 0,0 km/h (0 Bft) O 86 ° 0 min 0,000 mm 0,0 UV-I 0 W/m² 9,1 °C 10,8 °C 0,0 km/h (0 Bft)
15.05.2017 20:58 10,7 °C 10,8 °C 89 % 1028,9 hPa 0,0 mm 0,0 km/h (0 Bft) O 86 ° 0 min 0,000 mm 0,0 UV-I 0 W/m² 9,0 °C 10,7 °C 0,0 km/h (0 Bft)
15.05.2017 20:59 10,7 °C 10,7 °C 89 % 1028,9 hPa 0,0 mm 1,0 km/h (0 Bft) O 86 ° 0 min 0,000 mm 0,0 UV-I 0 W/m² 9,0 °C 10,7 °C 1,6 km/h (1 Bft)
15.05.2017 21:00 10,8 °C 10,8 °C 90 % 1028,9 hPa 0,0 mm 0,3 km/h (0 Bft) O 86 ° 0 min 0,000 mm 0,0 UV-I 0 W/m² 9,2 °C 10,8 °C 1,6 km/h (1 Bft)
15.05.2017 21:01 10,8 °C 10,8 °C 90 % 1028,9 hPa 0,0 mm 0,5 km/h (0 Bft) O 86 ° 0 min 0,000 mm 0,0 UV-I 0 W/m² 9,2 °C 10,8 °C 1,6 km/h (1 Bft)
15.05.2017 21:02 10,8 °C 10,8 °C 90 % 1028,9 hPa 0,0 mm 0,4 km/h (0 Bft) O 86 ° 0 min 0,000 mm 0,0 UV-I 0 W/m² 9,2 °C 10,8 °C 1,6 km/h (1 Bft)
15.05.2017 21:03 10,8 °C 10,8 °C 90 % 1029,0 hPa 0,0 mm 1,3 km/h (1 Bft) O 86 ° 0 min 0,000 mm 0,0 UV-I 0 W/m² 9,2 °C 10,8 °C 3,2 km/h (1 Bft)
15.05.2017 21:04 10,7 °C 10,8 °C 90 % 1029,0 hPa 0,0 mm 2,9 km/h (1 Bft) O 86 ° 0 min 0,000 mm 0,0 UV-I 0 W/m² 9,1 °C 10,7 °C 3,2 km/h (1 Bft)
15.05.2017 21:05 10,7 °C 10,8 °C 89 % 1029,0 hPa 0,0 mm 3,5 km/h (1 Bft) SO 130 ° 0 min 0,000 mm 0,0 UV-I 0 W/m² 9,0 °C 10,7 °C 4,8 km/h (1 Bft)
15.05.2017 21:06 10,7 °C 10,7 °C 89 % 1029,0 hPa 0,0 mm 1,7 km/h (1 Bft) SO 130 ° 0 min 0,000 mm 0,0 UV-I 0 W/m² 9,0 °C 10,7 °C 4,8 km/h (1 Bft)
15.05.2017 21:07 10,6 °C 10,7 °C 90 % 1029,0 hPa 0,0 mm 2,7 km/h (1 Bft) SO 130 ° 0 min 0,000 mm 0,0 UV-I 0 W/m² 9,0 °C 10,6 °C 3,2 km/h (1 Bft)
15.05.2017 21:08 10,6 °C 10,6 °C 89 % 1029,0 hPa 0,0 mm 1,2 km/h (1 Bft) SO 130 ° 0 min 0,000 mm 0,0 UV-I 0 W/m² 8,9 °C 10,6 °C 1,6 km/h (1 Bft)
15.05.2017 21:09 10,6 °C 10,6 °C 90 % 1029,1 hPa 0,0 mm 1,2 km/h (1 Bft) SO 130 ° 0 min 0,000 mm 0,0 UV-I 0 W/m² 9,0 °C 10,6 °C 1,6 km/h (1 Bft)
15.05.2017 21:10 10,6 °C 10,6 °C 90 % 1029,1 hPa 0,0 mm 0,5 km/h (0 Bft) SO 130 ° 0 min 0,000 mm 0,0 UV-I 0 W/m² 9,0 °C 10,6 °C 1,6 km/h (1 Bft)
15.05.2017 21:11 10,5 °C 10,6 °C 90 % 1029,1 hPa 0,0 mm 0,5 km/h (0 Bft) SO 130 ° 0 min 0,000 mm 0,0 UV-I 0 W/m² 8,9 °C 10,5 °C 1,6 km/h (1 Bft)
15.05.2017 21:12 10,6 °C 10,6 °C 90 % 1029,1 hPa 0,0 mm 0,4 km/h (0 Bft) SO 130 ° 0 min 0,000 mm 0,0 UV-I 0 W/m² 9,0 °C 10,6 °C 1,6 km/h (1 Bft)
15.05.2017 21:13 10,4 °C 10,6 °C 90 % 1029,1 hPa 0,0 mm 0,0 km/h (0 Bft) SO 130 ° 0 min 0,000 mm 0,0 UV-I 0 W/m² 8,8 °C 10,4 °C 0,0 km/h (0 Bft)
15.05.2017 21:14 10,4 °C 10,4 °C 90 % 1029,1 hPa 0,0 mm 0,0 km/h (0 Bft) SO 130 ° 0 min 0,000 mm 0,0 UV-I 0 W/m² 8,8 °C 10,4 °C 0,0 km/h (0 Bft)
15.05.2017 21:15 10,2 °C 10,4 °C 90 % 1029,1 hPa 0,0 mm 0,2 km/h (0 Bft) SO 130 ° 0 min 0,000 mm 0,0 UV-I 0 W/m² 8,6 °C 10,2 °C 1,6 km/h (1 Bft)
15.05.2017 21:16 10,1 °C 10,2 °C 89 % 1029,1 hPa 0,0 mm 0,0 km/h (0 Bft) SO 130 ° 0 min 0,000 mm 0,0 UV-I 0 W/m² 8,4 °C 10,1 °C 0,0 km/h (0 Bft)
15.05.2017 21:17 9,9 °C 10,1 °C 89 % 1029,1 hPa 0,0 mm 0,0 km/h (0 Bft) SO 130 ° 0 min 0,000 mm 0,0 UV-I 0 W/m² 8,2 °C 9,9 °C 0,0 km/h (0 Bft)
15.05.2017 21:18 9,8 °C 9,9 °C 91 % 1029,1 hPa 0,0 mm 0,0 km/h (0 Bft) SO 130 ° 0 min 0,000 mm 0,0 UV-I 0 W/m² 8,4 °C 9,8 °C 0,0 km/h (0 Bft)
15.05.2017 21:19 9,8 °C 9,8 °C 91 % 1029,1 hPa 0,0 mm 0,0 km/h (0 Bft) SO 130 ° 0 min 0,000 mm 0,0 UV-I 0 W/m² 8,4 °C 9,8 °C 0,0 km/h (0 Bft)
15.05.2017 21:20 9,7 °C 9,8 °C 91 % 1029,1 hPa 0,0 mm 0,0 km/h (0 Bft) SO 130 ° 0 min 0,000 mm 0,0 UV-I 0 W/m² 8,3 °C 9,7 °C 0,0 km/h (0 Bft)
15.05.2017 21:21 9,7 °C 9,7 °C 91 % 1029,2 hPa 0,0 mm 0,0 km/h (0 Bft) SO 130 ° 0 min 0,000 mm 0,0 UV-I 0 W/m² 8,3 °C 9,7 °C 0,0 km/h (0 Bft)
15.05.2017 21:22 9,7 °C 9,7 °C 92 % 1029,2 hPa 0,0 mm 0,0 km/h (0 Bft) SO 130 ° 0 min 0,000 mm 0,0 UV-I 0 W/m² 8,5 °C 9,7 °C 0,0 km/h (0 Bft)
15.05.2017 21:23 9,7 °C 9,7 °C 92 % 1029,2 hPa 0,0 mm 0,0 km/h (0 Bft) SO 130 ° 0 min 0,000 mm 0,0 UV-I 0 W/m² 8,5 °C 9,7 °C 0,0 km/h (0 Bft)
15.05.2017 21:24 9,7 °C 9,7 °C 92 % 1029,2 hPa 0,0 mm 0,3 km/h (0 Bft) SO 130 ° 0 min 0,000 mm 0,0 UV-I 0 W/m² 8,5 °C 9,7 °C 1,6 km/h (1 Bft)
15.05.2017 21:25 9,7 °C 9,7 °C 92 % 1029,2 hPa 0,0 mm 1,3 km/h (1 Bft) SO 130 ° 0 min 0,000 mm 0,0 UV-I 0 W/m² 8,5 °C 9,7 °C 3,2 km/h (1 Bft)
15.05.2017 21:26 9,7 °C 9,7 °C 92 % 1029,3 hPa 0,0 mm 2,8 km/h (1 Bft) SO 130 ° 0 min 0,000 mm 0,0 UV-I 0 W/m² 8,5 °C 9,7 °C 3,2 km/h (1 Bft)
15.05.2017 21:27 9,7 °C 9,7 °C 91 % 1029,2 hPa 0,0 mm 0,0 km/h (0 Bft) SO 130 ° 0 min 0,000 mm 0,0 UV-I 0 W/m² 8,3 °C 9,7 °C 0,0 km/h (0 Bft)
15.05.2017 21:28 9,7 °C 9,7 °C 92 % 1029,2 hPa 0,0 mm 1,5 km/h (1 Bft) SO 130 ° 0 min 0,000 mm 0,0 UV-I 0 W/m² 8,5 °C 9,7 °C 3,2 km/h (1 Bft)
15.05.2017 21:29 9,8 °C 9,8 °C 92 % 1029,3 hPa 0,0 mm 1,9 km/h (1 Bft) SO 130 ° 0 min 0,000 mm 0,0 UV-I 0 W/m² 8,6 °C 9,8 °C 3,2 km/h (1 Bft)
15.05.2017 21:30 9,8 °C 9,8 °C 92 % 1029,3 hPa 0,0 mm 2,5 km/h (1 Bft) SO 130 ° 0 min 0,000 mm 0,0 UV-I 0 W/m² 8,6 °C 9,8 °C 4,8 km/h (1 Bft)
15.05.2017 21:31 9,7 °C 9,8 °C 92 % 1029,3 hPa 0,0 mm 2,9 km/h (1 Bft) SO 132 ° 0 min 0,000 mm 0,0 UV-I 0 W/m² 8,5 °C 9,7 °C 4,8 km/h (1 Bft)
15.05.2017 21:32 9,7 °C 9,7 °C 92 % 1029,3 hPa 0,0 mm 1,1 km/h (1 Bft) SO 132 ° 0 min 0,000 mm 0,0 UV-I 0 W/m² 8,5 °C 9,7 °C 3,2 km/h (1 Bft)
15.05.2017 21:33 9,6 °C 9,7 °C 92 % 1029,3 hPa 0,0 mm 0,9 km/h (0 Bft) SO 134 ° 0 min 0,000 mm 0,0 UV-I 0 W/m² 8,4 °C 9,6 °C 1,6 km/h (1 Bft)
15.05.2017 21:34 9,6 °C 9,6 °C 92 % 1029,3 hPa 0,0 mm 2,0 km/h (1 Bft) SO 134 ° 0 min 0,000 mm 0,0 UV-I 0 W/m² 8,4 °C 9,6 °C 3,2 km/h (1 Bft)
15.05.2017 21:35 9,6 °C 9,6 °C 91 % 1029,3 hPa 0,0 mm 2,1 km/h (1 Bft) SO 134 ° 0 min 0,000 mm 0,0 UV-I 0 W/m² 8,2 °C 9,6 °C 3,2 km/h (1 Bft)
15.05.2017 21:36 9,4 °C 9,6 °C 91 % 1029,2 hPa 0,0 mm 1,3 km/h (1 Bft) SO 134 ° 0 min 0,000 mm 0,0 UV-I 0 W/m² 8,0 °C 9,4 °C 1,6 km/h (1 Bft)
15.05.2017 21:37 9,3 °C 9,4 °C 92 % 1029,3 hPa 0,0 mm 0,0 km/h (0 Bft) SO 134 ° 0 min 0,000 mm 0,0 UV-I 0 W/m² 8,1 °C 9,3 °C 0,0 km/h (0 Bft)
15.05.2017 21:38 9,3 °C 9,3 °C 91 % 1029,2 hPa 0,0 mm 0,0 km/h (0 Bft) SO 134 ° 0 min 0,000 mm 0,0 UV-I 0 W/m² 7,9 °C 9,3 °C 0,0 km/h (0 Bft)
15.05.2017 21:40 9,4 °C 9,4 °C 93 % 1029,3 hPa 0,0 mm 0,0 km/h (0 Bft) SO 134 ° 0 min 0,000 mm 0,0 UV-I 0 W/m² 8,3 °C 9,4 °C 0,0 km/h (0 Bft)
15.05.2017 21:41 9,6 °C 9,6 °C 93 % 1029,3 hPa 0,0 mm 0,0 km/h (0 Bft) SO 134 ° 0 min 0,000 mm 0,0 UV-I 0 W/m² 8,5 °C 9,6 °C 0,0 km/h (0 Bft)
15.05.2017 21:42 9,6 °C 9,6 °C 93 % 1029,3 hPa 0,0 mm 0,0 km/h (0 Bft) SO 134 ° 0 min 0,000 mm 0,0 UV-I 0 W/m² 8,5 °C 9,6 °C 0,0 km/h (0 Bft)
15.05.2017 21:43 9,6 °C 9,6 °C 92 % 1029,4 hPa 0,0 mm 0,0 km/h (0 Bft) SO 134 ° 0 min 0,000 mm 0,0 UV-I 0 W/m² 8,4 °C 9,6 °C 0,0 km/h (0 Bft)
15.05.2017 21:44 9,4 °C 9,6 °C 92 % 1029,4 hPa 0,0 mm 0,0 km/h (0 Bft) SO 134 ° 0 min 0,000 mm 0,0 UV-I 0 W/m² 8,2 °C 9,4 °C 0,0 km/h (0 Bft)
15.05.2017 21:45 9,4 °C 9,4 °C 92 % 1029,3 hPa 0,0 mm 0,0 km/h (0 Bft) SO 134 ° 0 min 0,000 mm 0,0 UV-I 0 W/m² 8,2 °C 9,4 °C 0,0 km/h (0 Bft)
15.05.2017 21:46 9,3 °C 9,4 °C 92 % 1029,3 hPa 0,0 mm 0,0 km/h (0 Bft) SO 134 ° 0 min 0,000 mm 0,0 UV-I 0 W/m² 8,1 °C 9,3 °C 0,0 km/h (0 Bft)
15.05.2017 21:47 9,3 °C 9,3 °C 92 % 1029,3 hPa 0,0 mm 0,0 km/h (0 Bft) SO 134 ° 0 min 0,000 mm 0,0 UV-I 0 W/m² 8,1 °C 9,3 °C 0,0 km/h (0 Bft)
15.05.2017 21:48 9,3 °C 9,3 °C 92 % 1029,3 hPa 0,0 mm 0,0 km/h (0 Bft) SO 134 ° 0 min 0,000 mm 0,0 UV-I 0 W/m² 8,1 °C 9,3 °C 0,0 km/h (0 Bft)
15.05.2017 21:49 9,2 °C 9,3 °C 92 % 1029,3 hPa 0,0 mm 0,0 km/h (0 Bft) SO 134 ° 0 min 0,000 mm 0,0 UV-I 0 W/m² 8,0 °C 9,2 °C 0,0 km/h (0 Bft)
15.05.2017 21:50 9,1 °C 9,2 °C 92 % 1029,4 hPa 0,0 mm 0,0 km/h (0 Bft) SO 134 ° 0 min 0,000 mm 0,0 UV-I 0 W/m² 7,9 °C 9,1 °C 0,0 km/h (0 Bft)
15.05.2017 21:51 9,1 °C 9,1 °C 92 % 1029,4 hPa 0,0 mm 0,0 km/h (0 Bft) SO 134 ° 0 min 0,000 mm 0,0 UV-I 0 W/m² 7,9 °C 9,1 °C 0,0 km/h (0 Bft)
15.05.2017 21:52 9,1 °C 9,1 °C 92 % 1029,3 hPa 0,0 mm 0,0 km/h (0 Bft) SO 134 ° 0 min 0,000 mm 0,0 UV-I 0 W/m² 7,9 °C 9,1 °C 0,0 km/h (0 Bft)
15.05.2017 21:53 9,1 °C 9,1 °C 93 % 1029,4 hPa 0,0 mm 0,0 km/h (0 Bft) SO 134 ° 0 min 0,000 mm 0,0 UV-I 0 W/m² 8,0 °C 9,1 °C 0,0 km/h (0 Bft)
15.05.2017 21:54 9,1 °C 9,1 °C 93 % 1029,3 hPa 0,0 mm 0,0 km/h (0 Bft) SO 134 ° 0 min 0,000 mm 0,0 UV-I 0 W/m² 8,0 °C 9,1 °C 0,0 km/h (0 Bft)
15.05.2017 21:55 9,1 °C 9,1 °C 93 % 1029,3 hPa 0,0 mm 0,0 km/h (0 Bft) SO 134 ° 0 min 0,000 mm 0,0 UV-I 0 W/m² 8,0 °C 9,1 °C 0,0 km/h (0 Bft)
15.05.2017 21:56 9,1 °C 9,1 °C 93 % 1029,4 hPa 0,0 mm 0,0 km/h (0 Bft) SO 134 ° 0 min 0,000 mm 0,0 UV-I 0 W/m² 8,0 °C 9,1 °C 0,0 km/h (0 Bft)
15.05.2017 21:57 9,2 °C 9,2 °C 93 % 1029,3 hPa 0,0 mm 0,0 km/h (0 Bft) SO 134 ° 0 min 0,000 mm 0,0 UV-I 0 W/m² 8,1 °C 9,2 °C 0,0 km/h (0 Bft)
15.05.2017 21:58 9,2 °C 9,2 °C 93 % 1029,3 hPa 0,0 mm 0,0 km/h (0 Bft) SO 134 ° 0 min 0,000 mm 0,0 UV-I 0 W/m² 8,1 °C 9,2 °C 0,0 km/h (0 Bft)
15.05.2017 21:59 9,2 °C 9,2 °C 93 % 1029,4 hPa 0,0 mm 0,0 km/h (0 Bft) SO 134 ° 0 min 0,000 mm 0,0 UV-I 0 W/m² 8,1 °C 9,2 °C 0,0 km/h (0 Bft)
15.05.2017 22:00 9,2 °C 9,2 °C 93 % 1029,4 hPa 0,0 mm 0,0 km/h (0 Bft) SO 134 ° 0 min 0,000 mm 0,0 UV-I 0 W/m² 8,1 °C 9,2 °C 0,0 km/h (0 Bft)
15.05.2017 22:01 9,2 °C 9,2 °C 93 % 1029,4 hPa 0,0 mm 0,0 km/h (0 Bft) SO 134 ° 0 min 0,000 mm 0,0 UV-I 0 W/m² 8,1 °C 9,2 °C 0,0 km/h (0 Bft)
15.05.2017 22:02 9,2 °C 9,2 °C 93 % 1029,4 hPa 0,0 mm 0,0 km/h (0 Bft) SO 134 ° 0 min 0,000 mm 0,0 UV-I 0 W/m² 8,1 °C 9,2 °C 0,0 km/h (0 Bft)
15.05.2017 22:03 9,3 °C 9,3 °C 93 % 1029,4 hPa 0,0 mm 0,0 km/h (0 Bft) SO 134 ° 0 min 0,000 mm 0,0 UV-I 0 W/m² 8,2 °C 9,3 °C 0,0 km/h (0 Bft)
15.05.2017 22:04 9,2 °C 9,3 °C 93 % 1029,4 hPa 0,0 mm 0,0 km/h (0 Bft) SO 134 ° 0 min 0,000 mm 0,0 UV-I 0 W/m² 8,1 °C 9,2 °C 0,0 km/h (0 Bft)
15.05.2017 22:05 9,3 °C 9,3 °C 93 % 1029,4 hPa 0,0 mm 0,0 km/h (0 Bft) SO 134 ° 0 min 0,000 mm 0,0 UV-I 0 W/m² 8,2 °C 9,3 °C 0,0 km/h (0 Bft)
15.05.2017 22:06 9,3 °C 9,3 °C 93 % 1029,4 hPa 0,0 mm 0,0 km/h (0 Bft) SO 134 ° 0 min 0,000 mm 0,0 UV-I 0 W/m² 8,2 °C 9,3 °C 0,0 km/h (0 Bft)
15.05.2017 22:07 9,3 °C 9,3 °C 93 % 1029,4 hPa 0,0 mm 0,0 km/h (0 Bft) SO 134 ° 0 min 0,000 mm 0,0 UV-I 0 W/m² 8,2 °C 9,3 °C 0,0 km/h (0 Bft)
15.05.2017 22:08 9,3 °C 9,3 °C 93 % 1029,4 hPa 0,0 mm 0,0 km/h (0 Bft) SO 134 ° 0 min 0,000 mm 0,0 UV-I 0 W/m² 8,2 °C 9,3 °C 0,0 km/h (0 Bft)
15.05.2017 22:09 9,3 °C 9,3 °C 93 % 1029,3 hPa 0,0 mm 0,0 km/h (0 Bft) SO 134 ° 0 min 0,000 mm 0,0 UV-I 0 W/m² 8,2 °C 9,3 °C 0,0 km/h (0 Bft)
15.05.2017 22:10 9,3 °C 9,3 °C 93 % 1029,3 hPa 0,0 mm 0,0 km/h (0 Bft) SO 134 ° 0 min 0,000 mm 0,0 UV-I 0 W/m² 8,2 °C 9,3 °C 0,0 km/h (0 Bft)
15.05.2017 22:11 9,3 °C 9,3 °C 93 % 1029,4 hPa 0,0 mm 0,0 km/h (0 Bft) SO 134 ° 0 min 0,000 mm 0,0 UV-I 0 W/m² 8,2 °C 9,3 °C 0,0 km/h (0 Bft)
15.05.2017 22:12 9,2 °C 9,3 °C 93 % 1029,4 hPa 0,0 mm 0,0 km/h (0 Bft) SO 134 ° 0 min 0,000 mm 0,0 UV-I 0 W/m² 8,1 °C 9,2 °C 0,0 km/h (0 Bft)
15.05.2017 22:13 9,2 °C 9,2 °C 93 % 1029,4 hPa 0,0 mm 0,0 km/h (0 Bft) SO 134 ° 0 min 0,000 mm 0,0 UV-I 0 W/m² 8,1 °C 9,2 °C 0,0 km/h (0 Bft)
15.05.2017 22:14 9,1 °C 9,2 °C 92 % 1029,4 hPa 0,0 mm 0,0 km/h (0 Bft) SO 134 ° 0 min 0,000 mm 0,0 UV-I 0 W/m² 7,9 °C 9,1 °C 0,0 km/h (0 Bft)
15.05.2017 22:15 9,1 °C 9,1 °C 93 % 1029,5 hPa 0,0 mm 0,0 km/h (0 Bft) SO 134 ° 0 min 0,000 mm 0,0 UV-I 0 W/m² 8,0 °C 9,1 °C 0,0 km/h (0 Bft)
15.05.2017 22:16 9,1 °C 9,1 °C 93 % 1029,4 hPa 0,0 mm 0,0 km/h (0 Bft) SO 134 ° 0 min 0,000 mm 0,0 UV-I 0 W/m² 8,0 °C 9,1 °C 0,0 km/h (0 Bft)
15.05.2017 22:17 9,1 °C 9,1 °C 93 % 1029,5 hPa 0,0 mm 0,0 km/h (0 Bft) SO 134 ° 0 min 0,000 mm 0,0 UV-I 0 W/m² 8,0 °C 9,1 °C 0,0 km/h (0 Bft)
15.05.2017 22:18 9,0 °C 9,1 °C 93 % 1029,4 hPa 0,0 mm 0,0 km/h (0 Bft) SO 134 ° 0 min 0,000 mm 0,0 UV-I 0 W/m² 7,9 °C 9,0 °C 0,0 km/h (0 Bft)
15.05.2017 22:19 9,0 °C 9,0 °C 93 % 1029,4 hPa 0,0 mm 0,0 km/h (0 Bft) SO 134 ° 0 min 0,000 mm 0,0 UV-I 0 W/m² 7,9 °C 9,0 °C 0,0 km/h (0 Bft)
15.05.2017 22:20 9,0 °C 9,0 °C 93 % 1029,4 hPa 0,0 mm 0,0 km/h (0 Bft) SO 134 ° 0 min 0,000 mm 0,0 UV-I 0 W/m² 7,9 °C 9,0 °C 0,0 km/h (0 Bft)
15.05.2017 22:21 9,0 °C 9,0 °C 93 % 1029,3 hPa 0,0 mm 0,0 km/h (0 Bft) SO 134 ° 0 min 0,000 mm 0,0 UV-I 0 W/m² 7,9 °C 9,0 °C 0,0 km/h (0 Bft)
15.05.2017 22:22 8,9 °C 9,0 °C 93 % 1029,3 hPa 0,0 mm 0,0 km/h (0 Bft) SO 134 ° 0 min 0,000 mm 0,0 UV-I 0 W/m² 7,8 °C 8,9 °C 0,0 km/h (0 Bft)
15.05.2017 22:23 8,9 °C 8,9 °C 93 % 1029,4 hPa 0,0 mm 0,0 km/h (0 Bft) SO 134 ° 0 min 0,000 mm 0,0 UV-I 0 W/m² 7,8 °C 8,9 °C 0,0 km/h (0 Bft)
15.05.2017 22:24 8,8 °C 8,9 °C 93 % 1029,4 hPa 0,0 mm 0,0 km/h (0 Bft) SO 134 ° 0 min 0,000 mm 0,0 UV-I 0 W/m² 7,7 °C 8,8 °C 0,0 km/h (0 Bft)
15.05.2017 22:25 8,8 °C 8,8 °C 93 % 1029,4 hPa 0,0 mm 0,0 km/h (0 Bft) SO 134 ° 0 min 0,000 mm 0,0 UV-I 0 W/m² 7,7 °C 8,8 °C 0,0 km/h (0 Bft)
15.05.2017 22:26 8,8 °C 8,8 °C 93 % 1029,5 hPa 0,0 mm 0,0 km/h (0 Bft) SO 134 ° 0 min 0,000 mm 0,0 UV-I 0 W/m² 7,7 °C 8,8 °C 0,0 km/h (0 Bft)
15.05.2017 22:27 8,7 °C 8,8 °C 92 % 1029,5 hPa 0,0 mm 0,0 km/h (0 Bft) SO 134 ° 0 min 0,000 mm 0,0 UV-I 0 W/m² 7,5 °C 8,7 °C 0,0 km/h (0 Bft)
15.05.2017 22:29 8,8 °C 8,8 °C 93 % 1029,5 hPa 0,0 mm 0,0 km/h (0 Bft) SO 134 ° 0 min 0,000 mm 0,0 UV-I 0 W/m² 7,7 °C 8,8 °C 0,0 km/h (0 Bft)
15.05.2017 22:30 8,8 °C 8,8 °C 93 % 1029,5 hPa 0,0 mm 0,0 km/h (0 Bft) SO 134 ° 0 min 0,000 mm 0,0 UV-I 0 W/m² 7,7 °C 8,8 °C 0,0 km/h (0 Bft)
15.05.2017 22:31 8,8 °C 8,8 °C 93 % 1029,4 hPa 0,0 mm 0,0 km/h (0 Bft) SO 134 ° 0 min 0,000 mm 0,0 UV-I 0 W/m² 7,7 °C 8,8 °C 0,0 km/h (0 Bft)
15.05.2017 22:32 8,8 °C 8,8 °C 93 % 1029,4 hPa 0,0 mm 0,0 km/h (0 Bft) SO 134 ° 0 min 0,000 mm 0,0 UV-I 0 W/m² 7,7 °C 8,8 °C 0,0 km/h (0 Bft)
15.05.2017 22:33 8,8 °C 8,8 °C 93 % 1029,4 hPa 0,0 mm 0,0 km/h (0 Bft) SO 134 ° 0 min 0,000 mm 0,0 UV-I 0 W/m² 7,7 °C 8,8 °C 0,0 km/h (0 Bft)
15.05.2017 22:34 8,8 °C 8,8 °C 93 % 1029,4 hPa 0,0 mm 0,0 km/h (0 Bft) SO 134 ° 0 min 0,000 mm 0,0 UV-I 0 W/m² 7,7 °C 8,8 °C 0,0 km/h (0 Bft)
15.05.2017 22:35 8,8 °C 8,8 °C 93 % 1029,3 hPa 0,0 mm 0,0 km/h (0 Bft) SO 134 ° 0 min 0,000 mm 0,0 UV-I 0 W/m² 7,7 °C 8,8 °C 0,0 km/h (0 Bft)
15.05.2017 22:36 8,7 °C 8,8 °C 93 % 1029,4 hPa 0,0 mm 0,0 km/h (0 Bft) SO 134 ° 0 min 0,000 mm 0,0 UV-I 0 W/m² 7,6 °C 8,7 °C 0,0 km/h (0 Bft)
15.05.2017 22:37 8,7 °C 8,7 °C 93 % 1029,3 hPa 0,0 mm 0,0 km/h (0 Bft) SO 134 ° 0 min 0,000 mm 0,0 UV-I 0 W/m² 7,6 °C 8,7 °C 0,0 km/h (0 Bft)
15.05.2017 22:38 8,6 °C 8,7 °C 93 % 1029,3 hPa 0,0 mm 0,0 km/h (0 Bft) SO 134 ° 0 min 0,000 mm 0,0 UV-I 0 W/m² 7,5 °C 8,6 °C 0,0 km/h (0 Bft)
15.05.2017 22:39 8,6 °C 8,6 °C 93 % 1029,3 hPa 0,0 mm 0,0 km/h (0 Bft) SO 134 ° 0 min 0,000 mm 0,0 UV-I 0 W/m² 7,5 °C 8,6 °C 0,0 km/h (0 Bft)
15.05.2017 22:40 8,6 °C 8,6 °C 93 % 1029,3 hPa 0,0 mm 0,0 km/h (0 Bft) SO 134 ° 0 min 0,000 mm 0,0 UV-I 0 W/m² 7,5 °C 8,6 °C 0,0 km/h (0 Bft)
15.05.2017 22:41 8,5 °C 8,6 °C 93 % 1029,3 hPa 0,0 mm 0,0 km/h (0 Bft) SO 134 ° 0 min 0,000 mm 0,0 UV-I 0 W/m² 7,4 °C 8,5 °C 0,0 km/h (0 Bft)
15.05.2017 22:42 8,4 °C 8,5 °C 93 % 1029,3 hPa 0,0 mm 0,0 km/h (0 Bft) SO 134 ° 0 min 0,000 mm 0,0 UV-I 0 W/m² 7,3 °C 8,4 °C 0,0 km/h (0 Bft)
15.05.2017 22:43 8,4 °C 8,4 °C 93 % 1029,4 hPa 0,0 mm 0,0 km/h (0 Bft) SO 134 ° 0 min 0,000 mm 0,0 UV-I 0 W/m² 7,3 °C 8,4 °C 0,0 km/h (0 Bft)
15.05.2017 22:44 8,3 °C 8,4 °C 93 % 1029,3 hPa 0,0 mm 0,0 km/h (0 Bft) SO 134 ° 0 min 0,000 mm 0,0 UV-I 0 W/m² 7,2 °C 8,3 °C 0,0 km/h (0 Bft)
15.05.2017 22:45 8,3 °C 8,3 °C 93 % 1029,3 hPa 0,0 mm 0,0 km/h (0 Bft) SO 134 ° 0 min 0,000 mm 0,0 UV-I 0 W/m² 7,2 °C 8,3 °C 0,0 km/h (0 Bft)
15.05.2017 22:46 8,3 °C 8,3 °C 93 % 1029,3 hPa 0,0 mm 0,0 km/h (0 Bft) SO 134 ° 0 min 0,000 mm 0,0 UV-I 0 W/m² 7,2 °C 8,3 °C 0,0 km/h (0 Bft)
15.05.2017 22:47 8,2 °C 8,3 °C 93 % 1029,3 hPa 0,0 mm 0,0 km/h (0 Bft) SO 134 ° 0 min 0,000 mm 0,0 UV-I 0 W/m² 7,1 °C 8,2 °C 0,0 km/h (0 Bft)
15.05.2017 22:48 8,2 °C 8,2 °C 93 % 1029,3 hPa 0,0 mm 0,0 km/h (0 Bft) SO 134 ° 0 min 0,000 mm 0,0 UV-I 0 W/m² 7,1 °C 8,2 °C 0,0 km/h (0 Bft)
15.05.2017 22:49 8,2 °C 8,2 °C 93 % 1029,3 hPa 0,0 mm 0,0 km/h (0 Bft) SO 134 ° 0 min 0,000 mm 0,0 UV-I 0 W/m² 7,1 °C 8,2 °C 0,0 km/h (0 Bft)
15.05.2017 22:50 8,2 °C 8,2 °C 93 % 1029,3 hPa 0,0 mm 0,0 km/h (0 Bft) SO 134 ° 0 min 0,000 mm 0,0 UV-I 0 W/m² 7,1 °C 8,2 °C 0,0 km/h (0 Bft)
15.05.2017 22:51 8,2 °C 8,2 °C 93 % 1029,3 hPa 0,0 mm 0,0 km/h (0 Bft) SO 134 ° 0 min 0,000 mm 0,0 UV-I 0 W/m² 7,1 °C 8,2 °C 0,0 km/h (0 Bft)
15.05.2017 22:52 8,2 °C 8,2 °C 93 % 1029,3 hPa 0,0 mm 0,0 km/h (0 Bft) SO 134 ° 0 min 0,000 mm 0,0 UV-I 0 W/m² 7,1 °C 8,2 °C 0,0 km/h (0 Bft)
15.05.2017 22:53 8,2 °C 8,2 °C 94 % 1029,3 hPa 0,0 mm 0,0 km/h (0 Bft) SO 134 ° 0 min 0,000 mm 0,0 UV-I 0 W/m² 7,3 °C 8,2 °C 0,0 km/h (0 Bft)
15.05.2017 22:54 8,2 °C 8,2 °C 94 % 1029,3 hPa 0,0 mm 0,0 km/h (0 Bft) SO 134 ° 0 min 0,000 mm 0,0 UV-I 0 W/m² 7,3 °C 8,2 °C 0,0 km/h (0 Bft)
15.05.2017 22:55 8,2 °C 8,2 °C 94 % 1029,3 hPa 0,0 mm 0,0 km/h (0 Bft) SO 134 ° 0 min 0,000 mm 0,0 UV-I 0 W/m² 7,3 °C 8,2 °C 0,0 km/h (0 Bft)
15.05.2017 22:56 8,2 °C 8,2 °C 93 % 1029,3 hPa 0,0 mm 0,0 km/h (0 Bft) SO 134 ° 0 min 0,000 mm 0,0 UV-I 0 W/m² 7,1 °C 8,2 °C 0,0 km/h (0 Bft)
15.05.2017 22:57 8,1 °C 8,2 °C 93 % 1029,3 hPa 0,0 mm 0,0 km/h (0 Bft) SO 134 ° 0 min 0,000 mm 0,0 UV-I 0 W/m² 7,0 °C 8,1 °C 0,0 km/h (0 Bft)
15.05.2017 22:58 8,1 °C 8,2 °C 93 % 1029,3 hPa 0,0 mm 0,0 km/h (0 Bft) SO 134 ° 0 min 0,000 mm 0,0 UV-I 0 W/m² 7,0 °C 8,1 °C 0,0 km/h (0 Bft)
15.05.2017 22:59 8,1 °C 8,1 °C 93 % 1029,3 hPa 0,0 mm 0,0 km/h (0 Bft) SO 134 ° 0 min 0,000 mm 0,0 UV-I 0 W/m² 7,0 °C 8,1 °C 0,0 km/h (0 Bft)
15.05.2017 23:00 8,1 °C 8,1 °C 93 % 1029,3 hPa 0,0 mm 0,0 km/h (0 Bft) SO 134 ° 0 min 0,000 mm 0,0 UV-I 0 W/m² 7,0 °C 8,1 °C 0,0 km/h (0 Bft)
15.05.2017 23:01 8,1 °C 8,1 °C 93 % 1029,3 hPa 0,0 mm 0,0 km/h (0 Bft) SO 134 ° 0 min 0,000 mm 0,0 UV-I 0 W/m² 7,0 °C 8,1 °C 0,0 km/h (0 Bft)
15.05.2017 23:02 8,0 °C 8,1 °C 93 % 1029,3 hPa 0,0 mm 0,0 km/h (0 Bft) SO 134 ° 0 min 0,000 mm 0,0 UV-I 0 W/m² 6,9 °C 8,0 °C 0,0 km/h (0 Bft)
15.05.2017 23:03 7,9 °C 8,0 °C 93 % 1029,3 hPa 0,0 mm 0,0 km/h (0 Bft) SO 134 ° 0 min 0,000 mm 0,0 UV-I 0 W/m² 6,8 °C 7,9 °C 0,0 km/h (0 Bft)
15.05.2017 23:04 7,9 °C 7,9 °C 93 % 1029,3 hPa 0,0 mm 0,0 km/h (0 Bft) SO 134 ° 0 min 0,000 mm 0,0 UV-I 0 W/m² 6,8 °C 7,9 °C 0,0 km/h (0 Bft)
15.05.2017 23:05 8,0 °C 8,0 °C 94 % 1029,3 hPa 0,0 mm 0,0 km/h (0 Bft) SO 134 ° 0 min 0,000 mm 0,0 UV-I 0 W/m² 7,1 °C 8,0 °C 0,0 km/h (0 Bft)
15.05.2017 23:06 8,1 °C 8,1 °C 94 % 1029,3 hPa 0,0 mm 0,0 km/h (0 Bft) SO 134 ° 0 min 0,000 mm 0,0 UV-I 0 W/m² 7,2 °C 8,1 °C 0,0 km/h (0 Bft)
15.05.2017 23:07 8,2 °C 8,2 °C 94 % 1029,3 hPa 0,0 mm 0,0 km/h (0 Bft) SO 134 ° 0 min 0,000 mm 0,0 UV-I 0 W/m² 7,3 °C 8,2 °C 0,0 km/h (0 Bft)
15.05.2017 23:08 8,3 °C 8,3 °C 94 % 1029,3 hPa 0,0 mm 0,0 km/h (0 Bft) SO 134 ° 0 min 0,000 mm 0,0 UV-I 0 W/m² 7,4 °C 8,3 °C 0,0 km/h (0 Bft)
15.05.2017 23:09 8,3 °C 8,3 °C 94 % 1029,3 hPa 0,0 mm 0,6 km/h (0 Bft) SO 134 ° 0 min 0,000 mm 0,0 UV-I 0 W/m² 7,4 °C 8,3 °C 1,6 km/h (1 Bft)
15.05.2017 23:10 8,3 °C 8,3 °C 93 % 1029,3 hPa 0,0 mm 0,0 km/h (0 Bft) SO 134 ° 0 min 0,000 mm 0,0 UV-I 0 W/m² 7,2 °C 8,3 °C 0,0 km/h (0 Bft)
15.05.2017 23:11 8,3 °C 8,3 °C 93 % 1029,4 hPa 0,0 mm 0,0 km/h (0 Bft) SO 134 ° 0 min 0,000 mm 0,0 UV-I 0 W/m² 7,2 °C 8,3 °C 0,0 km/h (0 Bft)
15.05.2017 23:12 8,4 °C 8,4 °C 93 % 1029,4 hPa 0,0 mm 0,0 km/h (0 Bft) SO 134 ° 0 min 0,000 mm 0,0 UV-I 0 W/m² 7,3 °C 8,4 °C 0,0 km/h (0 Bft)
15.05.2017 23:13 8,4 °C 8,4 °C 93 % 1029,3 hPa 0,0 mm 0,0 km/h (0 Bft) SO 134 ° 0 min 0,000 mm 0,0 UV-I 0 W/m² 7,3 °C 8,4 °C 0,0 km/h (0 Bft)
15.05.2017 23:14 8,4 °C 8,4 °C 93 % 1029,3 hPa 0,0 mm 0,0 km/h (0 Bft) SO 134 ° 0 min 0,000 mm 0,0 UV-I 0 W/m² 7,3 °C 8,4 °C 0,0 km/h (0 Bft)
15.05.2017 23:15 8,4 °C 8,4 °C 93 % 1029,3 hPa 0,0 mm 0,0 km/h (0 Bft) SO 134 ° 0 min 0,000 mm 0,0 UV-I 0 W/m² 7,3 °C 8,4 °C 0,0 km/h (0 Bft)
15.05.2017 23:16 8,3 °C 8,4 °C 93 % 1029,3 hPa 0,0 mm 0,0 km/h (0 Bft) SO 134 ° 0 min 0,000 mm 0,0 UV-I 0 W/m² 7,2 °C 8,3 °C 0,0 km/h (0 Bft)
15.05.2017 23:17 8,3 °C 8,3 °C 93 % 1029,3 hPa 0,0 mm 0,0 km/h (0 Bft) SO 134 ° 0 min 0,000 mm 0,0 UV-I 0 W/m² 7,2 °C 8,3 °C 0,0 km/h (0 Bft)
15.05.2017 23:18 8,3 °C 8,3 °C 93 % 1029,3 hPa 0,0 mm 0,0 km/h (0 Bft) SO 134 ° 0 min 0,000 mm 0,0 UV-I 0 W/m² 7,2 °C 8,3 °C 0,0 km/h (0 Bft)
15.05.2017 23:19 8,4 °C 8,4 °C 93 % 1029,3 hPa 0,0 mm 0,0 km/h (0 Bft) SO 134 ° 0 min 0,000 mm 0,0 UV-I 0 W/m² 7,3 °C 8,4 °C 0,0 km/h (0 Bft)
15.05.2017 23:20 8,3 °C 8,4 °C 93 % 1029,3 hPa 0,0 mm 0,0 km/h (0 Bft) SO 134 ° 0 min 0,000 mm 0,0 UV-I 0 W/m² 7,2 °C 8,3 °C 0,0 km/h (0 Bft)
15.05.2017 23:21 8,3 °C 8,3 °C 93 % 1029,3 hPa 0,0 mm 0,0 km/h (0 Bft) SO 134 ° 0 min 0,000 mm 0,0 UV-I 0 W/m² 7,2 °C 8,3 °C 0,0 km/h (0 Bft)
15.05.2017 23:22 8,2 °C 8,3 °C 93 % 1029,4 hPa 0,0 mm 0,0 km/h (0 Bft) SO 134 ° 0 min 0,000 mm 0,0 UV-I 0 W/m² 7,1 °C 8,2 °C 0,0 km/h (0 Bft)
15.05.2017 23:23 8,1 °C 8,2 °C 93 % 1029,3 hPa 0,0 mm 0,0 km/h (0 Bft) SO 134 ° 0 min 0,000 mm 0,0 UV-I 0 W/m² 7,0 °C 8,1 °C 0,0 km/h (0 Bft)
15.05.2017 23:24 8,1 °C 8,2 °C 93 % 1029,3 hPa 0,0 mm 0,0 km/h (0 Bft) SO 134 ° 0 min 0,000 mm 0,0 UV-I 0 W/m² 7,0 °C 8,1 °C 0,0 km/h (0 Bft)
15.05.2017 23:25 8,1 °C 8,1 °C 93 % 1029,3 hPa 0,0 mm 0,0 km/h (0 Bft) SO 134 ° 0 min 0,000 mm 0,0 UV-I 0 W/m² 7,0 °C 8,1 °C 0,0 km/h (0 Bft)
15.05.2017 23:26 8,0 °C 8,1 °C 93 % 1029,3 hPa 0,0 mm 0,0 km/h (0 Bft) SO 134 ° 0 min 0,000 mm 0,0 UV-I 0 W/m² 6,9 °C 8,0 °C 0,0 km/h (0 Bft)
15.05.2017 23:27 7,9 °C 8,0 °C 93 % 1029,4 hPa 0,0 mm 0,0 km/h (0 Bft) SO 134 ° 0 min 0,000 mm 0,0 UV-I 0 W/m² 6,8 °C 7,9 °C 0,0 km/h (0 Bft)
15.05.2017 23:28 7,9 °C 7,9 °C 93 % 1029,4 hPa 0,0 mm 0,0 km/h (0 Bft) SO 134 ° 0 min 0,000 mm 0,0 UV-I 0 W/m² 6,8 °C 7,9 °C 0,0 km/h (0 Bft)
15.05.2017 23:29 7,9 °C 7,9 °C 93 % 1029,4 hPa 0,0 mm 0,0 km/h (0 Bft) SO 134 ° 0 min 0,000 mm 0,0 UV-I 0 W/m² 6,8 °C 7,9 °C 0,0 km/h (0 Bft)
15.05.2017 23:30 7,9 °C 7,9 °C 93 % 1029,4 hPa 0,0 mm 0,0 km/h (0 Bft) SO 134 ° 0 min 0,000 mm 0,0 UV-I 0 W/m² 6,8 °C 7,9 °C 0,0 km/h (0 Bft)
15.05.2017 23:31 8,0 °C 8,0 °C 93 % 1029,4 hPa 0,0 mm 0,0 km/h (0 Bft) SO 134 ° 0 min 0,000 mm 0,0 UV-I 0 W/m² 6,9 °C 8,0 °C 0,0 km/h (0 Bft)
15.05.2017 23:32 8,1 °C 8,1 °C 94 % 1029,4 hPa 0,0 mm 0,0 km/h (0 Bft) SO 134 ° 0 min 0,000 mm 0,0 UV-I 0 W/m² 7,2 °C 8,1 °C 0,0 km/h (0 Bft)
15.05.2017 23:33 7,9 °C 8,1 °C 93 % 1029,5 hPa 0,0 mm 0,0 km/h (0 Bft) SO 134 ° 0 min 0,000 mm 0,0 UV-I 0 W/m² 6,8 °C 7,9 °C 0,0 km/h (0 Bft)
15.05.2017 23:34 7,8 °C 7,9 °C 93 % 1029,4 hPa 0,0 mm 0,0 km/h (0 Bft) SO 134 ° 0 min 0,000 mm 0,0 UV-I 0 W/m² 6,7 °C 7,8 °C 0,0 km/h (0 Bft)
15.05.2017 23:35 7,8 °C 7,8 °C 93 % 1029,5 hPa 0,0 mm 0,0 km/h (0 Bft) SO 134 ° 0 min 0,000 mm 0,0 UV-I 0 W/m² 6,7 °C 7,8 °C 0,0 km/h (0 Bft)
15.05.2017 23:36 7,7 °C 7,8 °C 93 % 1029,5 hPa 0,0 mm 0,0 km/h (0 Bft) SO 134 ° 0 min 0,000 mm 0,0 UV-I 0 W/m² 6,6 °C 7,7 °C 0,0 km/h (0 Bft)
15.05.2017 23:37 7,7 °C 7,7 °C 93 % 1029,5 hPa 0,0 mm 0,0 km/h (0 Bft) SO 134 ° 0 min 0,000 mm 0,0 UV-I 0 W/m² 6,6 °C 7,7 °C 0,0 km/h (0 Bft)
15.05.2017 23:38 7,7 °C 7,7 °C 93 % 1029,5 hPa 0,0 mm 0,0 km/h (0 Bft) SO 134 ° 0 min 0,000 mm 0,0 UV-I 0 W/m² 6,6 °C 7,7 °C 0,0 km/h (0 Bft)
15.05.2017 23:39 7,7 °C 7,7 °C 93 % 1029,5 hPa 0,0 mm 0,0 km/h (0 Bft) SO 134 ° 0 min 0,000 mm 0,0 UV-I 0 W/m² 6,6 °C 7,7 °C 0,0 km/h (0 Bft)
15.05.2017 23:40 7,8 °C 7,8 °C 94 % 1029,5 hPa 0,0 mm 0,0 km/h (0 Bft) SO 134 ° 0 min 0,000 mm 0,0 UV-I 0 W/m² 6,9 °C 7,8 °C 0,0 km/h (0 Bft)
15.05.2017 23:41 7,9 °C 7,9 °C 94 % 1029,5 hPa 0,0 mm 0,0 km/h (0 Bft) SO 134 ° 0 min 0,000 mm 0,0 UV-I 0 W/m² 7,0 °C 7,9 °C 0,0 km/h (0 Bft)
15.05.2017 23:42 7,9 °C 7,9 °C 94 % 1029,5 hPa 0,0 mm 0,0 km/h (0 Bft) SO 134 ° 0 min 0,000 mm 0,0 UV-I 0 W/m² 7,0 °C 7,9 °C 0,0 km/h (0 Bft)
15.05.2017 23:43 7,9 °C 7,9 °C 93 % 1029,5 hPa 0,0 mm 0,0 km/h (0 Bft) SO 134 ° 0 min 0,000 mm 0,0 UV-I 0 W/m² 6,8 °C 7,9 °C 0,0 km/h (0 Bft)
15.05.2017 23:44 7,8 °C 7,9 °C 93 % 1029,5 hPa 0,0 mm 0,0 km/h (0 Bft) SO 134 ° 0 min 0,000 mm 0,0 UV-I 0 W/m² 6,7 °C 7,8 °C 0,0 km/h (0 Bft)
15.05.2017 23:45 7,8 °C 7,9 °C 93 % 1029,5 hPa 0,0 mm 0,0 km/h (0 Bft) SO 134 ° 0 min 0,000 mm 0,0 UV-I 0 W/m² 6,7 °C 7,8 °C 0,0 km/h (0 Bft)
15.05.2017 23:46 7,9 °C 7,9 °C 93 % 1029,5 hPa 0,0 mm 0,0 km/h (0 Bft) SO 134 ° 0 min 0,000 mm 0,0 UV-I 0 W/m² 6,8 °C 7,9 °C 0,0 km/h (0 Bft)
15.05.2017 23:47 7,8 °C 7,9 °C 93 % 1029,5 hPa 0,0 mm 0,0 km/h (0 Bft) SO 134 ° 0 min 0,000 mm 0,0 UV-I 0 W/m² 6,7 °C 7,8 °C 0,0 km/h (0 Bft)
15.05.2017 23:48 7,9 °C 7,9 °C 93 % 1029,5 hPa 0,0 mm 0,0 km/h (0 Bft) SO 134 ° 0 min 0,000 mm 0,0 UV-I 0 W/m² 6,8 °C 7,9 °C 0,0 km/h (0 Bft)
15.05.2017 23:49 7,9 °C 7,9 °C 93 % 1029,5 hPa 0,0 mm 0,0 km/h (0 Bft) SO 134 ° 0 min 0,000 mm 0,0 UV-I 0 W/m² 6,8 °C 7,9 °C 0,0 km/h (0 Bft)
15.05.2017 23:50 7,9 °C 7,9 °C 93 % 1029,4 hPa 0,0 mm 0,0 km/h (0 Bft) SO 134 ° 0 min 0,000 mm 0,0 UV-I 0 W/m² 6,8 °C 7,9 °C 0,0 km/h (0 Bft)
15.05.2017 23:51 7,9 °C 7,9 °C 93 % 1029,5 hPa 0,0 mm 0,0 km/h (0 Bft) SO 134 ° 0 min 0,000 mm 0,0 UV-I 0 W/m² 6,8 °C 7,9 °C 0,0 km/h (0 Bft)
15.05.2017 23:52 7,9 °C 7,9 °C 93 % 1029,5 hPa 0,0 mm 0,0 km/h (0 Bft) SO 134 ° 0 min 0,000 mm 0,0 UV-I 0 W/m² 6,8 °C 7,9 °C 0,0 km/h (0 Bft)
15.05.2017 23:53 7,8 °C 7,9 °C 93 % 1029,5 hPa 0,0 mm 0,0 km/h (0 Bft) SO 134 ° 0 min 0,000 mm 0,0 UV-I 0 W/m² 6,7 °C 7,8 °C 0,0 km/h (0 Bft)
15.05.2017 23:54 7,8 °C 7,8 °C 93 % 1029,5 hPa 0,0 mm 0,0 km/h (0 Bft) SO 134 ° 0 min 0,000 mm 0,0 UV-I 0 W/m² 6,7 °C 7,8 °C 0,0 km/h (0 Bft)
15.05.2017 23:55 7,8 °C 7,8 °C 93 % 1029,5 hPa 0,0 mm 0,0 km/h (0 Bft) SO 134 ° 0 min 0,000 mm 0,0 UV-I 0 W/m² 6,7 °C 7,8 °C 0,0 km/h (0 Bft)
15.05.2017 23:56 7,8 °C 7,8 °C 93 % 1029,5 hPa 0,0 mm 0,0 km/h (0 Bft) SO 134 ° 0 min 0,000 mm 0,0 UV-I 0 W/m² 6,7 °C 7,8 °C 0,0 km/h (0 Bft)
15.05.2017 23:57 7,8 °C 7,8 °C 93 % 1029,5 hPa 0,0 mm 0,0 km/h (0 Bft) SO 134 ° 0 min 0,000 mm 0,0 UV-I 0 W/m² 6,7 °C 7,8 °C 0,0 km/h (0 Bft)
15.05.2017 23:58 7,8 °C 7,8 °C 93 % 1029,5 hPa 0,0 mm 0,0 km/h (0 Bft) SO 134 ° 0 min 0,000 mm 0,0 UV-I 0 W/m² 6,7 °C 7,8 °C 0,0 km/h (0 Bft)
15.05.2017 23:59 7,8 °C 7,8 °C 93 % 1029,5 hPa 0,0 mm 0,0 km/h (0 Bft) SO 134 ° 0 min 0,000 mm 0,0 UV-I 0 W/m² 6,7 °C 7,8 °C 0,0 km/h (0 Bft)
_ Min-Zeit 05:27 23:39 18:19 00:01 - 23:59 - - - - - - 23:39 23:39 23:59
Minimum _ 7,6 °C 7,7 °C 62 % 1025,2 hPa - 0,0 km/h (0 Bft) - - - - - - 6,6 °C 7,7 °C 0,0 km/h (0 Bft)
_ Max-Zeit 11:12 11:12 06:40 23:59 16:05 12:16 - - 16:58 11:01 13:38 11:06 11:06 11:12 12:16
Maximum _ 16,3 °C 16,3 °C 96 % 1029,5 hPa 0,2 mm 17,5 km/h
W-SW (3 Bft)
- - 1 min 0,304 mm 7,1 UV-I 1090 W/m² 12,1 °C 16,2 °C 25,7 km/h
W-SW (4 Bft)
Durchschnitt _ 11,5 °C 11,5 °C 87 % 1027,7 hPa #1,2 mm 1,8 km/h (1 Bft) W - #3:06 h #1,778 mm 2,1 UV-I 140 W/m² 9,3 °C 11,5 °C 3,2 km/h (1 Bft)